<?xml version='1.0' encoding='UTF-8'?><gpx version="1.1" creator="JPX - https://github.com/jenetics/jpx" xmlns="http://www.topografix.com/GPX/1/1"><trk><trkseg><trkpt lat="57.99600734397668" lon="56.33847179284162"><ele>167.0</ele><time>2026-05-01T06:40:03Z</time></trkpt><trkpt lat="57.9959719369115" lon="56.338268585504586"><ele>167.0</ele><time>2026-05-01T06:40:05Z</time></trkpt><trkpt lat="57.995971083483" lon="56.3381199417069"><ele>167.0</ele><time>2026-05-01T06:40:06Z</time></trkpt><trkpt lat="57.995928928730855" lon="56.33796219167444"><ele>167.0</ele><time>2026-05-01T06:40:08Z</time></trkpt><trkpt lat="57.99585127787884" lon="56.33799971208935"><ele>167.0</ele><time>2026-05-01T06:40:09.999Z</time></trkpt><trkpt lat="57.99579632488282" lon="56.33812011941781"><ele>167.16666666666666</ele><time>2026-05-01T06:40:11.999Z</time></trkpt><trkpt lat="57.99570467975713" lon="56.338156195001645"><ele>167.33333333333331</ele><time>2026-05-01T06:40:12.999Z</time></trkpt><trkpt lat="57.99563302237359" lon="56.33814929974884"><ele>167.5</ele><time>2026-05-01T06:40:13.999Z</time></trkpt><trkpt lat="57.99551680459842" lon="56.338173929022226"><ele>167.66666666666666</ele><time>2026-05-01T06:40:14.999Z</time></trkpt><trkpt lat="57.99543880532886" lon="56.33817042068852"><ele>167.83333333333334</ele><time>2026-05-01T06:40:15.999Z</time></trkpt><trkpt lat="57.99537719883007" lon="56.33812900308222"><ele>168.0</ele><time>2026-05-01T06:40:17.999Z</time></trkpt><trkpt lat="57.99541195484983" lon="56.338230916849376"><ele>168.0</ele><time>2026-05-01T06:44:48.999Z</time></trkpt><trkpt lat="57.99550031558052" lon="56.338191522092316"><ele>168.0</ele><time>2026-05-01T06:44:56.999Z</time></trkpt><trkpt lat="57.995584266611665" lon="56.338170119182564"><ele>168.0</ele><time>2026-05-01T06:44:58.999Z</time></trkpt><trkpt lat="57.99569664416861" lon="56.33814989087912"><ele>168.0</ele><time>2026-05-01T06:45:00.999Z</time></trkpt><trkpt lat="57.995788800795545" lon="56.33808229562853"><ele>168.0</ele><time>2026-05-01T06:45:02.999Z</time></trkpt><trkpt lat="57.99587079443469" lon="56.33802024624988"><ele>168.0</ele><time>2026-05-01T06:45:04.999Z</time></trkpt><trkpt lat="57.995945222881126" lon="56.33796078884855"><ele>168.0</ele><time>2026-05-01T06:45:07.999Z</time></trkpt><trkpt lat="57.995974430072586" lon="56.3381213912691"><ele>168.0</ele><time>2026-05-01T06:45:09.999Z</time></trkpt><trkpt lat="57.99596452451451" lon="56.33826273008324"><ele>168.0</ele><time>2026-05-01T06:45:11.998Z</time></trkpt><trkpt lat="57.995978185866186" lon="56.33839723827392"><ele>168.0</ele><time>2026-05-01T06:45:14.998Z</time></trkpt><trkpt lat="57.99599088018049" lon="56.338523089494586"><ele>168.0</ele><time>2026-05-01T06:45:18.998Z</time></trkpt><trkpt lat="57.99605753111574" lon="56.33852502096916"><ele>168.0</ele><time>2026-05-01T06:45:24.998Z</time></trkpt><trkpt lat="57.99602313052828" lon="56.33841468412286"><ele>168.0</ele><time>2026-05-01T06:45:26.998Z</time></trkpt><trkpt lat="57.995998788602755" lon="56.338274450673566"><ele>168.0</ele><time>2026-05-01T06:45:28.998Z</time></trkpt><trkpt lat="57.99597799403018" lon="56.3380906545381"><ele>168.0</ele><time>2026-05-01T06:45:31Z</time></trkpt><trkpt lat="57.99596291919111" lon="56.33796111423115"><ele>168.0</ele><time>2026-05-01T06:45:32Z</time></trkpt><trkpt lat="57.99594933455816" lon="56.33782093714741"><ele>168.0</ele><time>2026-05-01T06:45:33Z</time></trkpt><trkpt lat="57.99593816950877" lon="56.33766443067503"><ele>168.0</ele><time>2026-05-01T06:45:34Z</time></trkpt><trkpt lat="57.995935275137036" lon="56.3375363982259"><ele>168.0</ele><time>2026-05-01T06:45:35Z</time></trkpt><trkpt lat="57.99591290286608" lon="56.33742016463422"><ele>168.0</ele><time>2026-05-01T06:45:37Z</time></trkpt><trkpt lat="57.99584356746443" lon="56.33734037799192"><ele>168.0</ele><time>2026-05-01T06:45:39Z</time></trkpt><trkpt lat="57.99573678068842" lon="56.337379061903874"><ele>168.0</ele><time>2026-05-01T06:45:41Z</time></trkpt><trkpt lat="57.99562320366979" lon="56.33742958780797"><ele>168.0</ele><time>2026-05-01T06:45:43Z</time></trkpt><trkpt lat="57.9955096588826" lon="56.33743807337841"><ele>168.25</ele><time>2026-05-01T06:45:44Z</time></trkpt><trkpt lat="57.99537502611265" lon="56.337448083896454"><ele>168.5</ele><time>2026-05-01T06:45:45Z</time></trkpt><trkpt lat="57.99523066806422" lon="56.33740255922467"><ele>168.75</ele><time>2026-05-01T06:45:46Z</time></trkpt><trkpt lat="57.99511205998389" lon="56.337424834284974"><ele>169.0</ele><time>2026-05-01T06:45:47Z</time></trkpt><trkpt lat="57.9950137659658" lon="56.337508824583786"><ele>169.25</ele><time>2026-05-01T06:45:48Z</time></trkpt><trkpt lat="57.99491090466452" lon="56.337461961278684"><ele>169.5</ele><time>2026-05-01T06:45:49Z</time></trkpt><trkpt lat="57.99479848808974" lon="56.33748274464121"><ele>169.75</ele><time>2026-05-01T06:45:50Z</time></trkpt><trkpt lat="57.994666085473355" lon="56.33749540069897"><ele>170.0</ele><time>2026-05-01T06:45:51Z</time></trkpt><trkpt lat="57.99454427928603" lon="56.33750864897192"><ele>170.0</ele><time>2026-05-01T06:45:52Z</time></trkpt><trkpt lat="57.99443735393615" lon="56.33752027871265"><ele>170.0</ele><time>2026-05-01T06:45:53Z</time></trkpt><trkpt lat="57.994343691431034" lon="56.33752178456307"><ele>170.0</ele><time>2026-05-01T06:45:54Z</time></trkpt><trkpt lat="57.994242818009326" lon="56.33752047160335"><ele>170.0</ele><time>2026-05-01T06:45:55Z</time></trkpt><trkpt lat="57.99412937970659" lon="56.33751899510483"><ele>170.0</ele><time>2026-05-01T06:45:56Z</time></trkpt><trkpt lat="57.993983849633125" lon="56.33754286081428"><ele>170.2</ele><time>2026-05-01T06:45:57Z</time></trkpt><trkpt lat="57.99384548057736" lon="56.33757164327951"><ele>170.4</ele><time>2026-05-01T06:45:58Z</time></trkpt><trkpt lat="57.993736741480475" lon="56.33759374690481"><ele>170.60000000000002</ele><time>2026-05-01T06:45:59Z</time></trkpt><trkpt lat="57.99364171854685" lon="56.33761306242965"><ele>170.8</ele><time>2026-05-01T06:46:00Z</time></trkpt><trkpt lat="57.993559873614814" lon="56.337614661927496"><ele>171.0</ele><time>2026-05-01T06:46:01Z</time></trkpt><trkpt lat="57.993480901792" lon="56.337615409819186"><ele>171.0</ele><time>2026-05-01T06:46:02Z</time></trkpt><trkpt lat="57.99341000191286" lon="56.33761608126543"><ele>171.0</ele><time>2026-05-01T06:46:03Z</time></trkpt><trkpt lat="57.99333617990315" lon="56.33761678038735"><ele>171.0</ele><time>2026-05-01T06:46:04Z</time></trkpt><trkpt lat="57.99325719492988" lon="56.33768499066778"><ele>171.0</ele><time>2026-05-01T06:46:05Z</time></trkpt><trkpt lat="57.993162066047155" lon="56.33770515353474"><ele>171.0</ele><time>2026-05-01T06:46:06Z</time></trkpt><trkpt lat="57.99307353046753" lon="56.337746113887846"><ele>171.0</ele><time>2026-05-01T06:46:07Z</time></trkpt><trkpt lat="57.99295841820543" lon="56.337799237735126"><ele>171.0</ele><time>2026-05-01T06:46:08Z</time></trkpt><trkpt lat="57.992852270556575" lon="56.337879925299866"><ele>171.0</ele><time>2026-05-01T06:46:09Z</time></trkpt><trkpt lat="57.99276584164723" lon="56.33794017783893"><ele>171.0</ele><time>2026-05-01T06:46:10Z</time></trkpt><trkpt lat="57.99268251612782" lon="56.33799926950862"><ele>171.0</ele><time>2026-05-01T06:46:11Z</time></trkpt><trkpt lat="57.99260154647822" lon="56.33805609135466"><ele>171.0</ele><time>2026-05-01T06:46:12Z</time></trkpt><trkpt lat="57.99252430736663" lon="56.338110499612746"><ele>169.8</ele><time>2026-05-01T06:46:13Z</time></trkpt><trkpt lat="57.99245028612136" lon="56.33815048034405"><ele>168.60000000000002</ele><time>2026-05-01T06:46:14Z</time></trkpt><trkpt lat="57.99237259928459" lon="56.33818074499324"><ele>167.4</ele><time>2026-05-01T06:46:15Z</time></trkpt><trkpt lat="57.99228576085026" lon="56.33821498812858"><ele>166.2</ele><time>2026-05-01T06:46:16Z</time></trkpt><trkpt lat="57.992145097914126" lon="56.33827045597499"><ele>165.0</ele><time>2026-05-01T06:46:17Z</time></trkpt><trkpt lat="57.99200166164718" lon="56.338326203088"><ele>165.0</ele><time>2026-05-01T06:46:18Z</time></trkpt><trkpt lat="57.991893713701806" lon="56.33836798058655"><ele>165.0</ele><time>2026-05-01T06:46:19Z</time></trkpt><trkpt lat="57.99181471599252" lon="56.33847634237414"><ele>165.0</ele><time>2026-05-01T06:46:20Z</time></trkpt><trkpt lat="57.99173121161299" lon="56.338488983499026"><ele>165.0</ele><time>2026-05-01T06:46:21Z</time></trkpt><trkpt lat="57.99164323056507" lon="56.33851869891999"><ele>165.0</ele><time>2026-05-01T06:46:22Z</time></trkpt><trkpt lat="57.99154527527548" lon="56.338531814854306"><ele>163.2</ele><time>2026-05-01T06:46:23Z</time></trkpt><trkpt lat="57.99143466830387" lon="56.33853736066185"><ele>161.4</ele><time>2026-05-01T06:46:24Z</time></trkpt><trkpt lat="57.99132392869252" lon="56.33853769018346"><ele>159.6</ele><time>2026-05-01T06:46:24.999Z</time></trkpt><trkpt lat="57.99122850948248" lon="56.33854621959701"><ele>157.8</ele><time>2026-05-01T06:46:25.999Z</time></trkpt><trkpt lat="57.991142844416956" lon="56.338537320004924"><ele>156.0</ele><time>2026-05-01T06:46:26.999Z</time></trkpt><trkpt lat="57.99106411596237" lon="56.338521233959256"><ele>156.0</ele><time>2026-05-01T06:46:27.999Z</time></trkpt><trkpt lat="57.99098744252047" lon="56.33850792691716"><ele>156.0</ele><time>2026-05-01T06:46:28.999Z</time></trkpt><trkpt lat="57.99091280967576" lon="56.33849194868045"><ele>156.0</ele><time>2026-05-01T06:46:29.999Z</time></trkpt><trkpt lat="57.99082733991586" lon="56.338440567924806"><ele>156.0</ele><time>2026-05-01T06:46:30.999Z</time></trkpt><trkpt lat="57.990738279559395" lon="56.33834837821766"><ele>156.0</ele><time>2026-05-01T06:46:31.999Z</time></trkpt><trkpt lat="57.990645370022484" lon="56.3382467906894"><ele>154.4</ele><time>2026-05-01T06:46:32.999Z</time></trkpt><trkpt lat="57.99055010877112" lon="56.33816459289171"><ele>152.8</ele><time>2026-05-01T06:46:33.999Z</time></trkpt><trkpt lat="57.99045339004778" lon="56.3380934573481"><ele>151.20000000000002</ele><time>2026-05-01T06:46:34.999Z</time></trkpt><trkpt lat="57.9903488977491" lon="56.338017163451624"><ele>149.6</ele><time>2026-05-01T06:46:35.999Z</time></trkpt><trkpt lat="57.99024405962745" lon="56.33792822927941"><ele>148.0</ele><time>2026-05-01T06:46:36.999Z</time></trkpt><trkpt lat="57.99014843604275" lon="56.33781876994732"><ele>147.25</ele><time>2026-05-01T06:46:37.999Z</time></trkpt><trkpt lat="57.99003240796871" lon="56.33773824274816"><ele>146.5</ele><time>2026-05-01T06:46:38.999Z</time></trkpt><trkpt lat="57.989930460760334" lon="56.33763341414229"><ele>145.75</ele><time>2026-05-01T06:46:39.999Z</time></trkpt><trkpt lat="57.98982578767246" lon="56.337552215614046"><ele>145.0</ele><time>2026-05-01T06:46:40.999Z</time></trkpt><trkpt lat="57.989721660480534" lon="56.33746915976537"><ele>143.25</ele><time>2026-05-01T06:46:41.999Z</time></trkpt><trkpt lat="57.98962203955896" lon="56.33735593842588"><ele>141.5</ele><time>2026-05-01T06:46:42.999Z</time></trkpt><trkpt lat="57.989501533953955" lon="56.3372530899203"><ele>139.75</ele><time>2026-05-01T06:46:43.999Z</time></trkpt><trkpt lat="57.989396671056724" lon="56.33716355586837"><ele>138.0</ele><time>2026-05-01T06:46:44.999Z</time></trkpt><trkpt lat="57.989304352000126" lon="56.3370844527595"><ele>138.0</ele><time>2026-05-01T06:46:45.999Z</time></trkpt><trkpt lat="57.98922633776568" lon="56.3370176064942"><ele>138.0</ele><time>2026-05-01T06:46:46.999Z</time></trkpt><trkpt lat="57.98916211375923" lon="56.33697178689463"><ele>138.0</ele><time>2026-05-01T06:46:47.999Z</time></trkpt><trkpt lat="57.98911598292684" lon="56.33687539504706"><ele>138.0</ele><time>2026-05-01T06:46:48.999Z</time></trkpt><trkpt lat="57.989056643582735" lon="56.33680109071631"><ele>138.0</ele><time>2026-05-01T06:46:49.999Z</time></trkpt><trkpt lat="57.988981196276825" lon="56.33671488417553"><ele>138.0</ele><time>2026-05-01T06:46:51.999Z</time></trkpt><trkpt lat="57.988907267444006" lon="56.33660006610395"><ele>139.4</ele><time>2026-05-01T06:46:53.999Z</time></trkpt><trkpt lat="57.9888149732469" lon="56.336495808954695"><ele>140.8</ele><time>2026-05-01T06:46:55.999Z</time></trkpt><trkpt lat="57.98871324222788" lon="56.33643682883461"><ele>142.2</ele><time>2026-05-01T06:46:57.999Z</time></trkpt><trkpt lat="57.988622519160515" lon="56.336305601688004"><ele>143.6</ele><time>2026-05-01T06:46:59.999Z</time></trkpt><trkpt lat="57.988532081592886" lon="56.3362000157592"><ele>145.0</ele><time>2026-05-01T06:47:01.999Z</time></trkpt><trkpt lat="57.98845824399516" lon="56.33613730715175"><ele>145.4</ele><time>2026-05-01T06:47:03.999Z</time></trkpt><trkpt lat="57.988385943430515" lon="56.336121005580615"><ele>145.8</ele><time>2026-05-01T06:47:05.999Z</time></trkpt><trkpt lat="57.98829069082084" lon="56.33616360969837"><ele>146.2</ele><time>2026-05-01T06:47:07.999Z</time></trkpt><trkpt lat="57.988159170867974" lon="56.33622561052304"><ele>146.6</ele><time>2026-05-01T06:47:09.999Z</time></trkpt><trkpt lat="57.98804504234112" lon="56.33622941553594"><ele>147.0</ele><time>2026-05-01T06:47:11.999Z</time></trkpt><trkpt lat="57.98795428631747" lon="56.33620567710643"><ele>147.5</ele><time>2026-05-01T06:47:13.999Z</time></trkpt><trkpt lat="57.987888738587124" lon="56.33606229263198"><ele>148.0</ele><time>2026-05-01T06:47:15.998Z</time></trkpt><trkpt lat="57.987846772693054" lon="56.33594869358721"><ele>148.5</ele><time>2026-05-01T06:47:17.998Z</time></trkpt><trkpt lat="57.98780240218514" lon="56.335845581669766"><ele>149.0</ele><time>2026-05-01T06:47:19.998Z</time></trkpt><trkpt lat="57.98776191693301" lon="56.335737237097305"><ele>149.5</ele><time>2026-05-01T06:47:42Z</time></trkpt><trkpt lat="57.98769004384127" lon="56.33559416463323"><ele>150.0</ele><time>2026-05-01T06:47:44Z</time></trkpt><trkpt lat="57.987614715530455" lon="56.3354622439084"><ele>150.0</ele><time>2026-05-01T06:47:46Z</time></trkpt><trkpt lat="57.987602741247855" lon="56.33521955536916"><ele>150.0</ele><time>2026-05-01T06:47:48Z</time></trkpt><trkpt lat="57.987540160280716" lon="56.33510844196149"><ele>150.0</ele><time>2026-05-01T06:47:49Z</time></trkpt><trkpt lat="57.987490211811554" lon="56.33501975736106"><ele>150.0</ele><time>2026-05-01T06:47:50Z</time></trkpt><trkpt lat="57.98742662670702" lon="56.33490782282873"><ele>150.0</ele><time>2026-05-01T06:47:52Z</time></trkpt><trkpt lat="57.987359842794135" lon="56.334759714205404"><ele>150.2</ele><time>2026-05-01T06:47:55Z</time></trkpt><trkpt lat="57.9871804667442" lon="56.334743619820856"><ele>150.4</ele><time>2026-05-01T06:47:57Z</time></trkpt><trkpt lat="57.987126046379615" lon="56.334680123972575"><ele>150.6</ele><time>2026-05-01T06:47:58Z</time></trkpt><trkpt lat="57.98707293026827" lon="56.33458078737418"><ele>150.8</ele><time>2026-05-01T06:47:59Z</time></trkpt><trkpt lat="57.98701271904279" lon="56.334443139455885"><ele>151.0</ele><time>2026-05-01T06:48:00Z</time></trkpt><trkpt lat="57.98694551240995" lon="56.33432207088402"><ele>151.25</ele><time>2026-05-01T06:48:01Z</time></trkpt><trkpt lat="57.986868735361114" lon="56.33413676734762"><ele>151.5</ele><time>2026-05-01T06:48:02Z</time></trkpt><trkpt lat="57.98678446904595" lon="56.333921955516125"><ele>151.75</ele><time>2026-05-01T06:48:03Z</time></trkpt><trkpt lat="57.98670648938757" lon="56.33375311902457"><ele>152.0</ele><time>2026-05-01T06:48:04Z</time></trkpt><trkpt lat="57.98664977691417" lon="56.333655444750484"><ele>153.0</ele><time>2026-05-01T06:48:05Z</time></trkpt><trkpt lat="57.98658576785872" lon="56.333520504536644"><ele>154.0</ele><time>2026-05-01T06:48:06Z</time></trkpt><trkpt lat="57.98651624409804" lon="56.33336322621604"><ele>155.0</ele><time>2026-05-01T06:48:07Z</time></trkpt><trkpt lat="57.98642666251171" lon="56.33318531530787"><ele>156.0</ele><time>2026-05-01T06:48:08Z</time></trkpt><trkpt lat="57.98632735238319" lon="56.33297792152935"><ele>156.5</ele><time>2026-05-01T06:48:09Z</time></trkpt><trkpt lat="57.98625684122486" lon="56.33279577385962"><ele>157.0</ele><time>2026-05-01T06:48:10Z</time></trkpt><trkpt lat="57.986205058576836" lon="56.33261245227416"><ele>157.5</ele><time>2026-05-01T06:48:11Z</time></trkpt><trkpt lat="57.986152107302345" lon="56.332423276928736"><ele>158.0</ele><time>2026-05-01T06:48:12Z</time></trkpt><trkpt lat="57.986088332735186" lon="56.33223315769442"><ele>158.20000000000002</ele><time>2026-05-01T06:48:13Z</time></trkpt><trkpt lat="57.986039088612394" lon="56.33206137490547"><ele>158.4</ele><time>2026-05-01T06:48:14Z</time></trkpt><trkpt lat="57.985990351547066" lon="56.33189613001202"><ele>158.60000000000002</ele><time>2026-05-01T06:48:15Z</time></trkpt><trkpt lat="57.9859445226482" lon="56.3317595851654"><ele>158.8</ele><time>2026-05-01T06:48:16Z</time></trkpt><trkpt lat="57.98587002379322" lon="56.331618702922164"><ele>159.0</ele><time>2026-05-01T06:48:18Z</time></trkpt><trkpt lat="57.98581964267657" lon="56.33148377206484"><ele>159.5</ele><time>2026-05-01T06:48:21Z</time></trkpt><trkpt lat="57.985761028410785" lon="56.331329869371714"><ele>160.0</ele><time>2026-05-01T06:48:23Z</time></trkpt><trkpt lat="57.98571581026695" lon="56.33122695101178"><ele>160.5</ele><time>2026-05-01T06:48:24Z</time></trkpt><trkpt lat="57.985678429684164" lon="56.33113041432482"><ele>161.0</ele><time>2026-05-01T06:48:25Z</time></trkpt><trkpt lat="57.98560007802779" lon="56.33100888997792"><ele>161.5</ele><time>2026-05-01T06:48:27Z</time></trkpt><trkpt lat="57.98555395772299" lon="56.330915020453276"><ele>162.0</ele><time>2026-05-01T06:48:28Z</time></trkpt><trkpt lat="57.98550465697405" lon="56.330800185194505"><ele>162.0</ele><time>2026-05-01T06:48:28.999Z</time></trkpt><trkpt lat="57.98546075394366" lon="56.330699432326426"><ele>162.0</ele><time>2026-05-01T06:48:29.999Z</time></trkpt><trkpt lat="57.985374708972785" lon="56.3305224880695"><ele>162.0</ele><time>2026-05-01T06:48:31.999Z</time></trkpt><trkpt lat="57.98531730364072" lon="56.33034117759026"><ele>162.0</ele><time>2026-05-01T06:48:33.999Z</time></trkpt><trkpt lat="57.98520095329076" lon="56.330190304731225"><ele>162.6</ele><time>2026-05-01T06:48:35.999Z</time></trkpt><trkpt lat="57.98507848107624" lon="56.330245108142485"><ele>163.2</ele><time>2026-05-01T06:48:37.999Z</time></trkpt><trkpt lat="57.98501235906198" lon="56.33025583768575"><ele>163.8</ele><time>2026-05-01T06:48:39.999Z</time></trkpt><trkpt lat="57.98492713174673" lon="56.330308716434054"><ele>164.4</ele><time>2026-05-01T06:48:41.999Z</time></trkpt><trkpt lat="57.984845357314484" lon="56.33034516971029"><ele>165.0</ele><time>2026-05-01T06:48:44.999Z</time></trkpt><trkpt lat="57.9847533811637" lon="56.33030871177458"><ele>165.66666666666666</ele><time>2026-05-01T06:48:47.999Z</time></trkpt><trkpt lat="57.9846852167684" lon="56.330342298703705"><ele>166.33333333333334</ele><time>2026-05-01T06:48:49.999Z</time></trkpt><trkpt lat="57.984621751354275" lon="56.33040643010626"><ele>167.0</ele><time>2026-05-01T06:48:51.999Z</time></trkpt><trkpt lat="57.984552577029426" lon="56.33045306035601"><ele>167.66666666666669</ele><time>2026-05-01T06:48:53.999Z</time></trkpt><trkpt lat="57.984477334531405" lon="56.330482958637496"><ele>168.33333333333334</ele><time>2026-05-01T06:48:55.999Z</time></trkpt><trkpt lat="57.98438373751838" lon="56.33049160286655"><ele>169.0</ele><time>2026-05-01T06:48:57.999Z</time></trkpt><trkpt lat="57.98431634248093" lon="56.330525236204906"><ele>168.66666666666669</ele><time>2026-05-01T06:48:59.999Z</time></trkpt><trkpt lat="57.98425897431285" lon="56.33059085392128"><ele>168.33333333333334</ele><time>2026-05-01T06:49:01.999Z</time></trkpt><trkpt lat="57.98418849420874" lon="56.33061859435812"><ele>168.0</ele><time>2026-05-01T06:49:03.999Z</time></trkpt><trkpt lat="57.98410430133599" lon="56.33065751786504"><ele>167.66666666666666</ele><time>2026-05-01T06:49:06.999Z</time></trkpt><trkpt lat="57.98402981435203" lon="56.33072255435955"><ele>167.33333333333331</ele><time>2026-05-01T06:49:09.999Z</time></trkpt><trkpt lat="57.983971294130235" lon="56.33082780116119"><ele>167.0</ele><time>2026-05-01T06:49:12.999Z</time></trkpt><trkpt lat="57.98391227719277" lon="56.33090085612893"><ele>167.0</ele><time>2026-05-01T06:49:14.999Z</time></trkpt><trkpt lat="57.983850509976286" lon="56.330968270663476"><ele>167.0</ele><time>2026-05-01T06:49:16.999Z</time></trkpt><trkpt lat="57.983793908578846" lon="56.33102571179889"><ele>167.0</ele><time>2026-05-01T06:49:18.999Z</time></trkpt><trkpt lat="57.983691827696006" lon="56.331089080847256"><ele>167.0</ele><time>2026-05-01T06:49:20.998Z</time></trkpt><trkpt lat="57.983595477567675" lon="56.33112293668272"><ele>167.0</ele><time>2026-05-01T06:49:22.998Z</time></trkpt><trkpt lat="57.983489024338546" lon="56.33116708631492"><ele>167.0</ele><time>2026-05-01T06:49:24.998Z</time></trkpt><trkpt lat="57.983388413544326" lon="56.331261144524404"><ele>167.0</ele><time>2026-05-01T06:49:26.998Z</time></trkpt><trkpt lat="57.98332032861141" lon="56.33134279908258"><ele>167.0</ele><time>2026-05-01T06:49:27.998Z</time></trkpt><trkpt lat="57.98323324258694" lon="56.331442600610686"><ele>167.0</ele><time>2026-05-01T06:49:28.998Z</time></trkpt><trkpt lat="57.98316113995906" lon="56.33153931661988"><ele>167.0</ele><time>2026-05-01T06:49:29.998Z</time></trkpt><trkpt lat="57.98309694138005" lon="56.33162475460907"><ele>167.83333333333331</ele><time>2026-05-01T06:49:30.998Z</time></trkpt><trkpt lat="57.98304036841864" lon="56.33170576396236"><ele>168.66666666666666</ele><time>2026-05-01T06:49:31.998Z</time></trkpt><trkpt lat="57.982957768100206" lon="56.331867048153796"><ele>169.5</ele><time>2026-05-01T06:49:33.998Z</time></trkpt><trkpt lat="57.98290733298115" lon="56.33193978251162"><ele>170.33333333333334</ele><time>2026-05-01T06:49:34.998Z</time></trkpt><trkpt lat="57.9828092348628" lon="56.33208844847247"><ele>171.16666666666669</ele><time>2026-05-01T06:49:36.998Z</time></trkpt><trkpt lat="57.9827723312523" lon="56.33218494974151"><ele>172.0</ele><time>2026-05-01T06:49:37.998Z</time></trkpt><trkpt lat="57.982700309269795" lon="56.33236108066431"><ele>172.16666666666669</ele><time>2026-05-01T06:49:39.998Z</time></trkpt><trkpt lat="57.98265637088387" lon="56.33247638505153"><ele>172.33333333333334</ele><time>2026-05-01T06:49:40.998Z</time></trkpt><trkpt lat="57.98261504468391" lon="56.332615569877106"><ele>172.5</ele><time>2026-05-01T06:49:42Z</time></trkpt><trkpt lat="57.98257878470127" lon="56.332723386958044"><ele>172.66666666666666</ele><time>2026-05-01T06:49:43Z</time></trkpt><trkpt lat="57.98250108713442" lon="56.33294450858953"><ele>172.83333333333331</ele><time>2026-05-01T06:49:45Z</time></trkpt><trkpt lat="57.98245593928545" lon="56.33306399129642"><ele>173.0</ele><time>2026-05-01T06:49:46Z</time></trkpt><trkpt lat="57.982399964651115" lon="56.333191653875794"><ele>173.0</ele><time>2026-05-01T06:49:47Z</time></trkpt><trkpt lat="57.9823441206951" lon="56.333321070820915"><ele>173.0</ele><time>2026-05-01T06:49:48Z</time></trkpt><trkpt lat="57.98227532122486" lon="56.33344257291697"><ele>173.0</ele><time>2026-05-01T06:49:49Z</time></trkpt><trkpt lat="57.982200410737406" lon="56.33356435732964"><ele>173.0</ele><time>2026-05-01T06:49:50Z</time></trkpt><trkpt lat="57.98211195206371" lon="56.33374037219666"><ele>173.0</ele><time>2026-05-01T06:49:51Z</time></trkpt><trkpt lat="57.98203782186708" lon="56.333956300094385"><ele>172.83333333333331</ele><time>2026-05-01T06:49:52Z</time></trkpt><trkpt lat="57.982000299294064" lon="56.33414387353914"><ele>172.66666666666666</ele><time>2026-05-01T06:49:53Z</time></trkpt><trkpt lat="57.98197269036058" lon="56.33428236896962"><ele>172.5</ele><time>2026-05-01T06:49:54Z</time></trkpt><trkpt lat="57.98192496162676" lon="56.33436086526505"><ele>172.33333333333334</ele><time>2026-05-01T06:49:55Z</time></trkpt><trkpt lat="57.98186865153094" lon="56.334481321520634"><ele>172.16666666666669</ele><time>2026-05-01T06:49:57Z</time></trkpt><trkpt lat="57.981842210669484" lon="56.33459456424993"><ele>172.0</ele><time>2026-05-01T06:50:00Z</time></trkpt><trkpt lat="57.98181220179995" lon="56.33473251370152"><ele>171.5</ele><time>2026-05-01T06:50:04Z</time></trkpt><trkpt lat="57.98175449150331" lon="56.33482157381679"><ele>171.0</ele><time>2026-05-01T06:50:06Z</time></trkpt><trkpt lat="57.98170830875764" lon="56.33492646273539"><ele>170.5</ele><time>2026-05-01T06:50:08Z</time></trkpt><trkpt lat="57.98167503299411" lon="56.33503054170099"><ele>170.0</ele><time>2026-05-01T06:50:10Z</time></trkpt><trkpt lat="57.98162488044814" lon="56.335140052132644"><ele>169.5</ele><time>2026-05-01T06:50:13Z</time></trkpt><trkpt lat="57.98154844450567" lon="56.33527411609285"><ele>169.0</ele><time>2026-05-01T06:50:15Z</time></trkpt><trkpt lat="57.98149150382359" lon="56.33538683588635"><ele>169.83333333333334</ele><time>2026-05-01T06:50:17Z</time></trkpt><trkpt lat="57.9814695268086" lon="56.33558088969767"><ele>170.66666666666669</ele><time>2026-05-01T06:50:19Z</time></trkpt><trkpt lat="57.98144217573092" lon="56.335692076981395"><ele>171.5</ele><time>2026-05-01T06:50:20Z</time></trkpt><trkpt lat="57.98142411901411" lon="56.33581233338285"><ele>172.33333333333334</ele><time>2026-05-01T06:50:21Z</time></trkpt><trkpt lat="57.981370084388004" lon="56.33595469276838"><ele>173.16666666666666</ele><time>2026-05-01T06:50:23Z</time></trkpt><trkpt lat="57.981289294150116" lon="56.33612150885894"><ele>174.0</ele><time>2026-05-01T06:50:25Z</time></trkpt><trkpt lat="57.98123181798699" lon="56.33626642079493"><ele>173.66666666666666</ele><time>2026-05-01T06:50:26Z</time></trkpt><trkpt lat="57.9811700168752" lon="56.33640227028245"><ele>173.33333333333334</ele><time>2026-05-01T06:50:27Z</time></trkpt><trkpt lat="57.98111313254681" lon="56.33653730806028"><ele>173.0</ele><time>2026-05-01T06:50:29Z</time></trkpt><trkpt lat="57.981069390661496" lon="56.3366523387624"><ele>172.66666666666669</ele><time>2026-05-01T06:50:31Z</time></trkpt><trkpt lat="57.98101176564546" lon="56.33677906801307"><ele>172.33333333333334</ele><time>2026-05-01T06:50:33Z</time></trkpt><trkpt lat="57.98097587240248" lon="56.33688036137257"><ele>172.0</ele><time>2026-05-01T06:50:33.999Z</time></trkpt><trkpt lat="57.98094496752383" lon="56.33699866554483"><ele>172.0</ele><time>2026-05-01T06:50:34.999Z</time></trkpt><trkpt lat="57.980908865022855" lon="56.33710965179824"><ele>172.0</ele><time>2026-05-01T06:50:35.999Z</time></trkpt><trkpt lat="57.98086063324938" lon="56.33723026858885"><ele>172.0</ele><time>2026-05-01T06:50:36.999Z</time></trkpt><trkpt lat="57.980797625772944" lon="56.33736365856636"><ele>172.0</ele><time>2026-05-01T06:50:37.999Z</time></trkpt><trkpt lat="57.98074264920443" lon="56.33748853330904"><ele>172.0</ele><time>2026-05-01T06:50:38.999Z</time></trkpt><trkpt lat="57.980691240664584" lon="56.33759424391762"><ele>172.0</ele><time>2026-05-01T06:50:39.999Z</time></trkpt><trkpt lat="57.98063685045274" lon="56.337705967440954"><ele>172.6</ele><time>2026-05-01T06:50:40.999Z</time></trkpt><trkpt lat="57.980585131118445" lon="56.33783037572031"><ele>173.2</ele><time>2026-05-01T06:50:41.999Z</time></trkpt><trkpt lat="57.98053535441999" lon="56.3379604337951"><ele>173.8</ele><time>2026-05-01T06:50:42.999Z</time></trkpt><trkpt lat="57.98047795507239" lon="56.338098361927024"><ele>174.4</ele><time>2026-05-01T06:50:43.999Z</time></trkpt><trkpt lat="57.980407405329835" lon="56.338279652474675"><ele>175.0</ele><time>2026-05-01T06:50:44.999Z</time></trkpt><trkpt lat="57.980346239713455" lon="56.33844922723091"><ele>175.16666666666669</ele><time>2026-05-01T06:50:45.999Z</time></trkpt><trkpt lat="57.98030427348819" lon="56.33856997880378"><ele>175.33333333333334</ele><time>2026-05-01T06:50:46.999Z</time></trkpt><trkpt lat="57.98029112937686" lon="56.338691380261395"><ele>175.5</ele><time>2026-05-01T06:50:47.999Z</time></trkpt><trkpt lat="57.98026705428653" lon="56.33883886059566"><ele>175.66666666666666</ele><time>2026-05-01T06:50:48.999Z</time></trkpt><trkpt lat="57.980234456631244" lon="56.3389581305279"><ele>175.83333333333331</ele><time>2026-05-01T06:50:49.999Z</time></trkpt><trkpt lat="57.980196115756385" lon="56.3390842080248"><ele>176.0</ele><time>2026-05-01T06:50:50.999Z</time></trkpt><trkpt lat="57.980165542256394" lon="56.33921979528405"><ele>176.0</ele><time>2026-05-01T06:50:51.999Z</time></trkpt><trkpt lat="57.98013781459341" lon="56.33934041127952"><ele>176.0</ele><time>2026-05-01T06:50:52.999Z</time></trkpt><trkpt lat="57.980102279031414" lon="56.339528652870996"><ele>176.0</ele><time>2026-05-01T06:50:54.999Z</time></trkpt><trkpt lat="57.9800851649906" lon="56.33966086285153"><ele>176.0</ele><time>2026-05-01T06:50:56.999Z</time></trkpt><trkpt lat="57.98011040800036" lon="56.3397825725372"><ele>176.0</ele><time>2026-05-01T06:50:58.999Z</time></trkpt><trkpt lat="57.980157521732345" lon="56.339896116809896"><ele>176.0</ele><time>2026-05-01T06:51:00.999Z</time></trkpt><trkpt lat="57.98022293070067" lon="56.339992205900316"><ele>175.4</ele><time>2026-05-01T06:51:02.999Z</time></trkpt><trkpt lat="57.98031745631277" lon="56.34004102495419"><ele>174.8</ele><time>2026-05-01T06:51:04.999Z</time></trkpt><trkpt lat="57.98041678434266" lon="56.34008893036473"><ele>174.20000000000002</ele><time>2026-05-01T06:51:06.999Z</time></trkpt><trkpt lat="57.980502985176145" lon="56.340087062570205"><ele>173.60000000000002</ele><time>2026-05-01T06:51:08.999Z</time></trkpt><trkpt lat="57.98057139503332" lon="56.34011353369011"><ele>173.0</ele><time>2026-05-01T06:51:11.999Z</time></trkpt><trkpt lat="57.98067173272181" lon="56.340165900519615"><ele>173.0</ele><time>2026-05-01T06:51:14.999Z</time></trkpt><trkpt lat="57.98077908688592" lon="56.34020254645084"><ele>173.0</ele><time>2026-05-01T06:51:16.999Z</time></trkpt><trkpt lat="57.980858345385215" lon="56.34023095379728"><ele>173.0</ele><time>2026-05-01T06:51:18.999Z</time></trkpt><trkpt lat="57.980968267745205" lon="56.34029174819468"><ele>173.0</ele><time>2026-05-01T06:51:20.999Z</time></trkpt><trkpt lat="57.981060320016" lon="56.3404131851426"><ele>173.0</ele><time>2026-05-01T06:51:22.999Z</time></trkpt><trkpt lat="57.98112605704837" lon="56.34044459281594"><ele>172.33333333333331</ele><time>2026-05-01T06:51:23.999Z</time></trkpt><trkpt lat="57.98119058150993" lon="56.3404729659026"><ele>171.66666666666666</ele><time>2026-05-01T06:51:24.998Z</time></trkpt><trkpt lat="57.98131006679605" lon="56.34052398782768"><ele>171.0</ele><time>2026-05-01T06:51:26.998Z</time></trkpt><trkpt lat="57.981372751196865" lon="56.34054606600579"><ele>170.33333333333334</ele><time>2026-05-01T06:51:27.998Z</time></trkpt><trkpt lat="57.98147090567771" lon="56.340569114913066"><ele>169.66666666666669</ele><time>2026-05-01T06:51:29.998Z</time></trkpt><trkpt lat="57.98156152259485" lon="56.3406048847122"><ele>169.0</ele><time>2026-05-01T06:51:31.998Z</time></trkpt><trkpt lat="57.981627958785154" lon="56.34064479113392"><ele>168.5</ele><time>2026-05-01T06:51:33.998Z</time></trkpt><trkpt lat="57.98171340987256" lon="56.34069204125587"><ele>168.0</ele><time>2026-05-01T06:51:35.998Z</time></trkpt><trkpt lat="57.981794213086324" lon="56.34071679279759"><ele>167.5</ele><time>2026-05-01T06:51:37.998Z</time></trkpt><trkpt lat="57.981871927256556" lon="56.34073719293257"><ele>167.0</ele><time>2026-05-01T06:51:39.998Z</time></trkpt><trkpt lat="57.98193491119329" lon="56.3407069524556"><ele>166.5</ele><time>2026-05-01T06:51:41.998Z</time></trkpt><trkpt lat="57.9820228203184" lon="56.34075694111144"><ele>166.0</ele><time>2026-05-01T06:52:15Z</time></trkpt><trkpt lat="57.982140945330755" lon="56.340794795630536"><ele>166.0</ele><time>2026-05-01T06:52:17Z</time></trkpt><trkpt lat="57.982244030954725" lon="56.34080062534113"><ele>166.0</ele><time>2026-05-01T06:52:19Z</time></trkpt><trkpt lat="57.98233325218891" lon="56.340814563002475"><ele>166.0</ele><time>2026-05-01T06:52:21Z</time></trkpt><trkpt lat="57.982428810038186" lon="56.340807255926705"><ele>166.0</ele><time>2026-05-01T06:52:23Z</time></trkpt><trkpt lat="57.98253467179525" lon="56.34077601987432"><ele>166.0</ele><time>2026-05-01T06:52:25Z</time></trkpt><trkpt lat="57.982604561338995" lon="56.34077501710471"><ele>165.8</ele><time>2026-05-01T06:52:26Z</time></trkpt><trkpt lat="57.982699381328665" lon="56.34079619834901"><ele>165.60000000000002</ele><time>2026-05-01T06:52:27Z</time></trkpt><trkpt lat="57.98279089127809" lon="56.340796631834436"><ele>165.4</ele><time>2026-05-01T06:52:28Z</time></trkpt><trkpt lat="57.98286002347391" lon="56.34080149360561"><ele>165.2</ele><time>2026-05-01T06:52:29Z</time></trkpt><trkpt lat="57.982993354695175" lon="56.340829547524216"><ele>165.0</ele><time>2026-05-01T06:52:31Z</time></trkpt><trkpt lat="57.98307143283123" lon="56.340835024432366"><ele>165.0</ele><time>2026-05-01T06:52:32Z</time></trkpt><trkpt lat="57.98313991297227" lon="56.34083872248552"><ele>165.0</ele><time>2026-05-01T06:52:33Z</time></trkpt><trkpt lat="57.9832386456334" lon="56.34085637755949"><ele>165.0</ele><time>2026-05-01T06:52:35Z</time></trkpt><trkpt lat="57.983308623026424" lon="56.3408554704199"><ele>165.0</ele><time>2026-05-01T06:52:36Z</time></trkpt><trkpt lat="57.98341193420066" lon="56.34084157234896"><ele>165.0</ele><time>2026-05-01T06:52:38Z</time></trkpt><trkpt lat="57.98348567393918" lon="56.34082600267826"><ele>165.0</ele><time>2026-05-01T06:52:39.999Z</time></trkpt><trkpt lat="57.98358553013075" lon="56.34082907593634"><ele>164.4</ele><time>2026-05-01T06:52:41.999Z</time></trkpt><trkpt lat="57.98367083109118" lon="56.34084655238756"><ele>163.8</ele><time>2026-05-01T06:52:43.999Z</time></trkpt><trkpt lat="57.98376593850337" lon="56.34085323471306"><ele>163.2</ele><time>2026-05-01T06:52:45.999Z</time></trkpt><trkpt lat="57.98386708551665" lon="56.340873325390106"><ele>162.6</ele><time>2026-05-01T06:52:47.999Z</time></trkpt><trkpt lat="57.98393863896208" lon="56.34086825826506"><ele>162.0</ele><time>2026-05-01T06:52:48.999Z</time></trkpt><trkpt lat="57.98403611718775" lon="56.34084681610747"><ele>162.0</ele><time>2026-05-01T06:52:50.999Z</time></trkpt><trkpt lat="57.98412089027288" lon="56.34088065541189"><ele>162.0</ele><time>2026-05-01T06:52:53.999Z</time></trkpt><trkpt lat="57.98416869662708" lon="56.34096578902067"><ele>162.0</ele><time>2026-05-01T06:52:55.999Z</time></trkpt><trkpt lat="57.98423514272891" lon="56.341089137296265"><ele>162.0</ele><time>2026-05-01T06:52:57.999Z</time></trkpt><trkpt lat="57.98433227690929" lon="56.34102535974861"><ele>162.0</ele><time>2026-05-01T06:52:59.999Z</time></trkpt><trkpt lat="57.984445203925205" lon="56.34105525647929"><ele>160.83333333333334</ele><time>2026-05-01T06:53:01.999Z</time></trkpt><trkpt lat="57.98452144635148" lon="56.34108819386526"><ele>159.66666666666666</ele><time>2026-05-01T06:53:02.999Z</time></trkpt><trkpt lat="57.98461418674612" lon="56.341073945876786"><ele>158.5</ele><time>2026-05-01T06:53:04.999Z</time></trkpt><trkpt lat="57.984699421911785" lon="56.34096749661481"><ele>157.33333333333331</ele><time>2026-05-01T06:53:06.999Z</time></trkpt><trkpt lat="57.98478992534922" lon="56.34094649876239"><ele>156.16666666666666</ele><time>2026-05-01T06:53:08.999Z</time></trkpt><trkpt lat="57.98486544694962" lon="56.340964958348636"><ele>155.0</ele><time>2026-05-01T06:53:10.999Z</time></trkpt><trkpt lat="57.98494890733387" lon="56.34093283409728"><ele>153.83333333333331</ele><time>2026-05-01T06:53:12.999Z</time></trkpt><trkpt lat="57.985049761536516" lon="56.340939579651014"><ele>152.66666666666666</ele><time>2026-05-01T06:53:14.999Z</time></trkpt><trkpt lat="57.985127872045375" lon="56.34093748358357"><ele>151.5</ele><time>2026-05-01T06:53:17.999Z</time></trkpt><trkpt lat="57.98519964333998" lon="56.3409514750535"><ele>150.33333333333334</ele><time>2026-05-01T06:54:02Z</time></trkpt><trkpt lat="57.98528657144198" lon="56.34096684840059"><ele>149.16666666666669</ele><time>2026-05-01T06:54:04Z</time></trkpt><trkpt lat="57.985357855153744" lon="56.34097710306549"><ele>148.0</ele><time>2026-05-01T06:54:07Z</time></trkpt><trkpt lat="57.985434767290556" lon="56.34098383555726"><ele>148.0</ele><time>2026-05-01T06:54:10Z</time></trkpt><trkpt lat="57.98551735738535" lon="56.34101764148609"><ele>148.0</ele><time>2026-05-01T06:54:13Z</time></trkpt><trkpt lat="57.985588973671426" lon="56.341018251875354"><ele>148.0</ele><time>2026-05-01T06:54:15Z</time></trkpt><trkpt lat="57.985682146102" lon="56.34100880963518"><ele>148.0</ele><time>2026-05-01T06:54:17Z</time></trkpt><trkpt lat="57.98575705460006" lon="56.341020744447356"><ele>148.0</ele><time>2026-05-01T06:54:19Z</time></trkpt><trkpt lat="57.9858362434247" lon="56.34105559192796"><ele>148.0</ele><time>2026-05-01T06:54:21Z</time></trkpt><trkpt lat="57.98592872433162" lon="56.3410903848224"><ele>148.33333333333334</ele><time>2026-05-01T06:54:24Z</time></trkpt><trkpt lat="57.98600595393561" lon="56.34107805011579"><ele>148.66666666666669</ele><time>2026-05-01T06:54:27Z</time></trkpt><trkpt lat="57.98607770010537" lon="56.34102192221961"><ele>149.0</ele><time>2026-05-01T06:54:31Z</time></trkpt><trkpt lat="57.98615615945647" lon="56.34103453541832"><ele>149.33333333333334</ele><time>2026-05-01T06:54:34Z</time></trkpt><trkpt lat="57.98623348763395" lon="56.34107979011681"><ele>149.66666666666666</ele><time>2026-05-01T06:54:36Z</time></trkpt><trkpt lat="57.98632821744756" lon="56.34110699666511"><ele>150.0</ele><time>2026-05-01T06:54:38Z</time></trkpt><trkpt lat="57.986474240155005" lon="56.34113414454282"><ele>150.0</ele><time>2026-05-01T06:54:40Z</time></trkpt><trkpt lat="57.98656502857348" lon="56.341139721277315"><ele>150.0</ele><time>2026-05-01T06:54:41Z</time></trkpt><trkpt lat="57.98664264943884" lon="56.341145020578296"><ele>150.0</ele><time>2026-05-01T06:54:42Z</time></trkpt><trkpt lat="57.98672469357688" lon="56.341239398272606"><ele>150.0</ele><time>2026-05-01T06:54:42.999Z</time></trkpt><trkpt lat="57.98680303670754" lon="56.34116641114347"><ele>150.0</ele><time>2026-05-01T06:54:43.999Z</time></trkpt><trkpt lat="57.98687895227002" lon="56.341161044255685"><ele>150.0</ele><time>2026-05-01T06:54:45.999Z</time></trkpt><trkpt lat="57.98692817827327" lon="56.34107257987128"><ele>151.8</ele><time>2026-05-01T06:54:47.999Z</time></trkpt><trkpt lat="57.986989342914846" lon="56.34111694541413"><ele>153.6</ele><time>2026-05-01T06:54:50.999Z</time></trkpt><trkpt lat="57.98693210786538" lon="56.34120895905556"><ele>155.4</ele><time>2026-05-01T06:54:55.999Z</time></trkpt><trkpt lat="57.98686023355903" lon="56.34118343518749"><ele>157.2</ele><time>2026-05-01T06:57:17.999Z</time></trkpt><trkpt lat="57.98693798112895" lon="56.341085261931596"><ele>159.0</ele><time>2026-05-01T06:57:22.999Z</time></trkpt><trkpt lat="57.987087372490855" lon="56.34112764221836"><ele>159.0</ele><time>2026-05-01T06:57:24.999Z</time></trkpt><trkpt lat="57.98717851498145" lon="56.34128254519464"><ele>159.0</ele><time>2026-05-01T06:57:26.999Z</time></trkpt><trkpt lat="57.98728580634666" lon="56.34129383159404"><ele>159.0</ele><time>2026-05-01T06:57:28.999Z</time></trkpt><trkpt lat="57.98736066435224" lon="56.341300479620315"><ele>159.0</ele><time>2026-05-01T06:57:29.999Z</time></trkpt><trkpt lat="57.987438876486934" lon="56.341308704492306"><ele>159.0</ele><time>2026-05-01T06:57:30.999Z</time></trkpt><trkpt lat="57.987540675149866" lon="56.34133186072445"><ele>158.33333333333334</ele><time>2026-05-01T06:57:32.999Z</time></trkpt><trkpt lat="57.98765714337578" lon="56.34132941506445"><ele>157.66666666666666</ele><time>2026-05-01T06:57:34.999Z</time></trkpt><trkpt lat="57.98772861094658" lon="56.341345948301964"><ele>157.0</ele><time>2026-05-01T06:57:36.999Z</time></trkpt><trkpt lat="57.98779654966244" lon="56.34134216678439"><ele>156.33333333333331</ele><time>2026-05-01T06:57:38.998Z</time></trkpt><trkpt lat="57.9878719401382" lon="56.34134995534147"><ele>155.66666666666666</ele><time>2026-05-01T06:57:40.998Z</time></trkpt><trkpt lat="57.98793798643862" lon="56.34135628399966"><ele>155.0</ele><time>2026-05-01T06:57:42.998Z</time></trkpt><trkpt lat="57.98799211263996" lon="56.3412919854452"><ele>155.0</ele><time>2026-05-01T06:57:44.998Z</time></trkpt><trkpt lat="57.988144201369664" lon="56.34132200846059"><ele>155.0</ele><time>2026-05-01T06:57:45.998Z</time></trkpt><trkpt lat="57.988255891807626" lon="56.34140211702429"><ele>155.0</ele><time>2026-05-01T06:57:47.998Z</time></trkpt><trkpt lat="57.988382675221295" lon="56.34143785359282"><ele>155.0</ele><time>2026-05-01T06:57:49.998Z</time></trkpt><trkpt lat="57.9884961013543" lon="56.34150506851514"><ele>154.4</ele><time>2026-05-01T06:57:51.998Z</time></trkpt><trkpt lat="57.988583656329624" lon="56.341580157813276"><ele>153.8</ele><time>2026-05-01T06:57:53.998Z</time></trkpt><trkpt lat="57.98868811484353" lon="56.34146074523161"><ele>153.2</ele><time>2026-05-01T06:57:54.998Z</time></trkpt><trkpt lat="57.98874899633233" lon="56.34153177682403"><ele>152.6</ele><time>2026-05-01T06:57:56.998Z</time></trkpt><trkpt lat="57.98874296190787" lon="56.341705968217326"><ele>152.0</ele><time>2026-05-01T06:57:57.998Z</time></trkpt><trkpt lat="57.98889330786143" lon="56.34169953300553"><ele>152.0</ele><time>2026-05-01T06:57:59.998Z</time></trkpt><trkpt lat="57.9889560727879" lon="56.341804234180984"><ele>152.0</ele><time>2026-05-01T06:58:01.998Z</time></trkpt><trkpt lat="57.98903560649376" lon="56.34182178656602"><ele>152.0</ele><time>2026-05-01T06:58:03.998Z</time></trkpt><trkpt lat="57.98910899704622" lon="56.34187830385419"><ele>152.0</ele><time>2026-05-01T06:58:04.998Z</time></trkpt><trkpt lat="57.9891926642516" lon="56.341956345061014"><ele>152.0</ele><time>2026-05-01T06:58:07Z</time></trkpt><trkpt lat="57.989286591124134" lon="56.34201523275299"><ele>152.0</ele><time>2026-05-01T06:58:10Z</time></trkpt><trkpt lat="57.98934738505667" lon="56.34205087273969"><ele>151.79999999999998</ele><time>2026-05-01T06:58:11Z</time></trkpt><trkpt lat="57.98942884194703" lon="56.34210174385397"><ele>151.6</ele><time>2026-05-01T06:58:12Z</time></trkpt><trkpt lat="57.989501325648135" lon="56.34214558865433"><ele>151.39999999999998</ele><time>2026-05-01T06:58:13Z</time></trkpt><trkpt lat="57.98959462093378" lon="56.342219558808566"><ele>151.2</ele><time>2026-05-01T06:58:15Z</time></trkpt><trkpt lat="57.989671342093864" lon="56.34226814916374"><ele>151.0</ele><time>2026-05-01T06:58:17Z</time></trkpt><trkpt lat="57.98979100756006" lon="56.34230865223532"><ele>151.0</ele><time>2026-05-01T06:58:19Z</time></trkpt><trkpt lat="57.989887464609424" lon="56.34234843083288"><ele>151.0</ele><time>2026-05-01T06:58:20Z</time></trkpt><trkpt lat="57.990003094357434" lon="56.34240618873706"><ele>151.0</ele><time>2026-05-01T06:58:21Z</time></trkpt><trkpt lat="57.99012345939832" lon="56.342497324617355"><ele>151.0</ele><time>2026-05-01T06:58:22Z</time></trkpt><trkpt lat="57.9902266317869" lon="56.34256420428183"><ele>149.83333333333334</ele><time>2026-05-01T06:58:23Z</time></trkpt><trkpt lat="57.990323196984676" lon="56.34261743897945"><ele>148.66666666666669</ele><time>2026-05-01T06:58:24Z</time></trkpt><trkpt lat="57.99041226931476" lon="56.34267801210746"><ele>147.5</ele><time>2026-05-01T06:58:25Z</time></trkpt><trkpt lat="57.99048086495263" lon="56.3427436192812"><ele>146.33333333333334</ele><time>2026-05-01T06:58:26Z</time></trkpt><trkpt lat="57.99057855563344" lon="56.342786581569094"><ele>145.16666666666666</ele><time>2026-05-01T06:58:28Z</time></trkpt><trkpt lat="57.99064470006691" lon="56.3428189593444"><ele>144.0</ele><time>2026-05-01T06:58:30Z</time></trkpt><trkpt lat="57.99074659922985" lon="56.34288443020889"><ele>144.0</ele><time>2026-05-01T06:58:32Z</time></trkpt><trkpt lat="57.99083736836303" lon="56.3429304063174"><ele>144.0</ele><time>2026-05-01T06:58:34Z</time></trkpt><trkpt lat="57.99091597274229" lon="56.34296517931678"><ele>144.0</ele><time>2026-05-01T06:58:36Z</time></trkpt><trkpt lat="57.99099158414701" lon="56.34301687802611"><ele>144.0</ele><time>2026-05-01T06:58:38Z</time></trkpt><trkpt lat="57.99105329691741" lon="56.343072619713226"><ele>144.0</ele><time>2026-05-01T06:58:40Z</time></trkpt><trkpt lat="57.99113193424142" lon="56.34309862124579"><ele>144.0</ele><time>2026-05-01T06:58:43Z</time></trkpt><trkpt lat="57.991203521468904" lon="56.34314315255336"><ele>144.33333333333334</ele><time>2026-05-01T06:59:13.999Z</time></trkpt><trkpt lat="57.991137603167395" lon="56.34310734788332"><ele>144.66666666666666</ele><time>2026-05-01T06:59:18.999Z</time></trkpt><trkpt lat="57.991080832256486" lon="56.343239091180585"><ele>145.0</ele><time>2026-05-01T06:59:20.999Z</time></trkpt><trkpt lat="57.991077167849525" lon="56.343402919748826"><ele>145.33333333333331</ele><time>2026-05-01T06:59:23.999Z</time></trkpt><trkpt lat="57.99117808563821" lon="56.34339621707178"><ele>145.66666666666666</ele><time>2026-05-01T06:59:26.999Z</time></trkpt><trkpt lat="57.99126685089284" lon="56.343411426574555"><ele>146.0</ele><time>2026-05-01T06:59:28.999Z</time></trkpt><trkpt lat="57.9913249740507" lon="56.34350213444942"><ele>146.0</ele><time>2026-05-01T06:59:30.999Z</time></trkpt><trkpt lat="57.99140540637837" lon="56.34354141385145"><ele>146.0</ele><time>2026-05-01T06:59:34.999Z</time></trkpt><trkpt lat="57.99147141162551" lon="56.34348599345739"><ele>146.0</ele><time>2026-05-01T07:00:18Z</time></trkpt><trkpt lat="57.99152851249244" lon="56.34340871484473"><ele>146.0</ele><time>2026-05-01T07:00:22Z</time></trkpt><trkpt lat="57.99160794866173" lon="56.34342264432865"><ele>146.0</ele><time>2026-05-01T07:00:25Z</time></trkpt><trkpt lat="57.99167255359169" lon="56.343478711763815"><ele>146.0</ele><time>2026-05-01T07:00:27Z</time></trkpt><trkpt lat="57.99173457752287" lon="56.343525475871296"><ele>146.0</ele><time>2026-05-01T07:00:30Z</time></trkpt><trkpt lat="57.99179394657312" lon="56.34357528673019"><ele>146.5</ele><time>2026-05-01T07:00:33Z</time></trkpt><trkpt lat="57.99185849598367" lon="56.34362963579008"><ele>147.0</ele><time>2026-05-01T07:00:38Z</time></trkpt><trkpt lat="57.99192105692139" lon="56.34368295261172"><ele>147.5</ele><time>2026-05-01T07:00:44Z</time></trkpt><trkpt lat="57.99199073939973" lon="56.34373276931396"><ele>148.0</ele><time>2026-05-01T07:00:49Z</time></trkpt><trkpt lat="57.99208950957754" lon="56.34381308373959"><ele>148.5</ele><time>2026-05-01T07:00:52Z</time></trkpt><trkpt lat="57.99216031365157" lon="56.3438773288577"><ele>149.0</ele><time>2026-05-01T07:00:54Z</time></trkpt><trkpt lat="57.9922331690028" lon="56.34394043874337"><ele>149.0</ele><time>2026-05-01T07:00:56Z</time></trkpt><trkpt lat="57.992301584441535" lon="56.34398767675649"><ele>149.0</ele><time>2026-05-01T07:00:57.999Z</time></trkpt><trkpt lat="57.99237711521999" lon="56.34407597278456"><ele>149.0</ele><time>2026-05-01T07:01:00.999Z</time></trkpt><trkpt lat="57.99245647308553" lon="56.34415297578586"><ele>149.0</ele><time>2026-05-01T07:01:03.999Z</time></trkpt><trkpt lat="57.99254989012261" lon="56.34423462089158"><ele>149.0</ele><time>2026-05-01T07:01:05.999Z</time></trkpt><trkpt lat="57.992623580919684" lon="56.34427342424365"><ele>149.0</ele><time>2026-05-01T07:01:08.999Z</time></trkpt><trkpt lat="57.99268722407296" lon="56.34431789386656"><ele>149.57142857142856</ele><time>2026-05-01T07:01:15.999Z</time></trkpt><trkpt lat="57.99275594032296" lon="56.34433351363588"><ele>150.14285714285714</ele><time>2026-05-01T07:01:21.999Z</time></trkpt><trkpt lat="57.992829482391635" lon="56.344340711209085"><ele>150.71428571428572</ele><time>2026-05-01T07:01:30.999Z</time></trkpt><trkpt lat="57.99289688341346" lon="56.344350195712735"><ele>151.28571428571428</ele><time>2026-05-01T07:01:41.999Z</time></trkpt><trkpt lat="57.99295880198145" lon="56.344378955644764"><ele>151.85714285714286</ele><time>2026-05-01T07:01:47.999Z</time></trkpt><trkpt lat="57.99303947596178" lon="56.34437792951637"><ele>152.42857142857142</ele><time>2026-05-01T07:01:51.998Z</time></trkpt><trkpt lat="57.99311672623123" lon="56.34436260460764"><ele>153.0</ele><time>2026-05-01T07:01:54.998Z</time></trkpt><trkpt lat="57.99320981992066" lon="56.34435273830608"><ele>153.0</ele><time>2026-05-01T07:01:57.998Z</time></trkpt><trkpt lat="57.99331228087581" lon="56.34434092295034"><ele>153.0</ele><time>2026-05-01T07:01:59.998Z</time></trkpt><trkpt lat="57.993450427277274" lon="56.344315119370535"><ele>153.0</ele><time>2026-05-01T07:02:01.998Z</time></trkpt><trkpt lat="57.99352327601853" lon="56.34430678502939"><ele>153.0</ele><time>2026-05-01T07:02:02.998Z</time></trkpt><trkpt lat="57.993589826624955" lon="56.34430196750012"><ele>153.0</ele><time>2026-05-01T07:02:03.998Z</time></trkpt><trkpt lat="57.99370204153625" lon="56.344282337906705"><ele>153.4</ele><time>2026-05-01T07:02:05.998Z</time></trkpt><trkpt lat="57.99377160491291" lon="56.34426346926725"><ele>153.8</ele><time>2026-05-01T07:02:06.998Z</time></trkpt><trkpt lat="57.993875645940605" lon="56.344216608642796"><ele>154.2</ele><time>2026-05-01T07:02:08.998Z</time></trkpt><trkpt lat="57.99397151422653" lon="56.34418921697197"><ele>154.6</ele><time>2026-05-01T07:02:10.998Z</time></trkpt><trkpt lat="57.99410596795904" lon="56.344175306507964"><ele>155.0</ele><time>2026-05-01T07:02:12.998Z</time></trkpt><trkpt lat="57.994225058960964" lon="56.34415500596493"><ele>155.2</ele><time>2026-05-01T07:02:14.998Z</time></trkpt><trkpt lat="57.99430690548138" lon="56.3441394780766"><ele>155.4</ele><time>2026-05-01T07:02:15.998Z</time></trkpt><trkpt lat="57.99440808353386" lon="56.34413666438209"><ele>155.6</ele><time>2026-05-01T07:02:18Z</time></trkpt><trkpt lat="57.99452612826433" lon="56.3441274110017"><ele>155.8</ele><time>2026-05-01T07:02:20Z</time></trkpt><trkpt lat="57.994634732478126" lon="56.34410774715208"><ele>156.0</ele><time>2026-05-01T07:02:22Z</time></trkpt><trkpt lat="57.99469856367593" lon="56.34409734669756"><ele>156.0</ele><time>2026-05-01T07:02:23Z</time></trkpt><trkpt lat="57.99477688732104" lon="56.3440917297298"><ele>156.0</ele><time>2026-05-01T07:02:24Z</time></trkpt><trkpt lat="57.9948637221563" lon="56.34409662324413"><ele>156.0</ele><time>2026-05-01T07:02:25Z</time></trkpt><trkpt lat="57.99499070431475" lon="56.3444347440894"><ele>156.0</ele><time>2026-05-01T07:02:27Z</time></trkpt><trkpt lat="57.99510789601352" lon="56.344077217387"><ele>156.16666666666666</ele><time>2026-05-01T07:02:29Z</time></trkpt><trkpt lat="57.99521719853722" lon="56.34406155209748"><ele>156.33333333333334</ele><time>2026-05-01T07:02:31Z</time></trkpt><trkpt lat="57.99531731786611" lon="56.344061551627696"><ele>156.5</ele><time>2026-05-01T07:02:33Z</time></trkpt><trkpt lat="57.9953821821936" lon="56.344048325553004"><ele>156.66666666666669</ele><time>2026-05-01T07:02:34Z</time></trkpt><trkpt lat="57.995467598416234" lon="56.34403278459766"><ele>156.83333333333334</ele><time>2026-05-01T07:02:35Z</time></trkpt><trkpt lat="57.995535522035965" lon="56.344017561392064"><ele>157.0</ele><time>2026-05-01T07:02:36Z</time></trkpt><trkpt lat="57.995654537286846" lon="56.34400382334762"><ele>157.0</ele><time>2026-05-01T07:02:38Z</time></trkpt><trkpt lat="57.99577066179768" lon="56.343993009982476"><ele>157.0</ele><time>2026-05-01T07:02:40Z</time></trkpt><trkpt lat="57.99584765205985" lon="56.34399400370037"><ele>157.0</ele><time>2026-05-01T07:02:42Z</time></trkpt><trkpt lat="57.995949319017924" lon="56.34397089751317"><ele>157.0</ele><time>2026-05-01T07:02:44Z</time></trkpt><trkpt lat="57.99603496082945" lon="56.3439542222769"><ele>157.0</ele><time>2026-05-01T07:02:46Z</time></trkpt><trkpt lat="57.99609939091113" lon="56.343953907470926"><ele>157.0</ele><time>2026-05-01T07:02:48Z</time></trkpt><trkpt lat="57.996159606234535" lon="56.343909435789094"><ele>157.0</ele><time>2026-05-01T07:02:50Z</time></trkpt><trkpt lat="57.99625291007139" lon="56.34393143329954"><ele>157.0</ele><time>2026-05-01T07:02:53Z</time></trkpt><trkpt lat="57.99629547886368" lon="56.34407527737301"><ele>157.0</ele><time>2026-05-01T07:02:55Z</time></trkpt><trkpt lat="57.99639927046193" lon="56.34408188666262"><ele>157.0</ele><time>2026-05-01T07:02:58Z</time></trkpt><trkpt lat="57.99647765605866" lon="56.34406135347403"><ele>157.0</ele><time>2026-05-01T07:03:00Z</time></trkpt><trkpt lat="57.99656726710233" lon="56.34405310041239"><ele>157.0</ele><time>2026-05-01T07:03:02Z</time></trkpt><trkpt lat="57.99664295965579" lon="56.344063352231544"><ele>157.0</ele><time>2026-05-01T07:03:03.999Z</time></trkpt><trkpt lat="57.99674891526969" lon="56.34410227952794"><ele>157.0</ele><time>2026-05-01T07:03:05.999Z</time></trkpt><trkpt lat="57.99683294588929" lon="56.34410614405703"><ele>157.0</ele><time>2026-05-01T07:03:07.999Z</time></trkpt><trkpt lat="57.99692043522596" lon="56.34406084040929"><ele>157.0</ele><time>2026-05-01T07:03:09.999Z</time></trkpt><trkpt lat="57.996993899641915" lon="56.34407540970714"><ele>157.0</ele><time>2026-05-01T07:03:11.999Z</time></trkpt><trkpt lat="57.997074771418504" lon="56.344114233035135"><ele>157.2</ele><time>2026-05-01T07:03:13.999Z</time></trkpt><trkpt lat="57.997183310490044" lon="56.34415314274732"><ele>157.39999999999998</ele><time>2026-05-01T07:03:15.999Z</time></trkpt><trkpt lat="57.99727237754294" lon="56.34417468011082"><ele>157.60000000000002</ele><time>2026-05-01T07:03:17.999Z</time></trkpt><trkpt lat="57.997374396208315" lon="56.34420747001654"><ele>157.8</ele><time>2026-05-01T07:03:19.999Z</time></trkpt><trkpt lat="57.997467115736875" lon="56.34422969211035"><ele>158.0</ele><time>2026-05-01T07:03:21.999Z</time></trkpt><trkpt lat="57.99754619057493" lon="56.34427046206644"><ele>158.0</ele><time>2026-05-01T07:03:23.999Z</time></trkpt><trkpt lat="57.99764022805653" lon="56.34431694389167"><ele>158.0</ele><time>2026-05-01T07:03:25.999Z</time></trkpt><trkpt lat="57.99772915209823" lon="56.34437020652505"><ele>158.0</ele><time>2026-05-01T07:03:27.999Z</time></trkpt><trkpt lat="57.997823694905094" lon="56.34441032116278"><ele>158.0</ele><time>2026-05-01T07:03:29.999Z</time></trkpt><trkpt lat="57.99791191428413" lon="56.34450661393063"><ele>158.0</ele><time>2026-05-01T07:03:31.999Z</time></trkpt><trkpt lat="57.99798023534995" lon="56.34458798284647"><ele>158.0</ele><time>2026-05-01T07:03:32.999Z</time></trkpt><trkpt lat="57.9980426595417" lon="56.344606979380714"><ele>158.0</ele><time>2026-05-01T07:03:33.999Z</time></trkpt><trkpt lat="57.998155332555044" lon="56.34457754310917"><ele>158.0</ele><time>2026-05-01T07:03:35.999Z</time></trkpt><trkpt lat="57.99823310773707" lon="56.34456486509853"><ele>158.0</ele><time>2026-05-01T07:03:37.999Z</time></trkpt><trkpt lat="57.998288687017954" lon="56.344483279766166"><ele>158.0</ele><time>2026-05-01T07:03:41.999Z</time></trkpt><trkpt lat="57.99837601992201" lon="56.34441149671629"><ele>158.0</ele><time>2026-05-01T07:06:25.998Z</time></trkpt><trkpt lat="57.99845143398416" lon="56.344362189180565"><ele>158.33333333333331</ele><time>2026-05-01T07:06:27.998Z</time></trkpt><trkpt lat="57.99847924325761" lon="56.344255084300734"><ele>158.66666666666666</ele><time>2026-05-01T07:06:34Z</time></trkpt><trkpt lat="57.99855826967707" lon="56.34419157906861"><ele>159.0</ele><time>2026-05-01T07:06:36Z</time></trkpt><trkpt lat="57.99863907692318" lon="56.34418707709505"><ele>159.33333333333334</ele><time>2026-05-01T07:06:38Z</time></trkpt><trkpt lat="57.99871426868819" lon="56.344131452585806"><ele>159.66666666666669</ele><time>2026-05-01T07:06:40Z</time></trkpt><trkpt lat="57.998801502605055" lon="56.344079598875254"><ele>160.0</ele><time>2026-05-01T07:06:42Z</time></trkpt><trkpt lat="57.99887968741742" lon="56.344047508346414"><ele>160.0</ele><time>2026-05-01T07:06:44Z</time></trkpt><trkpt lat="57.998979922005134" lon="56.34398178789168"><ele>160.0</ele><time>2026-05-01T07:06:47Z</time></trkpt><trkpt lat="57.999068884960906" lon="56.34399437911328"><ele>160.0</ele><time>2026-05-01T07:06:49Z</time></trkpt><trkpt lat="57.9991795058909" lon="56.344007299716914"><ele>160.0</ele><time>2026-05-01T07:06:51Z</time></trkpt><trkpt lat="57.999254839979294" lon="56.34403020822212"><ele>160.0</ele><time>2026-05-01T07:06:52Z</time></trkpt><trkpt lat="57.99931669866179" lon="56.34406178685344"><ele>160.0</ele><time>2026-05-01T07:06:53Z</time></trkpt><trkpt lat="57.99940586329608" lon="56.34409684666433"><ele>160.8</ele><time>2026-05-01T07:06:55Z</time></trkpt><trkpt lat="57.99950741733857" lon="56.34412767670678"><ele>161.6</ele><time>2026-05-01T07:06:57Z</time></trkpt><trkpt lat="57.999612542437696" lon="56.344200347760626"><ele>162.39999999999998</ele><time>2026-05-01T07:06:59Z</time></trkpt><trkpt lat="57.999698210967715" lon="56.34426728931201"><ele>163.2</ele><time>2026-05-01T07:07:00Z</time></trkpt><trkpt lat="57.99982544466437" lon="56.344357181564796"><ele>164.0</ele><time>2026-05-01T07:07:01Z</time></trkpt><trkpt lat="57.999959608568005" lon="56.344457840645724"><ele>164.0</ele><time>2026-05-01T07:07:02Z</time></trkpt><trkpt lat="58.00004128516833" lon="56.344530384616185"><ele>164.0</ele><time>2026-05-01T07:07:03Z</time></trkpt><trkpt lat="58.00009257845479" lon="56.34475687951898"><ele>164.0</ele><time>2026-05-01T07:07:05Z</time></trkpt><trkpt lat="58.00015754844259" lon="56.34480652381131"><ele>164.0</ele><time>2026-05-01T07:07:06Z</time></trkpt><trkpt lat="58.00023994889797" lon="56.34489553428168"><ele>164.0</ele><time>2026-05-01T07:07:07Z</time></trkpt><trkpt lat="58.00032431494429" lon="56.34499212648862"><ele>164.0</ele><time>2026-05-01T07:07:08Z</time></trkpt><trkpt lat="58.00046481982896" lon="56.34515298122403"><ele>164.0</ele><time>2026-05-01T07:07:09Z</time></trkpt><trkpt lat="58.00071657524218" lon="56.34502917473596"><ele>164.0</ele><time>2026-05-01T07:07:10Z</time></trkpt><trkpt lat="58.000841084187115" lon="56.34515625072438"><ele>163.5</ele><time>2026-05-01T07:07:11Z</time></trkpt><trkpt lat="58.000829552789334" lon="56.34557077452684"><ele>163.0</ele><time>2026-05-01T07:07:11.999Z</time></trkpt><trkpt lat="58.00090879637421" lon="56.3456617311758"><ele>162.5</ele><time>2026-05-01T07:07:12.999Z</time></trkpt><trkpt lat="58.000979593213756" lon="56.34574299249701"><ele>162.0</ele><time>2026-05-01T07:07:13.999Z</time></trkpt><trkpt lat="58.00104777197642" lon="56.34582124883488"><ele>162.0</ele><time>2026-05-01T07:07:14.999Z</time></trkpt><trkpt lat="58.00113916484591" lon="56.34592615051626"><ele>162.0</ele><time>2026-05-01T07:07:15.999Z</time></trkpt><trkpt lat="58.001218007343056" lon="56.34601655627524"><ele>162.0</ele><time>2026-05-01T07:07:16.999Z</time></trkpt><trkpt lat="58.001283806675886" lon="56.34609175302306"><ele>162.0</ele><time>2026-05-01T07:07:17.999Z</time></trkpt><trkpt lat="58.0013585117527" lon="56.34617712742937"><ele>162.0</ele><time>2026-05-01T07:07:18.999Z</time></trkpt><trkpt lat="58.0014283614012" lon="56.34625695292332"><ele>162.0</ele><time>2026-05-01T07:07:19.999Z</time></trkpt><trkpt lat="58.00149367498717" lon="56.34633159455133"><ele>162.0</ele><time>2026-05-01T07:07:20.999Z</time></trkpt><trkpt lat="58.00157386598373" lon="56.34642323837292"><ele>162.0</ele><time>2026-05-01T07:07:21.999Z</time></trkpt><trkpt lat="58.00167458282256" lon="56.34653881143544"><ele>162.0</ele><time>2026-05-01T07:07:22.999Z</time></trkpt><trkpt lat="58.00175591478099" lon="56.34663215066787"><ele>162.0</ele><time>2026-05-01T07:07:23.999Z</time></trkpt><trkpt lat="58.00197763419364" lon="56.346228475677606"><ele>162.0</ele><time>2026-05-01T07:07:24.999Z</time></trkpt><trkpt lat="58.00205494074941" lon="56.346291686927046"><ele>162.0</ele><time>2026-05-01T07:07:25.999Z</time></trkpt><trkpt lat="58.00214854068244" lon="56.34633928115665"><ele>162.0</ele><time>2026-05-01T07:07:26.999Z</time></trkpt><trkpt lat="58.00204680709909" lon="56.34696479293077"><ele>161.83333333333334</ele><time>2026-05-01T07:07:27.999Z</time></trkpt><trkpt lat="58.00212434004852" lon="56.347053386145305"><ele>161.66666666666666</ele><time>2026-05-01T07:07:28.999Z</time></trkpt><trkpt lat="58.0021883403955" lon="56.34712651532503"><ele>161.5</ele><time>2026-05-01T07:07:29.999Z</time></trkpt><trkpt lat="58.0022458528786" lon="56.34719223177156"><ele>161.33333333333331</ele><time>2026-05-01T07:07:30.999Z</time></trkpt><trkpt lat="58.00234960673517" lon="56.3473108539233"><ele>161.16666666666666</ele><time>2026-05-01T07:07:32.999Z</time></trkpt><trkpt lat="58.00240825276126" lon="56.34737791440807"><ele>161.0</ele><time>2026-05-01T07:07:33.999Z</time></trkpt><trkpt lat="58.00251335082294" lon="56.34749809227651"><ele>160.8</ele><time>2026-05-01T07:07:35.999Z</time></trkpt><trkpt lat="58.002596883552094" lon="56.34759361109981"><ele>160.60000000000002</ele><time>2026-05-01T07:07:37.999Z</time></trkpt><trkpt lat="58.002672976049126" lon="56.3476806217277"><ele>160.4</ele><time>2026-05-01T07:07:39.999Z</time></trkpt><trkpt lat="58.002736195045024" lon="56.34775291645972"><ele>160.2</ele><time>2026-05-01T07:07:41.999Z</time></trkpt><trkpt lat="58.0028120812967" lon="56.347839701169335"><ele>160.0</ele><time>2026-05-01T07:07:45.999Z</time></trkpt><trkpt lat="58.0027006344142" lon="56.347715055826896"><ele>160.0</ele><time>2026-05-01T07:07:47.999Z</time></trkpt><trkpt lat="58.00332750531195" lon="56.34728419601994"><ele>160.16666666666669</ele><time>2026-05-01T07:07:55.999Z</time></trkpt><trkpt lat="58.00339716402567" lon="56.34726909709481"><ele>160.33333333333334</ele><time>2026-05-01T07:07:56.999Z</time></trkpt><trkpt lat="58.00346242944785" lon="56.34725256740627"><ele>160.5</ele><time>2026-05-01T07:07:57.999Z</time></trkpt><trkpt lat="58.00357391898621" lon="56.34726530881314"><ele>160.66666666666666</ele><time>2026-05-01T07:07:59.999Z</time></trkpt><trkpt lat="58.00363692929172" lon="56.34726892777633"><ele>160.83333333333331</ele><time>2026-05-01T07:08:00.999Z</time></trkpt><trkpt lat="58.003703530652515" lon="56.347271757512665"><ele>161.0</ele><time>2026-05-01T07:08:01.999Z</time></trkpt><trkpt lat="58.00378477736093" lon="56.34727199332643"><ele>161.0</ele><time>2026-05-01T07:08:02.999Z</time></trkpt><trkpt lat="58.00386166876046" lon="56.34726529220229"><ele>161.0</ele><time>2026-05-01T07:08:03.999Z</time></trkpt><trkpt lat="58.00399337484017" lon="56.34723731920182"><ele>161.0</ele><time>2026-05-01T07:08:05.998Z</time></trkpt><trkpt lat="58.00408033286135" lon="56.34723093902051"><ele>161.0</ele><time>2026-05-01T07:08:06.998Z</time></trkpt><trkpt lat="58.004153862396805" lon="56.34722888078434"><ele>161.0</ele><time>2026-05-01T07:08:07.998Z</time></trkpt><trkpt lat="58.00421995891871" lon="56.34724287033892"><ele>161.0</ele><time>2026-05-01T07:08:08.998Z</time></trkpt><trkpt lat="58.00429933536421" lon="56.34726374644578"><ele>161.0</ele><time>2026-05-01T07:08:09.998Z</time></trkpt><trkpt lat="58.00437456254839" lon="56.34727375232502"><ele>161.0</ele><time>2026-05-01T07:08:10.998Z</time></trkpt><trkpt lat="58.00444116388506" lon="56.34728730699343"><ele>161.0</ele><time>2026-05-01T07:08:11.998Z</time></trkpt><trkpt lat="58.00450928740031" lon="56.34731457916922"><ele>161.0</ele><time>2026-05-01T07:08:12.998Z</time></trkpt><trkpt lat="58.00458253879471" lon="56.34735169267549"><ele>161.0</ele><time>2026-05-01T07:08:13.998Z</time></trkpt><trkpt lat="58.004661276982816" lon="56.347392199583275"><ele>161.0</ele><time>2026-05-01T07:08:14.998Z</time></trkpt><trkpt lat="58.00472872866333" lon="56.347410374420264"><ele>161.0</ele><time>2026-05-01T07:08:15.998Z</time></trkpt><trkpt lat="58.00479439614626" lon="56.34743991043457"><ele>161.0</ele><time>2026-05-01T07:08:16.998Z</time></trkpt><trkpt lat="58.00486666735889" lon="56.34746971902521"><ele>161.0</ele><time>2026-05-01T07:08:17.998Z</time></trkpt><trkpt lat="58.00494134181245" lon="56.347488273413305"><ele>161.0</ele><time>2026-05-01T07:08:18.998Z</time></trkpt><trkpt lat="58.00506128499562" lon="56.347472283671834"><ele>161.0</ele><time>2026-05-01T07:08:20.998Z</time></trkpt><trkpt lat="58.00512051405268" lon="56.34743023013339"><ele>161.0</ele><time>2026-05-01T07:08:21.998Z</time></trkpt><trkpt lat="58.00523026764945" lon="56.34737507799686"><ele>161.0</ele><time>2026-05-01T07:08:23.998Z</time></trkpt><trkpt lat="58.00534444564698" lon="56.347304698202734"><ele>161.16666666666666</ele><time>2026-05-01T07:08:25.998Z</time></trkpt><trkpt lat="58.0054077759778" lon="56.34727253084909"><ele>161.33333333333331</ele><time>2026-05-01T07:08:26.998Z</time></trkpt><trkpt lat="58.005491361789275" lon="56.347224688827694"><ele>161.5</ele><time>2026-05-01T07:08:28.998Z</time></trkpt><trkpt lat="58.00557672200064" lon="56.34717896892528"><ele>161.66666666666666</ele><time>2026-05-01T07:08:30.998Z</time></trkpt><trkpt lat="58.00565755544145" lon="56.34712262460942"><ele>161.83333333333334</ele><time>2026-05-01T07:08:32.998Z</time></trkpt><trkpt lat="58.00572528399978" lon="56.34705115334787"><ele>162.0</ele><time>2026-05-01T07:08:35Z</time></trkpt><trkpt lat="58.005792876571206" lon="56.34702215209463"><ele>161.8</ele><time>2026-05-01T07:08:37Z</time></trkpt><trkpt lat="58.00586063175939" lon="56.34693138215722"><ele>161.6</ele><time>2026-05-01T07:08:40Z</time></trkpt><trkpt lat="58.00592363570385" lon="56.346864824085145"><ele>161.4</ele><time>2026-05-01T07:08:42Z</time></trkpt><trkpt lat="58.00601473238358" lon="56.34683323719702"><ele>161.20000000000002</ele><time>2026-05-01T07:08:45Z</time></trkpt><trkpt lat="58.00612031107586" lon="56.346744598240704"><ele>161.0</ele><time>2026-05-01T07:08:56Z</time></trkpt><trkpt lat="58.006238062672836" lon="56.346730258656194"><ele>161.0</ele><time>2026-05-01T07:08:58Z</time></trkpt><trkpt lat="58.006313820349575" lon="56.34669567681785"><ele>161.0</ele><time>2026-05-01T07:08:59Z</time></trkpt><trkpt lat="58.006364236896104" lon="56.34661933644288"><ele>161.0</ele><time>2026-05-01T07:09:00Z</time></trkpt><trkpt lat="58.00645659668717" lon="56.34645426477728"><ele>161.0</ele><time>2026-05-01T07:09:02Z</time></trkpt><trkpt lat="58.00648353611627" lon="56.34634198292988"><ele>161.0</ele><time>2026-05-01T07:09:03Z</time></trkpt><trkpt lat="58.00652163897362" lon="56.34624202342463"><ele>161.0</ele><time>2026-05-01T07:09:04Z</time></trkpt><trkpt lat="58.00656974277555" lon="56.34615446774656"><ele>161.0</ele><time>2026-05-01T07:09:05Z</time></trkpt><trkpt lat="58.00665979063034" lon="56.34604343292733"><ele>161.0</ele><time>2026-05-01T07:09:07Z</time></trkpt><trkpt lat="58.00674479248893" lon="56.34602833573401"><ele>161.0</ele><time>2026-05-01T07:09:09Z</time></trkpt><trkpt lat="58.006814120965934" lon="56.34606611051644"><ele>161.0</ele><time>2026-05-01T07:09:12Z</time></trkpt><trkpt lat="58.006810250562786" lon="56.34619696679408"><ele>161.0</ele><time>2026-05-01T07:09:17Z</time></trkpt><trkpt lat="58.00682590323228" lon="56.34631433078183"><ele>161.0</ele><time>2026-05-01T07:09:52.999Z</time></trkpt><trkpt lat="58.006832692339" lon="56.34644013905742"><ele>161.16666666666666</ele><time>2026-05-01T07:09:54.999Z</time></trkpt><trkpt lat="58.00685397530655" lon="56.34660109914638"><ele>161.33333333333331</ele><time>2026-05-01T07:09:56.999Z</time></trkpt><trkpt lat="58.00687088866616" lon="56.34677658057747"><ele>161.5</ele><time>2026-05-01T07:09:58.999Z</time></trkpt><trkpt lat="58.00689517090308" lon="56.34694096096848"><ele>161.66666666666666</ele><time>2026-05-01T07:10:01.999Z</time></trkpt><trkpt lat="58.00692391186547" lon="56.347090746728135"><ele>161.83333333333334</ele><time>2026-05-01T07:10:03.999Z</time></trkpt><trkpt lat="58.006948433498444" lon="56.34720241932585"><ele>162.0</ele><time>2026-05-01T07:10:05.999Z</time></trkpt><trkpt lat="58.0069799619513" lon="56.34733628146036"><ele>162.39999999999998</ele><time>2026-05-01T07:10:07.999Z</time></trkpt><trkpt lat="58.00700463016619" lon="56.3474894799182"><ele>162.79999999999998</ele><time>2026-05-01T07:10:09.999Z</time></trkpt><trkpt lat="58.006977508606504" lon="56.34774969263655"><ele>163.2</ele><time>2026-05-01T07:10:12.998Z</time></trkpt><trkpt lat="58.006986236143824" lon="56.347896616183654"><ele>163.6</ele><time>2026-05-01T07:10:13.998Z</time></trkpt><trkpt lat="58.00700508369699" lon="56.34808630077662"><ele>164.0</ele><time>2026-05-01T07:10:15.998Z</time></trkpt><trkpt lat="58.00702525184339" lon="56.34820138879628"><ele>164.14285714285714</ele><time>2026-05-01T07:10:17.998Z</time></trkpt><trkpt lat="58.00703845101652" lon="56.348319920396385"><ele>164.28571428571428</ele><time>2026-05-01T07:10:18.998Z</time></trkpt><trkpt lat="58.00705302172677" lon="56.34843883927529"><ele>164.42857142857144</ele><time>2026-05-01T07:10:19.998Z</time></trkpt><trkpt lat="58.007072079513556" lon="56.34857142993964"><ele>164.57142857142856</ele><time>2026-05-01T07:10:20.998Z</time></trkpt><trkpt lat="58.00709582496472" lon="56.34873184407527"><ele>164.71428571428572</ele><time>2026-05-01T07:10:21.998Z</time></trkpt><trkpt lat="58.00712615349609" lon="56.34888987557094"><ele>164.85714285714286</ele><time>2026-05-01T07:10:22.998Z</time></trkpt><trkpt lat="58.00714940453665" lon="56.34901194522133"><ele>165.0</ele><time>2026-05-01T07:10:23.998Z</time></trkpt><trkpt lat="58.007163794533405" lon="56.34912788128176"><ele>165.4</ele><time>2026-05-01T07:10:24.998Z</time></trkpt><trkpt lat="58.00720187740849" lon="56.349344189099114"><ele>165.8</ele><time>2026-05-01T07:10:26.998Z</time></trkpt><trkpt lat="58.007239688404624" lon="56.34954895905896"><ele>166.2</ele><time>2026-05-01T07:10:28.998Z</time></trkpt><trkpt lat="58.00728282343552" lon="56.34975821667006"><ele>166.6</ele><time>2026-05-01T07:10:30.998Z</time></trkpt><trkpt lat="58.00730901152469" lon="56.34987478788402"><ele>167.0</ele><time>2026-05-01T07:10:31.998Z</time></trkpt><trkpt lat="58.00733496222852" lon="56.34999352033358"><ele>167.0</ele><time>2026-05-01T07:10:32.998Z</time></trkpt><trkpt lat="58.00742503583901" lon="56.35019153972144"><ele>167.0</ele><time>2026-05-01T07:10:33.998Z</time></trkpt><trkpt lat="58.00746021354549" lon="56.35034443823178"><ele>167.0</ele><time>2026-05-01T07:10:34.998Z</time></trkpt><trkpt lat="58.007488313961" lon="56.350488432526625"><ele>167.0</ele><time>2026-05-01T07:10:35.998Z</time></trkpt><trkpt lat="58.00751817765151" lon="56.35065690478856"><ele>167.0</ele><time>2026-05-01T07:10:36.998Z</time></trkpt><trkpt lat="58.00754179597063" lon="56.35078941726066"><ele>167.0</ele><time>2026-05-01T07:10:37.998Z</time></trkpt><trkpt lat="58.00757525084558" lon="56.35097487172558"><ele>167.0</ele><time>2026-05-01T07:10:40Z</time></trkpt><trkpt lat="58.007605956282745" lon="56.35107926872393"><ele>167.0</ele><time>2026-05-01T07:10:42Z</time></trkpt><trkpt lat="58.00764657323377" lon="56.35118599881732"><ele>167.0</ele><time>2026-05-01T07:10:44Z</time></trkpt><trkpt lat="58.007681014921644" lon="56.351347347215174"><ele>167.0</ele><time>2026-05-01T07:10:46Z</time></trkpt><trkpt lat="58.0076950334797" lon="56.35147553122622"><ele>167.0</ele><time>2026-05-01T07:10:47Z</time></trkpt><trkpt lat="58.00772547362154" lon="56.35166958510593"><ele>167.2</ele><time>2026-05-01T07:10:49Z</time></trkpt><trkpt lat="58.00775630864753" lon="56.35177851112017"><ele>167.39999999999998</ele><time>2026-05-01T07:10:50Z</time></trkpt><trkpt lat="58.007835719333514" lon="56.35194106827943"><ele>167.60000000000002</ele><time>2026-05-01T07:10:52Z</time></trkpt><trkpt lat="58.00791270051188" lon="56.35208843212766"><ele>167.8</ele><time>2026-05-01T07:10:54Z</time></trkpt><trkpt lat="58.0079832717993" lon="56.352294726576616"><ele>168.0</ele><time>2026-05-01T07:10:56Z</time></trkpt><trkpt lat="58.008025955571696" lon="56.35238812024944"><ele>168.0</ele><time>2026-05-01T07:10:57Z</time></trkpt><trkpt lat="58.00809838767223" lon="56.35254697458825"><ele>168.0</ele><time>2026-05-01T07:10:59Z</time></trkpt><trkpt lat="58.00815510730343" lon="56.35274629875365"><ele>168.0</ele><time>2026-05-01T07:11:01Z</time></trkpt><trkpt lat="58.00817256843633" lon="56.35286284659188"><ele>168.0</ele><time>2026-05-01T07:11:02Z</time></trkpt><trkpt lat="58.00816415534485" lon="56.353088844131754"><ele>168.0</ele><time>2026-05-01T07:11:04Z</time></trkpt><trkpt lat="58.00816273690153" lon="56.3533234150148"><ele>168.0</ele><time>2026-05-01T07:11:06Z</time></trkpt><trkpt lat="58.00816605680098" lon="56.353485175102385"><ele>168.0</ele><time>2026-05-01T07:11:07Z</time></trkpt><trkpt lat="58.0081691650447" lon="56.35371018350875"><ele>168.0</ele><time>2026-05-01T07:11:08Z</time></trkpt><trkpt lat="58.008165765102596" lon="56.35389892232055"><ele>168.0</ele><time>2026-05-01T07:11:09Z</time></trkpt><trkpt lat="58.008170949591886" lon="56.35402824226951"><ele>168.0</ele><time>2026-05-01T07:11:10Z</time></trkpt><trkpt lat="58.008162376136454" lon="56.354151721447835"><ele>168.0</ele><time>2026-05-01T07:11:11Z</time></trkpt><trkpt lat="58.00815338646418" lon="56.35427647413212"><ele>168.0</ele><time>2026-05-01T07:11:12Z</time></trkpt><trkpt lat="58.008149835309816" lon="56.35443559685272"><ele>168.0</ele><time>2026-05-01T07:11:13Z</time></trkpt><trkpt lat="58.00814209037046" lon="56.354568188727654"><ele>168.0</ele><time>2026-05-01T07:11:14Z</time></trkpt><trkpt lat="58.00814138365386" lon="56.35479152124096"><ele>168.0</ele><time>2026-05-01T07:11:16Z</time></trkpt><trkpt lat="58.00815063214614" lon="56.35499386045925"><ele>168.0</ele><time>2026-05-01T07:11:18Z</time></trkpt><trkpt lat="58.00817531434941" lon="56.35511553543485"><ele>167.8</ele><time>2026-05-01T07:11:20Z</time></trkpt><trkpt lat="58.00820770542753" lon="56.355312807202196"><ele>167.60000000000002</ele><time>2026-05-01T07:11:22.999Z</time></trkpt><trkpt lat="58.008193635328325" lon="56.355568739053915"><ele>167.39999999999998</ele><time>2026-05-01T07:11:24.999Z</time></trkpt><trkpt lat="58.00817673912564" lon="56.3557438818907"><ele>167.2</ele><time>2026-05-01T07:11:25.999Z</time></trkpt><trkpt lat="58.0081755710023" lon="56.35588618035725"><ele>167.0</ele><time>2026-05-01T07:11:26.999Z</time></trkpt><trkpt lat="58.008158826951465" lon="56.3561041936673"><ele>167.0</ele><time>2026-05-01T07:11:28.999Z</time></trkpt><trkpt lat="58.00814991358362" lon="56.356222270543064"><ele>167.0</ele><time>2026-05-01T07:11:29.999Z</time></trkpt><trkpt lat="58.008157332505625" lon="56.356437901898815"><ele>167.0</ele><time>2026-05-01T07:11:31.999Z</time></trkpt><trkpt lat="58.008191760486426" lon="56.356641885845825"><ele>167.0</ele><time>2026-05-01T07:11:33.999Z</time></trkpt><trkpt lat="58.00819310468057" lon="56.35683805241052"><ele>167.0</ele><time>2026-05-01T07:11:35.999Z</time></trkpt><trkpt lat="58.00819231835298" lon="56.357012755107824"><ele>167.2</ele><time>2026-05-01T07:11:37.999Z</time></trkpt><trkpt lat="58.00819681476778" lon="56.35716878255838"><ele>167.39999999999998</ele><time>2026-05-01T07:11:39.999Z</time></trkpt><trkpt lat="58.008233743974785" lon="56.35732274921054"><ele>167.60000000000002</ele><time>2026-05-01T07:11:41.999Z</time></trkpt><trkpt lat="58.00833172070504" lon="56.35746874321895"><ele>167.8</ele><time>2026-05-01T07:11:43.999Z</time></trkpt><trkpt lat="58.00841030895754" lon="56.357455816690994"><ele>168.0</ele><time>2026-05-01T07:11:44.999Z</time></trkpt><trkpt lat="58.00850752720108" lon="56.35757884730907"><ele>166.8</ele><time>2026-05-01T07:11:46.999Z</time></trkpt><trkpt lat="58.00858621284947" lon="56.35767842457151"><ele>165.60000000000002</ele><time>2026-05-01T07:11:48.999Z</time></trkpt><trkpt lat="58.00869060113228" lon="56.35781052888759"><ele>164.39999999999998</ele><time>2026-05-01T07:11:50.999Z</time></trkpt><trkpt lat="58.00875704110071" lon="56.35789459458078"><ele>163.2</ele><time>2026-05-01T07:11:51.999Z</time></trkpt><trkpt lat="58.008777616647386" lon="56.3580550544171"><ele>162.0</ele><time>2026-05-01T07:11:52.999Z</time></trkpt><trkpt lat="58.00886055535931" lon="56.35816078876006"><ele>162.0</ele><time>2026-05-01T07:11:54.999Z</time></trkpt><trkpt lat="58.0089239457319" lon="56.35825316686368"><ele>162.0</ele><time>2026-05-01T07:11:56.999Z</time></trkpt><trkpt lat="58.009008143958525" lon="56.35836474725898"><ele>162.0</ele><time>2026-05-01T07:11:58.999Z</time></trkpt><trkpt lat="58.00908012370202" lon="56.358432400714335"><ele>162.0</ele><time>2026-05-01T07:12:00.999Z</time></trkpt><trkpt lat="58.009156833823276" lon="56.35848832464885"><ele>162.0</ele><time>2026-05-01T07:12:02.999Z</time></trkpt><trkpt lat="58.009244721247015" lon="56.35856985447982"><ele>162.0</ele><time>2026-05-01T07:12:04.999Z</time></trkpt><trkpt lat="58.009310937685306" lon="56.35864090393751"><ele>161.5</ele><time>2026-05-01T07:12:06.999Z</time></trkpt><trkpt lat="58.00938630249106" lon="56.35871891429747"><ele>161.0</ele><time>2026-05-01T07:12:08.999Z</time></trkpt><trkpt lat="58.009462330643714" lon="56.35880184438866"><ele>160.5</ele><time>2026-05-01T07:12:11.999Z</time></trkpt><trkpt lat="58.00950044231578" lon="56.35891597019737"><ele>160.0</ele><time>2026-05-01T07:12:14.999Z</time></trkpt><trkpt lat="58.0095413538958" lon="56.35903995188662"><ele>159.5</ele><time>2026-05-01T07:12:17.998Z</time></trkpt><trkpt lat="58.00958343356177" lon="56.359134290034284"><ele>159.0</ele><time>2026-05-01T07:12:20.998Z</time></trkpt><trkpt lat="58.00962094108024" lon="56.35924233412104"><ele>158.85714285714286</ele><time>2026-05-01T07:12:25.998Z</time></trkpt><trkpt lat="58.009686198730215" lon="56.35930908472208"><ele>158.71428571428572</ele><time>2026-05-01T07:12:33.998Z</time></trkpt><trkpt lat="58.009750505216836" lon="56.35937454865855"><ele>158.57142857142858</ele><time>2026-05-01T07:12:39.998Z</time></trkpt><trkpt lat="58.009805033874976" lon="56.35944314960827"><ele>158.42857142857144</ele><time>2026-05-01T07:12:48Z</time></trkpt><trkpt lat="58.00986514357895" lon="56.35937400556354"><ele>158.28571428571428</ele><time>2026-05-01T07:13:14Z</time></trkpt><trkpt lat="58.009850452807626" lon="56.35924829449425"><ele>158.14285714285717</ele><time>2026-05-01T07:13:17Z</time></trkpt><trkpt lat="58.009796673004146" lon="56.359331050523046"><ele>158.0</ele><time>2026-05-01T07:13:33.999Z</time></trkpt><trkpt lat="58.009883218090366" lon="56.3594414122049"><ele>158.0</ele><time>2026-05-01T07:13:35.999Z</time></trkpt><trkpt lat="58.00997434396687" lon="56.35956110966071"><ele>158.0</ele><time>2026-05-01T07:13:37.999Z</time></trkpt><trkpt lat="58.010041654101514" lon="56.35958641163861"><ele>158.0</ele><time>2026-05-01T07:13:38.999Z</time></trkpt><trkpt lat="58.01015451197217" lon="56.35973700284563"><ele>158.0</ele><time>2026-05-01T07:13:40.999Z</time></trkpt><trkpt lat="58.010249107834134" lon="56.35988783235388"><ele>158.0</ele><time>2026-05-01T07:13:41.999Z</time></trkpt><trkpt lat="58.01037893190825" lon="56.35995347275791"><ele>159.0</ele><time>2026-05-01T07:13:42.999Z</time></trkpt><trkpt lat="58.010473543138126" lon="56.360001592067675"><ele>160.0</ele><time>2026-05-01T07:13:43.999Z</time></trkpt><trkpt lat="58.01055077693689" lon="56.36004091009893"><ele>161.0</ele><time>2026-05-01T07:13:44.999Z</time></trkpt><trkpt lat="58.01063526103944" lon="56.36008412080023"><ele>162.0</ele><time>2026-05-01T07:13:45.999Z</time></trkpt><trkpt lat="58.01074197626475" lon="56.3601387019467"><ele>163.0</ele><time>2026-05-01T07:13:46.999Z</time></trkpt><trkpt lat="58.010852475648896" lon="56.36019521816389"><ele>163.66666666666669</ele><time>2026-05-01T07:13:47.999Z</time></trkpt><trkpt lat="58.010940871000486" lon="56.360240429313926"><ele>164.33333333333334</ele><time>2026-05-01T07:13:48.999Z</time></trkpt><trkpt lat="58.01101672883966" lon="56.360279444651084"><ele>165.0</ele><time>2026-05-01T07:13:49.999Z</time></trkpt><trkpt lat="58.01108945569819" lon="56.36031705201865"><ele>165.66666666666666</ele><time>2026-05-01T07:13:50.999Z</time></trkpt><trkpt lat="58.01118157753182" lon="56.36036468916653"><ele>166.33333333333331</ele><time>2026-05-01T07:13:51.999Z</time></trkpt><trkpt lat="58.011266148980454" lon="56.3604079187748"><ele>167.0</ele><time>2026-05-01T07:13:52.999Z</time></trkpt><trkpt lat="58.0113408143382" lon="56.36044606104967"><ele>167.0</ele><time>2026-05-01T07:13:53.999Z</time></trkpt><trkpt lat="58.01140845523777" lon="56.36048057929459"><ele>167.0</ele><time>2026-05-01T07:13:54.999Z</time></trkpt><trkpt lat="58.011472448780665" lon="56.36051311896789"><ele>167.0</ele><time>2026-05-01T07:13:55.999Z</time></trkpt><trkpt lat="58.01153528427049" lon="56.36054507375403"><ele>167.0</ele><time>2026-05-01T07:13:56.999Z</time></trkpt><trkpt lat="58.01161242169733" lon="56.36058434333577"><ele>167.0</ele><time>2026-05-01T07:13:57.999Z</time></trkpt><trkpt lat="58.01168925234634" lon="56.3606236018"><ele>167.0</ele><time>2026-05-01T07:13:58.999Z</time></trkpt><trkpt lat="58.011755415851155" lon="56.36065740963691"><ele>167.0</ele><time>2026-05-01T07:13:59.999Z</time></trkpt><trkpt lat="58.01187475707037" lon="56.36071838994791"><ele>166.33333333333331</ele><time>2026-05-01T07:14:01.999Z</time></trkpt><trkpt lat="58.01195125093978" lon="56.36075747630798"><ele>165.66666666666666</ele><time>2026-05-01T07:14:02.999Z</time></trkpt><trkpt lat="58.01201791539151" lon="56.36079154006951"><ele>165.0</ele><time>2026-05-01T07:14:03.999Z</time></trkpt><trkpt lat="58.01213485866024" lon="56.360851295098264"><ele>164.33333333333334</ele><time>2026-05-01T07:14:05.999Z</time></trkpt><trkpt lat="58.01219775267126" lon="56.36088339888816"><ele>163.66666666666669</ele><time>2026-05-01T07:14:06.999Z</time></trkpt><trkpt lat="58.01226048027864" lon="56.36091541131414"><ele>163.0</ele><time>2026-05-01T07:14:07.999Z</time></trkpt><trkpt lat="58.012323000592225" lon="56.36094739794377"><ele>163.0</ele><time>2026-05-01T07:14:08.999Z</time></trkpt><trkpt lat="58.012402466674075" lon="56.360988179335074"><ele>163.0</ele><time>2026-05-01T07:14:09.999Z</time></trkpt><trkpt lat="58.01247618165157" lon="56.36102600925324"><ele>163.0</ele><time>2026-05-01T07:14:10.999Z</time></trkpt><trkpt lat="58.01258835929259" lon="56.36108348477975"><ele>163.0</ele><time>2026-05-01T07:14:12.999Z</time></trkpt><trkpt lat="58.0126600137805" lon="56.361101745807616"><ele>163.0</ele><time>2026-05-01T07:14:14.999Z</time></trkpt><trkpt lat="58.01275580744676" lon="56.3611213893183"><ele>163.0</ele><time>2026-05-01T07:14:16.999Z</time></trkpt><trkpt lat="58.012828345807634" lon="56.361136264077984"><ele>162.0</ele><time>2026-05-01T07:14:18.999Z</time></trkpt><trkpt lat="58.012924899288834" lon="56.36115606390227"><ele>161.0</ele><time>2026-05-01T07:14:21.998Z</time></trkpt><trkpt lat="58.013000989938526" lon="56.361030226562406"><ele>160.0</ele><time>2026-05-01T07:14:23.998Z</time></trkpt><trkpt lat="58.013163359989306" lon="56.361430388131375"><ele>160.0</ele><time>2026-05-01T07:14:31.998Z</time></trkpt><trkpt lat="58.01323530069783" lon="56.36145947223849"><ele>160.0</ele><time>2026-05-01T07:14:35.998Z</time></trkpt><trkpt lat="58.01331540120654" lon="56.36148921957188"><ele>160.0</ele><time>2026-05-01T07:14:40.998Z</time></trkpt><trkpt lat="58.01338283431537" lon="56.36153789330155"><ele>160.0</ele><time>2026-05-01T07:14:45.998Z</time></trkpt><trkpt lat="58.0135224299349" lon="56.361549637723726"><ele>160.0</ele><time>2026-05-01T07:15:20Z</time></trkpt><trkpt lat="58.01359305526298" lon="56.36160475787701"><ele>160.0</ele><time>2026-05-01T07:15:26Z</time></trkpt><trkpt lat="58.01371855795167" lon="56.36157599981487"><ele>158.66666666666669</ele><time>2026-05-01T07:15:34.999Z</time></trkpt><trkpt lat="58.01377882585775" lon="56.36165055469306"><ele>157.33333333333334</ele><time>2026-05-01T07:15:40.999Z</time></trkpt><trkpt lat="58.01385035742207" lon="56.36171380048843"><ele>156.0</ele><time>2026-05-01T07:15:42.999Z</time></trkpt><trkpt lat="58.01394813405887" lon="56.361729029172196"><ele>154.66666666666666</ele><time>2026-05-01T07:16:33.998Z</time></trkpt><trkpt lat="58.01401222395111" lon="56.361762433114805"><ele>153.33333333333331</ele><time>2026-05-01T07:16:35.998Z</time></trkpt><trkpt lat="58.01409569342424" lon="56.36179064496231"><ele>152.0</ele><time>2026-05-01T07:16:38.998Z</time></trkpt><trkpt lat="58.014158425299506" lon="56.361816651685"><ele>151.66666666666666</ele><time>2026-05-01T07:16:39.998Z</time></trkpt><trkpt lat="58.014229999487576" lon="56.36186848125507"><ele>151.33333333333331</ele><time>2026-05-01T07:16:40.998Z</time></trkpt><trkpt lat="58.014325312133714" lon="56.36194820757985"><ele>151.0</ele><time>2026-05-01T07:16:42.998Z</time></trkpt><trkpt lat="58.01440037915723" lon="56.36200433021102"><ele>150.66666666666666</ele><time>2026-05-01T07:16:44.998Z</time></trkpt><trkpt lat="58.014461684772556" lon="56.36205356761338"><ele>150.33333333333334</ele><time>2026-05-01T07:16:46.998Z</time></trkpt><trkpt lat="58.014527832471806" lon="56.36207995055647"><ele>150.0</ele><time>2026-05-01T07:16:48.998Z</time></trkpt><trkpt lat="58.01460278733267" lon="56.362097289572496"><ele>150.0</ele><time>2026-05-01T07:16:51.998Z</time></trkpt><trkpt lat="58.01466231871549" lon="56.36213828740558"><ele>150.0</ele><time>2026-05-01T07:16:54.998Z</time></trkpt><trkpt lat="58.01475865964638" lon="56.36214401064995"><ele>150.0</ele><time>2026-05-01T07:17:07Z</time></trkpt><trkpt lat="58.01485036400833" lon="56.3621759707608"><ele>150.0</ele><time>2026-05-01T07:17:09Z</time></trkpt><trkpt lat="58.01491237495315" lon="56.362207623668596"><ele>150.0</ele><time>2026-05-01T07:17:10Z</time></trkpt><trkpt lat="58.0149755889624" lon="56.36224342000504"><ele>150.0</ele><time>2026-05-01T07:17:11Z</time></trkpt><trkpt lat="58.01506774784894" lon="56.362271917030085"><ele>152.6</ele><time>2026-05-01T07:17:13Z</time></trkpt><trkpt lat="58.01515685773477" lon="56.362340445587506"><ele>155.2</ele><time>2026-05-01T07:17:15Z</time></trkpt><trkpt lat="58.015262697973526" lon="56.36239919904019"><ele>157.8</ele><time>2026-05-01T07:17:17Z</time></trkpt><trkpt lat="58.01532890406827" lon="56.36242063930947"><ele>160.4</ele><time>2026-05-01T07:17:18Z</time></trkpt><trkpt lat="58.015412321998156" lon="56.36245834122993"><ele>163.0</ele><time>2026-05-01T07:17:20Z</time></trkpt><trkpt lat="58.015498562611185" lon="56.36252078279557"><ele>163.0</ele><time>2026-05-01T07:17:22Z</time></trkpt><trkpt lat="58.01560600210098" lon="56.36256211534612"><ele>163.0</ele><time>2026-05-01T07:17:24Z</time></trkpt><trkpt lat="58.01569831685003" lon="56.36259734611714"><ele>163.0</ele><time>2026-05-01T07:17:26Z</time></trkpt><trkpt lat="58.015806139727" lon="56.36266524371222"><ele>163.0</ele><time>2026-05-01T07:17:28Z</time></trkpt><trkpt lat="58.015868981658926" lon="56.36280852882643"><ele>163.0</ele><time>2026-05-01T07:17:30Z</time></trkpt><trkpt lat="58.016022093187615" lon="56.36280621344684"><ele>163.66666666666669</ele><time>2026-05-01T07:17:32Z</time></trkpt><trkpt lat="58.0160818070635" lon="56.36286064729951"><ele>164.33333333333334</ele><time>2026-05-01T07:17:33Z</time></trkpt><trkpt lat="58.01617963467694" lon="56.36290533488051"><ele>165.0</ele><time>2026-05-01T07:17:35Z</time></trkpt><trkpt lat="58.01628157800716" lon="56.362955276683046"><ele>165.66666666666666</ele><time>2026-05-01T07:17:37Z</time></trkpt><trkpt lat="58.01637730297743" lon="56.363007939396844"><ele>166.33333333333331</ele><time>2026-05-01T07:17:38.999Z</time></trkpt><trkpt lat="58.01644418023086" lon="56.36302203834073"><ele>167.0</ele><time>2026-05-01T07:17:39.999Z</time></trkpt><trkpt lat="58.016509315905125" lon="56.36306599586688"><ele>167.0</ele><time>2026-05-01T07:17:40.999Z</time></trkpt><trkpt lat="58.01659034992966" lon="56.36312953707738"><ele>167.0</ele><time>2026-05-01T07:17:42.999Z</time></trkpt><trkpt lat="58.01668788822405" lon="56.36322473984449"><ele>167.0</ele><time>2026-05-01T07:17:44.999Z</time></trkpt><trkpt lat="58.01680403533354" lon="56.36329990757784"><ele>167.0</ele><time>2026-05-01T07:17:46.999Z</time></trkpt><trkpt lat="58.01687513742238" lon="56.36333542655178"><ele>167.0</ele><time>2026-05-01T07:17:47.999Z</time></trkpt><trkpt lat="58.01693874034978" lon="56.363361986806495"><ele>166.6</ele><time>2026-05-01T07:17:48.999Z</time></trkpt><trkpt lat="58.017007154560254" lon="56.363599155801786"><ele>166.2</ele><time>2026-05-01T07:17:50.999Z</time></trkpt><trkpt lat="58.01707171547561" lon="56.36364094517766"><ele>165.8</ele><time>2026-05-01T07:17:51.999Z</time></trkpt><trkpt lat="58.01718222067276" lon="56.3637117161618"><ele>165.4</ele><time>2026-05-01T07:17:53.999Z</time></trkpt><trkpt lat="58.017248170462494" lon="56.36375411749847"><ele>165.0</ele><time>2026-05-01T07:17:54.999Z</time></trkpt><trkpt lat="58.017346315197216" lon="56.3638177286124"><ele>165.4</ele><time>2026-05-01T07:17:56.999Z</time></trkpt><trkpt lat="58.01746900118715" lon="56.36389641089934"><ele>165.8</ele><time>2026-05-01T07:17:58.999Z</time></trkpt><trkpt lat="58.017535206665194" lon="56.36393843784843"><ele>166.2</ele><time>2026-05-01T07:17:59.999Z</time></trkpt><trkpt lat="58.01765799971921" lon="56.36401739226952"><ele>166.6</ele><time>2026-05-01T07:18:01.999Z</time></trkpt><trkpt lat="58.0177303276198" lon="56.364063690133605"><ele>167.0</ele><time>2026-05-01T07:18:02.999Z</time></trkpt><trkpt lat="58.017820572734145" lon="56.36392421772577"><ele>165.6</ele><time>2026-05-01T07:18:03.999Z</time></trkpt><trkpt lat="58.017911528024186" lon="56.36395214241984"><ele>164.2</ele><time>2026-05-01T07:18:05.999Z</time></trkpt><trkpt lat="58.01801841185966" lon="56.364007336588934"><ele>162.8</ele><time>2026-05-01T07:18:07.999Z</time></trkpt><trkpt lat="58.01809766608097" lon="56.364086824449736"><ele>161.4</ele><time>2026-05-01T07:18:08.999Z</time></trkpt><trkpt lat="58.0181760280016" lon="56.36412699904849"><ele>160.0</ele><time>2026-05-01T07:18:09.999Z</time></trkpt><trkpt lat="58.01827772148664" lon="56.36419153453014"><ele>159.16666666666669</ele><time>2026-05-01T07:18:11.999Z</time></trkpt><trkpt lat="58.018350423706515" lon="56.36424593993072"><ele>158.33333333333334</ele><time>2026-05-01T07:18:12.999Z</time></trkpt><trkpt lat="58.018423954238926" lon="56.364295868282845"><ele>157.5</ele><time>2026-05-01T07:18:13.999Z</time></trkpt><trkpt lat="58.01853881414134" lon="56.364356973277225"><ele>156.66666666666666</ele><time>2026-05-01T07:18:15.999Z</time></trkpt><trkpt lat="58.01860364027926" lon="56.364410525758224"><ele>155.83333333333331</ele><time>2026-05-01T07:18:16.999Z</time></trkpt><trkpt lat="58.01867398382029" lon="56.3644720208644"><ele>155.0</ele><time>2026-05-01T07:18:17.999Z</time></trkpt><trkpt lat="58.01873420319434" lon="56.364511703393696"><ele>155.0</ele><time>2026-05-01T07:18:18.999Z</time></trkpt><trkpt lat="58.018849810254274" lon="56.36460541543293"><ele>155.0</ele><time>2026-05-01T07:18:20.999Z</time></trkpt><trkpt lat="58.018913676762196" lon="56.36465219177725"><ele>155.0</ele><time>2026-05-01T07:18:21.999Z</time></trkpt><trkpt lat="58.01897402054695" lon="56.364696966644665"><ele>155.0</ele><time>2026-05-01T07:18:22.999Z</time></trkpt><trkpt lat="58.019079013827515" lon="56.36477559835859"><ele>155.0</ele><time>2026-05-01T07:18:24.999Z</time></trkpt><trkpt lat="58.01913632592328" lon="56.36483078243478"><ele>155.0</ele><time>2026-05-01T07:18:25.999Z</time></trkpt><trkpt lat="58.01921334634772" lon="56.36490117532696"><ele>155.0</ele><time>2026-05-01T07:18:26.999Z</time></trkpt><trkpt lat="58.01931432615682" lon="56.36496159488721"><ele>155.0</ele><time>2026-05-01T07:18:28.999Z</time></trkpt><trkpt lat="58.01941796337509" lon="56.365037805503654"><ele>155.0</ele><time>2026-05-01T07:18:30.999Z</time></trkpt><trkpt lat="58.019484983829685" lon="56.36508455731442"><ele>155.0</ele><time>2026-05-01T07:18:31.999Z</time></trkpt><trkpt lat="58.019586326859546" lon="56.36514904134639"><ele>155.0</ele><time>2026-05-01T07:18:33.998Z</time></trkpt><trkpt lat="58.019698339649175" lon="56.36522700428578"><ele>155.0</ele><time>2026-05-01T07:18:35.998Z</time></trkpt><trkpt lat="58.019764640160545" lon="56.36524530428988"><ele>155.0</ele><time>2026-05-01T07:18:36.998Z</time></trkpt><trkpt lat="58.01986373174112" lon="56.365308527611376"><ele>155.0</ele><time>2026-05-01T07:18:38.998Z</time></trkpt><trkpt lat="58.019990966577225" lon="56.365389430932034"><ele>155.0</ele><time>2026-05-01T07:18:40.998Z</time></trkpt><trkpt lat="58.02006543167065" lon="56.36546345025764"><ele>155.0</ele><time>2026-05-01T07:18:41.998Z</time></trkpt><trkpt lat="58.02014357749826" lon="56.36550410989392"><ele>154.4</ele><time>2026-05-01T07:18:42.998Z</time></trkpt><trkpt lat="58.02024322105668" lon="56.365580840477506"><ele>153.8</ele><time>2026-05-01T07:18:44.998Z</time></trkpt><trkpt lat="58.020354334587886" lon="56.36574906104889"><ele>153.2</ele><time>2026-05-01T07:18:46.998Z</time></trkpt><trkpt lat="58.020415482262166" lon="56.365788622363844"><ele>152.6</ele><time>2026-05-01T07:18:47.998Z</time></trkpt><trkpt lat="58.02050830573882" lon="56.365848788982625"><ele>152.0</ele><time>2026-05-01T07:18:49.998Z</time></trkpt><trkpt lat="58.020593420221566" lon="56.36590163063682"><ele>152.0</ele><time>2026-05-01T07:18:51.998Z</time></trkpt><trkpt lat="58.020654367970614" lon="56.36593475713498"><ele>152.0</ele><time>2026-05-01T07:18:53.998Z</time></trkpt><trkpt lat="58.020719997401045" lon="56.3659701686194"><ele>152.0</ele><time>2026-05-01T07:18:56.998Z</time></trkpt><trkpt lat="58.02079156979251" lon="56.36600896406163"><ele>152.0</ele><time>2026-05-01T07:18:59.998Z</time></trkpt><trkpt lat="58.02085321886893" lon="56.366042507404174"><ele>152.0</ele><time>2026-05-01T07:19:03Z</time></trkpt><trkpt lat="58.02092139545587" lon="56.36607956135911"><ele>152.0</ele><time>2026-05-01T07:19:07Z</time></trkpt><trkpt lat="58.02099134473039" lon="56.36610552774904"><ele>152.0</ele><time>2026-05-01T07:19:11Z</time></trkpt><trkpt lat="58.02105653920706" lon="56.36609035998245"><ele>150.57142857142856</ele><time>2026-05-01T07:19:14Z</time></trkpt><trkpt lat="58.02112819936901" lon="56.366135450765434"><ele>149.14285714285717</ele><time>2026-05-01T07:19:18Z</time></trkpt><trkpt lat="58.021197846162416" lon="56.36613702466771"><ele>147.71428571428572</ele><time>2026-05-01T07:19:22Z</time></trkpt><trkpt lat="58.02126557587027" lon="56.36611901009499"><ele>146.28571428571428</ele><time>2026-05-01T07:19:25Z</time></trkpt><trkpt lat="58.02133253485446" lon="56.36609967331857"><ele>144.85714285714283</ele><time>2026-05-01T07:19:28Z</time></trkpt><trkpt lat="58.021410416585525" lon="56.366187712012625"><ele>143.42857142857142</ele><time>2026-05-01T07:19:31Z</time></trkpt><trkpt lat="58.02147513089295" lon="56.366259292360816"><ele>142.0</ele><time>2026-05-01T07:19:34Z</time></trkpt><trkpt lat="58.0215692445257" lon="56.366339302990305"><ele>141.2</ele><time>2026-05-01T07:23:43Z</time></trkpt><trkpt lat="58.02168719795844" lon="56.36638977442747"><ele>140.39999999999998</ele><time>2026-05-01T07:23:45Z</time></trkpt><trkpt lat="58.02175628810257" lon="56.36645556181857"><ele>139.60000000000002</ele><time>2026-05-01T07:23:46Z</time></trkpt><trkpt lat="58.02187100981435" lon="56.3665086503809"><ele>138.8</ele><time>2026-05-01T07:23:48Z</time></trkpt><trkpt lat="58.02193520314187" lon="56.366483374205075"><ele>138.0</ele><time>2026-05-01T07:23:49Z</time></trkpt><trkpt lat="58.02206107655099" lon="56.36655617290709"><ele>138.0</ele><time>2026-05-01T07:23:51Z</time></trkpt><trkpt lat="58.02214106765455" lon="56.36660016481455"><ele>138.0</ele><time>2026-05-01T07:23:52.999Z</time></trkpt><trkpt lat="58.02225494430167" lon="56.366652280114806"><ele>138.0</ele><time>2026-05-01T07:23:54.999Z</time></trkpt><trkpt lat="58.022356709694336" lon="56.366739862146076"><ele>138.0</ele><time>2026-05-01T07:23:56.999Z</time></trkpt><trkpt lat="58.02243306946092" lon="56.366862122520864"><ele>138.0</ele><time>2026-05-01T07:23:58.999Z</time></trkpt><trkpt lat="58.02252934906223" lon="56.36690245420727"><ele>138.0</ele><time>2026-05-01T07:24:00.999Z</time></trkpt><trkpt lat="58.02256615517553" lon="56.36679679152853"><ele>138.0</ele><time>2026-05-01T07:24:02.999Z</time></trkpt><trkpt lat="58.02256253214626" lon="56.36665592780015"><ele>138.0</ele><time>2026-05-01T07:24:05.999Z</time></trkpt><trkpt lat="58.022554015480075" lon="56.36652810792854"><ele>138.0</ele><time>2026-05-01T07:24:07.999Z</time></trkpt><trkpt lat="58.022537332988485" lon="56.366380419871064"><ele>138.0</ele><time>2026-05-01T07:24:10.999Z</time></trkpt><trkpt lat="58.02246212411913" lon="56.36631536215355"><ele>138.0</ele><time>2026-05-01T07:24:13.999Z</time></trkpt><trkpt lat="58.02237870290989" lon="56.36632836663265"><ele>138.0</ele><time>2026-05-01T07:24:16.999Z</time></trkpt><trkpt lat="58.02229654229275" lon="56.366286729558745"><ele>138.0</ele><time>2026-05-01T07:24:19.999Z</time></trkpt><trkpt lat="58.022236154606425" lon="56.36624789870816"><ele>138.0</ele><time>2026-05-01T07:24:21.999Z</time></trkpt><trkpt lat="58.02219146384303" lon="56.36611016005185"><ele>138.0</ele><time>2026-05-01T07:24:25.999Z</time></trkpt><trkpt lat="58.02215609315528" lon="56.36598042781153"><ele>138.0</ele><time>2026-05-01T07:24:28.999Z</time></trkpt><trkpt lat="58.0221360535402" lon="56.36586287381712"><ele>138.0</ele><time>2026-05-01T07:24:31.999Z</time></trkpt><trkpt lat="58.0221093136085" lon="56.36571423039449"><ele>138.0</ele><time>2026-05-01T07:24:34.999Z</time></trkpt><trkpt lat="58.02201785202109" lon="56.36555919533772"><ele>138.0</ele><time>2026-05-01T07:24:35.999Z</time></trkpt><trkpt lat="58.021957819102695" lon="56.36543661947744"><ele>138.0</ele><time>2026-05-01T07:24:37.999Z</time></trkpt><trkpt lat="58.021980449250314" lon="56.36528848421384"><ele>138.0</ele><time>2026-05-01T07:24:40.999Z</time></trkpt><trkpt lat="58.022020097389124" lon="56.36518802262287"><ele>138.0</ele><time>2026-05-01T07:24:42.999Z</time></trkpt><trkpt lat="58.022094082340374" lon="56.36516467042194"><ele>138.0</ele><time>2026-05-01T07:24:44.999Z</time></trkpt><trkpt lat="58.02219035165075" lon="56.365183661000394"><ele>138.0</ele><time>2026-05-01T07:24:46.999Z</time></trkpt><trkpt lat="58.02223322731169" lon="56.36529101572802"><ele>138.0</ele><time>2026-05-01T07:24:48.998Z</time></trkpt><trkpt lat="58.02217026199848" lon="56.36539229204925"><ele>138.0</ele><time>2026-05-01T07:24:51.998Z</time></trkpt><trkpt lat="58.02210229366693" lon="56.36542575249486"><ele>138.0</ele><time>2026-05-01T07:24:53.998Z</time></trkpt><trkpt lat="58.02204584126689" lon="56.3653579950863"><ele>138.0</ele><time>2026-05-01T07:24:57.998Z</time></trkpt><trkpt lat="58.02197642861531" lon="56.36538009968634"><ele>138.0</ele><time>2026-05-01T07:25:00.998Z</time></trkpt><trkpt lat="58.02194408980755" lon="56.36549908228721"><ele>138.0</ele><time>2026-05-01T07:25:03.998Z</time></trkpt><trkpt lat="58.021926777578585" lon="56.36561548512219"><ele>138.0</ele><time>2026-05-01T07:25:06.998Z</time></trkpt><trkpt lat="58.021847726701914" lon="56.365686535178604"><ele>138.0</ele><time>2026-05-01T07:25:09.998Z</time></trkpt><trkpt lat="58.02177005231002" lon="56.36564156157392"><ele>138.0</ele><time>2026-05-01T07:25:13.998Z</time></trkpt><trkpt lat="58.02169646644123" lon="56.36562428397664"><ele>138.0</ele><time>2026-05-01T07:25:16.998Z</time></trkpt><trkpt lat="58.021630412627175" lon="56.36559952122315"><ele>138.0</ele><time>2026-05-01T07:25:21Z</time></trkpt><trkpt lat="58.02156002357896" lon="56.36557922112805"><ele>138.0</ele><time>2026-05-01T07:25:25Z</time></trkpt><trkpt lat="58.02151335498374" lon="56.36549153243109"><ele>138.0</ele><time>2026-05-01T07:26:10.999Z</time></trkpt><trkpt lat="58.021640746787384" lon="56.36540008363134"><ele>138.0</ele><time>2026-05-01T07:26:15.999Z</time></trkpt><trkpt lat="58.02169360304419" lon="56.365477041001725"><ele>138.0</ele><time>2026-05-01T07:26:19.999Z</time></trkpt><trkpt lat="58.02176236155587" lon="56.36556191750444"><ele>138.0</ele><time>2026-05-01T07:26:22.999Z</time></trkpt><trkpt lat="58.02172323312192" lon="56.365684414922406"><ele>138.0</ele><time>2026-05-01T07:26:28.999Z</time></trkpt><trkpt lat="58.02165841476935" lon="56.36565533229533"><ele>138.0</ele><time>2026-05-01T07:26:31.999Z</time></trkpt><trkpt lat="58.02160790552618" lon="56.36551407433416"><ele>138.0</ele><time>2026-05-01T07:26:55.998Z</time></trkpt><trkpt lat="58.02162491527179" lon="56.36537115610558"><ele>138.0</ele><time>2026-05-01T07:26:57.998Z</time></trkpt><trkpt lat="58.02165874345225" lon="56.36526272928414"><ele>138.0</ele><time>2026-05-01T07:26:59.998Z</time></trkpt><trkpt lat="58.02168728431947" lon="56.36514404324769"><ele>138.0</ele><time>2026-05-01T07:27:01.998Z</time></trkpt><trkpt lat="58.021766641600244" lon="56.365110244029225"><ele>138.0</ele><time>2026-05-01T07:27:04.998Z</time></trkpt><trkpt lat="58.02187008395282" lon="56.36507726777623"><ele>138.0</ele><time>2026-05-01T07:27:06.998Z</time></trkpt><trkpt lat="58.021961493224424" lon="56.365104319849415"><ele>138.0</ele><time>2026-05-01T07:27:07.998Z</time></trkpt><trkpt lat="58.02202730089006" lon="56.365117427676275"><ele>138.0</ele><time>2026-05-01T07:27:08.998Z</time></trkpt><trkpt lat="58.02212360610565" lon="56.36507398330933"><ele>138.0</ele><time>2026-05-01T07:27:10.998Z</time></trkpt><trkpt lat="58.02216262950491" lon="56.365181957488545"><ele>138.0</ele><time>2026-05-01T07:27:12.998Z</time></trkpt><trkpt lat="58.0220907595369" lon="56.36524424473338"><ele>138.0</ele><time>2026-05-01T07:27:14.998Z</time></trkpt><trkpt lat="58.02202798522871" lon="56.36520751195345"><ele>138.0</ele><time>2026-05-01T07:27:16.998Z</time></trkpt><trkpt lat="58.02196220504142" lon="56.3651901198367"><ele>138.0</ele><time>2026-05-01T07:27:18.998Z</time></trkpt><trkpt lat="58.02189804947782" lon="56.36518798629633"><ele>138.0</ele><time>2026-05-01T07:27:20.998Z</time></trkpt><trkpt lat="58.02179585991765" lon="56.365188318668935"><ele>138.0</ele><time>2026-05-01T07:27:22.998Z</time></trkpt><trkpt lat="58.02171662343223" lon="56.365209140915205"><ele>138.0</ele><time>2026-05-01T07:27:27Z</time></trkpt><trkpt lat="58.021671556181495" lon="56.36529925774362"><ele>138.0</ele><time>2026-05-01T07:27:30Z</time></trkpt><trkpt lat="58.02162965383321" lon="56.365420839122194"><ele>138.0</ele><time>2026-05-01T07:27:33Z</time></trkpt><trkpt lat="58.02158701671019" lon="56.36552521530256"><ele>138.0</ele><time>2026-05-01T07:27:35Z</time></trkpt><trkpt lat="58.021534214013954" lon="56.365414254199486"><ele>138.0</ele><time>2026-05-01T07:27:40Z</time></trkpt><trkpt lat="58.02161209033886" lon="56.36519663960132"><ele>138.0</ele><time>2026-05-01T07:27:43Z</time></trkpt><trkpt lat="58.021683702380365" lon="56.36520899133102"><ele>138.0</ele><time>2026-05-01T07:27:46Z</time></trkpt><trkpt lat="58.02169740031947" lon="56.36535410629725"><ele>138.0</ele><time>2026-05-01T07:28:04Z</time></trkpt><trkpt lat="58.02174318631542" lon="56.365482290480934"><ele>138.0</ele><time>2026-05-01T07:28:06Z</time></trkpt><trkpt lat="58.021801547777734" lon="56.36554859988064"><ele>138.0</ele><time>2026-05-01T07:28:07.999Z</time></trkpt><trkpt lat="58.02186601257373" lon="56.36561846340124"><ele>138.0</ele><time>2026-05-01T07:28:09.999Z</time></trkpt><trkpt lat="58.02190757658801" lon="56.365759065136515"><ele>138.0</ele><time>2026-05-01T07:28:11.999Z</time></trkpt><trkpt lat="58.02196308922524" lon="56.36583549797179"><ele>138.0</ele><time>2026-05-01T07:28:14.999Z</time></trkpt><trkpt lat="58.022029566628895" lon="56.36597735429545"><ele>138.0</ele><time>2026-05-01T07:28:17.999Z</time></trkpt><trkpt lat="58.022068482517945" lon="56.36607427374684"><ele>138.0</ele><time>2026-05-01T07:28:19.999Z</time></trkpt><trkpt lat="58.022091641445925" lon="56.366184846142204"><ele>138.0</ele><time>2026-05-01T07:28:22.999Z</time></trkpt><trkpt lat="58.022189241421984" lon="56.36613538016827"><ele>138.0</ele><time>2026-05-01T07:28:25.999Z</time></trkpt><trkpt lat="58.02224663076696" lon="56.36608523212651"><ele>138.0</ele><time>2026-05-01T07:28:28.999Z</time></trkpt><trkpt lat="58.02227438944912" lon="56.36591951662699"><ele>138.0</ele><time>2026-05-01T07:28:31.999Z</time></trkpt><trkpt lat="58.022240290919456" lon="56.365807794476645"><ele>138.0</ele><time>2026-05-01T07:28:34.999Z</time></trkpt><trkpt lat="58.02221568710783" lon="56.36567964578774"><ele>138.0</ele><time>2026-05-01T07:28:36.999Z</time></trkpt><trkpt lat="58.022101361416574" lon="56.36548632189939"><ele>138.0</ele><time>2026-05-01T07:28:38.999Z</time></trkpt><trkpt lat="58.02203032857045" lon="56.36546277314357"><ele>138.0</ele><time>2026-05-01T07:28:40.999Z</time></trkpt><trkpt lat="58.021963481359606" lon="56.36540408833346"><ele>138.0</ele><time>2026-05-01T07:28:43.999Z</time></trkpt><trkpt lat="58.02194258172252" lon="56.36523032840757"><ele>138.0</ele><time>2026-05-01T07:28:46.999Z</time></trkpt><trkpt lat="58.02196659585161" lon="56.36511216278683"><ele>138.0</ele><time>2026-05-01T07:28:48.999Z</time></trkpt><trkpt lat="58.02204237063061" lon="56.3650506451147"><ele>138.0</ele><time>2026-05-01T07:28:50.999Z</time></trkpt><trkpt lat="58.02212172092215" lon="56.364952857834375"><ele>138.0</ele><time>2026-05-01T07:28:52.999Z</time></trkpt><trkpt lat="58.02216188925916" lon="56.36485162545165"><ele>138.0</ele><time>2026-05-01T07:28:54.999Z</time></trkpt><trkpt lat="58.02211669566438" lon="56.36472101567202"><ele>138.0</ele><time>2026-05-01T07:28:57.998Z</time></trkpt><trkpt lat="58.02203312453466" lon="56.36478990403317"><ele>138.0</ele><time>2026-05-01T07:28:59.998Z</time></trkpt><trkpt lat="58.02195222601879" lon="56.3648019132347"><ele>138.0</ele><time>2026-05-01T07:29:01.998Z</time></trkpt><trkpt lat="58.02188148444682" lon="56.36480616053015"><ele>138.0</ele><time>2026-05-01T07:29:03.998Z</time></trkpt><trkpt lat="58.02181481004887" lon="56.36479925315073"><ele>138.0</ele><time>2026-05-01T07:29:05.998Z</time></trkpt><trkpt lat="58.02175125690532" lon="56.36476659411172"><ele>138.0</ele><time>2026-05-01T07:29:08.998Z</time></trkpt><trkpt lat="58.0216771733844" lon="56.36477639357574"><ele>138.0</ele><time>2026-05-01T07:29:12.998Z</time></trkpt><trkpt lat="58.02161534083823" lon="56.36485830600708"><ele>138.0</ele><time>2026-05-01T07:29:16.998Z</time></trkpt><trkpt lat="58.02159093852072" lon="56.36497711100561"><ele>138.0</ele><time>2026-05-01T07:29:22.998Z</time></trkpt><trkpt lat="58.021578556547766" lon="56.365107024925976"><ele>138.0</ele><time>2026-05-01T07:29:25.998Z</time></trkpt><trkpt lat="58.02157734226063" lon="56.36524779569179"><ele>138.0</ele><time>2026-05-01T07:29:28.998Z</time></trkpt><trkpt lat="58.02158910945151" lon="56.3653691252077"><ele>138.0</ele><time>2026-05-01T07:29:29.998Z</time></trkpt><trkpt lat="58.02165773384679" lon="56.36544604832522"><ele>138.0</ele><time>2026-05-01T07:29:33Z</time></trkpt><trkpt lat="58.02169821387439" lon="56.36555881394819"><ele>138.0</ele><time>2026-05-01T07:29:36Z</time></trkpt><trkpt lat="58.02175915947096" lon="56.36570691133958"><ele>138.0</ele><time>2026-05-01T07:29:37Z</time></trkpt><trkpt lat="58.021872274200696" lon="56.36573614594334"><ele>138.0</ele><time>2026-05-01T07:29:39Z</time></trkpt><trkpt lat="58.021938295773474" lon="56.36587778721033"><ele>138.0</ele><time>2026-05-01T07:29:41Z</time></trkpt><trkpt lat="58.0220274488354" lon="56.365880126009586"><ele>138.0</ele><time>2026-05-01T07:30:42.999Z</time></trkpt><trkpt lat="58.02205485912329" lon="56.365767370799766"><ele>138.0</ele><time>2026-05-01T07:30:44.999Z</time></trkpt><trkpt lat="58.02209922036777" lon="56.36560270891746"><ele>138.0</ele><time>2026-05-01T07:30:46.999Z</time></trkpt><trkpt lat="58.022104801415495" lon="56.365476975103235"><ele>138.0</ele><time>2026-05-01T07:30:48.999Z</time></trkpt><trkpt lat="58.022167370738075" lon="56.365369291498254"><ele>138.0</ele><time>2026-05-01T07:30:50.999Z</time></trkpt><trkpt lat="58.02212118234468" lon="56.365252232261945"><ele>138.0</ele><time>2026-05-01T07:30:54.999Z</time></trkpt><trkpt lat="58.02208571600427" lon="56.36537673921039"><ele>138.0</ele><time>2026-05-01T07:30:57.999Z</time></trkpt><trkpt lat="58.0220600449109" lon="56.36549317205655"><ele>138.0</ele><time>2026-05-01T07:31:00.999Z</time></trkpt><trkpt lat="58.02204361735392" lon="56.3656438991986"><ele>138.0</ele><time>2026-05-01T07:31:03.998Z</time></trkpt><trkpt lat="58.02201040187661" lon="56.36578158097689"><ele>138.0</ele><time>2026-05-01T07:31:05.998Z</time></trkpt><trkpt lat="58.02205060748851" lon="56.36594900429965"><ele>138.0</ele><time>2026-05-01T07:32:42.999Z</time></trkpt><trkpt lat="58.022159071073645" lon="56.366018541954794"><ele>138.0</ele><time>2026-05-01T07:32:44.999Z</time></trkpt><trkpt lat="58.02223023084949" lon="56.36607501413028"><ele>138.0</ele><time>2026-05-01T07:32:45.999Z</time></trkpt><trkpt lat="58.02228826280741" lon="56.36613490794886"><ele>138.0</ele><time>2026-05-01T07:32:46.999Z</time></trkpt><trkpt lat="58.02235930905187" lon="56.366186987739965"><ele>138.0</ele><time>2026-05-01T07:32:47.999Z</time></trkpt><trkpt lat="58.02246132607824" lon="56.36621990232247"><ele>138.0</ele><time>2026-05-01T07:32:49.999Z</time></trkpt><trkpt lat="58.02253112099837" lon="56.36621622144262"><ele>138.0</ele><time>2026-05-01T07:32:50.999Z</time></trkpt><trkpt lat="58.022644259011805" lon="56.366215097245295"><ele>138.0</ele><time>2026-05-01T07:32:52.999Z</time></trkpt><trkpt lat="58.02270843179431" lon="56.36622311476024"><ele>140.66666666666666</ele><time>2026-05-01T07:32:54.999Z</time></trkpt><trkpt lat="58.022777296712846" lon="56.36626002078812"><ele>143.33333333333334</ele><time>2026-05-01T07:32:57.999Z</time></trkpt><trkpt lat="58.02284938015789" lon="56.366180879872914"><ele>146.0</ele><time>2026-05-01T07:33:19.998Z</time></trkpt><trkpt lat="58.02292104839709" lon="56.36626932819186"><ele>148.66666666666669</ele><time>2026-05-01T07:33:21.998Z</time></trkpt><trkpt lat="58.022944035849065" lon="56.366385646402875"><ele>151.33333333333334</ele><time>2026-05-01T07:33:22.998Z</time></trkpt><trkpt lat="58.02299432913919" lon="56.36648660748831"><ele>154.0</ele><time>2026-05-01T07:33:23.998Z</time></trkpt><trkpt lat="58.023054230539024" lon="56.36659125016649"><ele>154.0</ele><time>2026-05-01T07:33:24.998Z</time></trkpt><trkpt lat="58.0231326388688" lon="56.36668345649697"><ele>154.0</ele><time>2026-05-01T07:33:25.998Z</time></trkpt><trkpt lat="58.02320155810584" lon="56.36674111928959"><ele>154.0</ele><time>2026-05-01T07:33:26.998Z</time></trkpt><trkpt lat="58.02328587729451" lon="56.366832015162295"><ele>154.0</ele><time>2026-05-01T07:33:27.998Z</time></trkpt><trkpt lat="58.02336810061098" lon="56.36690253104228"><ele>154.0</ele><time>2026-05-01T07:33:28.998Z</time></trkpt><trkpt lat="58.023439870323614" lon="56.36695078306517"><ele>154.0</ele><time>2026-05-01T07:33:29.998Z</time></trkpt><trkpt lat="58.02350819579117" lon="56.3670090422646"><ele>154.5</ele><time>2026-05-01T07:33:30.998Z</time></trkpt><trkpt lat="58.02357669319281" lon="56.36706086528643"><ele>155.0</ele><time>2026-05-01T07:33:31.998Z</time></trkpt><trkpt lat="58.02365166818734" lon="56.3671154167413"><ele>155.5</ele><time>2026-05-01T07:33:32.998Z</time></trkpt><trkpt lat="58.023732887054784" lon="56.367195220972675"><ele>156.0</ele><time>2026-05-01T07:33:33.998Z</time></trkpt><trkpt lat="58.023800342493466" lon="56.36724921110854"><ele>156.5</ele><time>2026-05-01T07:33:34.998Z</time></trkpt><trkpt lat="58.02386441414674" lon="56.367290870366766"><ele>157.0</ele><time>2026-05-01T07:33:35.998Z</time></trkpt><trkpt lat="58.02399985373455" lon="56.36739369954274"><ele>157.0</ele><time>2026-05-01T07:33:37.998Z</time></trkpt><trkpt lat="58.02408666542354" lon="56.367444290806844"><ele>157.0</ele><time>2026-05-01T07:33:38.998Z</time></trkpt><trkpt lat="58.024151167489464" lon="56.36749046746541"><ele>157.0</ele><time>2026-05-01T07:33:39.998Z</time></trkpt><trkpt lat="58.024249565318605" lon="56.367552496617016"><ele>157.0</ele><time>2026-05-01T07:33:41.998Z</time></trkpt><trkpt lat="58.024362251191725" lon="56.36762897908835"><ele>157.0</ele><time>2026-05-01T07:33:43.998Z</time></trkpt><trkpt lat="58.024439749322205" lon="56.36782596345532"><ele>156.79999999999998</ele><time>2026-05-01T07:33:46Z</time></trkpt><trkpt lat="58.024512327756504" lon="56.36787247745806"><ele>156.6</ele><time>2026-05-01T07:33:47Z</time></trkpt><trkpt lat="58.024587177354114" lon="56.367920447070354"><ele>156.39999999999998</ele><time>2026-05-01T07:33:48Z</time></trkpt><trkpt lat="58.02469565396924" lon="56.367989967583654"><ele>156.2</ele><time>2026-05-01T07:33:50Z</time></trkpt><trkpt lat="58.02481217276662" lon="56.36806478229114"><ele>156.0</ele><time>2026-05-01T07:33:52Z</time></trkpt><trkpt lat="58.024912869289196" lon="56.3681294791169"><ele>155.5</ele><time>2026-05-01T07:33:54Z</time></trkpt><trkpt lat="58.024999905514925" lon="56.368185399388"><ele>155.0</ele><time>2026-05-01T07:33:56Z</time></trkpt><trkpt lat="58.02509776198745" lon="56.36824827131129"><ele>154.5</ele><time>2026-05-01T07:33:58Z</time></trkpt><trkpt lat="58.02517321441589" lon="56.36830182216644"><ele>154.0</ele><time>2026-05-01T07:34:00Z</time></trkpt><trkpt lat="58.02525251268068" lon="56.36833554032582"><ele>153.5</ele><time>2026-05-01T07:34:03Z</time></trkpt><trkpt lat="58.025335009607026" lon="56.3683947147172"><ele>153.0</ele><time>2026-05-01T07:34:06Z</time></trkpt><trkpt lat="58.02539717810289" lon="56.368428298173306"><ele>153.0</ele><time>2026-05-01T07:34:08Z</time></trkpt><trkpt lat="58.0254693728126" lon="56.36847920344506"><ele>153.0</ele><time>2026-05-01T07:34:10Z</time></trkpt><trkpt lat="58.02555300795878" lon="56.368544402593855"><ele>153.0</ele><time>2026-05-01T07:34:12Z</time></trkpt><trkpt lat="58.02568168525686" lon="56.36862800166806"><ele>153.0</ele><time>2026-05-01T07:34:14Z</time></trkpt><trkpt lat="58.02575405363" lon="56.36867554946541"><ele>153.0</ele><time>2026-05-01T07:34:15Z</time></trkpt><trkpt lat="58.025854212211314" lon="56.36874303441722"><ele>152.75</ele><time>2026-05-01T07:34:17Z</time></trkpt><trkpt lat="58.02595446373412" lon="56.36880955285246"><ele>152.5</ele><time>2026-05-01T07:34:18.999Z</time></trkpt><trkpt lat="58.02606496712429" lon="56.36887456807564"><ele>152.25</ele><time>2026-05-01T07:34:20.999Z</time></trkpt><trkpt lat="58.02617843549842" lon="56.36895391725337"><ele>152.0</ele><time>2026-05-01T07:34:22.999Z</time></trkpt><trkpt lat="58.02628858085938" lon="56.36901151792454"><ele>152.0</ele><time>2026-05-01T07:34:24.999Z</time></trkpt><trkpt lat="58.02639011593801" lon="56.36907652653451"><ele>152.0</ele><time>2026-05-01T07:34:26.999Z</time></trkpt><trkpt lat="58.02645356827066" lon="56.36911715231376"><ele>152.0</ele><time>2026-05-01T07:34:27.999Z</time></trkpt><trkpt lat="58.02654469417819" lon="56.3691754962088"><ele>152.0</ele><time>2026-05-01T07:34:29.999Z</time></trkpt><trkpt lat="58.02663727379696" lon="56.36923477112675"><ele>152.0</ele><time>2026-05-01T07:34:31.999Z</time></trkpt><trkpt lat="58.02671371357458" lon="56.369283712272704"><ele>152.0</ele><time>2026-05-01T07:34:32.999Z</time></trkpt><trkpt lat="58.02678169671252" lon="56.36932723899645"><ele>151.16666666666666</ele><time>2026-05-01T07:34:33.999Z</time></trkpt><trkpt lat="58.02686873548587" lon="56.36938296616239"><ele>150.33333333333331</ele><time>2026-05-01T07:34:35.999Z</time></trkpt><trkpt lat="58.02693950122232" lon="56.36942827445097"><ele>149.5</ele><time>2026-05-01T07:34:37.999Z</time></trkpt><trkpt lat="58.027028493138644" lon="56.36948527719639"><ele>148.66666666666666</ele><time>2026-05-01T07:34:39.999Z</time></trkpt><trkpt lat="58.02711237799861" lon="56.36953935722015"><ele>147.83333333333334</ele><time>2026-05-01T07:34:41.999Z</time></trkpt><trkpt lat="58.027177147598" lon="56.36958111367784"><ele>147.0</ele><time>2026-05-01T07:34:43.999Z</time></trkpt><trkpt lat="58.0271884532844" lon="56.36975187022653"><ele>147.0</ele><time>2026-05-01T07:34:44.999Z</time></trkpt><trkpt lat="58.02724664008947" lon="56.369806462814225"><ele>147.0</ele><time>2026-05-01T07:34:46.999Z</time></trkpt><trkpt lat="58.02731484856138" lon="56.369827986025854"><ele>147.0</ele><time>2026-05-01T07:34:48.999Z</time></trkpt><trkpt lat="58.027389617336894" lon="56.369773871872866"><ele>147.0</ele><time>2026-05-01T07:34:51.999Z</time></trkpt><trkpt lat="58.027462789385865" lon="56.36972717522593"><ele>147.0</ele><time>2026-05-01T07:35:08.999Z</time></trkpt><trkpt lat="58.027521102035564" lon="56.36965537844807"><ele>147.0</ele><time>2026-05-01T07:35:10.998Z</time></trkpt><trkpt lat="58.02758289964798" lon="56.3695968480171"><ele>147.0</ele><time>2026-05-01T07:35:13.998Z</time></trkpt><trkpt lat="58.02764834096686" lon="56.369488129664155"><ele>145.5</ele><time>2026-05-01T07:35:15.998Z</time></trkpt><trkpt lat="58.027702359152" lon="56.36935558951185"><ele>144.0</ele><time>2026-05-01T07:35:17.998Z</time></trkpt><trkpt lat="58.02776811899596" lon="56.369276508708275"><ele>142.5</ele><time>2026-05-01T07:35:19.998Z</time></trkpt><trkpt lat="58.027817561898964" lon="56.36916308134346"><ele>141.0</ele><time>2026-05-01T07:35:21.998Z</time></trkpt><trkpt lat="58.02788265105766" lon="56.36898077920463"><ele>139.5</ele><time>2026-05-01T07:35:23.998Z</time></trkpt><trkpt lat="58.02792797954079" lon="56.36886192723224"><ele>138.0</ele><time>2026-05-01T07:35:24.998Z</time></trkpt><trkpt lat="58.02798925966768" lon="56.368698327561034"><ele>138.0</ele><time>2026-05-01T07:35:26.998Z</time></trkpt><trkpt lat="58.02798505590718" lon="56.36850681998243"><ele>138.0</ele><time>2026-05-01T07:35:28.998Z</time></trkpt><trkpt lat="58.027976316740805" lon="56.36838688965884"><ele>138.0</ele><time>2026-05-01T07:35:29.998Z</time></trkpt><trkpt lat="58.027991229377115" lon="56.3682327440118"><ele>138.0</ele><time>2026-05-01T07:35:31.998Z</time></trkpt><trkpt lat="58.02800396224961" lon="56.368114912387874"><ele>138.0</ele><time>2026-05-01T07:35:33.998Z</time></trkpt><trkpt lat="58.028025559175944" lon="56.36797513679281"><ele>138.0</ele><time>2026-05-01T07:35:36.998Z</time></trkpt><trkpt lat="58.02802512480899" lon="56.36776860490897"><ele>138.0</ele><time>2026-05-01T07:35:40.998Z</time></trkpt><trkpt lat="58.02805633605901" lon="56.36752962666214"><ele>138.0</ele><time>2026-05-01T07:35:42.998Z</time></trkpt><trkpt lat="58.028042028799796" lon="56.367400341216324"><ele>138.0</ele><time>2026-05-01T07:35:45.998Z</time></trkpt><trkpt lat="58.02803505587589" lon="56.36725775062289"><ele>138.0</ele><time>2026-05-01T07:35:48.998Z</time></trkpt><trkpt lat="58.028067943470305" lon="56.36712733749235"><ele>138.0</ele><time>2026-05-01T07:35:52Z</time></trkpt><trkpt lat="58.0281223869162" lon="56.36696334519436"><ele>138.0</ele><time>2026-05-01T07:35:54Z</time></trkpt><trkpt lat="58.02816568623551" lon="56.36681200071642"><ele>138.0</ele><time>2026-05-01T07:35:56Z</time></trkpt><trkpt lat="58.02819733042747" lon="56.36667132158046"><ele>138.0</ele><time>2026-05-01T07:35:58Z</time></trkpt><trkpt lat="58.02820258830369" lon="56.3665329505211"><ele>138.0</ele><time>2026-05-01T07:36:01Z</time></trkpt><trkpt lat="58.02821744463466" lon="56.366390176763566"><ele>138.0</ele><time>2026-05-01T07:36:04Z</time></trkpt><trkpt lat="58.028237804514596" lon="56.36627420983555"><ele>138.0</ele><time>2026-05-01T07:36:06Z</time></trkpt><trkpt lat="58.02823425033686" lon="56.36611311011642"><ele>138.0</ele><time>2026-05-01T07:36:07Z</time></trkpt><trkpt lat="58.028256361502955" lon="56.365983741370485"><ele>138.0</ele><time>2026-05-01T07:36:09Z</time></trkpt><trkpt lat="58.02825215397508" lon="56.365845307779786"><ele>138.0</ele><time>2026-05-01T07:36:12Z</time></trkpt><trkpt lat="58.02831013080263" lon="56.36560194766055"><ele>138.0</ele><time>2026-05-01T07:36:14Z</time></trkpt><trkpt lat="58.02833683648198" lon="56.36544073757221"><ele>138.0</ele><time>2026-05-01T07:36:15Z</time></trkpt><trkpt lat="58.02833021663178" lon="56.365250306824485"><ele>138.0</ele><time>2026-05-01T07:36:17Z</time></trkpt><trkpt lat="58.02828781905249" lon="56.36507040403416"><ele>138.0</ele><time>2026-05-01T07:36:20Z</time></trkpt><trkpt lat="58.02826863942958" lon="56.364813735628466"><ele>138.0</ele><time>2026-05-01T07:36:22Z</time></trkpt><trkpt lat="58.02826177876534" lon="56.36465477722902"><ele>138.0</ele><time>2026-05-01T07:36:23.999Z</time></trkpt><trkpt lat="58.0283263812429" lon="56.364550056808476"><ele>138.0</ele><time>2026-05-01T07:36:25.999Z</time></trkpt><trkpt lat="58.02833270117732" lon="56.36442579903203"><ele>136.5</ele><time>2026-05-01T07:36:33.999Z</time></trkpt><trkpt lat="58.028337723976044" lon="56.36427729258479"><ele>135.0</ele><time>2026-05-01T07:36:37.999Z</time></trkpt><trkpt lat="58.0283565710715" lon="56.364011117394114"><ele>133.5</ele><time>2026-05-01T07:36:39.999Z</time></trkpt><trkpt lat="58.02836393992525" lon="56.36387978606213"><ele>132.0</ele><time>2026-05-01T07:36:40.999Z</time></trkpt><trkpt lat="58.02835472677829" lon="56.36375919839501"><ele>130.5</ele><time>2026-05-01T07:36:42.999Z</time></trkpt><trkpt lat="58.02836199977177" lon="56.36358434150588"><ele>129.0</ele><time>2026-05-01T07:36:44.999Z</time></trkpt><trkpt lat="58.028402292411236" lon="56.363401709992836"><ele>129.0</ele><time>2026-05-01T07:36:46.999Z</time></trkpt><trkpt lat="58.02842183838772" lon="56.36325078570303"><ele>129.0</ele><time>2026-05-01T07:36:48.999Z</time></trkpt><trkpt lat="58.02839070365263" lon="56.36343210833421"><ele>129.0</ele><time>2026-05-01T07:37:39.998Z</time></trkpt><trkpt lat="58.02837540991396" lon="56.363547891926395"><ele>129.0</ele><time>2026-05-01T07:37:40.998Z</time></trkpt><trkpt lat="58.028361913188974" lon="56.36368350515182"><ele>129.0</ele><time>2026-05-01T07:37:41.998Z</time></trkpt><trkpt lat="58.028316883623624" lon="56.36381389687312"><ele>129.0</ele><time>2026-05-01T07:37:43.998Z</time></trkpt><trkpt lat="58.02827427509313" lon="56.363909467093734"><ele>128.85714285714283</ele><time>2026-05-01T07:37:48.998Z</time></trkpt><trkpt lat="58.02835143042641" lon="56.36395343639743"><ele>128.71428571428572</ele><time>2026-05-01T07:39:00.999Z</time></trkpt><trkpt lat="58.028361515660876" lon="56.364081811413996"><ele>128.57142857142856</ele><time>2026-05-01T07:39:06.998Z</time></trkpt><trkpt lat="58.028348659275665" lon="56.36420044600442"><ele>128.42857142857142</ele><time>2026-05-01T07:39:13.998Z</time></trkpt><trkpt lat="58.02835040617255" lon="56.36432719564507"><ele>128.28571428571428</ele><time>2026-05-01T07:39:24.998Z</time></trkpt><trkpt lat="58.02832962377532" lon="56.364484060310204"><ele>128.14285714285714</ele><time>2026-05-01T07:39:31.998Z</time></trkpt><trkpt lat="58.028338878598255" lon="56.36435822797357"><ele>128.0</ele><time>2026-05-01T07:39:41.998Z</time></trkpt><trkpt lat="58.02834274427684" lon="56.36423376268609"><ele>127.99999999999999</ele><time>2026-05-01T07:39:44.998Z</time></trkpt><trkpt lat="58.02834189388672" lon="56.36411146412749"><ele>128.0</ele><time>2026-05-01T07:39:54.997Z</time></trkpt><trkpt lat="58.02834446254478" lon="56.36398805938052"><ele>128.0</ele><time>2026-05-01T07:40:04.999Z</time></trkpt><trkpt lat="58.02835187647963" lon="56.363829598241935"><ele>128.0</ele><time>2026-05-01T07:40:08.999Z</time></trkpt><trkpt lat="58.02832267917864" lon="56.36371512527146"><ele>127.99999999999999</ele><time>2026-05-01T07:41:26.998Z</time></trkpt><trkpt lat="58.02835511992074" lon="56.36356971435402"><ele>128.0</ele><time>2026-05-01T07:41:29.998Z</time></trkpt><trkpt lat="58.02837849503634" lon="56.363388946510604"><ele>128.14285714285714</ele><time>2026-05-01T07:41:31.998Z</time></trkpt><trkpt lat="58.02839078815452" lon="56.36325854289715"><ele>128.28571428571428</ele><time>2026-05-01T07:41:33.998Z</time></trkpt><trkpt lat="58.02842424872474" lon="56.36314109686202"><ele>128.42857142857142</ele><time>2026-05-01T07:41:35.998Z</time></trkpt><trkpt lat="58.02845682074002" lon="56.362982614382155"><ele>128.57142857142856</ele><time>2026-05-01T07:41:38.998Z</time></trkpt><trkpt lat="58.028486165676476" lon="56.362874262694206"><ele>128.71428571428572</ele><time>2026-05-01T07:41:40.998Z</time></trkpt><trkpt lat="58.02851915534361" lon="56.36273817611365"><ele>128.85714285714283</ele><time>2026-05-01T07:41:43.998Z</time></trkpt><trkpt lat="58.02853664879341" lon="56.36261598944891"><ele>129.0</ele><time>2026-05-01T07:41:46.998Z</time></trkpt><trkpt lat="58.028558015563334" lon="56.36243047680294"><ele>129.16666666666666</ele><time>2026-05-01T07:41:49.998Z</time></trkpt><trkpt lat="58.02860344003547" lon="56.36221295211607"><ele>129.33333333333334</ele><time>2026-05-01T07:41:51.998Z</time></trkpt><trkpt lat="58.028615929806136" lon="56.362063235879695"><ele>129.5</ele><time>2026-05-01T07:41:53.998Z</time></trkpt><trkpt lat="58.02861063513539" lon="56.361918171831675"><ele>129.66666666666669</ele><time>2026-05-01T07:41:56.998Z</time></trkpt><trkpt lat="58.028544147389155" lon="56.36193918807965"><ele>129.83333333333334</ele><time>2026-05-01T07:41:59.998Z</time></trkpt><trkpt lat="58.028563885631755" lon="56.362094388445776"><ele>130.0</ele><time>2026-05-01T07:42:03.998Z</time></trkpt><trkpt lat="58.02857355993756" lon="56.36224140125928"><ele>130.0</ele><time>2026-05-01T07:42:05.998Z</time></trkpt><trkpt lat="58.028570453425" lon="56.36248023279585"><ele>130.0</ele><time>2026-05-01T07:42:07.998Z</time></trkpt><trkpt lat="58.02855533887417" lon="56.362624663333904"><ele>130.0</ele><time>2026-05-01T07:42:09Z</time></trkpt><trkpt lat="58.02851717273994" lon="56.362785776791014"><ele>130.0</ele><time>2026-05-01T07:42:11Z</time></trkpt><trkpt lat="58.02846936837092" lon="56.362889845772486"><ele>130.0</ele><time>2026-05-01T07:42:13Z</time></trkpt><trkpt lat="58.02844387127007" lon="56.36304527289369"><ele>129.8</ele><time>2026-05-01T07:42:15Z</time></trkpt><trkpt lat="58.02843613101112" lon="56.3631838689549"><ele>129.6</ele><time>2026-05-01T07:42:17Z</time></trkpt><trkpt lat="58.02839787541484" lon="56.36339734110596"><ele>129.4</ele><time>2026-05-01T07:42:19Z</time></trkpt><trkpt lat="58.0283803299815" lon="56.36362303499814"><ele>129.2</ele><time>2026-05-01T07:42:21Z</time></trkpt><trkpt lat="58.02833199516281" lon="56.36382198487659"><ele>129.0</ele><time>2026-05-01T07:42:23Z</time></trkpt><trkpt lat="58.02837364663989" lon="56.36365512738167"><ele>129.0</ele><time>2026-05-01T07:42:34Z</time></trkpt><trkpt lat="58.028401675841096" lon="56.36346752513989"><ele>129.0</ele><time>2026-05-01T07:42:36Z</time></trkpt><trkpt lat="58.028421925747644" lon="56.36325265758618"><ele>129.0</ele><time>2026-05-01T07:42:38Z</time></trkpt><trkpt lat="58.02846135681302" lon="56.363070188759615"><ele>129.0</ele><time>2026-05-01T07:42:39.999Z</time></trkpt><trkpt lat="58.02849904542538" lon="56.362881019798316"><ele>129.0</ele><time>2026-05-01T07:42:41.999Z</time></trkpt><trkpt lat="58.028530410592175" lon="56.362746677341406"><ele>129.16666666666666</ele><time>2026-05-01T07:42:43.999Z</time></trkpt><trkpt lat="58.02854647313208" lon="56.362607758116845"><ele>129.33333333333334</ele><time>2026-05-01T07:42:45.999Z</time></trkpt><trkpt lat="58.02856711392241" lon="56.36246765529716"><ele>129.5</ele><time>2026-05-01T07:42:47.999Z</time></trkpt><trkpt lat="58.028572666637984" lon="56.36234534745229"><ele>129.66666666666669</ele><time>2026-05-01T07:42:49.999Z</time></trkpt><trkpt lat="58.02858655887171" lon="56.36214164377837"><ele>129.83333333333334</ele><time>2026-05-01T07:42:50.999Z</time></trkpt><trkpt lat="58.02858582138705" lon="56.36195083371688"><ele>130.0</ele><time>2026-05-01T07:42:52.999Z</time></trkpt><trkpt lat="58.02856139874081" lon="56.36184091090438"><ele>130.0</ele><time>2026-05-01T07:42:54.999Z</time></trkpt><trkpt lat="58.02847688696228" lon="56.361861687026774"><ele>130.0</ele><time>2026-05-01T07:42:56.999Z</time></trkpt><trkpt lat="58.02842763155985" lon="56.36194530762057"><ele>130.0</ele><time>2026-05-01T07:42:59.999Z</time></trkpt><trkpt lat="58.02850211122887" lon="56.361966420249786"><ele>130.0</ele><time>2026-05-01T07:43:01.999Z</time></trkpt><trkpt lat="58.02856952169161" lon="56.361834828083936"><ele>130.0</ele><time>2026-05-01T07:44:03.998Z</time></trkpt><trkpt lat="58.02855811989106" lon="56.36168414541355"><ele>130.0</ele><time>2026-05-01T07:44:06.998Z</time></trkpt><trkpt lat="58.028552265947084" lon="56.361456180998935"><ele>130.0</ele><time>2026-05-01T07:44:09.998Z</time></trkpt><trkpt lat="58.028551763263735" lon="56.36131454523081"><ele>130.0</ele><time>2026-05-01T07:44:10.998Z</time></trkpt><trkpt lat="58.02856637591806" lon="56.36119159479782"><ele>130.0</ele><time>2026-05-01T07:44:11.998Z</time></trkpt><trkpt lat="58.028576207419626" lon="56.36101840779661"><ele>130.0</ele><time>2026-05-01T07:44:13.998Z</time></trkpt><trkpt lat="58.028581921144415" lon="56.36085042617872"><ele>130.0</ele><time>2026-05-01T07:44:16Z</time></trkpt><trkpt lat="58.02860115203164" lon="56.360653240018635"><ele>130.0</ele><time>2026-05-01T07:44:18Z</time></trkpt><trkpt lat="58.02860144216631" lon="56.36049352998276"><ele>129.83333333333334</ele><time>2026-05-01T07:44:20Z</time></trkpt><trkpt lat="58.02860664094388" lon="56.36033667133701"><ele>129.66666666666669</ele><time>2026-05-01T07:44:23Z</time></trkpt><trkpt lat="58.02859186203901" lon="56.36017219788045"><ele>129.5</ele><time>2026-05-01T07:44:27Z</time></trkpt><trkpt lat="58.02856711177731" lon="56.35996604957053"><ele>129.33333333333334</ele><time>2026-05-01T07:44:29Z</time></trkpt><trkpt lat="58.028564713166524" lon="56.35982856422052"><ele>129.16666666666666</ele><time>2026-05-01T07:44:30Z</time></trkpt><trkpt lat="58.02852947424447" lon="56.35967997689222"><ele>129.0</ele><time>2026-05-01T07:44:32Z</time></trkpt><trkpt lat="58.02849860762358" lon="56.359568268053195"><ele>129.0</ele><time>2026-05-01T07:44:37Z</time></trkpt><trkpt lat="58.02845447023471" lon="56.359666335387494"><ele>129.0</ele><time>2026-05-01T07:44:41Z</time></trkpt><trkpt lat="58.02845825154979" lon="56.359791831142985"><ele>129.0</ele><time>2026-05-01T07:44:44.999Z</time></trkpt><trkpt lat="58.028527048083845" lon="56.359797164776715"><ele>129.0</ele><time>2026-05-01T07:44:50.999Z</time></trkpt><trkpt lat="58.02854851656978" lon="56.35968331560349"><ele>129.0</ele><time>2026-05-01T07:45:16.999Z</time></trkpt><trkpt lat="58.02852171911702" lon="56.359399105437696"><ele>129.0</ele><time>2026-05-01T07:45:18.999Z</time></trkpt><trkpt lat="58.02850743298331" lon="56.359252531862275"><ele>129.0</ele><time>2026-05-01T07:45:19.999Z</time></trkpt><trkpt lat="58.028465186461816" lon="56.35915796981982"><ele>129.0</ele><time>2026-05-01T07:45:20.999Z</time></trkpt><trkpt lat="58.02842952887132" lon="56.35903469431077"><ele>129.0</ele><time>2026-05-01T07:45:22.999Z</time></trkpt><trkpt lat="58.028371481546166" lon="56.35891685671167"><ele>129.0</ele><time>2026-05-01T07:45:25.999Z</time></trkpt><trkpt lat="58.02829124821029" lon="56.358769108154505"><ele>129.0</ele><time>2026-05-01T07:45:27.999Z</time></trkpt><trkpt lat="58.028265482558105" lon="56.35862572185599"><ele>129.0</ele><time>2026-05-01T07:45:29.999Z</time></trkpt><trkpt lat="58.02823366227753" lon="56.3584942730005"><ele>129.2</ele><time>2026-05-01T07:45:32.999Z</time></trkpt><trkpt lat="58.02823324602982" lon="56.358366601066166"><ele>129.4</ele><time>2026-05-01T07:45:34.999Z</time></trkpt><trkpt lat="58.02824307859278" lon="56.35821444870772"><ele>129.6</ele><time>2026-05-01T07:45:36.998Z</time></trkpt><trkpt lat="58.028248853582184" lon="56.35800797188366"><ele>129.8</ele><time>2026-05-01T07:45:38.998Z</time></trkpt><trkpt lat="58.02824953309135" lon="56.35778315027346"><ele>130.0</ele><time>2026-05-01T07:45:40.998Z</time></trkpt><trkpt lat="58.02823319549267" lon="56.35760839696318"><ele>130.0</ele><time>2026-05-01T07:45:42.998Z</time></trkpt><trkpt lat="58.02820896699712" lon="56.35748936771435"><ele>130.0</ele><time>2026-05-01T07:45:45.998Z</time></trkpt><trkpt lat="58.028208558948904" lon="56.357345766819556"><ele>130.0</ele><time>2026-05-01T07:45:47.998Z</time></trkpt><trkpt lat="58.02819508598041" lon="56.35722654293011"><ele>130.0</ele><time>2026-05-01T07:45:48.998Z</time></trkpt><trkpt lat="58.02817579091711" lon="56.357105131814166"><ele>130.0</ele><time>2026-05-01T07:45:49.998Z</time></trkpt><trkpt lat="58.028136700984504" lon="56.35698879141781"><ele>130.0</ele><time>2026-05-01T07:45:53.998Z</time></trkpt><trkpt lat="58.028067403076" lon="56.35677818579979"><ele>130.0</ele><time>2026-05-01T07:45:55.998Z</time></trkpt><trkpt lat="58.02805217057443" lon="56.356630464040165"><ele>130.0</ele><time>2026-05-01T07:45:57.998Z</time></trkpt><trkpt lat="58.02808402411818" lon="56.3567497623117"><ele>130.0</ele><time>2026-05-01T07:46:17.998Z</time></trkpt><trkpt lat="58.028112495495556" lon="56.356886348424595"><ele>130.0</ele><time>2026-05-01T07:46:19.998Z</time></trkpt><trkpt lat="58.02818843603115" lon="56.357100902577805"><ele>130.0</ele><time>2026-05-01T07:46:22Z</time></trkpt><trkpt lat="58.0282063890317" lon="56.35728468403729"><ele>130.0</ele><time>2026-05-01T07:46:26Z</time></trkpt><trkpt lat="58.028240913384295" lon="56.357427637498944"><ele>130.0</ele><time>2026-05-01T07:46:27Z</time></trkpt><trkpt lat="58.02824126176776" lon="56.3576104519474"><ele>130.0</ele><time>2026-05-01T07:46:29Z</time></trkpt><trkpt lat="58.02824986503016" lon="56.35776110571297"><ele>130.0</ele><time>2026-05-01T07:46:31Z</time></trkpt><trkpt lat="58.02827623530972" lon="56.35797086438283"><ele>130.0</ele><time>2026-05-01T07:46:33Z</time></trkpt><trkpt lat="58.0282798683979" lon="56.35812240895657"><ele>130.0</ele><time>2026-05-01T07:46:34Z</time></trkpt><trkpt lat="58.028254228675834" lon="56.35826237197837"><ele>130.0</ele><time>2026-05-01T07:46:35Z</time></trkpt><trkpt lat="58.02822287655135" lon="56.35846382863524"><ele>130.0</ele><time>2026-05-01T07:46:37Z</time></trkpt><trkpt lat="58.02828737116372" lon="56.358379148297274"><ele>130.0</ele><time>2026-05-01T07:47:11.999Z</time></trkpt><trkpt lat="58.02827169890861" lon="56.35825944199492"><ele>130.0</ele><time>2026-05-01T07:47:12.999Z</time></trkpt><trkpt lat="58.02826416422669" lon="56.358079009650766"><ele>130.0</ele><time>2026-05-01T07:47:14.999Z</time></trkpt><trkpt lat="58.028269160657494" lon="56.357891426298714"><ele>130.0</ele><time>2026-05-01T07:47:16.999Z</time></trkpt><trkpt lat="58.02825376006778" lon="56.357711949545994"><ele>130.0</ele><time>2026-05-01T07:47:18.999Z</time></trkpt><trkpt lat="58.02821818775321" lon="56.35754853724874"><ele>130.0</ele><time>2026-05-01T07:47:21.999Z</time></trkpt><trkpt lat="58.02822016362045" lon="56.357405782201184"><ele>130.0</ele><time>2026-05-01T07:47:23.999Z</time></trkpt><trkpt lat="58.02819789092958" lon="56.35718434042054"><ele>130.0</ele><time>2026-05-01T07:47:25.999Z</time></trkpt><trkpt lat="58.028170714802634" lon="56.35705158020745"><ele>129.66666666666669</ele><time>2026-05-01T07:47:27.999Z</time></trkpt><trkpt lat="58.02812724623243" lon="56.35696285042824"><ele>129.33333333333334</ele><time>2026-05-01T07:47:29.999Z</time></trkpt><trkpt lat="58.02807575817382" lon="56.35671680274652"><ele>129.0</ele><time>2026-05-01T07:47:31.999Z</time></trkpt><trkpt lat="58.02805284048461" lon="56.35657769398731"><ele>128.66666666666666</ele><time>2026-05-01T07:47:33.999Z</time></trkpt><trkpt lat="58.02799978108103" lon="56.35665405107009"><ele>128.33333333333331</ele><time>2026-05-01T07:47:35.999Z</time></trkpt><trkpt lat="58.02806706450235" lon="56.35668888438318"><ele>128.0</ele><time>2026-05-01T07:48:37Z</time></trkpt><trkpt lat="58.02806675553727" lon="56.35653637500793"><ele>128.0</ele><time>2026-05-01T07:48:41Z</time></trkpt><trkpt lat="58.028061249514614" lon="56.356415282298705"><ele>127.99999999999999</ele><time>2026-05-01T07:48:43Z</time></trkpt><trkpt lat="58.02805686575092" lon="56.35626871242277"><ele>128.0</ele><time>2026-05-01T07:48:45Z</time></trkpt><trkpt lat="58.02804315593406" lon="56.35612428694959"><ele>128.0</ele><time>2026-05-01T07:48:47Z</time></trkpt><trkpt lat="58.028029237658615" lon="56.35597680302835"><ele>127.99999999999999</ele><time>2026-05-01T07:48:49Z</time></trkpt><trkpt lat="58.02801047354024" lon="56.35583299419553"><ele>128.0</ele><time>2026-05-01T07:48:52.999Z</time></trkpt><trkpt lat="58.02800807950532" lon="56.35570076827421"><ele>128.0</ele><time>2026-05-01T07:48:55.999Z</time></trkpt><trkpt lat="58.0279804780211" lon="56.3555581862239"><ele>127.83333333333333</ele><time>2026-05-01T07:49:51.998Z</time></trkpt><trkpt lat="58.027948207889956" lon="56.35537433315238"><ele>127.66666666666666</ele><time>2026-05-01T07:49:53.998Z</time></trkpt><trkpt lat="58.02793562260729" lon="56.355251650873"><ele>127.5</ele><time>2026-05-01T07:49:54.998Z</time></trkpt><trkpt lat="58.027909490927804" lon="56.3550939604249"><ele>127.33333333333334</ele><time>2026-05-01T07:49:56.998Z</time></trkpt><trkpt lat="58.027913187500374" lon="56.354966274883125"><ele>127.16666666666667</ele><time>2026-05-01T07:49:59.998Z</time></trkpt><trkpt lat="58.027938296088806" lon="56.35484487887863"><ele>127.0</ele><time>2026-05-01T07:50:01.998Z</time></trkpt><trkpt lat="58.02794582688698" lon="56.35470813766413"><ele>126.66666666666667</ele><time>2026-05-01T07:50:04.998Z</time></trkpt><trkpt lat="58.02793279626112" lon="56.35457667819642"><ele>126.33333333333334</ele><time>2026-05-01T07:50:12.998Z</time></trkpt><trkpt lat="58.027928133539675" lon="56.35445617778351"><ele>126.0</ele><time>2026-05-01T07:50:14.998Z</time></trkpt><trkpt lat="58.027932556148414" lon="56.354336472662865"><ele>125.66666666666666</ele><time>2026-05-01T07:50:15.998Z</time></trkpt><trkpt lat="58.02796094923015" lon="56.35422433180253"><ele>125.33333333333333</ele><time>2026-05-01T07:50:16.998Z</time></trkpt><trkpt lat="58.02792959669196" lon="56.35406947102396"><ele>125.0</ele><time>2026-05-01T07:50:20.998Z</time></trkpt><trkpt lat="58.02790123783675" lon="56.35388476827781"><ele>124.99999999999999</ele><time>2026-05-01T07:50:23.998Z</time></trkpt><trkpt lat="58.02789753856553" lon="56.353760076593595"><ele>125.0</ele><time>2026-05-01T07:50:24.998Z</time></trkpt><trkpt lat="58.027920021427754" lon="56.35362893875079"><ele>125.0</ele><time>2026-05-01T07:50:26.998Z</time></trkpt><trkpt lat="58.02801533390735" lon="56.35360257125727"><ele>125.0</ele><time>2026-05-01T07:50:29.998Z</time></trkpt><trkpt lat="58.02807844757525" lon="56.353642356919735"><ele>124.99999999999999</ele><time>2026-05-01T07:50:31.998Z</time></trkpt><trkpt lat="58.02816517458046" lon="56.35365778647602"><ele>125.0</ele><time>2026-05-01T07:50:35Z</time></trkpt><trkpt lat="58.02822693519052" lon="56.35369370511793"><ele>124.99999999999999</ele><time>2026-05-01T07:50:37Z</time></trkpt><trkpt lat="58.02824448934239" lon="56.3538197592104"><ele>125.0</ele><time>2026-05-01T07:50:48Z</time></trkpt><trkpt lat="58.02820385290953" lon="56.35397431600952"><ele>125.0</ele><time>2026-05-01T07:50:50Z</time></trkpt><trkpt lat="58.0281761040547" lon="56.354111369226075"><ele>125.0</ele><time>2026-05-01T07:50:52Z</time></trkpt><trkpt lat="58.02815508478011" lon="56.354241132676"><ele>124.99999999999999</ele><time>2026-05-01T07:50:54Z</time></trkpt><trkpt lat="58.02815513063791" lon="56.35442755429528"><ele>125.0</ele><time>2026-05-01T07:50:56Z</time></trkpt><trkpt lat="58.02816635504196" lon="56.35458069405834"><ele>125.4</ele><time>2026-05-01T07:50:57Z</time></trkpt><trkpt lat="58.02822736558888" lon="56.35473633667847"><ele>125.8</ele><time>2026-05-01T07:50:58.999Z</time></trkpt><trkpt lat="58.02827336190886" lon="56.35490848731665"><ele>126.19999999999999</ele><time>2026-05-01T07:51:00.999Z</time></trkpt><trkpt lat="58.028285670724244" lon="56.35504078039871"><ele>126.6</ele><time>2026-05-01T07:51:01.999Z</time></trkpt><trkpt lat="58.02829275217779" lon="56.35523974591115"><ele>127.0</ele><time>2026-05-01T07:51:02.999Z</time></trkpt><trkpt lat="58.028320580601275" lon="56.355395751863234"><ele>127.0</ele><time>2026-05-01T07:51:03.999Z</time></trkpt><trkpt lat="58.02830331076467" lon="56.35553750809206"><ele>126.99999999999999</ele><time>2026-05-01T07:51:05.999Z</time></trkpt><trkpt lat="58.028259899650976" lon="56.35563639169154"><ele>126.99999999999999</ele><time>2026-05-01T07:51:07.999Z</time></trkpt><trkpt lat="58.028136063292784" lon="56.35582652046851"><ele>127.0</ele><time>2026-05-01T07:51:08.999Z</time></trkpt><trkpt lat="58.02805132101172" lon="56.35591465010225"><ele>127.0</ele><time>2026-05-01T07:51:09.999Z</time></trkpt><trkpt lat="58.027956084163904" lon="56.355909899391335"><ele>127.0</ele><time>2026-05-01T07:51:11.999Z</time></trkpt><trkpt lat="58.027950409539216" lon="56.35578963905008"><ele>126.99999999999999</ele><time>2026-05-01T07:51:14.999Z</time></trkpt><trkpt lat="58.02795201629556" lon="56.355621108046975"><ele>126.99999999999999</ele><time>2026-05-01T07:51:17.999Z</time></trkpt><trkpt lat="58.02790381084007" lon="56.35538657647043"><ele>127.0</ele><time>2026-05-01T07:51:19.999Z</time></trkpt><trkpt lat="58.02788204087753" lon="56.35523670334158"><ele>127.0</ele><time>2026-05-01T07:51:20.999Z</time></trkpt><trkpt lat="58.02786598044821" lon="56.35505185588117"><ele>127.00000000000001</ele><time>2026-05-01T07:51:22.999Z</time></trkpt><trkpt lat="58.027906508584884" lon="56.35482986928883"><ele>127.0</ele><time>2026-05-01T07:51:24.999Z</time></trkpt><trkpt lat="58.02792052959435" lon="56.35468882114177"><ele>127.0</ele><time>2026-05-01T07:51:26.999Z</time></trkpt><trkpt lat="58.02797346265285" lon="56.35459983667784"><ele>127.0</ele><time>2026-05-01T07:51:29.999Z</time></trkpt><trkpt lat="58.027979457260514" lon="56.35446716360856"><ele>127.00000000000001</ele><time>2026-05-01T07:51:33.999Z</time></trkpt><trkpt lat="58.028009494191096" lon="56.354356737922835"><ele>127.0</ele><time>2026-05-01T07:51:35.999Z</time></trkpt><trkpt lat="58.028082500590926" lon="56.35427552090821"><ele>126.66666666666667</ele><time>2026-05-01T07:51:37.999Z</time></trkpt><trkpt lat="58.02812696530033" lon="56.354161675126704"><ele>126.33333333333334</ele><time>2026-05-01T07:51:39.999Z</time></trkpt><trkpt lat="58.02818894286427" lon="56.35408083925754"><ele>126.0</ele><time>2026-05-01T07:51:41.999Z</time></trkpt><trkpt lat="58.028198959969636" lon="56.35396008581898"><ele>125.66666666666666</ele><time>2026-05-01T07:51:43.999Z</time></trkpt><trkpt lat="58.02824480160818" lon="56.35384013854053"><ele>125.33333333333333</ele><time>2026-05-01T07:51:45.999Z</time></trkpt><trkpt lat="58.028269602187116" lon="56.35372112086399"><ele>125.0</ele><time>2026-05-01T07:51:47.999Z</time></trkpt><trkpt lat="58.02833137890413" lon="56.35355324201906"><ele>123.49999999999999</ele><time>2026-05-01T07:52:19.998Z</time></trkpt><trkpt lat="58.02838477680211" lon="56.35346178711402"><ele>122.0</ele><time>2026-05-01T07:52:20.998Z</time></trkpt><trkpt lat="58.028422809899496" lon="56.35333891468798"><ele>120.5</ele><time>2026-05-01T07:52:24.998Z</time></trkpt><trkpt lat="58.02845442342769" lon="56.353221452632916"><ele>119.0</ele><time>2026-05-01T07:52:26.998Z</time></trkpt><trkpt lat="58.028464575877784" lon="56.35309330604846"><ele>117.49999999999999</ele><time>2026-05-01T07:52:28.998Z</time></trkpt><trkpt lat="58.0285036323845" lon="56.352931282461896"><ele>116.0</ele><time>2026-05-01T07:52:31.998Z</time></trkpt><trkpt lat="58.02858016550666" lon="56.35278465772696"><ele>115.99999999999999</ele><time>2026-05-01T07:52:33.998Z</time></trkpt><trkpt lat="58.02865821965563" lon="56.35274447089336"><ele>116.0</ele><time>2026-05-01T07:52:35.998Z</time></trkpt><trkpt lat="58.028721615143205" lon="56.35271075349608"><ele>116.0</ele><time>2026-05-01T07:52:40Z</time></trkpt><trkpt lat="58.02879106650467" lon="56.35264489564007"><ele>116.0</ele><time>2026-05-01T07:52:42Z</time></trkpt><trkpt lat="58.02885169003666" lon="56.35256815862983"><ele>115.99999999999999</ele><time>2026-05-01T07:52:45Z</time></trkpt><trkpt lat="58.02895050369326" lon="56.35253646978329"><ele>116.0</ele><time>2026-05-01T07:52:58Z</time></trkpt><trkpt lat="58.029073268724645" lon="56.35258620534295"><ele>116.49999999999999</ele><time>2026-05-01T07:53:00Z</time></trkpt><trkpt lat="58.02916136966219" lon="56.35265245664748"><ele>117.0</ele><time>2026-05-01T07:53:01Z</time></trkpt><trkpt lat="58.029238244871316" lon="56.3527174845759"><ele>117.5</ele><time>2026-05-01T07:53:02Z</time></trkpt><trkpt lat="58.02930923057838" lon="56.35276333739953"><ele>118.0</ele><time>2026-05-01T07:53:02.999Z</time></trkpt><trkpt lat="58.029384360562716" lon="56.352831688849434"><ele>118.49999999999999</ele><time>2026-05-01T07:53:03.999Z</time></trkpt><trkpt lat="58.02945125378041" lon="56.35290651603449"><ele>119.0</ele><time>2026-05-01T07:53:04.999Z</time></trkpt><trkpt lat="58.029517333809316" lon="56.35303032334127"><ele>119.85714285714286</ele><time>2026-05-01T07:53:06.999Z</time></trkpt><trkpt lat="58.02952726176983" lon="56.35315959992057"><ele>120.71428571428572</ele><time>2026-05-01T07:53:07.999Z</time></trkpt><trkpt lat="58.02949275057273" lon="56.3532769890411"><ele>121.57142857142857</ele><time>2026-05-01T07:54:31.998Z</time></trkpt><trkpt lat="58.02948120891032" lon="56.35340263116799"><ele>122.42857142857143</ele><time>2026-05-01T07:54:34.998Z</time></trkpt><trkpt lat="58.0294069314284" lon="56.35343448328621"><ele>123.28571428571429</ele><time>2026-05-01T07:54:43.998Z</time></trkpt><trkpt lat="58.02933445871816" lon="56.353425430317614"><ele>124.14285714285714</ele><time>2026-05-01T07:54:46Z</time></trkpt><trkpt lat="58.02926242859234" lon="56.35341887516705"><ele>125.0</ele><time>2026-05-01T07:54:48Z</time></trkpt><trkpt lat="58.02919285021331" lon="56.35341230049172"><ele>123.71428571428571</ele><time>2026-05-01T07:54:50Z</time></trkpt><trkpt lat="58.029118395632885" lon="56.35340224972891"><ele>122.42857142857144</ele><time>2026-05-01T07:54:52Z</time></trkpt><trkpt lat="58.02904842463784" lon="56.35340038664533"><ele>121.14285714285715</ele><time>2026-05-01T07:54:54Z</time></trkpt><trkpt lat="58.02897763030675" lon="56.35333120952809"><ele>119.85714285714286</ele><time>2026-05-01T07:54:57Z</time></trkpt><trkpt lat="58.028972428723705" lon="56.353206072605495"><ele>118.57142857142858</ele><time>2026-05-01T07:55:00Z</time></trkpt><trkpt lat="58.02890141937023" lon="56.35319298947072"><ele>117.2857142857143</ele><time>2026-05-01T07:55:06Z</time></trkpt><trkpt lat="58.028831384729884" lon="56.35317425889627"><ele>116.00000000000001</ele><time>2026-05-01T07:55:08.999Z</time></trkpt><trkpt lat="58.02876558986331" lon="56.35316292362059"><ele>115.99999999999999</ele><time>2026-05-01T07:55:10.999Z</time></trkpt><trkpt lat="58.028697775540415" lon="56.353107818375065"><ele>116.0</ele><time>2026-05-01T07:55:13.999Z</time></trkpt><trkpt lat="58.02874915649866" lon="56.353280614148694"><ele>116.0</ele><time>2026-05-01T07:55:27.999Z</time></trkpt><trkpt lat="58.02882451761297" lon="56.35334845460652"><ele>116.0</ele><time>2026-05-01T07:55:28.999Z</time></trkpt><trkpt lat="58.02890438948119" lon="56.35338274240636"><ele>115.99999999999999</ele><time>2026-05-01T07:55:29.999Z</time></trkpt><trkpt lat="58.02897624608038" lon="56.3533804466999"><ele>116.0</ele><time>2026-05-01T07:55:31.999Z</time></trkpt><trkpt lat="58.02899827902445" lon="56.35324953370089"><ele>115.99999999999999</ele><time>2026-05-01T07:55:54.999Z</time></trkpt><trkpt lat="58.02890603933837" lon="56.35319445439132"><ele>116.0</ele><time>2026-05-01T07:55:57.999Z</time></trkpt><trkpt lat="58.02884028988299" lon="56.353192764183234"><ele>116.0</ele><time>2026-05-01T07:55:59.999Z</time></trkpt><trkpt lat="58.028774628098574" lon="56.35318028909755"><ele>116.0</ele><time>2026-05-01T07:56:01.998Z</time></trkpt><trkpt lat="58.02870722689774" lon="56.35310887423232"><ele>115.99999999999999</ele><time>2026-05-01T07:56:04.998Z</time></trkpt><trkpt lat="58.02870077479793" lon="56.35323013947116"><ele>116.0</ele><time>2026-05-01T07:56:11.998Z</time></trkpt><trkpt lat="58.02882088508381" lon="56.353342552024905"><ele>116.00000000000001</ele><time>2026-05-01T07:56:13.998Z</time></trkpt><trkpt lat="58.02888809407775" lon="56.3534059004349"><ele>116.0</ele><time>2026-05-01T07:56:14.998Z</time></trkpt><trkpt lat="58.02894628037761" lon="56.35347903445289"><ele>116.00000000000001</ele><time>2026-05-01T07:56:16.998Z</time></trkpt><trkpt lat="58.028985798620916" lon="56.3533710825499"><ele>116.00000000000001</ele><time>2026-05-01T07:56:18.998Z</time></trkpt><trkpt lat="58.028965218915666" lon="56.35325684422964"><ele>116.0</ele><time>2026-05-01T07:56:19.998Z</time></trkpt><trkpt lat="58.028906546252685" lon="56.35316590928668"><ele>116.00000000000001</ele><time>2026-05-01T07:56:21.998Z</time></trkpt><trkpt lat="58.028830488762146" lon="56.35318862616154"><ele>116.00000000000001</ele><time>2026-05-01T07:56:23.998Z</time></trkpt><trkpt lat="58.02875013080256" lon="56.35316509406893"><ele>115.99999999999999</ele><time>2026-05-01T07:56:25.998Z</time></trkpt><trkpt lat="58.0287011119317" lon="56.35307071505135"><ele>116.0</ele><time>2026-05-01T07:56:27.998Z</time></trkpt><trkpt lat="58.02869699409838" lon="56.353195502317455"><ele>116.0</ele><time>2026-05-01T07:58:19.998Z</time></trkpt><trkpt lat="58.02877112281389" lon="56.35334023860972"><ele>116.0</ele><time>2026-05-01T07:58:21.998Z</time></trkpt><trkpt lat="58.02884570622584" lon="56.35340230026111"><ele>115.99999999999999</ele><time>2026-05-01T07:58:22.998Z</time></trkpt><trkpt lat="58.02891627569066" lon="56.353419470198006"><ele>116.0</ele><time>2026-05-01T07:58:23.998Z</time></trkpt><trkpt lat="58.02885665594178" lon="56.353379499254345"><ele>116.00000000000001</ele><time>2026-05-01T07:58:43.998Z</time></trkpt><trkpt lat="58.028923528987825" lon="56.35332382981769"><ele>116.0</ele><time>2026-05-01T08:01:10Z</time></trkpt><trkpt lat="58.02885700144533" lon="56.35328786657737"><ele>116.00000000000001</ele><time>2026-05-01T08:02:14.999Z</time></trkpt><trkpt lat="58.028912236254556" lon="56.35334673137088"><ele>116.00000000000001</ele><time>2026-05-01T08:05:03.998Z</time></trkpt><trkpt lat="58.02889394813526" lon="56.35322143307957"><ele>116.0</ele><time>2026-05-01T08:06:04.999Z</time></trkpt><trkpt lat="58.02896636290605" lon="56.353261307128314"><ele>116.00000000000001</ele><time>2026-05-01T08:08:15.999Z</time></trkpt><trkpt lat="58.029032238045644" lon="56.35313531295794"><ele>116.00000000000001</ele><time>2026-05-01T08:08:17.999Z</time></trkpt><trkpt lat="58.029077848527606" lon="56.352987719905165"><ele>115.99999999999999</ele><time>2026-05-01T08:08:19.999Z</time></trkpt><trkpt lat="58.02915474234835" lon="56.35288854880998"><ele>116.0</ele><time>2026-05-01T08:08:21.999Z</time></trkpt><trkpt lat="58.02914473511697" lon="56.35275559596318"><ele>116.0</ele><time>2026-05-01T08:08:25.999Z</time></trkpt><trkpt lat="58.02908081686565" lon="56.3526918564378"><ele>116.0</ele><time>2026-05-01T08:08:27.999Z</time></trkpt><trkpt lat="58.0290270261827" lon="56.35260423212163"><ele>115.99999999999999</ele><time>2026-05-01T08:08:29.999Z</time></trkpt><trkpt lat="58.028951751378315" lon="56.35245940720667"><ele>116.0</ele><time>2026-05-01T08:08:31.999Z</time></trkpt><trkpt lat="58.02887422837458" lon="56.35242846217463"><ele>116.0</ele><time>2026-05-01T08:08:33.998Z</time></trkpt><trkpt lat="58.028827336764024" lon="56.3523326501455"><ele>116.0</ele><time>2026-05-01T08:08:35.998Z</time></trkpt><trkpt lat="58.02890133729286" lon="56.35246012355804"><ele>116.0</ele><time>2026-05-01T08:09:14.998Z</time></trkpt><trkpt lat="58.02899071860267" lon="56.352517798206875"><ele>116.0</ele><time>2026-05-01T08:09:17.998Z</time></trkpt><trkpt lat="58.029101295700954" lon="56.352631828648825"><ele>116.0</ele><time>2026-05-01T08:09:19.998Z</time></trkpt><trkpt lat="58.029197390903846" lon="56.352695886120785"><ele>116.49999999999999</ele><time>2026-05-01T08:09:20.998Z</time></trkpt><trkpt lat="58.029282738015844" lon="56.35274792695644"><ele>117.0</ele><time>2026-05-01T08:09:21.998Z</time></trkpt><trkpt lat="58.02934687378576" lon="56.352810903641185"><ele>117.5</ele><time>2026-05-01T08:09:22.998Z</time></trkpt><trkpt lat="58.02943205953371" lon="56.35289731241348"><ele>118.0</ele><time>2026-05-01T08:09:25Z</time></trkpt><trkpt lat="58.029505009315606" lon="56.352982764841684"><ele>118.49999999999999</ele><time>2026-05-01T08:09:27Z</time></trkpt><trkpt lat="58.02950001084718" lon="56.3531100878804"><ele>119.0</ele><time>2026-05-01T08:09:29Z</time></trkpt><trkpt lat="58.029463360927174" lon="56.35298272025884"><ele>118.99999999999999</ele><time>2026-05-01T08:10:15.999Z</time></trkpt><trkpt lat="58.029463703011274" lon="56.35283366948912"><ele>119.0</ele><time>2026-05-01T08:10:18.999Z</time></trkpt><trkpt lat="58.0294781185161" lon="56.35271292219977"><ele>119.0</ele><time>2026-05-01T08:10:21.999Z</time></trkpt><trkpt lat="58.02947532652652" lon="56.35259344408449"><ele>119.0</ele><time>2026-05-01T08:10:24.999Z</time></trkpt><trkpt lat="58.02945441490537" lon="56.35238981412402"><ele>118.99999999999999</ele><time>2026-05-01T08:10:27.999Z</time></trkpt><trkpt lat="58.02941220667959" lon="56.35222551157141"><ele>119.0</ele><time>2026-05-01T08:10:30.999Z</time></trkpt><trkpt lat="58.02933601688972" lon="56.35220518324235"><ele>118.99999999999999</ele><time>2026-05-01T08:10:34.999Z</time></trkpt><trkpt lat="58.029258285883316" lon="56.35231201389281"><ele>119.0</ele><time>2026-05-01T08:10:36.998Z</time></trkpt><trkpt lat="58.02920463789283" lon="56.35241475231579"><ele>119.0</ele><time>2026-05-01T08:10:38.998Z</time></trkpt><trkpt lat="58.02921925731846" lon="56.3525641393907"><ele>119.0</ele><time>2026-05-01T08:10:41.998Z</time></trkpt><trkpt lat="58.02915050185847" lon="56.35261901627833"><ele>118.99999999999999</ele><time>2026-05-01T08:10:46.998Z</time></trkpt><trkpt lat="58.02908169041533" lon="56.352640194781685"><ele>119.0</ele><time>2026-05-01T08:10:48.998Z</time></trkpt><trkpt lat="58.02901148549546" lon="56.352595754677424"><ele>118.49999999999999</ele><time>2026-05-01T08:10:50.998Z</time></trkpt><trkpt lat="58.02893373443198" lon="56.352515548568746"><ele>118.0</ele><time>2026-05-01T08:10:53.998Z</time></trkpt><trkpt lat="58.0288927625061" lon="56.35241208408134"><ele>117.5</ele><time>2026-05-01T08:10:56.998Z</time></trkpt><trkpt lat="58.028883986592696" lon="56.3522734148177"><ele>117.0</ele><time>2026-05-01T08:11:00.998Z</time></trkpt><trkpt lat="58.02880459007329" lon="56.35227643920152"><ele>116.49999999999999</ele><time>2026-05-01T08:11:04.998Z</time></trkpt><trkpt lat="58.028862090296734" lon="56.35240947969302"><ele>116.0</ele><time>2026-05-01T08:11:43Z</time></trkpt><trkpt lat="58.028947780837825" lon="56.352495896944085"><ele>116.0</ele><time>2026-05-01T08:11:45Z</time></trkpt><trkpt lat="58.02902743025599" lon="56.35254028309009"><ele>116.0</ele><time>2026-05-01T08:11:47Z</time></trkpt><trkpt lat="58.02909143634881" lon="56.35274194523889"><ele>116.0</ele><time>2026-05-01T08:11:49Z</time></trkpt><trkpt lat="58.02912317110621" lon="56.35286890792246"><ele>116.0</ele><time>2026-05-01T08:11:49.999Z</time></trkpt><trkpt lat="58.02920105092212" lon="56.35302198502669"><ele>116.0</ele><time>2026-05-01T08:11:51.999Z</time></trkpt><trkpt lat="58.02927778072851" lon="56.353050677580555"><ele>117.8</ele><time>2026-05-01T08:11:52.999Z</time></trkpt><trkpt lat="58.029393406813966" lon="56.35312694674585"><ele>119.6</ele><time>2026-05-01T08:11:54.999Z</time></trkpt><trkpt lat="58.02944870169195" lon="56.35319263422417"><ele>121.4</ele><time>2026-05-01T08:11:55.999Z</time></trkpt><trkpt lat="58.02949652996129" lon="56.35337033607027"><ele>123.2</ele><time>2026-05-01T08:11:57.999Z</time></trkpt><trkpt lat="58.029506923767" lon="56.353548420129265"><ele>125.0</ele><time>2026-05-01T08:11:59.999Z</time></trkpt><trkpt lat="58.02952857476186" lon="56.35342913243387"><ele>124.99999999999999</ele><time>2026-05-01T08:12:04.999Z</time></trkpt><trkpt lat="58.029448294262394" lon="56.353440578266934"><ele>125.0</ele><time>2026-05-01T08:12:07.999Z</time></trkpt><trkpt lat="58.02935525400862" lon="56.3534059081657"><ele>125.0</ele><time>2026-05-01T08:12:10.999Z</time></trkpt><trkpt lat="58.02928634379518" lon="56.35339463620886"><ele>125.0</ele><time>2026-05-01T08:12:12.999Z</time></trkpt><trkpt lat="58.02921370196401" lon="56.35339412895143"><ele>124.99999999999999</ele><time>2026-05-01T08:12:14.999Z</time></trkpt><trkpt lat="58.0291272276723" lon="56.353389732439396"><ele>125.0</ele><time>2026-05-01T08:12:16.999Z</time></trkpt><trkpt lat="58.029024871702156" lon="56.35339028843199"><ele>123.49999999999999</ele><time>2026-05-01T08:12:18.999Z</time></trkpt><trkpt lat="58.02893722480378" lon="56.35333428210903"><ele>122.0</ele><time>2026-05-01T08:12:20.999Z</time></trkpt><trkpt lat="58.028923933960805" lon="56.353192189928265"><ele>120.5</ele><time>2026-05-01T08:16:01.999Z</time></trkpt><trkpt lat="58.02883233236768" lon="56.353161140772556"><ele>119.0</ele><time>2026-05-01T08:16:05.999Z</time></trkpt><trkpt lat="58.02876646560039" lon="56.35316096408349"><ele>117.49999999999999</ele><time>2026-05-01T08:16:07.999Z</time></trkpt><trkpt lat="58.02870506291352" lon="56.353116029285964"><ele>116.0</ele><time>2026-05-01T08:16:09.999Z</time></trkpt><trkpt lat="58.02878162529762" lon="56.35335378817987"><ele>115.99999999999999</ele><time>2026-05-01T08:16:34.999Z</time></trkpt><trkpt lat="58.02885867300761" lon="56.353393743014145"><ele>116.0</ele><time>2026-05-01T08:16:35.999Z</time></trkpt><trkpt lat="58.028926612759896" lon="56.353178982004906"><ele>116.0</ele><time>2026-05-01T08:16:58.998Z</time></trkpt><trkpt lat="58.02883324888616" lon="56.35314019403692"><ele>116.0</ele><time>2026-05-01T08:17:01.998Z</time></trkpt><trkpt lat="58.02876067835959" lon="56.35313865585688"><ele>115.99999999999999</ele><time>2026-05-01T08:17:03.998Z</time></trkpt><trkpt lat="58.02870324752028" lon="56.353085013301495"><ele>116.0</ele><time>2026-05-01T08:17:06.998Z</time></trkpt><trkpt lat="58.02871966267432" lon="56.35320921413536"><ele>116.0</ele><time>2026-05-01T08:17:23.998Z</time></trkpt><trkpt lat="58.02878574101411" lon="56.353190817609615"><ele>116.0</ele><time>2026-05-01T08:19:15.998Z</time></trkpt><trkpt lat="58.0287158771641" lon="56.35311088017413"><ele>116.0</ele><time>2026-05-01T08:19:18.998Z</time></trkpt><trkpt lat="58.028741491237916" lon="56.353271380421745"><ele>116.0</ele><time>2026-05-01T08:19:28.998Z</time></trkpt><trkpt lat="58.028868938645125" lon="56.35337014040851"><ele>116.0</ele><time>2026-05-01T08:19:30.998Z</time></trkpt><trkpt lat="58.028930609493976" lon="56.35346753031267"><ele>116.00000000000001</ele><time>2026-05-01T08:19:32.998Z</time></trkpt><trkpt lat="58.028990456471305" lon="56.35335862943265"><ele>116.0</ele><time>2026-05-01T08:19:36.998Z</time></trkpt><trkpt lat="58.02899246437606" lon="56.35322818075037"><ele>116.00000000000001</ele><time>2026-05-01T08:21:25.998Z</time></trkpt><trkpt lat="58.029035245773116" lon="56.353104371793435"><ele>116.00000000000001</ele><time>2026-05-01T08:21:29.998Z</time></trkpt><trkpt lat="58.02908587900086" lon="56.35299114787718"><ele>116.0</ele><time>2026-05-01T08:21:33.999Z</time></trkpt><trkpt lat="58.02913862425895" lon="56.35291763669724"><ele>116.00000000000001</ele><time>2026-05-01T08:21:36.999Z</time></trkpt><trkpt lat="58.02917240363244" lon="56.35281460826911"><ele>116.00000000000001</ele><time>2026-05-01T08:21:39.999Z</time></trkpt><trkpt lat="58.0292009015995" lon="56.35267250590623"><ele>115.99999999999999</ele><time>2026-05-01T08:21:42.999Z</time></trkpt><trkpt lat="58.02921465459187" lon="56.352507874135995"><ele>116.0</ele><time>2026-05-01T08:21:45.999Z</time></trkpt><trkpt lat="58.02925423952478" lon="56.35238882889758"><ele>116.0</ele><time>2026-05-01T08:21:48.999Z</time></trkpt><trkpt lat="58.0293235793132" lon="56.35230902948335"><ele>116.0</ele><time>2026-05-01T08:21:50.998Z</time></trkpt><trkpt lat="58.029386216349195" lon="56.352233601130564"><ele>115.99999999999999</ele><time>2026-05-01T08:21:53.998Z</time></trkpt><trkpt lat="58.02941248041653" lon="56.352099926465094"><ele>116.0</ele><time>2026-05-01T08:21:57.998Z</time></trkpt><trkpt lat="58.029468059035494" lon="56.352031797577055"><ele>116.0</ele><time>2026-05-01T08:22:02Z</time></trkpt><trkpt lat="58.02948127636538" lon="56.35189169818638"><ele>116.0</ele><time>2026-05-01T08:22:08Z</time></trkpt><trkpt lat="58.02953836904896" lon="56.35177919539936"><ele>116.0</ele><time>2026-05-01T08:22:11Z</time></trkpt><trkpt lat="58.029593859625734" lon="56.351636274098595"><ele>116.0</ele><time>2026-05-01T08:22:14Z</time></trkpt><trkpt lat="58.02966889481975" lon="56.351505241875394"><ele>116.0</ele><time>2026-05-01T08:22:16Z</time></trkpt><trkpt lat="58.02973605429294" lon="56.35136340563883"><ele>115.83333333333333</ele><time>2026-05-01T08:22:18Z</time></trkpt><trkpt lat="58.029799252709466" lon="56.351256215950286"><ele>115.66666666666666</ele><time>2026-05-01T08:22:20Z</time></trkpt><trkpt lat="58.02984937550883" lon="56.35115198617577"><ele>115.5</ele><time>2026-05-01T08:22:22Z</time></trkpt><trkpt lat="58.02991441581337" lon="56.35107762226654"><ele>115.33333333333334</ele><time>2026-05-01T08:22:24Z</time></trkpt><trkpt lat="58.02995487509003" lon="56.35089384115189"><ele>115.16666666666667</ele><time>2026-05-01T08:22:26Z</time></trkpt><trkpt lat="58.02995008663186" lon="56.35076123741786"><ele>115.0</ele><time>2026-05-01T08:22:28Z</time></trkpt><trkpt lat="58.03000688252207" lon="56.35069570985153"><ele>115.00000000000001</ele><time>2026-05-01T08:22:31Z</time></trkpt><trkpt lat="58.03009393580701" lon="56.35067139138074"><ele>115.0</ele><time>2026-05-01T08:22:33Z</time></trkpt><trkpt lat="58.02999133182057" lon="56.35067030583499"><ele>115.0</ele><time>2026-05-01T08:22:37Z</time></trkpt><trkpt lat="58.02992365433866" lon="56.3505770467252"><ele>115.0</ele><time>2026-05-01T08:22:41Z</time></trkpt><trkpt lat="58.029867648955175" lon="56.35045424946698"><ele>115.00000000000001</ele><time>2026-05-01T08:22:44Z</time></trkpt><trkpt lat="58.02981587315103" lon="56.35032759410612"><ele>115.0</ele><time>2026-05-01T08:22:47Z</time></trkpt><trkpt lat="58.0297624857498" lon="56.35017282176063"><ele>114.66666666666667</ele><time>2026-05-01T08:22:50Z</time></trkpt><trkpt lat="58.02973455430638" lon="56.35001103768514"><ele>114.33333333333334</ele><time>2026-05-01T08:22:52Z</time></trkpt><trkpt lat="58.02975174334615" lon="56.34977150116693"><ele>114.0</ele><time>2026-05-01T08:22:54Z</time></trkpt><trkpt lat="58.02979026192933" lon="56.34965601552935"><ele>113.66666666666666</ele><time>2026-05-01T08:22:55Z</time></trkpt><trkpt lat="58.02983164770264" lon="56.34954646406249"><ele>113.33333333333333</ele><time>2026-05-01T08:22:56Z</time></trkpt><trkpt lat="58.029878285826285" lon="56.34941564229812"><ele>113.0</ele><time>2026-05-01T08:22:57Z</time></trkpt><trkpt lat="58.02993613928703" lon="56.349260286844306"><ele>113.33333333333333</ele><time>2026-05-01T08:22:58Z</time></trkpt><trkpt lat="58.02999037416435" lon="56.349138793355195"><ele>113.66666666666666</ele><time>2026-05-01T08:22:59Z</time></trkpt><trkpt lat="58.030035643044066" lon="56.349030939748204"><ele>114.0</ele><time>2026-05-01T08:23:00Z</time></trkpt><trkpt lat="58.03006881788688" lon="56.348886336876674"><ele>114.33333333333334</ele><time>2026-05-01T08:23:02Z</time></trkpt><trkpt lat="58.03010413112635" lon="56.34875023140895"><ele>114.66666666666667</ele><time>2026-05-01T08:23:04Z</time></trkpt><trkpt lat="58.03012259380156" lon="56.3486261433234"><ele>115.0</ele><time>2026-05-01T08:23:05.999Z</time></trkpt><trkpt lat="58.03007795396599" lon="56.34845164218715"><ele>114.99999999999999</ele><time>2026-05-01T08:23:08.999Z</time></trkpt><trkpt lat="58.03006769778678" lon="56.34829943111169"><ele>115.0</ele><time>2026-05-01T08:23:10.999Z</time></trkpt><trkpt lat="58.030082874445036" lon="56.348164224146224"><ele>114.99999999999999</ele><time>2026-05-01T08:23:12.999Z</time></trkpt><trkpt lat="58.0300666036742" lon="56.34804529846652"><ele>114.99999999999999</ele><time>2026-05-01T08:23:14.999Z</time></trkpt><trkpt lat="58.03001385644544" lon="56.34795731370916"><ele>115.0</ele><time>2026-05-01T08:23:17.999Z</time></trkpt><trkpt lat="58.0300149476089" lon="56.3478102095134"><ele>114.99999999999999</ele><time>2026-05-01T08:23:20.999Z</time></trkpt><trkpt lat="58.02997722579777" lon="56.3477055457733"><ele>114.99999999999999</ele><time>2026-05-01T08:23:22.999Z</time></trkpt><trkpt lat="58.02994610293633" lon="56.347586807757985"><ele>114.6</ele><time>2026-05-01T08:23:24.999Z</time></trkpt><trkpt lat="58.02991161780705" lon="56.34746194562557"><ele>114.2</ele><time>2026-05-01T08:23:26.999Z</time></trkpt><trkpt lat="58.02986350712523" lon="56.34732214897368"><ele>113.80000000000001</ele><time>2026-05-01T08:23:28.999Z</time></trkpt><trkpt lat="58.0297992906169" lon="56.347195196574404"><ele>113.4</ele><time>2026-05-01T08:23:30.999Z</time></trkpt><trkpt lat="58.029741886194294" lon="56.34701952029561"><ele>113.0</ele><time>2026-05-01T08:23:32.999Z</time></trkpt><trkpt lat="58.029815757254596" lon="56.34685744927999"><ele>112.80000000000001</ele><time>2026-05-01T08:23:33.999Z</time></trkpt><trkpt lat="58.029905310135746" lon="56.346737448355924"><ele>112.60000000000001</ele><time>2026-05-01T08:23:35.999Z</time></trkpt><trkpt lat="58.029919925858046" lon="56.3465801413451"><ele>112.39999999999999</ele><time>2026-05-01T08:23:37.999Z</time></trkpt><trkpt lat="58.02993954768476" lon="56.346455082656384"><ele>112.19999999999999</ele><time>2026-05-01T08:23:40.999Z</time></trkpt><trkpt lat="58.02991016744663" lon="56.34624795429666"><ele>112.0</ele><time>2026-05-01T08:23:42.999Z</time></trkpt><trkpt lat="58.029926693640114" lon="56.346103056219775"><ele>115.39999999999999</ele><time>2026-05-01T08:23:44.999Z</time></trkpt><trkpt lat="58.029985765654274" lon="56.34593994615727"><ele>118.79999999999998</ele><time>2026-05-01T08:23:46.999Z</time></trkpt><trkpt lat="58.03004638677987" lon="56.34578871891766"><ele>122.2</ele><time>2026-05-01T08:23:48.999Z</time></trkpt><trkpt lat="58.030145453219966" lon="56.34585688392324"><ele>125.6</ele><time>2026-05-01T08:23:51.999Z</time></trkpt><trkpt lat="58.03024804205646" lon="56.34596239848583"><ele>129.0</ele><time>2026-05-01T08:23:53.999Z</time></trkpt><trkpt lat="58.03032795370334" lon="56.346117209723744"><ele>129.0</ele><time>2026-05-01T08:23:54.999Z</time></trkpt><trkpt lat="58.0303729073598" lon="56.34623771216266"><ele>129.0</ele><time>2026-05-01T08:23:55.999Z</time></trkpt><trkpt lat="58.03040692958033" lon="56.346352977399754"><ele>129.0</ele><time>2026-05-01T08:23:56.998Z</time></trkpt><trkpt lat="58.03044571432259" lon="56.34644910458131"><ele>129.0</ele><time>2026-05-01T08:23:57.998Z</time></trkpt><trkpt lat="58.030476304785445" lon="56.346618301789285"><ele>129.0</ele><time>2026-05-01T08:23:59.998Z</time></trkpt><trkpt lat="58.03039508497265" lon="56.346856658155396"><ele>128.4</ele><time>2026-05-01T08:24:01.998Z</time></trkpt><trkpt lat="58.03036156460835" lon="56.34699761030189"><ele>127.80000000000001</ele><time>2026-05-01T08:24:03.998Z</time></trkpt><trkpt lat="58.0303389166544" lon="56.347152989240556"><ele>127.19999999999999</ele><time>2026-05-01T08:24:06.001Z</time></trkpt><trkpt lat="58.030295825369066" lon="56.34733001859327"><ele>126.6</ele><time>2026-05-01T08:24:08.001Z</time></trkpt><trkpt lat="58.030303839699606" lon="56.34759118331091"><ele>126.0</ele><time>2026-05-01T08:24:11.001Z</time></trkpt><trkpt lat="58.03027460575509" lon="56.34782487322424"><ele>124.5</ele><time>2026-05-01T08:24:13Z</time></trkpt><trkpt lat="58.030244340855084" lon="56.34795014201564"><ele>123.0</ele><time>2026-05-01T08:24:14.001Z</time></trkpt><trkpt lat="58.03019146734802" lon="56.34805334597639"><ele>121.5</ele><time>2026-05-01T08:24:16Z</time></trkpt><trkpt lat="58.03012582911734" lon="56.34799112422282"><ele>120.0</ele><time>2026-05-01T08:24:19Z</time></trkpt><trkpt lat="58.03012387565012" lon="56.34774971159868"><ele>118.5</ele><time>2026-05-01T08:24:26Z</time></trkpt><trkpt lat="58.03012095154341" lon="56.347611517246214"><ele>117.0</ele><time>2026-05-01T08:24:27Z</time></trkpt><trkpt lat="58.030131628154756" lon="56.34740498354994"><ele>118.8</ele><time>2026-05-01T08:24:29Z</time></trkpt><trkpt lat="58.030098096711846" lon="56.34716216142319"><ele>120.6</ele><time>2026-05-01T08:24:31Z</time></trkpt><trkpt lat="58.03011558553434" lon="56.34701713947351"><ele>122.39999999999999</ele><time>2026-05-01T08:24:32Z</time></trkpt><trkpt lat="58.03020055331851" lon="56.346793268236496"><ele>124.19999999999999</ele><time>2026-05-01T08:24:34Z</time></trkpt><trkpt lat="58.03024282763406" lon="56.346692408841584"><ele>126.0</ele><time>2026-05-01T08:24:35Z</time></trkpt><trkpt lat="58.03024936095409" lon="56.346473659947435"><ele>126.0</ele><time>2026-05-01T08:24:37Z</time></trkpt><trkpt lat="58.03028286204552" lon="56.34630953469962"><ele>126.0</ele><time>2026-05-01T08:24:39Z</time></trkpt><trkpt lat="58.03033823183475" lon="56.34623129483381"><ele>126.0</ele><time>2026-05-01T08:24:41Z</time></trkpt><trkpt lat="58.03026485135569" lon="56.34621005251882"><ele>126.0</ele><time>2026-05-01T08:24:45Z</time></trkpt><trkpt lat="58.030253402061845" lon="56.34633686444612"><ele>126.0</ele><time>2026-05-01T08:24:48Z</time></trkpt><trkpt lat="58.03030442199388" lon="56.34646577341667"><ele>126.0</ele><time>2026-05-01T08:28:50Z</time></trkpt><trkpt lat="58.030287873450206" lon="56.34658083058887"><ele>126.0</ele><time>2026-05-01T08:28:52Z</time></trkpt><trkpt lat="58.03028067208025" lon="56.34670333297405"><ele>126.0</ele><time>2026-05-01T08:28:54Z</time></trkpt><trkpt lat="58.030235478905446" lon="56.34683853675278"><ele>126.0</ele><time>2026-05-01T08:28:57Z</time></trkpt><trkpt lat="58.03018124850782" lon="56.34696549855572"><ele>126.0</ele><time>2026-05-01T08:29:00Z</time></trkpt><trkpt lat="58.03013604058419" lon="56.347112657716345"><ele>126.0</ele><time>2026-05-01T08:29:03Z</time></trkpt><trkpt lat="58.03012153586714" lon="56.34724661719336"><ele>126.0</ele><time>2026-05-01T08:29:06Z</time></trkpt><trkpt lat="58.03013044325497" lon="56.34737828297937"><ele>126.0</ele><time>2026-05-01T08:29:09Z</time></trkpt><trkpt lat="58.03021732142095" lon="56.347408593622305"><ele>126.0</ele><time>2026-05-01T08:29:12Z</time></trkpt><trkpt lat="58.03023578857757" lon="56.347281693773304"><ele>126.0</ele><time>2026-05-01T08:29:16Z</time></trkpt><trkpt lat="58.030233577459065" lon="56.34710613277107"><ele>126.0</ele><time>2026-05-01T08:29:18.999Z</time></trkpt><trkpt lat="58.03025283554551" lon="56.34696556590609"><ele>126.0</ele><time>2026-05-01T08:29:21.999Z</time></trkpt><trkpt lat="58.03017823142344" lon="56.346977151412645"><ele>126.0</ele><time>2026-05-01T08:30:36Z</time></trkpt><trkpt lat="58.030152970847666" lon="56.346813792863884"><ele>126.0</ele><time>2026-05-01T08:30:39Z</time></trkpt><trkpt lat="58.03015256675372" lon="56.346675965543476"><ele>126.0</ele><time>2026-05-01T08:30:42Z</time></trkpt><trkpt lat="58.03016079744652" lon="56.346499211899726"><ele>126.0</ele><time>2026-05-01T08:30:45Z</time></trkpt><trkpt lat="58.03017566897493" lon="56.34637389873513"><ele>126.0</ele><time>2026-05-01T08:30:47Z</time></trkpt><trkpt lat="58.03026688701374" lon="56.3463199111643"><ele>126.0</ele><time>2026-05-01T08:30:50Z</time></trkpt><trkpt lat="58.0302026967902" lon="56.34619714223499"><ele>126.0</ele><time>2026-05-01T08:32:46Z</time></trkpt><trkpt lat="58.0301292036881" lon="56.34613704451329"><ele>126.5</ele><time>2026-05-01T08:32:50Z</time></trkpt><trkpt lat="58.0300621756105" lon="56.34606807211421"><ele>127.0</ele><time>2026-05-01T08:32:54Z</time></trkpt><trkpt lat="58.03003376571389" lon="56.345960276452104"><ele>127.5</ele><time>2026-05-01T08:32:57Z</time></trkpt><trkpt lat="58.029984805692735" lon="56.34583031539468"><ele>128.0</ele><time>2026-05-01T08:33:01Z</time></trkpt><trkpt lat="58.029904177354425" lon="56.345757605161616"><ele>128.5</ele><time>2026-05-01T08:33:03Z</time></trkpt><trkpt lat="58.029827847831115" lon="56.34571569742509"><ele>129.0</ele><time>2026-05-01T08:33:05Z</time></trkpt><trkpt lat="58.029770505437575" lon="56.34566551306065"><ele>126.16666666666667</ele><time>2026-05-01T08:33:07Z</time></trkpt><trkpt lat="58.029707544583935" lon="56.345620831292344"><ele>123.33333333333334</ele><time>2026-05-01T08:33:09Z</time></trkpt><trkpt lat="58.02963282516293" lon="56.34556611958664"><ele>120.5</ele><time>2026-05-01T08:33:12Z</time></trkpt><trkpt lat="58.02954400820533" lon="56.345498440433175"><ele>117.66666666666667</ele><time>2026-05-01T08:33:15Z</time></trkpt><trkpt lat="58.02945340021837" lon="56.34541102310685"><ele>114.83333333333334</ele><time>2026-05-01T08:33:18Z</time></trkpt><trkpt lat="58.02937699621306" lon="56.345354315991"><ele>112.0</ele><time>2026-05-01T08:33:20Z</time></trkpt><trkpt lat="58.02930669457695" lon="56.345297249935626"><ele>112.0</ele><time>2026-05-01T08:33:23Z</time></trkpt><trkpt lat="58.029336082552476" lon="56.3454429951227"><ele>111.99999999999999</ele><time>2026-05-01T08:33:31.999Z</time></trkpt><trkpt lat="58.02944806482241" lon="56.3455075707686"><ele>111.99999999999999</ele><time>2026-05-01T08:33:33.999Z</time></trkpt><trkpt lat="58.02953647963183" lon="56.3456121077204"><ele>112.0</ele><time>2026-05-01T08:33:35.999Z</time></trkpt><trkpt lat="58.029615438544305" lon="56.34565118145071"><ele>112.0</ele><time>2026-05-01T08:33:37.999Z</time></trkpt><trkpt lat="58.02970438703001" lon="56.345688983599"><ele>112.0</ele><time>2026-05-01T08:33:40.999Z</time></trkpt><trkpt lat="58.02977624560832" lon="56.34571975198002"><ele>111.99999999999999</ele><time>2026-05-01T08:33:42.999Z</time></trkpt><trkpt lat="58.02987549203907" lon="56.34574109456602"><ele>111.99999999999999</ele><time>2026-05-01T08:33:44.999Z</time></trkpt><trkpt lat="58.02995139182668" lon="56.345792312115286"><ele>112.0</ele><time>2026-05-01T08:33:45.999Z</time></trkpt><trkpt lat="58.03002433237349" lon="56.34581616276063"><ele>112.0</ele><time>2026-05-01T08:33:46.999Z</time></trkpt><trkpt lat="58.03013730470349" lon="56.34590754920288"><ele>112.0</ele><time>2026-05-01T08:33:48.999Z</time></trkpt><trkpt lat="58.03017169755082" lon="56.346077412667746"><ele>111.99999999999999</ele><time>2026-05-01T08:33:50.999Z</time></trkpt><trkpt lat="58.030145269509596" lon="56.34587634709519"><ele>111.99999999999999</ele><time>2026-05-01T08:33:53.999Z</time></trkpt><trkpt lat="58.030066997269785" lon="56.345866657658014"><ele>112.0</ele><time>2026-05-01T08:33:54.999Z</time></trkpt><trkpt lat="58.029978371512826" lon="56.345836174348165"><ele>112.0</ele><time>2026-05-01T08:33:57.999Z</time></trkpt><trkpt lat="58.02991163203958" lon="56.34576810271416"><ele>112.00000000000001</ele><time>2026-05-01T08:33:59.999Z</time></trkpt><trkpt lat="58.0298095386293" lon="56.34569529755413"><ele>112.0</ele><time>2026-05-01T08:34:02.999Z</time></trkpt><trkpt lat="58.02972253169447" lon="56.345700060746196"><ele>112.0</ele><time>2026-05-01T08:34:04.999Z</time></trkpt><trkpt lat="58.02965452092375" lon="56.345661449187894"><ele>112.0</ele><time>2026-05-01T08:34:06.999Z</time></trkpt><trkpt lat="58.029585450916564" lon="56.3455927641638"><ele>112.00000000000001</ele><time>2026-05-01T08:34:08.999Z</time></trkpt><trkpt lat="58.02951336882534" lon="56.34552986416322"><ele>112.0</ele><time>2026-05-01T08:34:10.999Z</time></trkpt><trkpt lat="58.02944266257577" lon="56.34547434979415"><ele>111.66666666666667</ele><time>2026-05-01T08:34:12.999Z</time></trkpt><trkpt lat="58.02937617820904" lon="56.34541916772122"><ele>111.33333333333334</ele><time>2026-05-01T08:34:14.999Z</time></trkpt><trkpt lat="58.02932847466577" lon="56.34532133482195"><ele>111.0</ele><time>2026-05-01T08:34:16.999Z</time></trkpt><trkpt lat="58.02927965464129" lon="56.345193135624164"><ele>110.66666666666666</ele><time>2026-05-01T08:34:19.998Z</time></trkpt><trkpt lat="58.02929882812644" lon="56.34531277165355"><ele>110.33333333333333</ele><time>2026-05-01T08:34:46Z</time></trkpt><trkpt lat="58.02936345004994" lon="56.34535671664686"><ele>110.0</ele><time>2026-05-01T08:34:53Z</time></trkpt><trkpt lat="58.02946226246781" lon="56.34542618909415"><ele>110.0</ele><time>2026-05-01T08:34:55Z</time></trkpt><trkpt lat="58.02955765149476" lon="56.34550496057004"><ele>110.0</ele><time>2026-05-01T08:34:57Z</time></trkpt><trkpt lat="58.02965488762555" lon="56.345573378243444"><ele>110.0</ele><time>2026-05-01T08:34:59Z</time></trkpt><trkpt lat="58.029733075866666" lon="56.34559601864385"><ele>110.0</ele><time>2026-05-01T08:35:01Z</time></trkpt><trkpt lat="58.0298248071089" lon="56.34569488602085"><ele>110.0</ele><time>2026-05-01T08:35:03Z</time></trkpt><trkpt lat="58.029883781489076" lon="56.34578550203457"><ele>110.33333333333333</ele><time>2026-05-01T08:35:04Z</time></trkpt><trkpt lat="58.02995105132578" lon="56.34584629439773"><ele>110.66666666666666</ele><time>2026-05-01T08:35:05Z</time></trkpt><trkpt lat="58.03005595017734" lon="56.34594336635954"><ele>111.0</ele><time>2026-05-01T08:35:07Z</time></trkpt><trkpt lat="58.03009977756009" lon="56.346068092940385"><ele>111.33333333333334</ele><time>2026-05-01T08:35:09Z</time></trkpt><trkpt lat="58.03010007597399" lon="56.34594242177747"><ele>111.66666666666667</ele><time>2026-05-01T08:35:15Z</time></trkpt><trkpt lat="58.03003026397855" lon="56.34594727867739"><ele>112.0</ele><time>2026-05-01T08:35:18Z</time></trkpt><trkpt lat="58.02999062466417" lon="56.3460879464544"><ele>112.0</ele><time>2026-05-01T08:36:21.999Z</time></trkpt><trkpt lat="58.02997378378354" lon="56.34621177749811"><ele>112.0</ele><time>2026-05-01T08:36:23.999Z</time></trkpt><trkpt lat="58.02995486743643" lon="56.346370251198714"><ele>112.0</ele><time>2026-05-01T08:36:26.998Z</time></trkpt><trkpt lat="58.02994389468961" lon="56.3464976322575"><ele>112.0</ele><time>2026-05-01T08:36:29.998Z</time></trkpt><trkpt lat="58.029927136133956" lon="56.34667322372413"><ele>112.0</ele><time>2026-05-01T08:36:32.998Z</time></trkpt><trkpt lat="58.029896206282" lon="56.34677710960585"><ele>112.0</ele><time>2026-05-01T08:36:35.998Z</time></trkpt><trkpt lat="58.029859070651206" lon="56.34687959126439"><ele>112.0</ele><time>2026-05-01T08:36:45Z</time></trkpt><trkpt lat="58.02981932377861" lon="56.34697443750933"><ele>112.00000000000001</ele><time>2026-05-01T08:36:47Z</time></trkpt><trkpt lat="58.029808318242324" lon="56.34714304166432"><ele>112.0</ele><time>2026-05-01T08:36:50Z</time></trkpt><trkpt lat="58.02983472873189" lon="56.347278225756035"><ele>112.0</ele><time>2026-05-01T08:36:52Z</time></trkpt><trkpt lat="58.02979774596833" lon="56.34714184654191"><ele>112.0</ele><time>2026-05-01T08:37:14Z</time></trkpt><trkpt lat="58.029804291836" lon="56.34694052098047"><ele>112.00000000000001</ele><time>2026-05-01T08:37:16Z</time></trkpt><trkpt lat="58.02985108383964" lon="56.34684126913866"><ele>112.0</ele><time>2026-05-01T08:37:17Z</time></trkpt><trkpt lat="58.029898924010794" lon="56.346759624442846"><ele>112.0</ele><time>2026-05-01T08:37:18Z</time></trkpt><trkpt lat="58.029937412487605" lon="56.34659872276816"><ele>111.99999999999999</ele><time>2026-05-01T08:37:20Z</time></trkpt><trkpt lat="58.02995235791161" lon="56.3463873752226"><ele>111.99999999999999</ele><time>2026-05-01T08:37:22Z</time></trkpt><trkpt lat="58.029978954004505" lon="56.34617528742367"><ele>112.0</ele><time>2026-05-01T08:37:24Z</time></trkpt><trkpt lat="58.03000679089166" lon="56.34596311315255"><ele>112.0</ele><time>2026-05-01T08:37:26Z</time></trkpt><trkpt lat="58.03003938814674" lon="56.34580081062031"><ele>112.00000000000001</ele><time>2026-05-01T08:37:28Z</time></trkpt><trkpt lat="58.029969491016345" lon="56.34569253020214"><ele>112.0</ele><time>2026-05-01T08:37:33Z</time></trkpt><trkpt lat="58.02991254716946" lon="56.34563954043359"><ele>112.0</ele><time>2026-05-01T08:37:36Z</time></trkpt><trkpt lat="58.0298459417664" lon="56.345582251789615"><ele>112.0</ele><time>2026-05-01T08:37:38.999Z</time></trkpt><trkpt lat="58.029794074201604" lon="56.34543531201868"><ele>112.00000000000001</ele><time>2026-05-01T08:37:41.999Z</time></trkpt><trkpt lat="58.02975521119746" lon="56.3453087941533"><ele>112.0</ele><time>2026-05-01T08:37:43.999Z</time></trkpt><trkpt lat="58.02972534007582" lon="56.34518905743793"><ele>112.0</ele><time>2026-05-01T08:37:45.999Z</time></trkpt><trkpt lat="58.0296444420547" lon="56.345169189570946"><ele>112.0</ele><time>2026-05-01T08:37:48.999Z</time></trkpt><trkpt lat="58.02961413123871" lon="56.34527958381705"><ele>112.0</ele><time>2026-05-01T08:37:50.999Z</time></trkpt><trkpt lat="58.029567772957876" lon="56.34539086179316"><ele>112.0</ele><time>2026-05-01T08:37:53.999Z</time></trkpt><trkpt lat="58.02955934495514" lon="56.34552385612674"><ele>112.0</ele><time>2026-05-01T08:37:56.999Z</time></trkpt><trkpt lat="58.029546635494626" lon="56.345658110702466"><ele>112.0</ele><time>2026-05-01T08:37:58.999Z</time></trkpt><trkpt lat="58.02953492319678" lon="56.34579733407013"><ele>112.0</ele><time>2026-05-01T08:38:00.999Z</time></trkpt><trkpt lat="58.02955338572872" lon="56.34595674383836"><ele>112.00000000000001</ele><time>2026-05-01T08:38:03.999Z</time></trkpt><trkpt lat="58.0296096776595" lon="56.34602122235791"><ele>112.0</ele><time>2026-05-01T08:38:05.999Z</time></trkpt><trkpt lat="58.029703037678374" lon="56.346110437751754"><ele>112.0</ele><time>2026-05-01T08:38:07.999Z</time></trkpt><trkpt lat="58.029780658734936" lon="56.34614788592014"><ele>112.0</ele><time>2026-05-01T08:38:09.999Z</time></trkpt><trkpt lat="58.02987639836385" lon="56.34610461485948"><ele>112.00000000000001</ele><time>2026-05-01T08:38:11.999Z</time></trkpt><trkpt lat="58.029960952226965" lon="56.346063355518005"><ele>112.0</ele><time>2026-05-01T08:38:13.999Z</time></trkpt><trkpt lat="58.030024642036906" lon="56.34595095668031"><ele>112.00000000000001</ele><time>2026-05-01T08:38:15.999Z</time></trkpt><trkpt lat="58.0300908684242" lon="56.34589857825307"><ele>112.0</ele><time>2026-05-01T08:38:17.999Z</time></trkpt><trkpt lat="58.030060293320474" lon="56.34578610867189"><ele>112.0</ele><time>2026-05-01T08:38:20.999Z</time></trkpt><trkpt lat="58.029984174572085" lon="56.34580429543953"><ele>112.0</ele><time>2026-05-01T08:38:22.999Z</time></trkpt><trkpt lat="58.02990827465973" lon="56.34577532360765"><ele>112.00000000000001</ele><time>2026-05-01T08:38:24.999Z</time></trkpt><trkpt lat="58.02982259130691" lon="56.34572304366319"><ele>112.0</ele><time>2026-05-01T08:38:27.999Z</time></trkpt><trkpt lat="58.02975404692869" lon="56.34571754978075"><ele>112.00000000000001</ele><time>2026-05-01T08:38:29.998Z</time></trkpt><trkpt lat="58.02965998406748" lon="56.34578203527634"><ele>112.0</ele><time>2026-05-01T08:38:32.998Z</time></trkpt><trkpt lat="58.029609272372625" lon="56.34587712891571"><ele>112.0</ele><time>2026-05-01T08:38:34.998Z</time></trkpt><trkpt lat="58.029600607557924" lon="56.34602624714499"><ele>112.0</ele><time>2026-05-01T08:38:37.998Z</time></trkpt><trkpt lat="58.029601211140175" lon="56.34616585982522"><ele>112.00000000000001</ele><time>2026-05-01T08:38:39.998Z</time></trkpt><trkpt lat="58.029635417461655" lon="56.346290095618784"><ele>112.0</ele><time>2026-05-01T08:38:42.998Z</time></trkpt><trkpt lat="58.02968758044959" lon="56.346415302598054"><ele>112.00000000000001</ele><time>2026-05-01T08:38:46Z</time></trkpt><trkpt lat="58.02975057509245" lon="56.346533725054286"><ele>112.0</ele><time>2026-05-01T08:38:49Z</time></trkpt><trkpt lat="58.02981584709787" lon="56.34663839150468"><ele>112.0</ele><time>2026-05-01T08:38:51Z</time></trkpt><trkpt lat="58.029883894128204" lon="56.34674580747251"><ele>112.0</ele><time>2026-05-01T08:38:53Z</time></trkpt><trkpt lat="58.029865876938494" lon="56.3468605933742"><ele>112.00000000000001</ele><time>2026-05-01T08:38:58Z</time></trkpt><trkpt lat="58.029813420195424" lon="56.346975330248696"><ele>112.0</ele><time>2026-05-01T08:39:00Z</time></trkpt><trkpt lat="58.02980374599365" lon="56.34713467623289"><ele>112.16666666666667</ele><time>2026-05-01T08:39:03Z</time></trkpt><trkpt lat="58.02983939851223" lon="56.34727553253574"><ele>112.33333333333334</ele><time>2026-05-01T08:39:05Z</time></trkpt><trkpt lat="58.029902604467395" lon="56.34739882816226"><ele>112.5</ele><time>2026-05-01T08:39:07Z</time></trkpt><trkpt lat="58.02997013969415" lon="56.34754705430605"><ele>112.66666666666666</ele><time>2026-05-01T08:39:09Z</time></trkpt><trkpt lat="58.029989109576064" lon="56.34766537580685"><ele>112.83333333333333</ele><time>2026-05-01T08:39:11Z</time></trkpt><trkpt lat="58.02999190803327" lon="56.34781272768354"><ele>113.0</ele><time>2026-05-01T08:39:14Z</time></trkpt><trkpt lat="58.03002750215788" lon="56.34799425794325"><ele>113.33333333333333</ele><time>2026-05-01T08:39:29Z</time></trkpt><trkpt lat="58.03005581577252" lon="56.34814572729057"><ele>113.66666666666666</ele><time>2026-05-01T08:39:31Z</time></trkpt><trkpt lat="58.030067670138074" lon="56.34826753840717"><ele>114.0</ele><time>2026-05-01T08:39:33Z</time></trkpt><trkpt lat="58.03006067664666" lon="56.34839539160579"><ele>114.33333333333334</ele><time>2026-05-01T08:39:35Z</time></trkpt><trkpt lat="58.03003487532123" lon="56.348537194924035"><ele>114.66666666666667</ele><time>2026-05-01T08:39:37Z</time></trkpt><trkpt lat="58.029963839894734" lon="56.348687467833024"><ele>115.0</ele><time>2026-05-01T08:39:39Z</time></trkpt><trkpt lat="58.029934872399416" lon="56.34883276755637"><ele>115.16666666666667</ele><time>2026-05-01T08:39:41Z</time></trkpt><trkpt lat="58.02990418908816" lon="56.348944252380875"><ele>115.33333333333334</ele><time>2026-05-01T08:39:43Z</time></trkpt><trkpt lat="58.029928051186246" lon="56.34905981524796"><ele>115.5</ele><time>2026-05-01T08:39:45.999Z</time></trkpt><trkpt lat="58.02999869665221" lon="56.34912300970079"><ele>115.66666666666666</ele><time>2026-05-01T08:39:48.999Z</time></trkpt><trkpt lat="58.030030778594856" lon="56.34927941635898"><ele>115.83333333333333</ele><time>2026-05-01T08:39:50.999Z</time></trkpt><trkpt lat="58.030044750529854" lon="56.34942644060229"><ele>116.0</ele><time>2026-05-01T08:39:51.999Z</time></trkpt><trkpt lat="58.03004360035917" lon="56.349594534582735"><ele>117.4</ele><time>2026-05-01T08:39:52.999Z</time></trkpt><trkpt lat="58.030023068282" lon="56.34975197104782"><ele>118.8</ele><time>2026-05-01T08:39:53.999Z</time></trkpt><trkpt lat="58.03001425544277" lon="56.35005044193433"><ele>120.20000000000002</ele><time>2026-05-01T08:39:55.999Z</time></trkpt><trkpt lat="58.03004138644686" lon="56.350235840890704"><ele>121.60000000000001</ele><time>2026-05-01T08:39:56.999Z</time></trkpt><trkpt lat="58.030064669666274" lon="56.350385397887216"><ele>123.0</ele><time>2026-05-01T08:39:57.999Z</time></trkpt><trkpt lat="58.03007891933393" lon="56.350526190992035"><ele>121.4</ele><time>2026-05-01T08:39:58.999Z</time></trkpt><trkpt lat="58.03009493398005" lon="56.35068425391607"><ele>119.80000000000001</ele><time>2026-05-01T08:39:59.999Z</time></trkpt><trkpt lat="58.03010337186711" lon="56.3508251171873"><ele>118.2</ele><time>2026-05-01T08:40:00.999Z</time></trkpt><trkpt lat="58.03000988029081" lon="56.35083578686133"><ele>116.6</ele><time>2026-05-01T08:40:12.999Z</time></trkpt><trkpt lat="58.02993231928057" lon="56.35087245352718"><ele>115.0</ele><time>2026-05-01T08:40:15.999Z</time></trkpt><trkpt lat="58.029818745446086" lon="56.35095863104752"><ele>114.99999999999999</ele><time>2026-05-01T08:40:17.999Z</time></trkpt><trkpt lat="58.02972998280637" lon="56.351006241112664"><ele>115.0</ele><time>2026-05-01T08:40:19.999Z</time></trkpt><trkpt lat="58.0296590066478" lon="56.35107961634906"><ele>114.99999999999999</ele><time>2026-05-01T08:40:21.999Z</time></trkpt><trkpt lat="58.02959368396018" lon="56.35112712458594"><ele>114.99999999999999</ele><time>2026-05-01T08:40:23.999Z</time></trkpt><trkpt lat="58.029526209953666" lon="56.351162528339614"><ele>115.0</ele><time>2026-05-01T08:40:25.999Z</time></trkpt><trkpt lat="58.029467018754495" lon="56.35121642487252"><ele>114.99999999999999</ele><time>2026-05-01T08:40:28.999Z</time></trkpt><trkpt lat="58.029413913602816" lon="56.351295538373"><ele>114.99999999999999</ele><time>2026-05-01T08:40:31.999Z</time></trkpt><trkpt lat="58.0293655950207" lon="56.351402769217636"><ele>115.16666666666667</ele><time>2026-05-01T08:40:33.999Z</time></trkpt><trkpt lat="58.02929356140371" lon="56.351620378601744"><ele>115.33333333333334</ele><time>2026-05-01T08:40:35.998Z</time></trkpt><trkpt lat="58.02926847832307" lon="56.35173916592582"><ele>115.5</ele><time>2026-05-01T08:40:36.998Z</time></trkpt><trkpt lat="58.02931671842455" lon="56.351822643408944"><ele>115.66666666666666</ele><time>2026-05-01T08:40:37.998Z</time></trkpt><trkpt lat="58.02933137477687" lon="56.35198989534595"><ele>115.83333333333333</ele><time>2026-05-01T08:40:39.998Z</time></trkpt><trkpt lat="58.029317404952494" lon="56.35210900222638"><ele>116.0</ele><time>2026-05-01T08:41:33Z</time></trkpt><trkpt lat="58.02929399899242" lon="56.352252997850755"><ele>116.0</ele><time>2026-05-01T08:41:35Z</time></trkpt><trkpt lat="58.02924506683999" lon="56.352380638804284"><ele>116.0</ele><time>2026-05-01T08:41:37Z</time></trkpt><trkpt lat="58.029212495640664" lon="56.352534287144195"><ele>116.0</ele><time>2026-05-01T08:41:39Z</time></trkpt><trkpt lat="58.02916043272786" lon="56.35262488617321"><ele>116.0</ele><time>2026-05-01T08:41:41Z</time></trkpt><trkpt lat="58.02905467849359" lon="56.35263027706615"><ele>116.0</ele><time>2026-05-01T08:41:43Z</time></trkpt><trkpt lat="58.02895527669956" lon="56.35251310891072"><ele>115.99999999999999</ele><time>2026-05-01T08:41:45Z</time></trkpt><trkpt lat="58.028887225764386" lon="56.352479031499755"><ele>116.0</ele><time>2026-05-01T08:41:47Z</time></trkpt><trkpt lat="58.028826637153415" lon="56.352406119127025"><ele>116.0</ele><time>2026-05-01T08:41:49.999Z</time></trkpt><trkpt lat="58.02873214180581" lon="56.35242702269106"><ele>116.0</ele><time>2026-05-01T08:42:51.998Z</time></trkpt><trkpt lat="58.02873992694927" lon="56.3525824845554"><ele>115.99999999999999</ele><time>2026-05-01T08:42:56Z</time></trkpt><trkpt lat="58.02866518175004" lon="56.352656213572054"><ele>116.0</ele><time>2026-05-01T08:42:59Z</time></trkpt><trkpt lat="58.02859118994125" lon="56.35269267122545"><ele>115.99999999999999</ele><time>2026-05-01T08:43:03Z</time></trkpt><trkpt lat="58.02852229826742" lon="56.352734177810746"><ele>116.0</ele><time>2026-05-01T08:43:05Z</time></trkpt><trkpt lat="58.02845219539014" lon="56.352752059223526"><ele>116.0</ele><time>2026-05-01T08:43:07Z</time></trkpt><trkpt lat="58.02837023133082" lon="56.35276185944089"><ele>116.0</ele><time>2026-05-01T08:43:10Z</time></trkpt><trkpt lat="58.028284903073576" lon="56.352883547923156"><ele>115.99999999999999</ele><time>2026-05-01T08:43:12Z</time></trkpt><trkpt lat="58.028232823631754" lon="56.353060903868005"><ele>116.0</ele><time>2026-05-01T08:43:14Z</time></trkpt><trkpt lat="58.02820726045584" lon="56.35325686547234"><ele>117.8</ele><time>2026-05-01T08:43:16Z</time></trkpt><trkpt lat="58.02816514112051" lon="56.35342197618658"><ele>119.6</ele><time>2026-05-01T08:43:18Z</time></trkpt><trkpt lat="58.02815258205495" lon="56.35356923662056"><ele>121.4</ele><time>2026-05-01T08:43:20Z</time></trkpt><trkpt lat="58.02814726578117" lon="56.35372512715916"><ele>123.2</ele><time>2026-05-01T08:43:24Z</time></trkpt><trkpt lat="58.02816782839652" lon="56.35390696485987"><ele>125.0</ele><time>2026-05-01T08:43:27Z</time></trkpt><trkpt lat="58.02812576718804" lon="56.35409513953803"><ele>124.99999999999999</ele><time>2026-05-01T08:43:29Z</time></trkpt><trkpt lat="58.02811091344669" lon="56.35421751429018"><ele>125.0</ele><time>2026-05-01T08:43:30Z</time></trkpt><trkpt lat="58.028117007890934" lon="56.35435209648606"><ele>125.0</ele><time>2026-05-01T08:43:31Z</time></trkpt><trkpt lat="58.02812602784106" lon="56.35450759386354"><ele>125.0</ele><time>2026-05-01T08:43:32Z</time></trkpt><trkpt lat="58.02813786676924" lon="56.354644492250536"><ele>124.99999999999999</ele><time>2026-05-01T08:43:33Z</time></trkpt><trkpt lat="58.02819374033997" lon="56.354774779416154"><ele>125.0</ele><time>2026-05-01T08:43:35Z</time></trkpt><trkpt lat="58.028234924138616" lon="56.35495952237765"><ele>125.33333333333333</ele><time>2026-05-01T08:43:38Z</time></trkpt><trkpt lat="58.028238972220095" lon="56.355109976695104"><ele>125.66666666666666</ele><time>2026-05-01T08:43:39Z</time></trkpt><trkpt lat="58.028223123622055" lon="56.35526638419537"><ele>126.0</ele><time>2026-05-01T08:43:40Z</time></trkpt><trkpt lat="58.028216093580355" lon="56.35545884802853"><ele>126.33333333333334</ele><time>2026-05-01T08:43:42Z</time></trkpt><trkpt lat="58.02826600246857" lon="56.35558311738786"><ele>126.66666666666667</ele><time>2026-05-01T08:43:44Z</time></trkpt><trkpt lat="58.028243251686554" lon="56.35575857530185"><ele>127.0</ele><time>2026-05-01T08:43:47Z</time></trkpt><trkpt lat="58.02819960819554" lon="56.35600383185625"><ele>127.00000000000001</ele><time>2026-05-01T08:43:49Z</time></trkpt><trkpt lat="58.02815217927929" lon="56.3562037099754"><ele>127.0</ele><time>2026-05-01T08:43:51Z</time></trkpt><trkpt lat="58.028153204607875" lon="56.356349430525285"><ele>127.0</ele><time>2026-05-01T08:43:52Z</time></trkpt><trkpt lat="58.02816999964501" lon="56.35654597344349"><ele>127.0</ele><time>2026-05-01T08:43:53.999Z</time></trkpt><trkpt lat="58.02817670897951" lon="56.356664383027955"><ele>127.00000000000001</ele><time>2026-05-01T08:43:58.999Z</time></trkpt><trkpt lat="58.028143929610906" lon="56.356814804095485"><ele>127.0</ele><time>2026-05-01T08:44:11.999Z</time></trkpt><trkpt lat="58.02809668596754" lon="56.356907186105296"><ele>127.16666666666667</ele><time>2026-05-01T08:44:14.999Z</time></trkpt><trkpt lat="58.028126335166405" lon="56.357044231514905"><ele>127.33333333333334</ele><time>2026-05-01T08:44:16.999Z</time></trkpt><trkpt lat="58.028174223920615" lon="56.35716367819787"><ele>127.5</ele><time>2026-05-01T08:44:18.999Z</time></trkpt><trkpt lat="58.02818597347199" lon="56.35740494353724"><ele>127.66666666666666</ele><time>2026-05-01T08:44:21.999Z</time></trkpt><trkpt lat="58.028192913861226" lon="56.3575428126054"><ele>127.83333333333333</ele><time>2026-05-01T08:44:22.999Z</time></trkpt><trkpt lat="58.02819334315175" lon="56.3576989316508"><ele>128.0</ele><time>2026-05-01T08:44:24.999Z</time></trkpt><trkpt lat="58.028194665156335" lon="56.357855258578816"><ele>128.33333333333331</ele><time>2026-05-01T08:44:28.999Z</time></trkpt><trkpt lat="58.028259381908754" lon="56.35780868387986"><ele>128.66666666666666</ele><time>2026-05-01T08:44:32.999Z</time></trkpt><trkpt lat="58.02821764096308" lon="56.357713533949145"><ele>129.0</ele><time>2026-05-01T08:44:42.999Z</time></trkpt><trkpt lat="58.02822323585229" lon="56.35784370031676"><ele>129.33333333333334</ele><time>2026-05-01T08:45:06Z</time></trkpt><trkpt lat="58.028228910756305" lon="56.35797278278509"><ele>129.66666666666669</ele><time>2026-05-01T08:45:12Z</time></trkpt><trkpt lat="58.02822801771446" lon="56.35819620280813"><ele>130.0</ele><time>2026-05-01T08:45:14Z</time></trkpt><trkpt lat="58.02822817116203" lon="56.358421371339006"><ele>129.83333333333334</ele><time>2026-05-01T08:45:16Z</time></trkpt><trkpt lat="58.02823035340972" lon="56.35857910763316"><ele>129.66666666666669</ele><time>2026-05-01T08:45:17Z</time></trkpt><trkpt lat="58.02825341023258" lon="56.358690026535726"><ele>129.5</ele><time>2026-05-01T08:45:19Z</time></trkpt><trkpt lat="58.02830351682473" lon="56.35881805806394"><ele>129.33333333333334</ele><time>2026-05-01T08:45:22Z</time></trkpt><trkpt lat="58.02838070341642" lon="56.3589745355529"><ele>129.16666666666666</ele><time>2026-05-01T08:45:24Z</time></trkpt><trkpt lat="58.028429493387804" lon="56.35909559929681"><ele>129.0</ele><time>2026-05-01T08:45:26Z</time></trkpt><trkpt lat="58.02845460556666" lon="56.35927199506074"><ele>129.0</ele><time>2026-05-01T08:45:28Z</time></trkpt><trkpt lat="58.02849949530544" lon="56.3593921324109"><ele>129.0</ele><time>2026-05-01T08:45:30Z</time></trkpt><trkpt lat="58.02852043981943" lon="56.35951832118948"><ele>129.0</ele><time>2026-05-01T08:45:31Z</time></trkpt><trkpt lat="58.028527480592935" lon="56.35965115747769"><ele>129.0</ele><time>2026-05-01T08:45:32Z</time></trkpt><trkpt lat="58.02854494857906" lon="56.35979172140091"><ele>129.0</ele><time>2026-05-01T08:45:35Z</time></trkpt><trkpt lat="58.02856309809287" lon="56.36000291760324"><ele>129.0</ele><time>2026-05-01T08:45:38Z</time></trkpt><trkpt lat="58.02857331573852" lon="56.3601262621299"><ele>129.0</ele><time>2026-05-01T08:45:39Z</time></trkpt><trkpt lat="58.028576138534255" lon="56.360259971244325"><ele>129.0</ele><time>2026-05-01T08:45:40Z</time></trkpt><trkpt lat="58.028589619038364" lon="56.360381788807196"><ele>129.0</ele><time>2026-05-01T08:45:42Z</time></trkpt><trkpt lat="58.028561764354336" lon="56.3605901723467"><ele>129.0</ele><time>2026-05-01T08:45:44Z</time></trkpt><trkpt lat="58.02855543091725" lon="56.36080763399446"><ele>129.0</ele><time>2026-05-01T08:45:46Z</time></trkpt><trkpt lat="58.028539409017085" lon="56.36095590433866"><ele>129.0</ele><time>2026-05-01T08:45:47Z</time></trkpt><trkpt lat="58.02853180086476" lon="56.36114285973438"><ele>129.16666666666666</ele><time>2026-05-01T08:45:48Z</time></trkpt><trkpt lat="58.028525393985" lon="56.361315627477836"><ele>129.33333333333334</ele><time>2026-05-01T08:45:49Z</time></trkpt><trkpt lat="58.02851555394497" lon="56.361542110591394"><ele>129.5</ele><time>2026-05-01T08:45:51Z</time></trkpt><trkpt lat="58.028510603499576" lon="56.36170921674158"><ele>129.66666666666669</ele><time>2026-05-01T08:45:52Z</time></trkpt><trkpt lat="58.028529645487076" lon="56.361851415888346"><ele>129.83333333333334</ele><time>2026-05-01T08:45:53Z</time></trkpt><trkpt lat="58.028550791253366" lon="56.361973473207975"><ele>130.0</ele><time>2026-05-01T08:45:54Z</time></trkpt><trkpt lat="58.02853762524744" lon="56.36212480979627"><ele>130.0</ele><time>2026-05-01T08:46:03.999Z</time></trkpt><trkpt lat="58.02855671599644" lon="56.36231322313189"><ele>130.0</ele><time>2026-05-01T08:46:06.999Z</time></trkpt><trkpt lat="58.028576985367856" lon="56.36244078063958"><ele>130.0</ele><time>2026-05-01T08:46:07.999Z</time></trkpt><trkpt lat="58.0285997919299" lon="56.36255471879693"><ele>130.0</ele><time>2026-05-01T08:46:08.999Z</time></trkpt><trkpt lat="58.02860611752113" lon="56.36272889278857"><ele>130.0</ele><time>2026-05-01T08:46:10.999Z</time></trkpt><trkpt lat="58.02854661630522" lon="56.36284341110257"><ele>130.0</ele><time>2026-05-01T08:46:12.999Z</time></trkpt><trkpt lat="58.02853963292143" lon="56.36271599714575"><ele>130.0</ele><time>2026-05-01T08:46:16.999Z</time></trkpt><trkpt lat="58.02859481945836" lon="56.36262158327115"><ele>130.0</ele><time>2026-05-01T08:46:19.999Z</time></trkpt><trkpt lat="58.02859981788619" lon="56.36244518157024"><ele>130.0</ele><time>2026-05-01T08:46:22.999Z</time></trkpt><trkpt lat="58.028588361472934" lon="56.362226312596334"><ele>130.0</ele><time>2026-05-01T08:46:24.999Z</time></trkpt><trkpt lat="58.02857028373131" lon="56.36205653630557"><ele>130.0</ele><time>2026-05-01T08:46:26.999Z</time></trkpt><trkpt lat="58.02857831138495" lon="56.362219326325004"><ele>130.0</ele><time>2026-05-01T08:46:35.999Z</time></trkpt><trkpt lat="58.02856474640059" lon="56.36241187349042"><ele>130.0</ele><time>2026-05-01T08:46:37.999Z</time></trkpt><trkpt lat="58.02857691482087" lon="56.36256042560338"><ele>130.0</ele><time>2026-05-01T08:46:38.999Z</time></trkpt><trkpt lat="58.02857903587205" lon="56.36272967946412"><ele>130.0</ele><time>2026-05-01T08:46:40.999Z</time></trkpt><trkpt lat="58.028503764803204" lon="56.362790109956045"><ele>130.0</ele><time>2026-05-01T08:46:42.999Z</time></trkpt><trkpt lat="58.028453752326186" lon="56.36291648274732"><ele>130.0</ele><time>2026-05-01T08:48:41.999Z</time></trkpt><trkpt lat="58.02841100109202" lon="56.363009417206364"><ele>129.8</ele><time>2026-05-01T08:48:44.999Z</time></trkpt><trkpt lat="58.02838794891679" lon="56.363190328265915"><ele>129.6</ele><time>2026-05-01T08:48:54.998Z</time></trkpt><trkpt lat="58.028378852754805" lon="56.363338238912334"><ele>129.4</ele><time>2026-05-01T08:48:59.998Z</time></trkpt><trkpt lat="58.028359408413436" lon="56.36353460688043"><ele>129.2</ele><time>2026-05-01T08:49:03.998Z</time></trkpt><trkpt lat="58.028343880234516" lon="56.36367207287924"><ele>129.0</ele><time>2026-05-01T08:49:04.998Z</time></trkpt><trkpt lat="58.028319564103" lon="56.36384996019926"><ele>128.8</ele><time>2026-05-01T08:49:06.998Z</time></trkpt><trkpt lat="58.02834822779598" lon="56.36400579011668"><ele>128.60000000000002</ele><time>2026-05-01T08:49:08.998Z</time></trkpt><trkpt lat="58.02832025208042" lon="56.36421514374461"><ele>128.4</ele><time>2026-05-01T08:49:10.998Z</time></trkpt><trkpt lat="58.02831707703458" lon="56.36436134979738"><ele>128.20000000000002</ele><time>2026-05-01T08:49:11.998Z</time></trkpt><trkpt lat="58.028316250349285" lon="56.36454692862233"><ele>128.0</ele><time>2026-05-01T08:49:14Z</time></trkpt><trkpt lat="58.02828562356981" lon="56.36471449222835"><ele>128.0</ele><time>2026-05-01T08:49:16Z</time></trkpt><trkpt lat="58.028227821882226" lon="56.36477108396491"><ele>127.99999999999999</ele><time>2026-05-01T08:49:19Z</time></trkpt><trkpt lat="58.0282074168249" lon="56.36464781700767"><ele>128.0</ele><time>2026-05-01T08:49:22Z</time></trkpt><trkpt lat="58.02825983133292" lon="56.36456975755359"><ele>128.0</ele><time>2026-05-01T08:49:25Z</time></trkpt><trkpt lat="58.02832083449531" lon="56.364506877871776"><ele>127.99999999999999</ele><time>2026-05-01T08:49:32Z</time></trkpt><trkpt lat="58.02831814544155" lon="56.36436464399824"><ele>128.0</ele><time>2026-05-01T08:49:34Z</time></trkpt><trkpt lat="58.02832819257129" lon="56.36421561274601"><ele>128.0</ele><time>2026-05-01T08:49:36Z</time></trkpt><trkpt lat="58.02833613055634" lon="56.36402960081631"><ele>128.20000000000002</ele><time>2026-05-01T08:49:38Z</time></trkpt><trkpt lat="58.028342891479426" lon="56.363822435749455"><ele>128.4</ele><time>2026-05-01T08:49:40Z</time></trkpt><trkpt lat="58.02833515493236" lon="56.363664370605456"><ele>128.60000000000002</ele><time>2026-05-01T08:49:42Z</time></trkpt><trkpt lat="58.02838088682223" lon="56.36348163224015"><ele>128.8</ele><time>2026-05-01T08:49:44Z</time></trkpt><trkpt lat="58.02839099184956" lon="56.363360119782094"><ele>129.0</ele><time>2026-05-01T08:49:45Z</time></trkpt><trkpt lat="58.02842931025974" lon="56.363135155562944"><ele>129.0</ele><time>2026-05-01T08:49:47Z</time></trkpt><trkpt lat="58.028466423737434" lon="56.363029506356774"><ele>129.0</ele><time>2026-05-01T08:49:48Z</time></trkpt><trkpt lat="58.028516799243725" lon="56.36288964462297"><ele>129.0</ele><time>2026-05-01T08:49:50Z</time></trkpt><trkpt lat="58.02857571952195" lon="56.36284675974831"><ele>129.0</ele><time>2026-05-01T08:49:52Z</time></trkpt><trkpt lat="58.028512766933254" lon="56.36283458234712"><ele>129.0</ele><time>2026-05-01T08:50:06Z</time></trkpt><trkpt lat="58.02845874459986" lon="56.36300328556373"><ele>129.0</ele><time>2026-05-01T08:50:08.999Z</time></trkpt><trkpt lat="58.02841594433513" lon="56.36318889217143"><ele>129.0</ele><time>2026-05-01T08:50:10.999Z</time></trkpt><trkpt lat="58.02838438233771" lon="56.36330680537517"><ele>129.0</ele><time>2026-05-01T08:50:12.999Z</time></trkpt><trkpt lat="58.02836617275187" lon="56.36350464627998"><ele>129.0</ele><time>2026-05-01T08:50:14.999Z</time></trkpt><trkpt lat="58.028353119276034" lon="56.36362705613647"><ele>129.0</ele><time>2026-05-01T08:50:15.999Z</time></trkpt><trkpt lat="58.02830898284444" lon="56.363815762648606"><ele>129.0</ele><time>2026-05-01T08:50:17.999Z</time></trkpt><trkpt lat="58.028333326009935" lon="56.363940099332325"><ele>129.0</ele><time>2026-05-01T08:50:19.999Z</time></trkpt><trkpt lat="58.028329294264424" lon="56.36406528822445"><ele>128.8</ele><time>2026-05-01T08:50:21.999Z</time></trkpt><trkpt lat="58.02832190617295" lon="56.36419782928229"><ele>128.60000000000002</ele><time>2026-05-01T08:50:23.999Z</time></trkpt><trkpt lat="58.02825973016362" lon="56.36437440899662"><ele>128.4</ele><time>2026-05-01T08:50:25.999Z</time></trkpt><trkpt lat="58.02824787737853" lon="56.36453286595771"><ele>128.20000000000002</ele><time>2026-05-01T08:50:27.999Z</time></trkpt><trkpt lat="58.028257344347736" lon="56.364752030101585"><ele>128.0</ele><time>2026-05-01T08:50:29.999Z</time></trkpt><trkpt lat="58.02828226128587" lon="56.364923149243005"><ele>128.20000000000002</ele><time>2026-05-01T08:50:31.999Z</time></trkpt><trkpt lat="58.02830875456653" lon="56.365120057111895"><ele>128.4</ele><time>2026-05-01T08:50:33.999Z</time></trkpt><trkpt lat="58.028338191091144" lon="56.36534576073739"><ele>128.60000000000002</ele><time>2026-05-01T08:50:35.999Z</time></trkpt><trkpt lat="58.02835660510538" lon="56.36547662774444"><ele>128.8</ele><time>2026-05-01T08:50:37.999Z</time></trkpt><trkpt lat="58.0283168215423" lon="56.36565075306402"><ele>129.0</ele><time>2026-05-01T08:50:39.999Z</time></trkpt><trkpt lat="58.028293309190225" lon="56.36576597359229"><ele>130.5</ele><time>2026-05-01T08:50:41.999Z</time></trkpt><trkpt lat="58.02826917485322" lon="56.365893853779085"><ele>132.0</ele><time>2026-05-01T08:50:43.999Z</time></trkpt><trkpt lat="58.02821967609334" lon="56.36602625682056"><ele>133.5</ele><time>2026-05-01T08:50:45.999Z</time></trkpt><trkpt lat="58.02820123628873" lon="56.366163753703255"><ele>135.0</ele><time>2026-05-01T08:50:47.999Z</time></trkpt><trkpt lat="58.02819392674468" lon="56.36634356531941"><ele>136.5</ele><time>2026-05-01T08:50:49.999Z</time></trkpt><trkpt lat="58.02818695962378" lon="56.366476727205786"><ele>138.0</ele><time>2026-05-01T08:50:50.999Z</time></trkpt><trkpt lat="58.028179948100416" lon="56.366613548405084"><ele>138.0</ele><time>2026-05-01T08:50:51.999Z</time></trkpt><trkpt lat="58.02817029693169" lon="56.366759594132574"><ele>138.0</ele><time>2026-05-01T08:50:53.999Z</time></trkpt><trkpt lat="58.0281089431331" lon="56.36695445731848"><ele>138.0</ele><time>2026-05-01T08:50:55.999Z</time></trkpt><trkpt lat="58.02807696779553" lon="56.3670586269365"><ele>138.0</ele><time>2026-05-01T08:50:56.999Z</time></trkpt><trkpt lat="58.02802213107204" lon="56.367226255197856"><ele>138.0</ele><time>2026-05-01T08:50:58.998Z</time></trkpt><trkpt lat="58.0279955202704" lon="56.3674347227466"><ele>138.0</ele><time>2026-05-01T08:51:00.998Z</time></trkpt><trkpt lat="58.02802667879412" lon="56.36755468956998"><ele>138.0</ele><time>2026-05-01T08:51:03.998Z</time></trkpt><trkpt lat="58.02799547027889" lon="56.36785609749156"><ele>138.0</ele><time>2026-05-01T08:52:54.999Z</time></trkpt><trkpt lat="58.02799544234381" lon="56.36804417738298"><ele>138.0</ele><time>2026-05-01T08:52:56.999Z</time></trkpt><trkpt lat="58.02797932620819" lon="56.36816113906848"><ele>138.0</ele><time>2026-05-01T08:52:57.999Z</time></trkpt><trkpt lat="58.02795128822607" lon="56.36837413870385"><ele>138.0</ele><time>2026-05-01T08:52:59.999Z</time></trkpt><trkpt lat="58.027951641821936" lon="56.36853825079411"><ele>138.0</ele><time>2026-05-01T08:53:00.999Z</time></trkpt><trkpt lat="58.02795226884671" lon="56.36868564544687"><ele>138.0</ele><time>2026-05-01T08:53:01.999Z</time></trkpt><trkpt lat="58.027944879937316" lon="56.368806490677535"><ele>138.0</ele><time>2026-05-01T08:53:02.998Z</time></trkpt><trkpt lat="58.027903007346055" lon="56.368902401939614"><ele>138.0</ele><time>2026-05-01T08:53:03.998Z</time></trkpt><trkpt lat="58.02784133789701" lon="56.36901562932685"><ele>138.0</ele><time>2026-05-01T08:53:04.998Z</time></trkpt><trkpt lat="58.0277766009309" lon="56.36919032450141"><ele>138.0</ele><time>2026-05-01T08:53:05.998Z</time></trkpt><trkpt lat="58.02771525514652" lon="56.369358671019086"><ele>138.0</ele><time>2026-05-01T08:53:06.998Z</time></trkpt><trkpt lat="58.02764499211292" lon="56.369454714528565"><ele>138.0</ele><time>2026-05-01T08:53:07.998Z</time></trkpt><trkpt lat="58.02757107390257" lon="56.369549134675104"><ele>138.0</ele><time>2026-05-01T08:53:08.998Z</time></trkpt><trkpt lat="58.027507644060485" lon="56.36966869868576"><ele>138.0</ele><time>2026-05-01T08:53:09.998Z</time></trkpt><trkpt lat="58.02743785315598" lon="56.369732905730636"><ele>139.8</ele><time>2026-05-01T08:53:10.998Z</time></trkpt><trkpt lat="58.02736778937481" lon="56.36977348418266"><ele>141.60000000000002</ele><time>2026-05-01T08:53:12.998Z</time></trkpt><trkpt lat="58.027273953170585" lon="56.3698268965109"><ele>143.39999999999998</ele><time>2026-05-01T08:53:14.998Z</time></trkpt><trkpt lat="58.02724149517016" lon="56.36999663999346"><ele>145.2</ele><time>2026-05-01T08:53:20.998Z</time></trkpt><trkpt lat="58.027233345773894" lon="56.370128695656625"><ele>147.0</ele><time>2026-05-01T08:53:22.998Z</time></trkpt><trkpt lat="58.027176243994404" lon="56.37035070921475"><ele>147.0</ele><time>2026-05-01T08:53:24.998Z</time></trkpt><trkpt lat="58.02713166506665" lon="56.37047709717648"><ele>147.0</ele><time>2026-05-01T08:53:26Z</time></trkpt><trkpt lat="58.027090356430904" lon="56.37058889335591"><ele>147.0</ele><time>2026-05-01T08:53:29Z</time></trkpt><trkpt lat="58.02706872916034" lon="56.37071546935435"><ele>147.0</ele><time>2026-05-01T08:53:32Z</time></trkpt><trkpt lat="58.02704598524139" lon="56.37084127993041"><ele>147.0</ele><time>2026-05-01T08:53:39Z</time></trkpt><trkpt lat="58.02700711800619" lon="56.37093596633147"><ele>147.0</ele><time>2026-05-01T08:54:13Z</time></trkpt><trkpt lat="58.02698199022047" lon="56.371100023031715"><ele>147.0</ele><time>2026-05-01T08:54:15.999Z</time></trkpt><trkpt lat="58.02694942828501" lon="56.371385743891196"><ele>148.0</ele><time>2026-05-01T08:54:17.999Z</time></trkpt><trkpt lat="58.02697961820331" lon="56.37158773077374"><ele>149.0</ele><time>2026-05-01T08:54:19.999Z</time></trkpt><trkpt lat="58.02701058928958" lon="56.371776318377535"><ele>150.0</ele><time>2026-05-01T08:54:22.999Z</time></trkpt><trkpt lat="58.027024930107004" lon="56.371903938996596"><ele>151.0</ele><time>2026-05-01T08:54:24.999Z</time></trkpt><trkpt lat="58.027013458848536" lon="56.372038110064494"><ele>152.0</ele><time>2026-05-01T08:54:29.999Z</time></trkpt><trkpt lat="58.02702851920116" lon="56.37215475303202"><ele>153.0</ele><time>2026-05-01T08:54:32.999Z</time></trkpt><trkpt lat="58.027081472338594" lon="56.372280418084266"><ele>153.0</ele><time>2026-05-01T08:54:35.999Z</time></trkpt><trkpt lat="58.0271150732093" lon="56.372436817265566"><ele>153.0</ele><time>2026-05-01T08:54:38.999Z</time></trkpt><trkpt lat="58.02711201887021" lon="56.37256602321444"><ele>153.0</ele><time>2026-05-01T08:54:40.999Z</time></trkpt><trkpt lat="58.02707961852091" lon="56.372765669690025"><ele>153.0</ele><time>2026-05-01T08:54:43.999Z</time></trkpt><trkpt lat="58.02704768757831" lon="56.372955928709175"><ele>153.0</ele><time>2026-05-01T08:54:46.999Z</time></trkpt><trkpt lat="58.027022160651796" lon="56.37308890595773"><ele>153.0</ele><time>2026-05-01T08:54:48.999Z</time></trkpt><trkpt lat="58.02699899965499" lon="56.37320172636815"><ele>153.33333333333334</ele><time>2026-05-01T08:54:50.999Z</time></trkpt><trkpt lat="58.0269350535642" lon="56.37331534764802"><ele>153.66666666666666</ele><time>2026-05-01T08:54:53.999Z</time></trkpt><trkpt lat="58.0268763300302" lon="56.373385525339124"><ele>154.0</ele><time>2026-05-01T08:54:55.999Z</time></trkpt><trkpt lat="58.026802073572675" lon="56.37348822903133"><ele>154.33333333333331</ele><time>2026-05-01T08:54:59.999Z</time></trkpt><trkpt lat="58.02673778594834" lon="56.3735759710005"><ele>154.66666666666666</ele><time>2026-05-01T08:55:01.999Z</time></trkpt><trkpt lat="58.02662035726375" lon="56.3736286164069"><ele>155.0</ele><time>2026-05-01T08:55:03.999Z</time></trkpt><trkpt lat="58.02654500454071" lon="56.37367415255988"><ele>155.0</ele><time>2026-05-01T08:55:04.999Z</time></trkpt><trkpt lat="58.026462266751054" lon="56.37370347914254"><ele>155.0</ele><time>2026-05-01T08:55:05.999Z</time></trkpt><trkpt lat="58.02636639469816" lon="56.3736889216061"><ele>155.0</ele><time>2026-05-01T08:55:06.998Z</time></trkpt><trkpt lat="58.02625048209527" lon="56.373658444266454"><ele>155.0</ele><time>2026-05-01T08:55:07.998Z</time></trkpt><trkpt lat="58.02613152236328" lon="56.37360887359429"><ele>155.0</ele><time>2026-05-01T08:55:08.998Z</time></trkpt><trkpt lat="58.026043148657045" lon="56.3735618643072"><ele>155.0</ele><time>2026-05-01T08:55:10.998Z</time></trkpt><trkpt lat="58.02597004589923" lon="56.373683401845156"><ele>155.0</ele><time>2026-05-01T08:55:12.998Z</time></trkpt><trkpt lat="58.02591659386681" lon="56.37379261075804"><ele>155.0</ele><time>2026-05-01T08:55:15.998Z</time></trkpt><trkpt lat="58.025905713129745" lon="56.37390997480653"><ele>155.0</ele><time>2026-05-01T08:55:18.998Z</time></trkpt><trkpt lat="58.02591818485997" lon="56.37405941359381"><ele>155.0</ele><time>2026-05-01T08:55:20.998Z</time></trkpt><trkpt lat="58.02594029877676" lon="56.37425122274809"><ele>155.0</ele><time>2026-05-01T08:55:22.998Z</time></trkpt><trkpt lat="58.02596377381866" lon="56.374372389875006"><ele>155.66666666666666</ele><time>2026-05-01T08:55:24.998Z</time></trkpt><trkpt lat="58.025995328301896" lon="56.3744957932627"><ele>156.33333333333331</ele><time>2026-05-01T08:55:26.998Z</time></trkpt><trkpt lat="58.026035994365195" lon="56.37461469062827"><ele>157.0</ele><time>2026-05-01T08:55:28.998Z</time></trkpt><trkpt lat="58.02607924029065" lon="56.37474957305274"><ele>157.66666666666666</ele><time>2026-05-01T08:55:30.998Z</time></trkpt><trkpt lat="58.02609322850483" lon="56.374871514081434"><ele>158.33333333333334</ele><time>2026-05-01T08:55:34Z</time></trkpt><trkpt lat="58.02613686454036" lon="56.37497386453252"><ele>159.0</ele><time>2026-05-01T08:55:37Z</time></trkpt><trkpt lat="58.02614827976126" lon="56.375144715244026"><ele>159.0</ele><time>2026-05-01T08:55:43Z</time></trkpt><trkpt lat="58.0261882644487" lon="56.37526410462013"><ele>159.0</ele><time>2026-05-01T08:55:46Z</time></trkpt><trkpt lat="58.02620458054378" lon="56.37541964342215"><ele>159.0</ele><time>2026-05-01T08:55:50Z</time></trkpt><trkpt lat="58.02620802280625" lon="56.375541941428864"><ele>159.0</ele><time>2026-05-01T08:55:53Z</time></trkpt><trkpt lat="58.02620255361456" lon="56.375662805151535"><ele>159.0</ele><time>2026-05-01T08:56:01Z</time></trkpt><trkpt lat="58.02621116131331" lon="56.37581414254704"><ele>159.0</ele><time>2026-05-01T08:57:02.999Z</time></trkpt><trkpt lat="58.026230252808304" lon="56.3759286915493"><ele>159.0</ele><time>2026-05-01T08:57:05.999Z</time></trkpt><trkpt lat="58.02623528318666" lon="56.376077547833155"><ele>159.0</ele><time>2026-05-01T08:57:08.999Z</time></trkpt><trkpt lat="58.02624727372627" lon="56.37624594960261"><ele>159.0</ele><time>2026-05-01T08:57:12.998Z</time></trkpt><trkpt lat="58.02625885382015" lon="56.3763772338573"><ele>159.0</ele><time>2026-05-01T08:57:14.998Z</time></trkpt><trkpt lat="58.026247489375194" lon="56.37654962794541"><ele>159.0</ele><time>2026-05-01T08:57:16.998Z</time></trkpt><trkpt lat="58.02624175820895" lon="56.376668183089706"><ele>159.0</ele><time>2026-05-01T08:57:18.998Z</time></trkpt><trkpt lat="58.02624326438013" lon="56.37681976342661"><ele>159.0</ele><time>2026-05-01T08:57:21.998Z</time></trkpt><trkpt lat="58.02627034237914" lon="56.376959854479686"><ele>158.57142857142856</ele><time>2026-05-01T08:57:25.998Z</time></trkpt><trkpt lat="58.026302728070924" lon="56.37706332800142"><ele>158.14285714285717</ele><time>2026-05-01T08:57:28.998Z</time></trkpt><trkpt lat="58.0263272886898" lon="56.377185251374165"><ele>157.71428571428572</ele><time>2026-05-01T08:57:33.998Z</time></trkpt><trkpt lat="58.02635056941977" lon="56.37732782816217"><ele>157.28571428571428</ele><time>2026-05-01T08:57:38Z</time></trkpt><trkpt lat="58.026404746372975" lon="56.37746690442807"><ele>156.85714285714283</ele><time>2026-05-01T08:57:41Z</time></trkpt><trkpt lat="58.026438828626134" lon="56.37758093111015"><ele>156.42857142857144</ele><time>2026-05-01T08:57:43Z</time></trkpt><trkpt lat="58.026459763467834" lon="56.37771693132962"><ele>156.0</ele><time>2026-05-01T08:57:45Z</time></trkpt><trkpt lat="58.026486911711764" lon="56.37784249021105"><ele>156.0</ele><time>2026-05-01T08:57:47Z</time></trkpt><trkpt lat="58.026527439806806" lon="56.377965360279894"><ele>156.0</ele><time>2026-05-01T08:57:49Z</time></trkpt><trkpt lat="58.02658176893381" lon="56.378145149724965"><ele>156.0</ele><time>2026-05-01T08:57:51Z</time></trkpt><trkpt lat="58.02661763411402" lon="56.37827591899076"><ele>156.0</ele><time>2026-05-01T08:57:52Z</time></trkpt><trkpt lat="58.02669894214391" lon="56.378404791873116"><ele>156.0</ele><time>2026-05-01T08:57:54Z</time></trkpt><trkpt lat="58.02676270359789" lon="56.378501425381394"><ele>155.83333333333334</ele><time>2026-05-01T08:57:57Z</time></trkpt><trkpt lat="58.02682239500464" lon="56.37864803517521"><ele>155.66666666666666</ele><time>2026-05-01T08:58:00Z</time></trkpt><trkpt lat="58.02688433224222" lon="56.37872306902462"><ele>155.5</ele><time>2026-05-01T08:58:04Z</time></trkpt><trkpt lat="58.02693050775722" lon="56.37882142627893"><ele>155.33333333333331</ele><time>2026-05-01T08:58:09Z</time></trkpt><trkpt lat="58.02697583177056" lon="56.37892195076367"><ele>155.16666666666666</ele><time>2026-05-01T08:58:16Z</time></trkpt><trkpt lat="58.02702750986242" lon="56.3790237836839"><ele>155.0</ele><time>2026-05-01T08:58:20Z</time></trkpt><trkpt lat="58.02707909894004" lon="56.37912379273752"><ele>154.83333333333331</ele><time>2026-05-01T08:58:23Z</time></trkpt><trkpt lat="58.02713662556376" lon="56.37921343847429"><ele>154.66666666666666</ele><time>2026-05-01T08:58:26Z</time></trkpt><trkpt lat="58.02720264029167" lon="56.37930228229684"><ele>154.5</ele><time>2026-05-01T08:58:28.999Z</time></trkpt><trkpt lat="58.0272662436592" lon="56.37941160215651"><ele>154.33333333333334</ele><time>2026-05-01T08:58:31.999Z</time></trkpt><trkpt lat="58.02731256548519" lon="56.379519318402735"><ele>154.16666666666669</ele><time>2026-05-01T08:58:33.999Z</time></trkpt><trkpt lat="58.02737165966206" lon="56.37965904370392"><ele>154.0</ele><time>2026-05-01T08:58:36.999Z</time></trkpt><trkpt lat="58.027433482414125" lon="56.37973945986549"><ele>154.0</ele><time>2026-05-01T08:58:40.999Z</time></trkpt><trkpt lat="58.027470175191986" lon="56.37958265040865"><ele>154.0</ele><time>2026-05-01T08:59:56Z</time></trkpt><trkpt lat="58.02744055057134" lon="56.37972033847915"><ele>154.0</ele><time>2026-05-01T09:00:00Z</time></trkpt><trkpt lat="58.02750715829078" lon="56.379683407595685"><ele>154.0</ele><time>2026-05-01T09:05:53.998Z</time></trkpt><trkpt lat="58.02751119852029" lon="56.37955462946223"><ele>154.0</ele><time>2026-05-01T09:05:58.998Z</time></trkpt><trkpt lat="58.027463679629776" lon="56.37945421599798"><ele>154.0</ele><time>2026-05-01T09:06:04Z</time></trkpt><trkpt lat="58.02740657029151" lon="56.3795301908146"><ele>154.0</ele><time>2026-05-01T09:06:08Z</time></trkpt><trkpt lat="58.0274009634191" lon="56.37965853138567"><ele>153.42857142857142</ele><time>2026-05-01T09:06:13Z</time></trkpt><trkpt lat="58.02745258710117" lon="56.37974196617176"><ele>152.85714285714286</ele><time>2026-05-01T09:06:18Z</time></trkpt><trkpt lat="58.02752210943974" lon="56.37975678286459"><ele>152.28571428571428</ele><time>2026-05-01T09:06:25Z</time></trkpt><trkpt lat="58.027547219920216" lon="56.37963451813824"><ele>151.71428571428572</ele><time>2026-05-01T09:06:32Z</time></trkpt><trkpt lat="58.02749065325144" lon="56.37970792639997"><ele>151.14285714285714</ele><time>2026-05-01T09:06:40Z</time></trkpt><trkpt lat="58.027461758252215" lon="56.379849401751926"><ele>150.57142857142856</ele><time>2026-05-01T09:08:07Z</time></trkpt><trkpt lat="58.0274995609799" lon="56.37997213504713"><ele>150.0</ele><time>2026-05-01T09:08:09Z</time></trkpt><trkpt lat="58.02755720188963" lon="56.38005650348377"><ele>149.28571428571428</ele><time>2026-05-01T09:08:12Z</time></trkpt><trkpt lat="58.02756219987778" lon="56.380175909921014"><ele>148.57142857142856</ele><time>2026-05-01T09:08:15Z</time></trkpt><trkpt lat="58.02754793054885" lon="56.38029610042364"><ele>147.85714285714286</ele><time>2026-05-01T09:08:51Z</time></trkpt><trkpt lat="58.02751637577763" lon="56.38042668860926"><ele>147.14285714285714</ele><time>2026-05-01T09:08:52.999Z</time></trkpt><trkpt lat="58.0274841355436" lon="56.380558097249626"><ele>146.42857142857144</ele><time>2026-05-01T09:08:54.999Z</time></trkpt><trkpt lat="58.0275202567186" lon="56.3806928116539"><ele>145.71428571428572</ele><time>2026-05-01T09:08:57.999Z</time></trkpt><trkpt lat="58.02756007584332" lon="56.38080091499217"><ele>145.0</ele><time>2026-05-01T09:09:01.999Z</time></trkpt><trkpt lat="58.027627335756776" lon="56.38091051617767"><ele>145.0</ele><time>2026-05-01T09:09:04.999Z</time></trkpt><trkpt lat="58.02767807107497" lon="56.380989797641476"><ele>145.0</ele><time>2026-05-01T09:09:06.999Z</time></trkpt><trkpt lat="58.027752095185164" lon="56.38108288325487"><ele>145.0</ele><time>2026-05-01T09:09:09.999Z</time></trkpt><trkpt lat="58.02782781374607" lon="56.38115406089691"><ele>145.0</ele><time>2026-05-01T09:09:12.999Z</time></trkpt><trkpt lat="58.02787191239979" lon="56.381243812941406"><ele>145.0</ele><time>2026-05-01T09:09:14.999Z</time></trkpt><trkpt lat="58.027917913425966" lon="56.38135153668293"><ele>145.0</ele><time>2026-05-01T09:09:16.999Z</time></trkpt><trkpt lat="58.02797945906593" lon="56.38138365154209"><ele>145.0</ele><time>2026-05-01T09:09:18.999Z</time></trkpt><trkpt lat="58.0280473074233" lon="56.38140697286821"><ele>145.16666666666669</ele><time>2026-05-01T09:09:20.999Z</time></trkpt><trkpt lat="58.028111482613106" lon="56.38143880966311"><ele>145.33333333333334</ele><time>2026-05-01T09:09:22.999Z</time></trkpt><trkpt lat="58.028199361890145" lon="56.38143676564213"><ele>145.5</ele><time>2026-05-01T09:09:25.999Z</time></trkpt><trkpt lat="58.028281448084876" lon="56.381434299281"><ele>145.66666666666666</ele><time>2026-05-01T09:09:28.999Z</time></trkpt><trkpt lat="58.02836521425739" lon="56.381397799117224"><ele>145.83333333333331</ele><time>2026-05-01T09:09:31.999Z</time></trkpt><trkpt lat="58.02843781787663" lon="56.38138600211126"><ele>146.0</ele><time>2026-05-01T09:09:34.999Z</time></trkpt><trkpt lat="58.028508673454525" lon="56.38140025959452"><ele>146.0</ele><time>2026-05-01T09:09:37.999Z</time></trkpt><trkpt lat="58.02858776809677" lon="56.38141681144456"><ele>146.0</ele><time>2026-05-01T09:09:41.999Z</time></trkpt><trkpt lat="58.028659913409726" lon="56.38144271037031"><ele>146.0</ele><time>2026-05-01T09:09:45.998Z</time></trkpt><trkpt lat="58.02871775366359" lon="56.38139393482988"><ele>146.0</ele><time>2026-05-01T09:09:50.998Z</time></trkpt><trkpt lat="58.02864850152641" lon="56.381440670814776"><ele>146.0</ele><time>2026-05-01T09:11:18.999Z</time></trkpt><trkpt lat="58.02857722529501" lon="56.38141224798947"><ele>146.0</ele><time>2026-05-01T09:11:21.999Z</time></trkpt><trkpt lat="58.028509222360505" lon="56.38140980575407"><ele>146.0</ele><time>2026-05-01T09:11:25.999Z</time></trkpt><trkpt lat="58.02844495050104" lon="56.381391108728295"><ele>146.0</ele><time>2026-05-01T09:11:39.999Z</time></trkpt><trkpt lat="58.02838029023229" lon="56.38136237041632"><ele>146.0</ele><time>2026-05-01T09:12:29Z</time></trkpt><trkpt lat="58.02831665965121" lon="56.381382318308255"><ele>146.0</ele><time>2026-05-01T09:12:33Z</time></trkpt><trkpt lat="58.02837992099419" lon="56.381402628179345"><ele>146.0</ele><time>2026-05-01T09:12:54Z</time></trkpt><trkpt lat="58.02859756646935" lon="56.381425716382495"><ele>146.0</ele><time>2026-05-01T09:13:06.999Z</time></trkpt><trkpt lat="58.0286722075768" lon="56.381434042871604"><ele>146.0</ele><time>2026-05-01T09:13:09.999Z</time></trkpt><trkpt lat="58.02874865588955" lon="56.381447462047056"><ele>146.0</ele><time>2026-05-01T09:13:12.999Z</time></trkpt><trkpt lat="58.02882719284825" lon="56.381506355832045"><ele>146.0</ele><time>2026-05-01T09:13:16.999Z</time></trkpt><trkpt lat="58.028889673898" lon="56.38156187577314"><ele>146.0</ele><time>2026-05-01T09:13:19.999Z</time></trkpt><trkpt lat="58.02896689968497" lon="56.38160583455609"><ele>146.0</ele><time>2026-05-01T09:13:22.999Z</time></trkpt><trkpt lat="58.029025132710316" lon="56.38165483226988"><ele>146.0</ele><time>2026-05-01T09:13:24.999Z</time></trkpt><trkpt lat="58.02909141560869" lon="56.3817112206655"><ele>146.0</ele><time>2026-05-01T09:13:27.999Z</time></trkpt><trkpt lat="58.029160670176665" lon="56.38173314732494"><ele>144.16666666666666</ele><time>2026-05-01T09:13:30.999Z</time></trkpt><trkpt lat="58.029230712309854" lon="56.38174076613139"><ele>142.33333333333331</ele><time>2026-05-01T09:13:33.999Z</time></trkpt><trkpt lat="58.02933491118574" lon="56.381730352532124"><ele>140.5</ele><time>2026-05-01T09:13:45.999Z</time></trkpt><trkpt lat="58.02939637442114" lon="56.38170233770402"><ele>138.66666666666666</ele><time>2026-05-01T09:13:47.999Z</time></trkpt><trkpt lat="58.02946172871561" lon="56.38163973891949"><ele>136.83333333333334</ele><time>2026-05-01T09:13:51.999Z</time></trkpt><trkpt lat="58.02950868835496" lon="56.38152871738418"><ele>135.0</ele><time>2026-05-01T09:13:54.998Z</time></trkpt><trkpt lat="58.029552489646925" lon="56.38140050826996"><ele>135.2</ele><time>2026-05-01T09:13:57.998Z</time></trkpt><trkpt lat="58.02961344931719" lon="56.38130146643097"><ele>135.4</ele><time>2026-05-01T09:14:00.998Z</time></trkpt><trkpt lat="58.029667872557106" lon="56.38123885695581"><ele>135.6</ele><time>2026-05-01T09:14:02.998Z</time></trkpt><trkpt lat="58.02976822273595" lon="56.38117819050859"><ele>135.8</ele><time>2026-05-01T09:14:05.998Z</time></trkpt><trkpt lat="58.02987846541917" lon="56.381114345158906"><ele>136.0</ele><time>2026-05-01T09:14:07.998Z</time></trkpt><trkpt lat="58.02998137923281" lon="56.381083036004696"><ele>136.0</ele><time>2026-05-01T09:14:09.998Z</time></trkpt><trkpt lat="58.03007781361903" lon="56.38105730148316"><ele>136.0</ele><time>2026-05-01T09:14:11.998Z</time></trkpt><trkpt lat="58.03018600095899" lon="56.38103156742749"><ele>136.0</ele><time>2026-05-01T09:14:13.998Z</time></trkpt><trkpt lat="58.03030195521325" lon="56.38096720542006"><ele>136.0</ele><time>2026-05-01T09:14:15.998Z</time></trkpt><trkpt lat="58.03037346335471" lon="56.38086835161962"><ele>136.0</ele><time>2026-05-01T09:14:17.998Z</time></trkpt><trkpt lat="58.03042861407196" lon="56.38073384704715"><ele>136.0</ele><time>2026-05-01T09:14:19.998Z</time></trkpt><trkpt lat="58.030462654849046" lon="56.380595259069736"><ele>136.0</ele><time>2026-05-01T09:14:21.998Z</time></trkpt><trkpt lat="58.03050324174982" lon="56.38039174405245"><ele>136.0</ele><time>2026-05-01T09:14:24Z</time></trkpt><trkpt lat="58.03055067259621" lon="56.38027744570625"><ele>136.0</ele><time>2026-05-01T09:14:26Z</time></trkpt><trkpt lat="58.03063154633587" lon="56.38021454595373"><ele>136.0</ele><time>2026-05-01T09:14:28Z</time></trkpt><trkpt lat="58.03070720233283" lon="56.380205508319456"><ele>136.0</ele><time>2026-05-01T09:14:30Z</time></trkpt><trkpt lat="58.03078818749403" lon="56.3802006372289"><ele>137.5</ele><time>2026-05-01T09:14:32Z</time></trkpt><trkpt lat="58.03086072315181" lon="56.380165724437"><ele>139.0</ele><time>2026-05-01T09:14:34Z</time></trkpt><trkpt lat="58.03092512187318" lon="56.38007884386733"><ele>140.5</ele><time>2026-05-01T09:14:36Z</time></trkpt><trkpt lat="58.03100414700032" lon="56.38013057463554"><ele>142.0</ele><time>2026-05-01T09:14:39Z</time></trkpt><trkpt lat="58.03103348889609" lon="56.380272402715654"><ele>143.5</ele><time>2026-05-01T09:14:42Z</time></trkpt><trkpt lat="58.031086226290434" lon="56.380400004688276"><ele>145.0</ele><time>2026-05-01T09:14:45Z</time></trkpt><trkpt lat="58.031124006930334" lon="56.38052316800144"><ele>145.0</ele><time>2026-05-01T09:14:47Z</time></trkpt><trkpt lat="58.0311585338443" lon="56.380681853046575"><ele>145.0</ele><time>2026-05-01T09:14:50Z</time></trkpt><trkpt lat="58.03119059350989" lon="56.380833157820156"><ele>145.0</ele><time>2026-05-01T09:14:53Z</time></trkpt><trkpt lat="58.03122384564961" lon="56.38100681768997"><ele>145.0</ele><time>2026-05-01T09:14:56Z</time></trkpt><trkpt lat="58.03124891786582" lon="56.381139686699875"><ele>145.0</ele><time>2026-05-01T09:14:58Z</time></trkpt><trkpt lat="58.03129046418382" lon="56.38133098474988"><ele>144.75</ele><time>2026-05-01T09:15:00Z</time></trkpt><trkpt lat="58.031334371615635" lon="56.38148493608532"><ele>144.5</ele><time>2026-05-01T09:15:02Z</time></trkpt><trkpt lat="58.03136630018444" lon="56.381626788373275"><ele>144.25</ele><time>2026-05-01T09:15:04Z</time></trkpt><trkpt lat="58.03148269324013" lon="56.38181459019208"><ele>144.0</ele><time>2026-05-01T09:15:06Z</time></trkpt><trkpt lat="58.03144433889406" lon="56.38204764405378"><ele>144.0</ele><time>2026-05-01T09:15:07.999Z</time></trkpt><trkpt lat="58.03150062258154" lon="56.382197519349326"><ele>144.0</ele><time>2026-05-01T09:15:09.999Z</time></trkpt><trkpt lat="58.03156992234514" lon="56.3823856447983"><ele>144.0</ele><time>2026-05-01T09:15:11.999Z</time></trkpt><trkpt lat="58.03160952311672" lon="56.382502452184575"><ele>144.0</ele><time>2026-05-01T09:15:12.999Z</time></trkpt><trkpt lat="58.03164865840838" lon="56.382617886727495"><ele>144.0</ele><time>2026-05-01T09:15:13.999Z</time></trkpt><trkpt lat="58.03168374089468" lon="56.382721366842894"><ele>144.0</ele><time>2026-05-01T09:15:14.999Z</time></trkpt><trkpt lat="58.03175132931565" lon="56.38291471011596"><ele>144.5</ele><time>2026-05-01T09:15:16.999Z</time></trkpt><trkpt lat="58.031789044615" lon="56.38302108986948"><ele>145.0</ele><time>2026-05-01T09:15:17.999Z</time></trkpt><trkpt lat="58.0318247542755" lon="56.38312181259955"><ele>145.5</ele><time>2026-05-01T09:15:18.999Z</time></trkpt><trkpt lat="58.03186028894454" lon="56.383222042953655"><ele>146.0</ele><time>2026-05-01T09:15:19.999Z</time></trkpt><trkpt lat="58.03190381883614" lon="56.383317801266536"><ele>146.5</ele><time>2026-05-01T09:15:20.999Z</time></trkpt><trkpt lat="58.031975493515176" lon="56.38349920809246"><ele>147.0</ele><time>2026-05-01T09:15:22.999Z</time></trkpt><trkpt lat="58.03206740357081" lon="56.383619975281995"><ele>147.0</ele><time>2026-05-01T09:15:24.999Z</time></trkpt><trkpt lat="58.03211142317735" lon="56.3838051596099"><ele>147.0</ele><time>2026-05-01T09:15:26.999Z</time></trkpt><trkpt lat="58.0321477013585" lon="56.383920635690345"><ele>147.0</ele><time>2026-05-01T09:15:27.999Z</time></trkpt><trkpt lat="58.03217995079543" lon="56.38409115039707"><ele>147.0</ele><time>2026-05-01T09:15:28.999Z</time></trkpt><trkpt lat="58.032217744484974" lon="56.38424162142466"><ele>147.0</ele><time>2026-05-01T09:15:29.999Z</time></trkpt><trkpt lat="58.03226658479134" lon="56.38439583833015"><ele>146.83333333333334</ele><time>2026-05-01T09:15:30.999Z</time></trkpt><trkpt lat="58.032314896808344" lon="56.38454838708119"><ele>146.66666666666666</ele><time>2026-05-01T09:15:31.999Z</time></trkpt><trkpt lat="58.03235254895869" lon="56.384667276490404"><ele>146.5</ele><time>2026-05-01T09:15:32.999Z</time></trkpt><trkpt lat="58.0323928539378" lon="56.38479454242362"><ele>146.33333333333331</ele><time>2026-05-01T09:15:33.999Z</time></trkpt><trkpt lat="58.032432147972585" lon="56.38491861622917"><ele>146.16666666666666</ele><time>2026-05-01T09:15:34.999Z</time></trkpt><trkpt lat="58.03247695584143" lon="56.38505991606639"><ele>146.0</ele><time>2026-05-01T09:15:35.999Z</time></trkpt><trkpt lat="58.03253067311051" lon="56.385228881299746"><ele>146.25</ele><time>2026-05-01T09:15:36.999Z</time></trkpt><trkpt lat="58.0326083097175" lon="56.38547332663907"><ele>146.5</ele><time>2026-05-01T09:15:37.999Z</time></trkpt><trkpt lat="58.032684881821254" lon="56.385710090214765"><ele>146.75</ele><time>2026-05-01T09:15:38.999Z</time></trkpt><trkpt lat="58.032740485124016" lon="56.38587509615548"><ele>147.0</ele><time>2026-05-01T09:15:39.999Z</time></trkpt><trkpt lat="58.03278773498841" lon="56.38601531254077"><ele>147.0</ele><time>2026-05-01T09:15:40.999Z</time></trkpt><trkpt lat="58.03282227736469" lon="56.38611761117386"><ele>147.0</ele><time>2026-05-01T09:15:41.999Z</time></trkpt><trkpt lat="58.0328563769172" lon="56.38621786250817"><ele>147.0</ele><time>2026-05-01T09:15:42.999Z</time></trkpt><trkpt lat="58.03291313978943" lon="56.38638628345946"><ele>147.0</ele><time>2026-05-01T09:15:44.999Z</time></trkpt><trkpt lat="58.0329619489965" lon="56.386531105002895"><ele>147.0</ele><time>2026-05-01T09:15:46.999Z</time></trkpt><trkpt lat="58.033034272579286" lon="56.38664054792018"><ele>147.0</ele><time>2026-05-01T09:15:48.999Z</time></trkpt><trkpt lat="58.03305628591763" lon="56.38681696192493"><ele>146.83333333333334</ele><time>2026-05-01T09:15:50.999Z</time></trkpt><trkpt lat="58.03306296004076" lon="56.38694716104987"><ele>146.66666666666666</ele><time>2026-05-01T09:15:52.999Z</time></trkpt><trkpt lat="58.033050249330834" lon="56.38712057834416"><ele>146.5</ele><time>2026-05-01T09:15:54.999Z</time></trkpt><trkpt lat="58.03300436321029" lon="56.387247110090335"><ele>146.33333333333331</ele><time>2026-05-01T09:15:56.999Z</time></trkpt><trkpt lat="58.03295156612378" lon="56.387368124459925"><ele>146.16666666666666</ele><time>2026-05-01T09:15:58.998Z</time></trkpt><trkpt lat="58.03289649560528" lon="56.38746853663038"><ele>146.0</ele><time>2026-05-01T09:16:01.998Z</time></trkpt><trkpt lat="58.03284942977007" lon="56.387569778019575"><ele>146.0</ele><time>2026-05-01T09:16:04.998Z</time></trkpt><trkpt lat="58.032917894920075" lon="56.38747980405725"><ele>146.0</ele><time>2026-05-01T09:16:10.998Z</time></trkpt><trkpt lat="58.032964421808806" lon="56.38736369284798"><ele>146.0</ele><time>2026-05-01T09:16:13.998Z</time></trkpt><trkpt lat="58.032999205950006" lon="56.3872098274759"><ele>146.0</ele><time>2026-05-01T09:17:05Z</time></trkpt><trkpt lat="58.033031086756935" lon="56.38710306941786"><ele>146.0</ele><time>2026-05-01T09:17:06Z</time></trkpt><trkpt lat="58.03305150476905" lon="56.38692074611273"><ele>146.0</ele><time>2026-05-01T09:17:08Z</time></trkpt><trkpt lat="58.03303975481978" lon="56.38679278507711"><ele>146.0</ele><time>2026-05-01T09:17:09Z</time></trkpt><trkpt lat="58.03301696646456" lon="56.386633027838286"><ele>146.0</ele><time>2026-05-01T09:17:10Z</time></trkpt><trkpt lat="58.032983271079544" lon="56.38645951526123"><ele>146.0</ele><time>2026-05-01T09:17:11Z</time></trkpt><trkpt lat="58.03292441383048" lon="56.38627093815775"><ele>146.0</ele><time>2026-05-01T09:17:11.999Z</time></trkpt><trkpt lat="58.032851361052614" lon="56.38606252613501"><ele>146.0</ele><time>2026-05-01T09:17:12.999Z</time></trkpt><trkpt lat="58.03279468354972" lon="56.38589460817376"><ele>146.2</ele><time>2026-05-01T09:17:13.999Z</time></trkpt><trkpt lat="58.03274193563781" lon="56.385754188872646"><ele>146.39999999999998</ele><time>2026-05-01T09:17:14.999Z</time></trkpt><trkpt lat="58.03268889102949" lon="56.38560702974438"><ele>146.6</ele><time>2026-05-01T09:17:15.999Z</time></trkpt><trkpt lat="58.03264656549787" lon="56.38546511410226"><ele>146.79999999999998</ele><time>2026-05-01T09:17:16.999Z</time></trkpt><trkpt lat="58.03259949639496" lon="56.38532344850979"><ele>147.0</ele><time>2026-05-01T09:17:17.999Z</time></trkpt><trkpt lat="58.032546216725684" lon="56.38516875696823"><ele>146.79999999999998</ele><time>2026-05-01T09:17:18.999Z</time></trkpt><trkpt lat="58.032491712400144" lon="56.38499190208284"><ele>146.6</ele><time>2026-05-01T09:17:19.999Z</time></trkpt><trkpt lat="58.03243437121211" lon="56.38481618476175"><ele>146.39999999999998</ele><time>2026-05-01T09:17:20.999Z</time></trkpt><trkpt lat="58.032383484178816" lon="56.384659858015375"><ele>146.2</ele><time>2026-05-01T09:17:21.999Z</time></trkpt><trkpt lat="58.03233426833875" lon="56.38451446174825"><ele>146.0</ele><time>2026-05-01T09:17:22.999Z</time></trkpt><trkpt lat="58.03229307087893" lon="56.384378316070176"><ele>146.0</ele><time>2026-05-01T09:17:23.999Z</time></trkpt><trkpt lat="58.03225153638435" lon="56.38423760612435"><ele>146.0</ele><time>2026-05-01T09:17:24.999Z</time></trkpt><trkpt lat="58.03219478728149" lon="56.3840702726675"><ele>146.0</ele><time>2026-05-01T09:17:25.999Z</time></trkpt><trkpt lat="58.032172049341376" lon="56.38388202278379"><ele>146.0</ele><time>2026-05-01T09:17:26.999Z</time></trkpt><trkpt lat="58.032141147237596" lon="56.38373377918921"><ele>146.0</ele><time>2026-05-01T09:17:27.999Z</time></trkpt><trkpt lat="58.03211730283027" lon="56.38361939273335"><ele>146.0</ele><time>2026-05-01T09:17:28.999Z</time></trkpt><trkpt lat="58.03210315421372" lon="56.383465614398624"><ele>146.2</ele><time>2026-05-01T09:17:30.999Z</time></trkpt><trkpt lat="58.03217792711399" lon="56.383443552876074"><ele>146.39999999999998</ele><time>2026-05-01T09:17:31.999Z</time></trkpt><trkpt lat="58.032245293894334" lon="56.38333442449411"><ele>146.6</ele><time>2026-05-01T09:17:32.999Z</time></trkpt><trkpt lat="58.03233784126634" lon="56.38323468917123"><ele>146.79999999999998</ele><time>2026-05-01T09:17:33.999Z</time></trkpt><trkpt lat="58.03245805805208" lon="56.3831318830315"><ele>147.0</ele><time>2026-05-01T09:17:34.999Z</time></trkpt><trkpt lat="58.03258893051611" lon="56.382953333617806"><ele>148.66666666666666</ele><time>2026-05-01T09:17:35.999Z</time></trkpt><trkpt lat="58.03275725628667" lon="56.38279825044398"><ele>150.33333333333331</ele><time>2026-05-01T09:17:36.999Z</time></trkpt><trkpt lat="58.032938799771486" lon="56.38259581345048"><ele>152.0</ele><time>2026-05-01T09:17:37.999Z</time></trkpt><trkpt lat="58.033110683337156" lon="56.38235936104445"><ele>152.0</ele><time>2026-05-01T09:17:38.999Z</time></trkpt><trkpt lat="58.03324852378363" lon="56.38219555948457"><ele>152.0</ele><time>2026-05-01T09:17:39.999Z</time></trkpt><trkpt lat="58.03335996691457" lon="56.38207299160611"><ele>152.0</ele><time>2026-05-01T09:17:40.999Z</time></trkpt><trkpt lat="58.0334548310304" lon="56.38196295948972"><ele>152.0</ele><time>2026-05-01T09:17:41.999Z</time></trkpt><trkpt lat="58.03355995116308" lon="56.38183758562131"><ele>153.25</ele><time>2026-05-01T09:17:42.999Z</time></trkpt><trkpt lat="58.03367750249899" lon="56.38169614502038"><ele>154.5</ele><time>2026-05-01T09:17:43.999Z</time></trkpt><trkpt lat="58.03379488976104" lon="56.38155778984114"><ele>155.75</ele><time>2026-05-01T09:17:44.999Z</time></trkpt><trkpt lat="58.033913536015376" lon="56.38140376340083"><ele>157.0</ele><time>2026-05-01T09:17:45.999Z</time></trkpt><trkpt lat="58.034020271683296" lon="56.38127372547875"><ele>157.5</ele><time>2026-05-01T09:17:46.999Z</time></trkpt><trkpt lat="58.034133629468855" lon="56.38114533547882"><ele>158.0</ele><time>2026-05-01T09:17:47.999Z</time></trkpt><trkpt lat="58.034244297905396" lon="56.38101573512826"><ele>158.5</ele><time>2026-05-01T09:17:48.999Z</time></trkpt><trkpt lat="58.034343905424535" lon="56.38088230026785"><ele>159.0</ele><time>2026-05-01T09:17:49.999Z</time></trkpt><trkpt lat="58.034464194213875" lon="56.380753252760876"><ele>159.4</ele><time>2026-05-01T09:17:50.999Z</time></trkpt><trkpt lat="58.03457822367927" lon="56.38062318219503"><ele>159.8</ele><time>2026-05-01T09:17:51.999Z</time></trkpt><trkpt lat="58.03466102822951" lon="56.380495226037056"><ele>160.20000000000002</ele><time>2026-05-01T09:17:52.999Z</time></trkpt><trkpt lat="58.0347350083887" lon="56.3804105686817"><ele>160.60000000000002</ele><time>2026-05-01T09:17:53.999Z</time></trkpt><trkpt lat="58.034813801256" lon="56.38033537158801"><ele>161.0</ele><time>2026-05-01T09:17:54.999Z</time></trkpt><trkpt lat="58.03490486082057" lon="56.38022412168334"><ele>161.5</ele><time>2026-05-01T09:17:55.999Z</time></trkpt><trkpt lat="58.0350055286036" lon="56.38008182383019"><ele>162.0</ele><time>2026-05-01T09:17:56.999Z</time></trkpt><trkpt lat="58.03508395049976" lon="56.379960129393005"><ele>162.5</ele><time>2026-05-01T09:17:57.999Z</time></trkpt><trkpt lat="58.035169594988176" lon="56.37982723001249"><ele>163.0</ele><time>2026-05-01T09:17:58.999Z</time></trkpt><trkpt lat="58.035268432202095" lon="56.37972563423402"><ele>163.4</ele><time>2026-05-01T09:17:59.999Z</time></trkpt><trkpt lat="58.03535329658381" lon="56.379606818886735"><ele>163.8</ele><time>2026-05-01T09:18:00.999Z</time></trkpt><trkpt lat="58.03544628501263" lon="56.37950272576657"><ele>164.2</ele><time>2026-05-01T09:18:01.999Z</time></trkpt><trkpt lat="58.03554436932362" lon="56.379421556960835"><ele>164.6</ele><time>2026-05-01T09:18:02.998Z</time></trkpt><trkpt lat="58.03561160274764" lon="56.37931129018768"><ele>165.0</ele><time>2026-05-01T09:18:03.998Z</time></trkpt><trkpt lat="58.03568432689195" lon="56.379231296381676"><ele>165.0</ele><time>2026-05-01T09:18:04.998Z</time></trkpt><trkpt lat="58.03577189570173" lon="56.379139184948365"><ele>165.0</ele><time>2026-05-01T09:18:05.998Z</time></trkpt><trkpt lat="58.03584656955196" lon="56.37906193797484"><ele>165.0</ele><time>2026-05-01T09:18:06.998Z</time></trkpt><trkpt lat="58.0359247029834" lon="56.37895603144823"><ele>165.0</ele><time>2026-05-01T09:18:07.998Z</time></trkpt><trkpt lat="58.03600889488166" lon="56.37885544925808"><ele>165.0</ele><time>2026-05-01T09:18:08.998Z</time></trkpt><trkpt lat="58.036080856544764" lon="56.37877934864725"><ele>165.6</ele><time>2026-05-01T09:18:09.998Z</time></trkpt><trkpt lat="58.03614070275099" lon="56.378718596854974"><ele>166.2</ele><time>2026-05-01T09:18:10.998Z</time></trkpt><trkpt lat="58.036234326866975" lon="56.37862214827811"><ele>166.8</ele><time>2026-05-01T09:18:12.998Z</time></trkpt><trkpt lat="58.036317355069805" lon="56.37855085110251"><ele>167.4</ele><time>2026-05-01T09:18:14.998Z</time></trkpt><trkpt lat="58.03639481476177" lon="56.378454219760016"><ele>168.0</ele><time>2026-05-01T09:18:16.998Z</time></trkpt><trkpt lat="58.03648424549496" lon="56.37837327049319"><ele>168.0</ele><time>2026-05-01T09:18:18.998Z</time></trkpt><trkpt lat="58.03658435381837" lon="56.37826381732029"><ele>168.0</ele><time>2026-05-01T09:18:20.998Z</time></trkpt><trkpt lat="58.03665497357521" lon="56.378233489135795"><ele>168.0</ele><time>2026-05-01T09:18:22.998Z</time></trkpt><trkpt lat="58.036702466484286" lon="56.37833924518968"><ele>168.0</ele><time>2026-05-01T09:18:26.998Z</time></trkpt><trkpt lat="58.03674662051028" lon="56.37844120197797"><ele>168.0</ele><time>2026-05-01T09:19:02Z</time></trkpt><trkpt lat="58.03677086954212" lon="56.378567488424125"><ele>168.0</ele><time>2026-05-01T09:19:03Z</time></trkpt><trkpt lat="58.036797019825414" lon="56.37873521738282"><ele>168.0</ele><time>2026-05-01T09:19:04Z</time></trkpt><trkpt lat="58.03682049685503" lon="56.37888518295988"><ele>168.0</ele><time>2026-05-01T09:19:05Z</time></trkpt><trkpt lat="58.03685200563393" lon="56.37902657313513"><ele>168.0</ele><time>2026-05-01T09:19:06Z</time></trkpt><trkpt lat="58.03688710028476" lon="56.379184766624824"><ele>168.0</ele><time>2026-05-01T09:19:07Z</time></trkpt><trkpt lat="58.03692990394277" lon="56.379405276390855"><ele>168.0</ele><time>2026-05-01T09:19:08Z</time></trkpt><trkpt lat="58.036966621067016" lon="56.3796400902668"><ele>167.75</ele><time>2026-05-01T09:19:09Z</time></trkpt><trkpt lat="58.03700286234029" lon="56.37984921550554"><ele>167.5</ele><time>2026-05-01T09:19:10Z</time></trkpt><trkpt lat="58.03704637240416" lon="56.380053918774635"><ele>167.25</ele><time>2026-05-01T09:19:11Z</time></trkpt><trkpt lat="58.03709065491252" lon="56.38027352653802"><ele>167.0</ele><time>2026-05-01T09:19:12Z</time></trkpt><trkpt lat="58.03712267853527" lon="56.38047151617938"><ele>166.75</ele><time>2026-05-01T09:19:13Z</time></trkpt><trkpt lat="58.03715591612982" lon="56.38064432201888"><ele>166.5</ele><time>2026-05-01T09:19:14Z</time></trkpt><trkpt lat="58.03719635644667" lon="56.380844645589505"><ele>166.25</ele><time>2026-05-01T09:19:15Z</time></trkpt><trkpt lat="58.037238719711354" lon="56.38106438449288"><ele>166.0</ele><time>2026-05-01T09:19:15.999Z</time></trkpt><trkpt lat="58.03727988992674" lon="56.38128039022674"><ele>166.0</ele><time>2026-05-01T09:19:16.999Z</time></trkpt><trkpt lat="58.037322821574996" lon="56.38148768228751"><ele>166.0</ele><time>2026-05-01T09:19:17.999Z</time></trkpt><trkpt lat="58.037363817620964" lon="56.3817061534852"><ele>166.0</ele><time>2026-05-01T09:19:18.999Z</time></trkpt><trkpt lat="58.03740342653373" lon="56.38192470351252"><ele>166.0</ele><time>2026-05-01T09:19:19.999Z</time></trkpt><trkpt lat="58.037445575229626" lon="56.38214811968313"><ele>167.0</ele><time>2026-05-01T09:19:20.999Z</time></trkpt><trkpt lat="58.03749017137853" lon="56.38238365094395"><ele>168.0</ele><time>2026-05-01T09:19:21.999Z</time></trkpt><trkpt lat="58.03753717248346" lon="56.3826346263103"><ele>169.0</ele><time>2026-05-01T09:19:22.999Z</time></trkpt><trkpt lat="58.037583519398474" lon="56.3828760445566"><ele>170.0</ele><time>2026-05-01T09:19:23.999Z</time></trkpt><trkpt lat="58.03763149542943" lon="56.383115761964056"><ele>170.0</ele><time>2026-05-01T09:19:24.999Z</time></trkpt><trkpt lat="58.03767850256389" lon="56.38336755191137"><ele>170.0</ele><time>2026-05-01T09:19:25.999Z</time></trkpt><trkpt lat="58.037726264454655" lon="56.383621590394846"><ele>170.0</ele><time>2026-05-01T09:19:26.999Z</time></trkpt><trkpt lat="58.037777484456775" lon="56.38389448165955"><ele>170.0</ele><time>2026-05-01T09:19:27.999Z</time></trkpt><trkpt lat="58.03782839157913" lon="56.38416213651614"><ele>170.0</ele><time>2026-05-01T09:19:28.999Z</time></trkpt><trkpt lat="58.037880239428816" lon="56.38444330965572"><ele>170.0</ele><time>2026-05-01T09:19:29.999Z</time></trkpt><trkpt lat="58.03793680569522" lon="56.384722210779266"><ele>170.0</ele><time>2026-05-01T09:19:30.999Z</time></trkpt><trkpt lat="58.037988548927466" lon="56.38500241965253"><ele>169.75</ele><time>2026-05-01T09:19:31.999Z</time></trkpt><trkpt lat="58.03803341719716" lon="56.38524349500047"><ele>169.5</ele><time>2026-05-01T09:19:32.999Z</time></trkpt><trkpt lat="58.03807939346023" lon="56.38547644471598"><ele>169.25</ele><time>2026-05-01T09:19:33.999Z</time></trkpt><trkpt lat="58.038127830791694" lon="56.38573248962988"><ele>169.0</ele><time>2026-05-01T09:19:34.999Z</time></trkpt><trkpt lat="58.03818104002178" lon="56.3860004879475"><ele>168.75</ele><time>2026-05-01T09:19:35.999Z</time></trkpt><trkpt lat="58.03823257883422" lon="56.38628426726777"><ele>168.5</ele><time>2026-05-01T09:19:36.999Z</time></trkpt><trkpt lat="58.038285225188325" lon="56.386558579490014"><ele>168.25</ele><time>2026-05-01T09:19:37.999Z</time></trkpt><trkpt lat="58.03833141737678" lon="56.38679531138759"><ele>168.0</ele><time>2026-05-01T09:19:38.999Z</time></trkpt><trkpt lat="58.03837375059446" lon="56.387021052812976"><ele>169.0</ele><time>2026-05-01T09:19:39.999Z</time></trkpt><trkpt lat="58.03842110725214" lon="56.3872654293699"><ele>170.0</ele><time>2026-05-01T09:19:40.999Z</time></trkpt><trkpt lat="58.038470975069245" lon="56.38751948251143"><ele>171.0</ele><time>2026-05-01T09:19:41.999Z</time></trkpt><trkpt lat="58.0385235221998" lon="56.38778937240153"><ele>172.0</ele><time>2026-05-01T09:19:42.999Z</time></trkpt><trkpt lat="58.03857488093224" lon="56.38805681379622"><ele>172.0</ele><time>2026-05-01T09:19:43.999Z</time></trkpt><trkpt lat="58.038623220356506" lon="56.388302578271805"><ele>172.0</ele><time>2026-05-01T09:19:44.999Z</time></trkpt><trkpt lat="58.038659676639845" lon="56.388525400656306"><ele>172.0</ele><time>2026-05-01T09:19:45.999Z</time></trkpt><trkpt lat="58.038697344772665" lon="56.388723531813184"><ele>172.0</ele><time>2026-05-01T09:19:46.999Z</time></trkpt><trkpt lat="58.03873677693158" lon="56.38891883609374"><ele>172.0</ele><time>2026-05-01T09:19:47.999Z</time></trkpt><trkpt lat="58.03877191363188" lon="56.38914008219885"><ele>172.0</ele><time>2026-05-01T09:19:48.999Z</time></trkpt><trkpt lat="58.03882238571664" lon="56.38937446068231"><ele>172.0</ele><time>2026-05-01T09:19:49.999Z</time></trkpt><trkpt lat="58.03887198498107" lon="56.38961549459832"><ele>172.0</ele><time>2026-05-01T09:19:50.999Z</time></trkpt><trkpt lat="58.03891284840677" lon="56.38984276923907"><ele>172.25</ele><time>2026-05-01T09:19:51.999Z</time></trkpt><trkpt lat="58.03895575076567" lon="56.390073800809816"><ele>172.5</ele><time>2026-05-01T09:19:52.999Z</time></trkpt><trkpt lat="58.039000293524936" lon="56.390292999092566"><ele>172.75</ele><time>2026-05-01T09:19:53.999Z</time></trkpt><trkpt lat="58.039039189895746" lon="56.39048843098094"><ele>173.0</ele><time>2026-05-01T09:19:54.999Z</time></trkpt><trkpt lat="58.03907197662834" lon="56.390650650533765"><ele>173.0</ele><time>2026-05-01T09:19:55.999Z</time></trkpt><trkpt lat="58.03910453598453" lon="56.390805497520475"><ele>173.0</ele><time>2026-05-01T09:19:56.999Z</time></trkpt><trkpt lat="58.03913223895628" lon="56.39096924122174"><ele>173.0</ele><time>2026-05-01T09:19:57.999Z</time></trkpt><trkpt lat="58.03915968339189" lon="56.3911255607153"><ele>173.0</ele><time>2026-05-01T09:19:58.999Z</time></trkpt><trkpt lat="58.03918889828706" lon="56.39128121572122"><ele>173.0</ele><time>2026-05-01T09:19:59.999Z</time></trkpt><trkpt lat="58.03921139521373" lon="56.39142130002591"><ele>173.0</ele><time>2026-05-01T09:20:00.999Z</time></trkpt><trkpt lat="58.03922606045342" lon="56.39155883832581"><ele>173.0</ele><time>2026-05-01T09:20:01.999Z</time></trkpt><trkpt lat="58.03924314481814" lon="56.391674297378934"><ele>173.0</ele><time>2026-05-01T09:20:02.999Z</time></trkpt><trkpt lat="58.03926092343504" lon="56.39179228208468"><ele>173.0</ele><time>2026-05-01T09:20:06.998Z</time></trkpt><trkpt lat="58.039310364586406" lon="56.39186970084852"><ele>173.0</ele><time>2026-05-01T09:20:24.998Z</time></trkpt><trkpt lat="58.039349926958835" lon="56.39199762533921"><ele>173.0</ele><time>2026-05-01T09:20:27.998Z</time></trkpt><trkpt lat="58.039407380346084" lon="56.39223065236943"><ele>173.0</ele><time>2026-05-01T09:20:29.998Z</time></trkpt><trkpt lat="58.039436381917135" lon="56.39240589431974"><ele>172.75</ele><time>2026-05-01T09:20:30.998Z</time></trkpt><trkpt lat="58.03945555360598" lon="56.392634563066444"><ele>172.5</ele><time>2026-05-01T09:20:31.998Z</time></trkpt><trkpt lat="58.03950476045871" lon="56.39288834634802"><ele>172.25</ele><time>2026-05-01T09:20:32.998Z</time></trkpt><trkpt lat="58.039554222430695" lon="56.39314449467394"><ele>172.0</ele><time>2026-05-01T09:20:33.998Z</time></trkpt><trkpt lat="58.039605119286435" lon="56.39340647326526"><ele>171.75</ele><time>2026-05-01T09:20:34.998Z</time></trkpt><trkpt lat="58.039653361285" lon="56.39365742367575"><ele>171.5</ele><time>2026-05-01T09:20:35.998Z</time></trkpt><trkpt lat="58.039696447745314" lon="56.39388717230714"><ele>171.25</ele><time>2026-05-01T09:20:36.998Z</time></trkpt><trkpt lat="58.03974577862804" lon="56.39415762974127"><ele>171.0</ele><time>2026-05-01T09:20:37.998Z</time></trkpt><trkpt lat="58.03980132281383" lon="56.39446035668241"><ele>171.33333333333334</ele><time>2026-05-01T09:20:38.998Z</time></trkpt><trkpt lat="58.039862949255834" lon="56.394798395447005"><ele>171.66666666666669</ele><time>2026-05-01T09:20:39.998Z</time></trkpt><trkpt lat="58.039927046607325" lon="56.39514972835599"><ele>172.0</ele><time>2026-05-01T09:20:41Z</time></trkpt><trkpt lat="58.03998725412152" lon="56.39547718843792"><ele>171.66666666666669</ele><time>2026-05-01T09:20:42Z</time></trkpt><trkpt lat="58.0400445845223" lon="56.39577900398274"><ele>171.33333333333334</ele><time>2026-05-01T09:20:43Z</time></trkpt><trkpt lat="58.04011486938725" lon="56.39607397748457"><ele>171.0</ele><time>2026-05-01T09:20:44Z</time></trkpt><trkpt lat="58.04017972656152" lon="56.39640641268171"><ele>170.66666666666666</ele><time>2026-05-01T09:20:45Z</time></trkpt><trkpt lat="58.04024467479438" lon="56.3967679924052"><ele>170.33333333333331</ele><time>2026-05-01T09:20:46Z</time></trkpt><trkpt lat="58.04031216601982" lon="56.39714019303702"><ele>170.0</ele><time>2026-05-01T09:20:47Z</time></trkpt><trkpt lat="58.040380415772624" lon="56.39749029841767"><ele>170.0</ele><time>2026-05-01T09:20:48Z</time></trkpt><trkpt lat="58.040437941178126" lon="56.39779789124395"><ele>170.0</ele><time>2026-05-01T09:20:49Z</time></trkpt><trkpt lat="58.04049402488291" lon="56.39808972638628"><ele>170.0</ele><time>2026-05-01T09:20:50Z</time></trkpt><trkpt lat="58.040550839902565" lon="56.39839947109108"><ele>170.0</ele><time>2026-05-01T09:20:51Z</time></trkpt><trkpt lat="58.040606563287795" lon="56.39871097025521"><ele>170.0</ele><time>2026-05-01T09:20:52Z</time></trkpt><trkpt lat="58.040665302534045" lon="56.399033355604196"><ele>170.0</ele><time>2026-05-01T09:20:53Z</time></trkpt><trkpt lat="58.04073108247568" lon="56.39936783392243"><ele>170.66666666666666</ele><time>2026-05-01T09:20:54Z</time></trkpt><trkpt lat="58.04079426849936" lon="56.39969240750693"><ele>171.33333333333334</ele><time>2026-05-01T09:20:55Z</time></trkpt><trkpt lat="58.04084705014979" lon="56.39997954167786"><ele>172.0</ele><time>2026-05-01T09:20:56Z</time></trkpt><trkpt lat="58.04089444239974" lon="56.40024791540145"><ele>173.33333333333334</ele><time>2026-05-01T09:20:57Z</time></trkpt><trkpt lat="58.0409463333524" lon="56.400502869741295"><ele>174.66666666666666</ele><time>2026-05-01T09:20:58Z</time></trkpt><trkpt lat="58.04099945958837" lon="56.4007864399282"><ele>176.0</ele><time>2026-05-01T09:20:59Z</time></trkpt><trkpt lat="58.0410524060446" lon="56.401077991746"><ele>175.66666666666666</ele><time>2026-05-01T09:21:00Z</time></trkpt><trkpt lat="58.04111140513583" lon="56.40138617252154"><ele>175.33333333333334</ele><time>2026-05-01T09:21:01Z</time></trkpt><trkpt lat="58.04117463370559" lon="56.40171292499407"><ele>175.0</ele><time>2026-05-01T09:21:02Z</time></trkpt><trkpt lat="58.04123980963483" lon="56.40205887044762"><ele>174.33333333333334</ele><time>2026-05-01T09:21:03Z</time></trkpt><trkpt lat="58.04130455157031" lon="56.40238647530934"><ele>173.66666666666666</ele><time>2026-05-01T09:21:04Z</time></trkpt><trkpt lat="58.04136426704115" lon="56.4026776961922"><ele>173.0</ele><time>2026-05-01T09:21:05Z</time></trkpt><trkpt lat="58.04141411380013" lon="56.402952874900436"><ele>172.66666666666666</ele><time>2026-05-01T09:21:06Z</time></trkpt><trkpt lat="58.04146586794336" lon="56.403227663505795"><ele>172.33333333333334</ele><time>2026-05-01T09:21:07Z</time></trkpt><trkpt lat="58.041522122258755" lon="56.40350986392214"><ele>172.0</ele><time>2026-05-01T09:21:08Z</time></trkpt><trkpt lat="58.04158156290245" lon="56.40380351260013"><ele>173.0</ele><time>2026-05-01T09:21:09Z</time></trkpt><trkpt lat="58.04163840176476" lon="56.40411470268362"><ele>174.0</ele><time>2026-05-01T09:21:10Z</time></trkpt><trkpt lat="58.04169513117955" lon="56.40442285304341"><ele>175.0</ele><time>2026-05-01T09:21:11Z</time></trkpt><trkpt lat="58.04175055230707" lon="56.40470343449155"><ele>175.0</ele><time>2026-05-01T09:21:12Z</time></trkpt><trkpt lat="58.04180207256201" lon="56.40496342064309"><ele>175.0</ele><time>2026-05-01T09:21:13Z</time></trkpt><trkpt lat="58.041845958356944" lon="56.40520518790867"><ele>175.0</ele><time>2026-05-01T09:21:14Z</time></trkpt><trkpt lat="58.041883496477695" lon="56.405429067038696"><ele>175.0</ele><time>2026-05-01T09:21:15Z</time></trkpt><trkpt lat="58.041924474093726" lon="56.40564032801018"><ele>174.75</ele><time>2026-05-01T09:21:16Z</time></trkpt><trkpt lat="58.041967370302444" lon="56.40586586553188"><ele>174.5</ele><time>2026-05-01T09:21:17Z</time></trkpt><trkpt lat="58.042015213899404" lon="56.40611633632654"><ele>174.25</ele><time>2026-05-01T09:21:18Z</time></trkpt><trkpt lat="58.04206349626143" lon="56.40636833998311"><ele>174.0</ele><time>2026-05-01T09:21:18.999Z</time></trkpt><trkpt lat="58.042105618131686" lon="56.406583145857894"><ele>173.79999999999998</ele><time>2026-05-01T09:21:19.999Z</time></trkpt><trkpt lat="58.04214270756341" lon="56.40678693444431"><ele>173.6</ele><time>2026-05-01T09:21:20.999Z</time></trkpt><trkpt lat="58.04217427302563" lon="56.40697580502705"><ele>173.4</ele><time>2026-05-01T09:21:21.999Z</time></trkpt><trkpt lat="58.04220400715752" lon="56.407137863208966"><ele>173.2</ele><time>2026-05-01T09:21:22.999Z</time></trkpt><trkpt lat="58.04223502707574" lon="56.40728347356783"><ele>173.0</ele><time>2026-05-01T09:21:23.999Z</time></trkpt><trkpt lat="58.04226277442067" lon="56.407414583915724"><ele>173.0</ele><time>2026-05-01T09:21:24.999Z</time></trkpt><trkpt lat="58.04229071060401" lon="56.40755014010338"><ele>173.0</ele><time>2026-05-01T09:21:25.999Z</time></trkpt><trkpt lat="58.042323377617556" lon="56.40768887429591"><ele>173.0</ele><time>2026-05-01T09:21:26.999Z</time></trkpt><trkpt lat="58.04236070219883" lon="56.40784491273374"><ele>173.0</ele><time>2026-05-01T09:21:27.999Z</time></trkpt><trkpt lat="58.0423801326119" lon="56.4080329238193"><ele>173.0</ele><time>2026-05-01T09:21:28.999Z</time></trkpt><trkpt lat="58.04241718970391" lon="56.40822258482768"><ele>173.5</ele><time>2026-05-01T09:21:29.999Z</time></trkpt><trkpt lat="58.042473099213595" lon="56.40842347688747"><ele>174.0</ele><time>2026-05-01T09:21:30.999Z</time></trkpt><trkpt lat="58.04249539586278" lon="56.408633877468354"><ele>174.5</ele><time>2026-05-01T09:21:31.999Z</time></trkpt><trkpt lat="58.042532232611315" lon="56.40883042009794"><ele>175.0</ele><time>2026-05-01T09:21:32.999Z</time></trkpt><trkpt lat="58.042576083633065" lon="56.40906186720427"><ele>175.0</ele><time>2026-05-01T09:21:33.999Z</time></trkpt><trkpt lat="58.042637117976426" lon="56.409292461237186"><ele>175.0</ele><time>2026-05-01T09:21:34.999Z</time></trkpt><trkpt lat="58.04268086920822" lon="56.40952861399722"><ele>175.0</ele><time>2026-05-01T09:21:35.999Z</time></trkpt><trkpt lat="58.042729636918544" lon="56.409789745490365"><ele>175.0</ele><time>2026-05-01T09:21:36.999Z</time></trkpt><trkpt lat="58.04277877059472" lon="56.41004354931401"><ele>174.75</ele><time>2026-05-01T09:21:37.999Z</time></trkpt><trkpt lat="58.04282272375578" lon="56.41027087188267"><ele>174.5</ele><time>2026-05-01T09:21:38.999Z</time></trkpt><trkpt lat="58.04286121553953" lon="56.41048430365281"><ele>174.25</ele><time>2026-05-01T09:21:39.999Z</time></trkpt><trkpt lat="58.0429041854658" lon="56.41071808803272"><ele>174.0</ele><time>2026-05-01T09:21:40.999Z</time></trkpt><trkpt lat="58.04294619237343" lon="56.410943153565505"><ele>174.0</ele><time>2026-05-01T09:21:41.999Z</time></trkpt><trkpt lat="58.0429864731781" lon="56.41115459347302"><ele>174.0</ele><time>2026-05-01T09:21:42.999Z</time></trkpt><trkpt lat="58.04302859944087" lon="56.411388515090394"><ele>174.0</ele><time>2026-05-01T09:21:43.999Z</time></trkpt><trkpt lat="58.04308149470145" lon="56.41166507727929"><ele>174.0</ele><time>2026-05-01T09:21:44.999Z</time></trkpt><trkpt lat="58.043140592929944" lon="56.41201578302635"><ele>175.0</ele><time>2026-05-01T09:21:45.999Z</time></trkpt><trkpt lat="58.04321880615899" lon="56.41242518746639"><ele>176.0</ele><time>2026-05-01T09:21:46.999Z</time></trkpt><trkpt lat="58.04330388720522" lon="56.412862395619285"><ele>176.0</ele><time>2026-05-01T09:21:47.999Z</time></trkpt><trkpt lat="58.04338982048531" lon="56.413330619473136"><ele>176.0</ele><time>2026-05-01T09:21:48.999Z</time></trkpt><trkpt lat="58.04348235264393" lon="56.41381536133984"><ele>176.33333333333331</ele><time>2026-05-01T09:21:49.999Z</time></trkpt><trkpt lat="58.043553948018015" lon="56.41420968208497"><ele>176.66666666666666</ele><time>2026-05-01T09:21:50.999Z</time></trkpt><trkpt lat="58.04359452866114" lon="56.41447035878826"><ele>177.0</ele><time>2026-05-01T09:21:51.999Z</time></trkpt><trkpt lat="58.04364063342046" lon="56.41470133335332"><ele>177.33333333333334</ele><time>2026-05-01T09:21:52.999Z</time></trkpt><trkpt lat="58.04369553208341" lon="56.415042388395484"><ele>177.66666666666669</ele><time>2026-05-01T09:21:53.999Z</time></trkpt><trkpt lat="58.043754462535205" lon="56.41543084201066"><ele>178.0</ele><time>2026-05-01T09:21:54.999Z</time></trkpt><trkpt lat="58.04380947949455" lon="56.41575086501138"><ele>178.0</ele><time>2026-05-01T09:21:55.999Z</time></trkpt><trkpt lat="58.04385556322144" lon="56.4160000365142"><ele>178.0</ele><time>2026-05-01T09:21:56.999Z</time></trkpt><trkpt lat="58.04388985464848" lon="56.41621669961739"><ele>178.0</ele><time>2026-05-01T09:21:57.999Z</time></trkpt><trkpt lat="58.04392266698546" lon="56.4164242674754"><ele>178.0</ele><time>2026-05-01T09:21:58.999Z</time></trkpt><trkpt lat="58.0439565348702" lon="56.41661307249515"><ele>178.2</ele><time>2026-05-01T09:21:59.999Z</time></trkpt><trkpt lat="58.04398781949955" lon="56.41677530751304"><ele>178.4</ele><time>2026-05-01T09:22:00.999Z</time></trkpt><trkpt lat="58.04400956601109" lon="56.41692465006077"><ele>178.6</ele><time>2026-05-01T09:22:01.999Z</time></trkpt><trkpt lat="58.04403784721243" lon="56.417086013168905"><ele>178.79999999999998</ele><time>2026-05-01T09:22:02.999Z</time></trkpt><trkpt lat="58.0440720846417" lon="56.417276839930196"><ele>179.0</ele><time>2026-05-01T09:22:03.999Z</time></trkpt><trkpt lat="58.04410560770739" lon="56.41749575459998"><ele>181.0</ele><time>2026-05-01T09:22:04.999Z</time></trkpt><trkpt lat="58.04414392693815" lon="56.41775266299613"><ele>183.0</ele><time>2026-05-01T09:22:05.999Z</time></trkpt><trkpt lat="58.044191434907965" lon="56.41806223326238"><ele>185.0</ele><time>2026-05-01T09:22:06.999Z</time></trkpt><trkpt lat="58.04423707233104" lon="56.41837554494849"><ele>185.2</ele><time>2026-05-01T09:22:07.999Z</time></trkpt><trkpt lat="58.04427345249474" lon="56.41862449104487"><ele>185.4</ele><time>2026-05-01T09:22:08.999Z</time></trkpt><trkpt lat="58.044302197318395" lon="56.418831097381194"><ele>185.60000000000002</ele><time>2026-05-01T09:22:09.999Z</time></trkpt><trkpt lat="58.04432523913885" lon="56.419012129883654"><ele>185.8</ele><time>2026-05-01T09:22:10.998Z</time></trkpt><trkpt lat="58.04434756390707" lon="56.41919633438391"><ele>186.0</ele><time>2026-05-01T09:22:11.998Z</time></trkpt><trkpt lat="58.044373022875014" lon="56.41939488158325"><ele>186.33333333333334</ele><time>2026-05-01T09:22:12.998Z</time></trkpt><trkpt lat="58.04439100847207" lon="56.4195509527687"><ele>186.66666666666666</ele><time>2026-05-01T09:22:13.998Z</time></trkpt><trkpt lat="58.04440704297007" lon="56.41968284256072"><ele>187.0</ele><time>2026-05-01T09:22:14.998Z</time></trkpt><trkpt lat="58.0444185177598" lon="56.41980058977398"><ele>187.33333333333331</ele><time>2026-05-01T09:22:15.998Z</time></trkpt><trkpt lat="58.04442141308279" lon="56.41998395366295"><ele>187.66666666666666</ele><time>2026-05-01T09:22:17.998Z</time></trkpt><trkpt lat="58.04445052968972" lon="56.42009346832115"><ele>188.0</ele><time>2026-05-01T09:22:19.998Z</time></trkpt><trkpt lat="58.04437064334453" lon="56.42017552282085"><ele>188.75</ele><time>2026-05-01T09:22:20.998Z</time></trkpt><trkpt lat="58.04432075000253" lon="56.420312738392205"><ele>189.5</ele><time>2026-05-01T09:22:22.998Z</time></trkpt><trkpt lat="58.04433681423721" lon="56.420571546413285"><ele>190.25</ele><time>2026-05-01T09:22:24.998Z</time></trkpt><trkpt lat="58.0443664254648" lon="56.420829075790124"><ele>191.0</ele><time>2026-05-01T09:22:25.998Z</time></trkpt><trkpt lat="58.04455487468808" lon="56.42101413015984"><ele>191.0</ele><time>2026-05-01T09:22:26.998Z</time></trkpt><trkpt lat="58.04438617496678" lon="56.421075637216504"><ele>191.0</ele><time>2026-05-01T09:22:56Z</time></trkpt><trkpt lat="58.04442357736029" lon="56.420976579206396"><ele>191.0</ele><time>2026-05-01T09:23:08Z</time></trkpt><trkpt lat="58.04438886466689" lon="56.42076558821752"><ele>191.0</ele><time>2026-05-01T09:23:09Z</time></trkpt><trkpt lat="58.04435562343487" lon="56.42047876672557"><ele>191.0</ele><time>2026-05-01T09:23:10Z</time></trkpt><trkpt lat="58.044541227300364" lon="56.4200684644921"><ele>191.0</ele><time>2026-05-01T09:23:11Z</time></trkpt><trkpt lat="58.04450452357444" lon="56.41976974364873"><ele>191.0</ele><time>2026-05-01T09:23:12Z</time></trkpt><trkpt lat="58.04446703760563" lon="56.41946460898257"><ele>190.4</ele><time>2026-05-01T09:23:13Z</time></trkpt><trkpt lat="58.04443324768968" lon="56.41921661385363"><ele>189.8</ele><time>2026-05-01T09:23:14Z</time></trkpt><trkpt lat="58.04441458229238" lon="56.41908171295641"><ele>189.20000000000002</ele><time>2026-05-01T09:23:15Z</time></trkpt><trkpt lat="58.04438739379696" lon="56.418884087268914"><ele>188.60000000000002</ele><time>2026-05-01T09:23:17Z</time></trkpt><trkpt lat="58.04437076609552" lon="56.418763225069874"><ele>188.0</ele><time>2026-05-01T09:23:18Z</time></trkpt><trkpt lat="58.04434730801163" lon="56.41859498955003"><ele>187.5</ele><time>2026-05-01T09:23:20Z</time></trkpt><trkpt lat="58.044322532389316" lon="56.41842917061309"><ele>187.0</ele><time>2026-05-01T09:23:22Z</time></trkpt><trkpt lat="58.04428446073701" lon="56.418173953715105"><ele>186.5</ele><time>2026-05-01T09:23:23.999Z</time></trkpt><trkpt lat="58.04425191572053" lon="56.41795650608589"><ele>186.0</ele><time>2026-05-01T09:23:24.999Z</time></trkpt><trkpt lat="58.0442077894946" lon="56.41766207659644"><ele>185.75</ele><time>2026-05-01T09:23:25.999Z</time></trkpt><trkpt lat="58.04415481876657" lon="56.41732443809156"><ele>185.5</ele><time>2026-05-01T09:23:26.999Z</time></trkpt><trkpt lat="58.04411434750178" lon="56.41707665993379"><ele>185.25</ele><time>2026-05-01T09:23:27.999Z</time></trkpt><trkpt lat="58.04408125079276" lon="56.41687364616546"><ele>185.0</ele><time>2026-05-01T09:23:28.999Z</time></trkpt><trkpt lat="58.04404829134219" lon="56.416692041756576"><ele>184.0</ele><time>2026-05-01T09:23:29.999Z</time></trkpt><trkpt lat="58.04402222640612" lon="56.41655023344936"><ele>183.0</ele><time>2026-05-01T09:23:30.999Z</time></trkpt><trkpt lat="58.04399965879211" lon="56.41642745286476"><ele>182.0</ele><time>2026-05-01T09:23:31.999Z</time></trkpt><trkpt lat="58.04396336245845" lon="56.41622994829782"><ele>181.0</ele><time>2026-05-01T09:23:33.999Z</time></trkpt><trkpt lat="58.04393519482838" lon="56.41607664452322"><ele>180.0</ele><time>2026-05-01T09:23:35.999Z</time></trkpt><trkpt lat="58.043913344158604" lon="56.41595772120136"><ele>179.0</ele><time>2026-05-01T09:23:37.999Z</time></trkpt><trkpt lat="58.04381949613974" lon="56.415948563466195"><ele>178.83333333333331</ele><time>2026-05-01T09:23:39.999Z</time></trkpt><trkpt lat="58.04378882291647" lon="56.41581073012607"><ele>178.66666666666666</ele><time>2026-05-01T09:24:56Z</time></trkpt><trkpt lat="58.043714786770636" lon="56.41578608086096"><ele>178.5</ele><time>2026-05-01T09:26:13.999Z</time></trkpt><trkpt lat="58.04365333786739" lon="56.415813007826905"><ele>178.33333333333334</ele><time>2026-05-01T09:26:15.999Z</time></trkpt><trkpt lat="58.043679981623455" lon="56.41598112913005"><ele>178.16666666666669</ele><time>2026-05-01T09:26:18.999Z</time></trkpt><trkpt lat="58.043704950988946" lon="56.41614082843566"><ele>178.0</ele><time>2026-05-01T09:26:21.998Z</time></trkpt><trkpt lat="58.043721596071656" lon="56.41626081835298"><ele>178.14285714285714</ele><time>2026-05-01T09:26:23.998Z</time></trkpt><trkpt lat="58.043729319615764" lon="56.41640574627616"><ele>178.28571428571428</ele><time>2026-05-01T09:26:26.998Z</time></trkpt><trkpt lat="58.043751072357466" lon="56.41654141156727"><ele>178.42857142857144</ele><time>2026-05-01T09:26:29.998Z</time></trkpt><trkpt lat="58.04376067076834" lon="56.41667267167226"><ele>178.57142857142856</ele><time>2026-05-01T09:26:32.998Z</time></trkpt><trkpt lat="58.043747350007614" lon="56.4167922230417"><ele>178.71428571428572</ele><time>2026-05-01T09:26:35.998Z</time></trkpt><trkpt lat="58.043821503513" lon="56.416833305415715"><ele>178.85714285714286</ele><time>2026-05-01T09:26:38.998Z</time></trkpt><trkpt lat="58.04390489702047" lon="56.416846012162885"><ele>179.0</ele><time>2026-05-01T09:26:42.998Z</time></trkpt><trkpt lat="58.0439664975388" lon="56.41694059072008"><ele>179.00000000000003</ele><time>2026-05-01T09:26:46.998Z</time></trkpt><trkpt lat="58.043953652802664" lon="56.417058545060904"><ele>179.0</ele><time>2026-05-01T09:26:49.998Z</time></trkpt><trkpt lat="58.04392536860278" lon="56.41717768751362"><ele>179.0</ele><time>2026-05-01T09:26:52.998Z</time></trkpt><trkpt lat="58.043893849169706" lon="56.41729502996685"><ele>179.0</ele><time>2026-05-01T09:26:56.998Z</time></trkpt><trkpt lat="58.04387004670976" lon="56.41743667991875"><ele>179.0</ele><time>2026-05-01T09:27:01Z</time></trkpt><trkpt lat="58.04383926840675" lon="56.41754773113472"><ele>179.00000000000003</ele><time>2026-05-01T09:27:06Z</time></trkpt><trkpt lat="58.043792799245004" lon="56.41765386701028"><ele>179.0</ele><time>2026-05-01T09:27:11Z</time></trkpt><trkpt lat="58.04374283703463" lon="56.417731719649915"><ele>179.00000000000003</ele><time>2026-05-01T09:27:16Z</time></trkpt><trkpt lat="58.04368776235173" lon="56.41779887283905"><ele>179.0</ele><time>2026-05-01T09:27:21Z</time></trkpt><trkpt lat="58.043624938618514" lon="56.417845962450365"><ele>179.0</ele><time>2026-05-01T09:27:39.999Z</time></trkpt><trkpt lat="58.04356595212967" lon="56.41789573945924"><ele>179.0</ele><time>2026-05-01T09:27:50.999Z</time></trkpt><trkpt lat="58.0434965751298" lon="56.41792615024624"><ele>179.0</ele><time>2026-05-01T09:28:02.999Z</time></trkpt><trkpt lat="58.04347593340151" lon="56.4180599704327"><ele>179.00000000000003</ele><time>2026-05-01T09:28:20.999Z</time></trkpt><trkpt lat="58.043547132068454" lon="56.418112616047324"><ele>179.0</ele><time>2026-05-01T09:28:23.999Z</time></trkpt><trkpt lat="58.04362248265865" lon="56.41808599739694"><ele>179.6</ele><time>2026-05-01T09:33:03.998Z</time></trkpt><trkpt lat="58.0436869281609" lon="56.41826688934514"><ele>180.2</ele><time>2026-05-01T09:33:05.998Z</time></trkpt><trkpt lat="58.04375033684745" lon="56.41844169139977"><ele>180.79999999999998</ele><time>2026-05-01T09:33:07.998Z</time></trkpt><trkpt lat="58.04382157167366" lon="56.41849586171983"><ele>181.39999999999998</ele><time>2026-05-01T09:33:08.998Z</time></trkpt><trkpt lat="58.04392907261123" lon="56.41850801838772"><ele>182.0</ele><time>2026-05-01T09:33:09.998Z</time></trkpt><trkpt lat="58.04406827106044" lon="56.41846778270274"><ele>182.8</ele><time>2026-05-01T09:33:10.998Z</time></trkpt><trkpt lat="58.044151976308186" lon="56.41850892343172"><ele>183.6</ele><time>2026-05-01T09:33:11.998Z</time></trkpt><trkpt lat="58.0442203693996" lon="56.41855171812285"><ele>184.4</ele><time>2026-05-01T09:33:13.998Z</time></trkpt><trkpt lat="58.04426897592109" lon="56.41871052142364"><ele>185.20000000000002</ele><time>2026-05-01T09:33:14.998Z</time></trkpt><trkpt lat="58.04430718468244" lon="56.41898706627873"><ele>186.0</ele><time>2026-05-01T09:33:17Z</time></trkpt><trkpt lat="58.04432775787411" lon="56.419136533639886"><ele>186.33333333333334</ele><time>2026-05-01T09:33:18Z</time></trkpt><trkpt lat="58.04434420058302" lon="56.419255410600094"><ele>186.66666666666666</ele><time>2026-05-01T09:33:19Z</time></trkpt><trkpt lat="58.044366234470445" lon="56.41940513534346"><ele>187.0</ele><time>2026-05-01T09:33:20Z</time></trkpt><trkpt lat="58.044387424303125" lon="56.419578042620515"><ele>187.33333333333331</ele><time>2026-05-01T09:33:22Z</time></trkpt><trkpt lat="58.04440622793946" lon="56.419733074418765"><ele>187.66666666666666</ele><time>2026-05-01T09:33:24Z</time></trkpt><trkpt lat="58.044430934957774" lon="56.41993377547795"><ele>188.0</ele><time>2026-05-01T09:33:26Z</time></trkpt><trkpt lat="58.04445651579222" lon="56.42014226288679"><ele>188.60000000000002</ele><time>2026-05-01T09:33:28Z</time></trkpt><trkpt lat="58.04447725081069" lon="56.42031386033606"><ele>189.20000000000002</ele><time>2026-05-01T09:33:30Z</time></trkpt><trkpt lat="58.04449604475773" lon="56.42048120282678"><ele>189.8</ele><time>2026-05-01T09:33:32Z</time></trkpt><trkpt lat="58.044515331136" lon="56.420654506104434"><ele>190.4</ele><time>2026-05-01T09:33:34Z</time></trkpt><trkpt lat="58.04453953018733" lon="56.420876129558756"><ele>191.0</ele><time>2026-05-01T09:33:36Z</time></trkpt><trkpt lat="58.04455427177936" lon="56.42100861778297"><ele>191.16666666666666</ele><time>2026-05-01T09:33:37Z</time></trkpt><trkpt lat="58.044574771310614" lon="56.421196183708915"><ele>191.33333333333331</ele><time>2026-05-01T09:33:38Z</time></trkpt><trkpt lat="58.04459447009615" lon="56.42137034118223"><ele>191.5</ele><time>2026-05-01T09:33:39Z</time></trkpt><trkpt lat="58.044605483901364" lon="56.42152702881638"><ele>191.66666666666666</ele><time>2026-05-01T09:33:40Z</time></trkpt><trkpt lat="58.04461650695071" lon="56.4216727737186"><ele>191.83333333333334</ele><time>2026-05-01T09:33:41Z</time></trkpt><trkpt lat="58.0446265844575" lon="56.42180431660056"><ele>192.0</ele><time>2026-05-01T09:33:42Z</time></trkpt><trkpt lat="58.044639720238195" lon="56.42197499300157"><ele>192.5</ele><time>2026-05-01T09:33:43Z</time></trkpt><trkpt lat="58.04465475939961" lon="56.4221729067554"><ele>193.0</ele><time>2026-05-01T09:33:44Z</time></trkpt><trkpt lat="58.04467091236261" lon="56.42238668990992"><ele>193.5</ele><time>2026-05-01T09:33:45Z</time></trkpt><trkpt lat="58.044560304723746" lon="56.42258484413624"><ele>194.0</ele><time>2026-05-01T09:33:46Z</time></trkpt><trkpt lat="58.0445632106396" lon="56.42276163113949"><ele>194.0</ele><time>2026-05-01T09:33:48Z</time></trkpt><trkpt lat="58.04456955192815" lon="56.422902394100035"><ele>194.0</ele><time>2026-05-01T09:33:50Z</time></trkpt><trkpt lat="58.04454754622228" lon="56.42301866453865"><ele>194.0</ele><time>2026-05-01T09:33:51.999Z</time></trkpt><trkpt lat="58.04457983691394" lon="56.42320994960149"><ele>194.0</ele><time>2026-05-01T09:33:53.999Z</time></trkpt><trkpt lat="58.04459052702063" lon="56.423406966127175"><ele>194.0</ele><time>2026-05-01T09:33:55.999Z</time></trkpt><trkpt lat="58.044586500670405" lon="56.42360691279593"><ele>194.2</ele><time>2026-05-01T09:33:57.999Z</time></trkpt><trkpt lat="58.04459018210014" lon="56.42381113071782"><ele>194.39999999999998</ele><time>2026-05-01T09:33:59.999Z</time></trkpt><trkpt lat="58.04458932785815" lon="56.42393556978679"><ele>194.6</ele><time>2026-05-01T09:34:00.999Z</time></trkpt><trkpt lat="58.04471988278832" lon="56.424155510975986"><ele>194.8</ele><time>2026-05-01T09:34:01.999Z</time></trkpt><trkpt lat="58.04470713666653" lon="56.42430444488799"><ele>195.0</ele><time>2026-05-01T09:34:02.999Z</time></trkpt><trkpt lat="58.04469574349504" lon="56.424474762375574"><ele>195.5</ele><time>2026-05-01T09:34:04.999Z</time></trkpt><trkpt lat="58.04445989700605" lon="56.42447003044911"><ele>196.0</ele><time>2026-05-01T09:34:06.999Z</time></trkpt><trkpt lat="58.04446420733267" lon="56.42458916092794"><ele>196.5</ele><time>2026-05-01T09:34:08.999Z</time></trkpt><trkpt lat="58.04450512459786" lon="56.42470702925138"><ele>197.0</ele><time>2026-05-01T09:34:10.999Z</time></trkpt><trkpt lat="58.04447473687853" lon="56.424871952633566"><ele>197.6</ele><time>2026-05-01T09:34:13.999Z</time></trkpt><trkpt lat="58.04443880571993" lon="56.42500203716935"><ele>198.2</ele><time>2026-05-01T09:34:15.999Z</time></trkpt><trkpt lat="58.04440222710165" lon="56.42520357361488"><ele>198.8</ele><time>2026-05-01T09:34:17.999Z</time></trkpt><trkpt lat="58.04438405098841" lon="56.425319832156646"><ele>199.4</ele><time>2026-05-01T09:34:18.999Z</time></trkpt><trkpt lat="58.04449563609126" lon="56.425561760186625"><ele>200.0</ele><time>2026-05-01T09:34:19.999Z</time></trkpt><trkpt lat="58.04442485534606" lon="56.42576821046161"><ele>200.6</ele><time>2026-05-01T09:34:21.999Z</time></trkpt><trkpt lat="58.04438333707452" lon="56.42588763291946"><ele>201.2</ele><time>2026-05-01T09:34:22.999Z</time></trkpt><trkpt lat="58.04433892097232" lon="56.426015321483824"><ele>201.8</ele><time>2026-05-01T09:34:23.999Z</time></trkpt><trkpt lat="58.04428471275006" lon="56.42615307214496"><ele>202.4</ele><time>2026-05-01T09:34:24.999Z</time></trkpt><trkpt lat="58.04421095935948" lon="56.42631954011976"><ele>203.0</ele><time>2026-05-01T09:34:26.999Z</time></trkpt><trkpt lat="58.0441341688066" lon="56.42649159444999"><ele>204.2</ele><time>2026-05-01T09:34:28.999Z</time></trkpt><trkpt lat="58.04409311110517" lon="56.42658502044133"><ele>205.4</ele><time>2026-05-01T09:34:29.999Z</time></trkpt><trkpt lat="58.044015935060976" lon="56.42675794459568"><ele>206.6</ele><time>2026-05-01T09:34:31.999Z</time></trkpt><trkpt lat="58.043936055913484" lon="56.42691952869757"><ele>207.79999999999998</ele><time>2026-05-01T09:34:33.999Z</time></trkpt><trkpt lat="58.0438579549964" lon="56.42706769275246"><ele>209.0</ele><time>2026-05-01T09:34:35.999Z</time></trkpt><trkpt lat="58.0438067980938" lon="56.42716583493571"><ele>209.50000000000003</ele><time>2026-05-01T09:34:36.999Z</time></trkpt><trkpt lat="58.04372859480902" lon="56.42731548748702"><ele>210.0</ele><time>2026-05-01T09:34:38.999Z</time></trkpt><trkpt lat="58.043672265494514" lon="56.42742145708"><ele>210.5</ele><time>2026-05-01T09:34:39.999Z</time></trkpt><trkpt lat="58.04362236615462" lon="56.42751462003909"><ele>211.0</ele><time>2026-05-01T09:34:40.999Z</time></trkpt><trkpt lat="58.04354748312744" lon="56.427643875789734"><ele>211.50000000000003</ele><time>2026-05-01T09:34:42.998Z</time></trkpt><trkpt lat="58.0434993982821" lon="56.427726672401704"><ele>212.0</ele><time>2026-05-01T09:34:43.998Z</time></trkpt><trkpt lat="58.04343393806321" lon="56.427839511355394"><ele>212.00000000000003</ele><time>2026-05-01T09:34:44.998Z</time></trkpt><trkpt lat="58.04338498391278" lon="56.42792382679081"><ele>212.0</ele><time>2026-05-01T09:34:45.998Z</time></trkpt><trkpt lat="58.043287085736935" lon="56.428091832740705"><ele>212.0</ele><time>2026-05-01T09:34:47.998Z</time></trkpt><trkpt lat="58.04323511873835" lon="56.42818186767953"><ele>212.0</ele><time>2026-05-01T09:34:48.998Z</time></trkpt><trkpt lat="58.04318754911125" lon="56.42826381348359"><ele>212.00000000000003</ele><time>2026-05-01T09:34:49.998Z</time></trkpt><trkpt lat="58.043131338538906" lon="56.42836013928254"><ele>212.0</ele><time>2026-05-01T09:34:50.998Z</time></trkpt><trkpt lat="58.04308071409936" lon="56.428447415088016"><ele>212.2</ele><time>2026-05-01T09:34:51.998Z</time></trkpt><trkpt lat="58.04302694292821" lon="56.42854021789603"><ele>212.39999999999998</ele><time>2026-05-01T09:34:52.998Z</time></trkpt><trkpt lat="58.04296725930925" lon="56.42864295093507"><ele>212.60000000000002</ele><time>2026-05-01T09:34:53.998Z</time></trkpt><trkpt lat="58.04291457392832" lon="56.428733317532924"><ele>212.8</ele><time>2026-05-01T09:34:54.998Z</time></trkpt><trkpt lat="58.04282626176053" lon="56.428884744184636"><ele>213.0</ele><time>2026-05-01T09:34:56.998Z</time></trkpt><trkpt lat="58.042736204256556" lon="56.42904020317877"><ele>213.0</ele><time>2026-05-01T09:34:58.998Z</time></trkpt><trkpt lat="58.04268236990523" lon="56.429132572823356"><ele>213.0</ele><time>2026-05-01T09:34:59.998Z</time></trkpt><trkpt lat="58.04262884274975" lon="56.429223716420445"><ele>213.0</ele><time>2026-05-01T09:35:00.998Z</time></trkpt><trkpt lat="58.042535714384314" lon="56.429384322418095"><ele>213.0</ele><time>2026-05-01T09:35:02.998Z</time></trkpt><trkpt lat="58.04248340976898" lon="56.42947490414854"><ele>213.0</ele><time>2026-05-01T09:35:03.998Z</time></trkpt><trkpt lat="58.04242321615642" lon="56.42957826236372"><ele>213.0</ele><time>2026-05-01T09:35:04.998Z</time></trkpt><trkpt lat="58.04235938332626" lon="56.42968817353121"><ele>213.0</ele><time>2026-05-01T09:35:05.998Z</time></trkpt><trkpt lat="58.04230290274765" lon="56.42978530805549"><ele>213.0</ele><time>2026-05-01T09:35:06.998Z</time></trkpt><trkpt lat="58.04224958351884" lon="56.42987745200202"><ele>213.0</ele><time>2026-05-01T09:35:07.998Z</time></trkpt><trkpt lat="58.042175425159854" lon="56.4299991901157"><ele>213.0</ele><time>2026-05-01T09:35:08.998Z</time></trkpt><trkpt lat="58.04205580579132" lon="56.430140565867156"><ele>213.0</ele><time>2026-05-01T09:35:10.998Z</time></trkpt><trkpt lat="58.04198028942545" lon="56.43022981826853"><ele>213.0</ele><time>2026-05-01T09:35:11.998Z</time></trkpt><trkpt lat="58.041918628797596" lon="56.43030269388169"><ele>213.0</ele><time>2026-05-01T09:35:12.998Z</time></trkpt><trkpt lat="58.0418170307209" lon="56.430422771616826"><ele>213.0</ele><time>2026-05-01T09:35:14.998Z</time></trkpt><trkpt lat="58.04172659117281" lon="56.430529661158225"><ele>213.0</ele><time>2026-05-01T09:35:16.998Z</time></trkpt><trkpt lat="58.04164964928079" lon="56.43062062423853"><ele>213.0</ele><time>2026-05-01T09:35:18.998Z</time></trkpt><trkpt lat="58.0415872865496" lon="56.43069457870991"><ele>214.16666666666666</ele><time>2026-05-01T09:35:19.998Z</time></trkpt><trkpt lat="58.04151720826301" lon="56.430777684286426"><ele>215.33333333333331</ele><time>2026-05-01T09:35:20.998Z</time></trkpt><trkpt lat="58.041450846101384" lon="56.43085638182363"><ele>216.5</ele><time>2026-05-01T09:35:22Z</time></trkpt><trkpt lat="58.04139017842891" lon="56.430928326856595"><ele>217.66666666666666</ele><time>2026-05-01T09:35:23Z</time></trkpt><trkpt lat="58.041321335935585" lon="56.431009965827265"><ele>218.83333333333331</ele><time>2026-05-01T09:35:24Z</time></trkpt><trkpt lat="58.04125265362177" lon="56.4310910620385"><ele>220.0</ele><time>2026-05-01T09:35:25Z</time></trkpt><trkpt lat="58.041173183441124" lon="56.431170515576454"><ele>220.0</ele><time>2026-05-01T09:35:26Z</time></trkpt><trkpt lat="58.041068370133125" lon="56.431259081151154"><ele>220.0</ele><time>2026-05-01T09:35:28Z</time></trkpt><trkpt lat="58.04100423396142" lon="56.43131372566311"><ele>220.0</ele><time>2026-05-01T09:35:29Z</time></trkpt><trkpt lat="58.04092204802771" lon="56.43138374944477"><ele>220.0</ele><time>2026-05-01T09:35:30Z</time></trkpt><trkpt lat="58.04082685554313" lon="56.43146389862183"><ele>220.0</ele><time>2026-05-01T09:35:31Z</time></trkpt><trkpt lat="58.04074221613614" lon="56.431535520963344"><ele>219.6</ele><time>2026-05-01T09:35:32Z</time></trkpt><trkpt lat="58.04066718398358" lon="56.431599215867664"><ele>219.2</ele><time>2026-05-01T09:35:33Z</time></trkpt><trkpt lat="58.040604631246396" lon="56.4316524735622"><ele>218.8</ele><time>2026-05-01T09:35:34Z</time></trkpt><trkpt lat="58.04050623388396" lon="56.43173630471646"><ele>218.4</ele><time>2026-05-01T09:35:36Z</time></trkpt><trkpt lat="58.040414334237305" lon="56.43181445176929"><ele>218.0</ele><time>2026-05-01T09:35:38Z</time></trkpt><trkpt lat="58.0402683650353" lon="56.431889796866464"><ele>218.00000000000003</ele><time>2026-05-01T09:35:40Z</time></trkpt><trkpt lat="58.04014533913384" lon="56.431942730973304"><ele>218.0</ele><time>2026-05-01T09:35:42Z</time></trkpt><trkpt lat="58.04008154734457" lon="56.431970168392304"><ele>218.0</ele><time>2026-05-01T09:35:43Z</time></trkpt><trkpt lat="58.04001264719651" lon="56.43200033945719"><ele>218.0</ele><time>2026-05-01T09:35:44Z</time></trkpt><trkpt lat="58.03993163914873" lon="56.43203549689727"><ele>218.00000000000003</ele><time>2026-05-01T09:35:45Z</time></trkpt><trkpt lat="58.03984301511075" lon="56.432073305977454"><ele>218.0</ele><time>2026-05-01T09:35:46Z</time></trkpt><trkpt lat="58.039752915190896" lon="56.432111952238884"><ele>217.60000000000002</ele><time>2026-05-01T09:35:47Z</time></trkpt><trkpt lat="58.0396546966611" lon="56.432154141270615"><ele>217.20000000000002</ele><time>2026-05-01T09:35:48Z</time></trkpt><trkpt lat="58.03954917534192" lon="56.43219917923782"><ele>216.8</ele><time>2026-05-01T09:35:49Z</time></trkpt><trkpt lat="58.0394506626993" lon="56.43224122578945"><ele>216.4</ele><time>2026-05-01T09:35:50Z</time></trkpt><trkpt lat="58.03936869755664" lon="56.43227613379552"><ele>216.0</ele><time>2026-05-01T09:35:51Z</time></trkpt><trkpt lat="58.039293925473196" lon="56.432307939843504"><ele>216.0</ele><time>2026-05-01T09:35:52Z</time></trkpt><trkpt lat="58.039228583884245" lon="56.432335734410096"><ele>216.0</ele><time>2026-05-01T09:35:53Z</time></trkpt><trkpt lat="58.03915750173013" lon="56.432366118597834"><ele>216.0</ele><time>2026-05-01T09:35:54Z</time></trkpt><trkpt lat="58.03906572947945" lon="56.4324054305134"><ele>216.0</ele><time>2026-05-01T09:35:55Z</time></trkpt><trkpt lat="58.03899442853596" lon="56.432435945696874"><ele>216.0</ele><time>2026-05-01T09:35:55.999Z</time></trkpt><trkpt lat="58.038932873741274" lon="56.43246202549924"><ele>216.0</ele><time>2026-05-01T09:35:56.999Z</time></trkpt><trkpt lat="58.03882074948319" lon="56.43251017375577"><ele>215.83333333333334</ele><time>2026-05-01T09:35:58.999Z</time></trkpt><trkpt lat="58.038737593438846" lon="56.43254577111548"><ele>215.66666666666669</ele><time>2026-05-01T09:36:00.999Z</time></trkpt><trkpt lat="58.038616553599695" lon="56.4325976291279"><ele>215.5</ele><time>2026-05-01T09:36:02.999Z</time></trkpt><trkpt lat="58.03854265725209" lon="56.43262931546379"><ele>215.33333333333334</ele><time>2026-05-01T09:36:03.999Z</time></trkpt><trkpt lat="58.03847024983996" lon="56.43266036332127"><ele>215.16666666666669</ele><time>2026-05-01T09:36:04.999Z</time></trkpt><trkpt lat="58.03839744249483" lon="56.43269121934777"><ele>215.0</ele><time>2026-05-01T09:36:05.999Z</time></trkpt><trkpt lat="58.03830788349764" lon="56.432729112939796"><ele>216.0</ele><time>2026-05-01T09:36:06.999Z</time></trkpt><trkpt lat="58.0381828367905" lon="56.43278252899039"><ele>217.0</ele><time>2026-05-01T09:36:07.999Z</time></trkpt><trkpt lat="58.038001854604225" lon="56.432860431884194"><ele>218.0</ele><time>2026-05-01T09:36:08.999Z</time></trkpt><trkpt lat="58.03781672000357" lon="56.43293960316787"><ele>218.0</ele><time>2026-05-01T09:36:09.999Z</time></trkpt><trkpt lat="58.03766968422519" lon="56.43300236962173"><ele>218.0</ele><time>2026-05-01T09:36:10.999Z</time></trkpt><trkpt lat="58.03753383233038" lon="56.4330603619334"><ele>218.0</ele><time>2026-05-01T09:36:11.999Z</time></trkpt><trkpt lat="58.03739809642188" lon="56.43311830474897"><ele>218.0</ele><time>2026-05-01T09:36:12.999Z</time></trkpt><trkpt lat="58.03728136013558" lon="56.43316769976577"><ele>218.00000000000003</ele><time>2026-05-01T09:36:13.999Z</time></trkpt><trkpt lat="58.037181735394775" lon="56.43320844755158"><ele>218.0</ele><time>2026-05-01T09:36:14.999Z</time></trkpt><trkpt lat="58.037093616533504" lon="56.43324181857655"><ele>218.0</ele><time>2026-05-01T09:36:15.999Z</time></trkpt><trkpt lat="58.03702994090089" lon="56.43326589256818"><ele>218.0</ele><time>2026-05-01T09:36:16.999Z</time></trkpt><trkpt lat="58.03691459513187" lon="56.43330950164872"><ele>218.00000000000003</ele><time>2026-05-01T09:36:18.999Z</time></trkpt><trkpt lat="58.03684635535915" lon="56.43333530122375"><ele>218.0</ele><time>2026-05-01T09:36:19.999Z</time></trkpt><trkpt lat="58.03676917709309" lon="56.433364520650755"><ele>218.00000000000003</ele><time>2026-05-01T09:36:20.999Z</time></trkpt><trkpt lat="58.03670274029461" lon="56.43338969502112"><ele>218.0</ele><time>2026-05-01T09:36:21.999Z</time></trkpt><trkpt lat="58.036618467121144" lon="56.43342162798765"><ele>218.0</ele><time>2026-05-01T09:36:23.999Z</time></trkpt><trkpt lat="58.036510032335684" lon="56.43346271631191"><ele>218.0</ele><time>2026-05-01T09:36:25.999Z</time></trkpt><trkpt lat="58.03643842411818" lon="56.433489850329934"><ele>218.00000000000003</ele><time>2026-05-01T09:36:26.999Z</time></trkpt><trkpt lat="58.036337458884" lon="56.43352912619571"><ele>218.0</ele><time>2026-05-01T09:36:28.999Z</time></trkpt><trkpt lat="58.036210094129316" lon="56.433576633327405"><ele>218.75</ele><time>2026-05-01T09:36:30.999Z</time></trkpt><trkpt lat="58.03610451865935" lon="56.43361697501476"><ele>219.5</ele><time>2026-05-01T09:36:31.999Z</time></trkpt><trkpt lat="58.035991690937486" lon="56.43365999023884"><ele>220.25</ele><time>2026-05-01T09:36:32.999Z</time></trkpt><trkpt lat="58.03585501789965" lon="56.43371173993902"><ele>221.0</ele><time>2026-05-01T09:36:33.999Z</time></trkpt><trkpt lat="58.035744314886216" lon="56.433753647517705"><ele>221.20000000000002</ele><time>2026-05-01T09:36:34.999Z</time></trkpt><trkpt lat="58.035654167325035" lon="56.43378777335144"><ele>221.40000000000003</ele><time>2026-05-01T09:36:35.999Z</time></trkpt><trkpt lat="58.03556802778001" lon="56.4338179634012"><ele>221.6</ele><time>2026-05-01T09:36:36.999Z</time></trkpt><trkpt lat="58.03545056225897" lon="56.43384219783927"><ele>221.8</ele><time>2026-05-01T09:36:38.999Z</time></trkpt><trkpt lat="58.03538065489011" lon="56.433856620539785"><ele>222.0</ele><time>2026-05-01T09:36:39.999Z</time></trkpt><trkpt lat="58.035270430829144" lon="56.4338793252433"><ele>221.2</ele><time>2026-05-01T09:36:41.999Z</time></trkpt><trkpt lat="58.03518998853159" lon="56.43389589330086"><ele>220.39999999999998</ele><time>2026-05-01T09:36:43.999Z</time></trkpt><trkpt lat="58.035086750832825" lon="56.433916317300834"><ele>219.60000000000002</ele><time>2026-05-01T09:36:45.999Z</time></trkpt><trkpt lat="58.03496370652914" lon="56.433932281207674"><ele>218.8</ele><time>2026-05-01T09:36:47.998Z</time></trkpt><trkpt lat="58.03489980630005" lon="56.43394030413907"><ele>218.0</ele><time>2026-05-01T09:36:48.998Z</time></trkpt><trkpt lat="58.03480382440983" lon="56.43395253330476"><ele>218.0</ele><time>2026-05-01T09:36:50.998Z</time></trkpt><trkpt lat="58.034743821124835" lon="56.433652457582966"><ele>218.0</ele><time>2026-05-01T09:36:51.998Z</time></trkpt><trkpt lat="58.03470045136733" lon="56.43396574129375"><ele>218.0</ele><time>2026-05-01T09:36:52.998Z</time></trkpt><trkpt lat="58.03455255695851" lon="56.433973138186495"><ele>218.00000000000003</ele><time>2026-05-01T09:36:54.998Z</time></trkpt><trkpt lat="58.03447037691395" lon="56.43397110003036"><ele>218.0</ele><time>2026-05-01T09:36:55.998Z</time></trkpt><trkpt lat="58.03438694598194" lon="56.43396902693643"><ele>218.0</ele><time>2026-05-01T09:36:56.998Z</time></trkpt><trkpt lat="58.03431768529166" lon="56.433966634406595"><ele>218.0</ele><time>2026-05-01T09:36:57.998Z</time></trkpt><trkpt lat="58.03418650709335" lon="56.43396281816395"><ele>218.00000000000003</ele><time>2026-05-01T09:36:59.998Z</time></trkpt><trkpt lat="58.03411384702824" lon="56.43396097400208"><ele>218.0</ele><time>2026-05-01T09:37:00.998Z</time></trkpt><trkpt lat="58.03401536536581" lon="56.43395846337719"><ele>217.0</ele><time>2026-05-01T09:37:01.998Z</time></trkpt><trkpt lat="58.03386564461726" lon="56.43395392127887"><ele>216.0</ele><time>2026-05-01T09:37:02.998Z</time></trkpt><trkpt lat="58.033638807588694" lon="56.43392286660638"><ele>215.0</ele><time>2026-05-01T09:37:03.998Z</time></trkpt><trkpt lat="58.03341495185844" lon="56.433870789830735"><ele>215.0</ele><time>2026-05-01T09:37:04.998Z</time></trkpt><trkpt lat="58.03322348415189" lon="56.433827469125525"><ele>215.0</ele><time>2026-05-01T09:37:05.998Z</time></trkpt><trkpt lat="58.03306597827833" lon="56.43379183245621"><ele>215.0</ele><time>2026-05-01T09:37:06.998Z</time></trkpt><trkpt lat="58.03290932926059" lon="56.43374981798414"><ele>215.0</ele><time>2026-05-01T09:37:07.998Z</time></trkpt><trkpt lat="58.032774374279946" lon="56.43370467907088"><ele>215.0</ele><time>2026-05-01T09:37:08.998Z</time></trkpt><trkpt lat="58.03262207182185" lon="56.43365483826646"><ele>215.0</ele><time>2026-05-01T09:37:09.998Z</time></trkpt><trkpt lat="58.032447642607295" lon="56.43358883107134"><ele>214.0</ele><time>2026-05-01T09:37:10.998Z</time></trkpt><trkpt lat="58.03229602418309" lon="56.433523977188436"><ele>213.0</ele><time>2026-05-01T09:37:11.998Z</time></trkpt><trkpt lat="58.032117677966376" lon="56.433447337294716"><ele>212.0</ele><time>2026-05-01T09:37:12.998Z</time></trkpt><trkpt lat="58.031968086904875" lon="56.43338305420263"><ele>212.0</ele><time>2026-05-01T09:37:13.998Z</time></trkpt><trkpt lat="58.031824833345695" lon="56.43330304812651"><ele>212.0</ele><time>2026-05-01T09:37:14.998Z</time></trkpt><trkpt lat="58.031702709269496" lon="56.43323096078462"><ele>212.0</ele><time>2026-05-01T09:37:15.998Z</time></trkpt><trkpt lat="58.03160342356556" lon="56.433171796423416"><ele>212.0</ele><time>2026-05-01T09:37:16.998Z</time></trkpt><trkpt lat="58.03150515416662" lon="56.43311453258242"><ele>211.50000000000003</ele><time>2026-05-01T09:37:17.998Z</time></trkpt><trkpt lat="58.0314126979088" lon="56.43305963290709"><ele>211.0</ele><time>2026-05-01T09:37:18.998Z</time></trkpt><trkpt lat="58.03132027410721" lon="56.4329942053489"><ele>210.5</ele><time>2026-05-01T09:37:19.998Z</time></trkpt><trkpt lat="58.03124821097776" lon="56.43293560094509"><ele>210.0</ele><time>2026-05-01T09:37:20.998Z</time></trkpt><trkpt lat="58.031190094347465" lon="56.43288805195467"><ele>209.50000000000003</ele><time>2026-05-01T09:37:21.998Z</time></trkpt><trkpt lat="58.03109180710355" lon="56.432807387690836"><ele>209.0</ele><time>2026-05-01T09:37:23.998Z</time></trkpt><trkpt lat="58.03099426221389" lon="56.43272767725523"><ele>209.00000000000003</ele><time>2026-05-01T09:37:25.998Z</time></trkpt><trkpt lat="58.03092857096512" lon="56.43267399553892"><ele>209.0</ele><time>2026-05-01T09:37:29Z</time></trkpt><trkpt lat="58.030867949066476" lon="56.43262455638195"><ele>209.0</ele><time>2026-05-01T09:37:35Z</time></trkpt><trkpt lat="58.03079884059972" lon="56.43256835072084"><ele>209.0</ele><time>2026-05-01T09:37:38Z</time></trkpt><trkpt lat="58.03081471096275" lon="56.43230424473954"><ele>209.00000000000003</ele><time>2026-05-01T09:37:55Z</time></trkpt><trkpt lat="58.03074797924911" lon="56.43226966941812"><ele>209.0</ele><time>2026-05-01T09:38:29.999Z</time></trkpt><trkpt lat="58.030651327857676" lon="56.43218635353873"><ele>209.0</ele><time>2026-05-01T09:38:31.999Z</time></trkpt><trkpt lat="58.03056811528229" lon="56.432106409181486"><ele>209.0</ele><time>2026-05-01T09:38:32.999Z</time></trkpt><trkpt lat="58.03048227547498" lon="56.43202152769548"><ele>209.0</ele><time>2026-05-01T09:38:33.999Z</time></trkpt><trkpt lat="58.0303572210893" lon="56.432207448097834"><ele>209.0</ele><time>2026-05-01T09:38:34.999Z</time></trkpt><trkpt lat="58.03028992533761" lon="56.432152530310496"><ele>209.0</ele><time>2026-05-01T09:38:35.999Z</time></trkpt><trkpt lat="58.030214495690075" lon="56.43209078645206"><ele>209.00000000000003</ele><time>2026-05-01T09:38:36.999Z</time></trkpt><trkpt lat="58.03015220177189" lon="56.43204054591391"><ele>209.0</ele><time>2026-05-01T09:38:37.999Z</time></trkpt><trkpt lat="58.030059835718575" lon="56.43195754662164"><ele>209.0</ele><time>2026-05-01T09:38:38.999Z</time></trkpt><trkpt lat="58.02999911686969" lon="56.43188461343938"><ele>209.0</ele><time>2026-05-01T09:38:39.999Z</time></trkpt><trkpt lat="58.02994120674994" lon="56.43181542424754"><ele>209.00000000000003</ele><time>2026-05-01T09:38:40.999Z</time></trkpt><trkpt lat="58.029871206688554" lon="56.431730874870226"><ele>209.0</ele><time>2026-05-01T09:38:41.999Z</time></trkpt><trkpt lat="58.02979221339245" lon="56.431636017502626"><ele>208.75</ele><time>2026-05-01T09:38:42.999Z</time></trkpt><trkpt lat="58.029694554517945" lon="56.43151908592073"><ele>208.5</ele><time>2026-05-01T09:38:43.999Z</time></trkpt><trkpt lat="58.02957019672371" lon="56.43137006856927"><ele>208.25</ele><time>2026-05-01T09:38:44.999Z</time></trkpt><trkpt lat="58.029456667497705" lon="56.43123404062089"><ele>208.0</ele><time>2026-05-01T09:38:45.999Z</time></trkpt><trkpt lat="58.02937296909188" lon="56.431133311640345"><ele>208.0</ele><time>2026-05-01T09:38:46.999Z</time></trkpt><trkpt lat="58.029294411779155" lon="56.4310389410751"><ele>208.0</ele><time>2026-05-01T09:38:47.999Z</time></trkpt><trkpt lat="58.029196081046905" lon="56.43092019747274"><ele>208.0</ele><time>2026-05-01T09:38:48.999Z</time></trkpt><trkpt lat="58.02909215115933" lon="56.43079531441749"><ele>208.0</ele><time>2026-05-01T09:38:49.999Z</time></trkpt><trkpt lat="58.02898910295273" lon="56.43067204479961"><ele>208.0</ele><time>2026-05-01T09:38:50.999Z</time></trkpt><trkpt lat="58.02884160985097" lon="56.43048137161018"><ele>208.0</ele><time>2026-05-01T09:38:51.999Z</time></trkpt><trkpt lat="58.028724691324435" lon="56.43030197263038"><ele>208.0</ele><time>2026-05-01T09:38:52.999Z</time></trkpt><trkpt lat="58.02859192050383" lon="56.430099277052975"><ele>208.0</ele><time>2026-05-01T09:38:53.998Z</time></trkpt><trkpt lat="58.02842507318233" lon="56.429843466323106"><ele>208.0</ele><time>2026-05-01T09:38:54.998Z</time></trkpt><trkpt lat="58.02824027340318" lon="56.42956054535619"><ele>208.33333333333331</ele><time>2026-05-01T09:38:55.998Z</time></trkpt><trkpt lat="58.02807910360659" lon="56.429313050305254"><ele>208.66666666666669</ele><time>2026-05-01T09:38:56.998Z</time></trkpt><trkpt lat="58.027947838847126" lon="56.42911213818482"><ele>209.0</ele><time>2026-05-01T09:38:57.998Z</time></trkpt><trkpt lat="58.027815802681395" lon="56.42891012911886"><ele>209.66666666666669</ele><time>2026-05-01T09:38:58.998Z</time></trkpt><trkpt lat="58.027656834783905" lon="56.42866738075339"><ele>210.33333333333331</ele><time>2026-05-01T09:38:59.998Z</time></trkpt><trkpt lat="58.02750860507138" lon="56.42844167949352"><ele>211.0</ele><time>2026-05-01T09:39:00.998Z</time></trkpt><trkpt lat="58.02737795238896" lon="56.42824059392494"><ele>211.33333333333331</ele><time>2026-05-01T09:39:01.998Z</time></trkpt><trkpt lat="58.027267380941055" lon="56.428070847910334"><ele>211.66666666666669</ele><time>2026-05-01T09:39:02.998Z</time></trkpt><trkpt lat="58.02715730233217" lon="56.427902421548396"><ele>212.0</ele><time>2026-05-01T09:39:03.998Z</time></trkpt><trkpt lat="58.02702641728233" lon="56.42770216009649"><ele>212.0</ele><time>2026-05-01T09:39:04.998Z</time></trkpt><trkpt lat="58.02690520001812" lon="56.42751669066535"><ele>212.0</ele><time>2026-05-01T09:39:05.998Z</time></trkpt><trkpt lat="58.02680395866548" lon="56.42736149273725"><ele>212.0</ele><time>2026-05-01T09:39:06.998Z</time></trkpt><trkpt lat="58.026719215677005" lon="56.42723158432519"><ele>212.0</ele><time>2026-05-01T09:39:07.998Z</time></trkpt><trkpt lat="58.02664427573249" lon="56.42711725966056"><ele>212.16666666666669</ele><time>2026-05-01T09:39:08.998Z</time></trkpt><trkpt lat="58.02658311364873" lon="56.427023946120386"><ele>212.33333333333334</ele><time>2026-05-01T09:39:09.998Z</time></trkpt><trkpt lat="58.02652704983009" lon="56.42693791875368"><ele>212.5</ele><time>2026-05-01T09:39:10.998Z</time></trkpt><trkpt lat="58.026447091085544" lon="56.42681495337159"><ele>212.66666666666669</ele><time>2026-05-01T09:39:12.998Z</time></trkpt><trkpt lat="58.0263849634568" lon="56.426719880141036"><ele>212.83333333333334</ele><time>2026-05-01T09:39:14.998Z</time></trkpt><trkpt lat="58.02630866567538" lon="56.426603416480944"><ele>213.0</ele><time>2026-05-01T09:39:16.998Z</time></trkpt><trkpt lat="58.02625397405629" lon="56.426519957981355"><ele>213.0</ele><time>2026-05-01T09:39:19.998Z</time></trkpt><trkpt lat="58.02650129986857" lon="56.42613771673818"><ele>213.0</ele><time>2026-05-01T09:39:21.998Z</time></trkpt><trkpt lat="58.02656035731676" lon="56.42588223862755"><ele>213.0</ele><time>2026-05-01T09:39:23.998Z</time></trkpt><trkpt lat="58.02645801830056" lon="56.42581748644047"><ele>213.0</ele><time>2026-05-01T09:39:35Z</time></trkpt><trkpt lat="58.02648516210569" lon="56.4256433127997"><ele>213.0</ele><time>2026-05-01T09:39:37Z</time></trkpt><trkpt lat="58.02651780313695" lon="56.425488744713434"><ele>213.0</ele><time>2026-05-01T09:39:38Z</time></trkpt><trkpt lat="58.026547344976095" lon="56.42529361932748"><ele>213.0</ele><time>2026-05-01T09:39:39Z</time></trkpt><trkpt lat="58.02660012723558" lon="56.425081131878216"><ele>213.2</ele><time>2026-05-01T09:39:40Z</time></trkpt><trkpt lat="58.02662336480506" lon="56.42490051703062"><ele>213.4</ele><time>2026-05-01T09:39:41Z</time></trkpt><trkpt lat="58.02666625102032" lon="56.42470028864968"><ele>213.59999999999997</ele><time>2026-05-01T09:39:42Z</time></trkpt><trkpt lat="58.02670251192696" lon="56.42453030470286"><ele>213.79999999999998</ele><time>2026-05-01T09:39:43Z</time></trkpt><trkpt lat="58.026737419395225" lon="56.42436624029752"><ele>214.0</ele><time>2026-05-01T09:39:44Z</time></trkpt><trkpt lat="58.0267465864958" lon="56.42419197548666"><ele>213.99999999999997</ele><time>2026-05-01T09:39:45Z</time></trkpt><trkpt lat="58.02676528444612" lon="56.424036305659904"><ele>214.0</ele><time>2026-05-01T09:39:46Z</time></trkpt><trkpt lat="58.026783875552105" lon="56.42388156426906"><ele>214.0</ele><time>2026-05-01T09:39:47Z</time></trkpt><trkpt lat="58.026802650577174" lon="56.42372750556637"><ele>214.0</ele><time>2026-05-01T09:39:48Z</time></trkpt><trkpt lat="58.02682202934554" lon="56.42356895241304"><ele>213.99999999999997</ele><time>2026-05-01T09:39:49Z</time></trkpt><trkpt lat="58.02683848239828" lon="56.42343587363087"><ele>214.0</ele><time>2026-05-01T09:39:50Z</time></trkpt><trkpt lat="58.026854072437104" lon="56.423308369964694"><ele>214.2</ele><time>2026-05-01T09:39:51Z</time></trkpt><trkpt lat="58.02685780095024" lon="56.42316175624756"><ele>214.39999999999998</ele><time>2026-05-01T09:39:52Z</time></trkpt><trkpt lat="58.02691182597274" lon="56.423006233380846"><ele>214.6</ele><time>2026-05-01T09:39:53Z</time></trkpt><trkpt lat="58.02697464163673" lon="56.42282025245367"><ele>214.8</ele><time>2026-05-01T09:39:54Z</time></trkpt><trkpt lat="58.02705380989859" lon="56.422683983890934"><ele>215.0</ele><time>2026-05-01T09:39:55Z</time></trkpt><trkpt lat="58.02710831576428" lon="56.42255631731515"><ele>215.00000000000003</ele><time>2026-05-01T09:39:56Z</time></trkpt><trkpt lat="58.02715687612679" lon="56.42244257608801"><ele>215.0</ele><time>2026-05-01T09:39:57Z</time></trkpt><trkpt lat="58.02720885189765" lon="56.422322511463356"><ele>215.0</ele><time>2026-05-01T09:39:58Z</time></trkpt><trkpt lat="58.027255100163224" lon="56.42221431512591"><ele>215.0</ele><time>2026-05-01T09:39:59Z</time></trkpt><trkpt lat="58.027305855448674" lon="56.42209558101242"><ele>215.00000000000003</ele><time>2026-05-01T09:40:00Z</time></trkpt><trkpt lat="58.02736358433867" lon="56.42202864118848"><ele>215.0</ele><time>2026-05-01T09:40:01Z</time></trkpt><trkpt lat="58.02741728347374" lon="56.42193949021652"><ele>213.8</ele><time>2026-05-01T09:40:02Z</time></trkpt><trkpt lat="58.027496498412454" lon="56.42180811608697"><ele>212.6</ele><time>2026-05-01T09:40:03Z</time></trkpt><trkpt lat="58.027584627145146" lon="56.42166199405115"><ele>211.39999999999998</ele><time>2026-05-01T09:40:04Z</time></trkpt><trkpt lat="58.027675919141444" lon="56.42151076635195"><ele>210.2</ele><time>2026-05-01T09:40:05Z</time></trkpt><trkpt lat="58.02774637640552" lon="56.42139442561553"><ele>209.0</ele><time>2026-05-01T09:40:06Z</time></trkpt><trkpt lat="58.02780067219799" lon="56.421265499712675"><ele>208.6</ele><time>2026-05-01T09:40:06.999Z</time></trkpt><trkpt lat="58.027877578301315" lon="56.42117749877041"><ele>208.2</ele><time>2026-05-01T09:40:07.999Z</time></trkpt><trkpt lat="58.02793145583616" lon="56.42106833802214"><ele>207.79999999999998</ele><time>2026-05-01T09:40:08.999Z</time></trkpt><trkpt lat="58.02799262075549" lon="56.42096674611668"><ele>207.39999999999998</ele><time>2026-05-01T09:40:44.999Z</time></trkpt><trkpt lat="58.028072160481734" lon="56.420799571504475"><ele>207.0</ele><time>2026-05-01T09:40:46.999Z</time></trkpt><trkpt lat="58.02813210374699" lon="56.42068182291346"><ele>207.0</ele><time>2026-05-01T09:40:47.999Z</time></trkpt><trkpt lat="58.02818690948571" lon="56.42056202179655"><ele>207.0</ele><time>2026-05-01T09:40:48.999Z</time></trkpt><trkpt lat="58.02823853761652" lon="56.42045347288104"><ele>207.0</ele><time>2026-05-01T09:40:49.999Z</time></trkpt><trkpt lat="58.02829248576794" lon="56.42034686611219"><ele>207.0</ele><time>2026-05-01T09:40:50.999Z</time></trkpt><trkpt lat="58.02833930490786" lon="56.42023597868537"><ele>207.0</ele><time>2026-05-01T09:40:51.999Z</time></trkpt><trkpt lat="58.02839000966357" lon="56.420110736884574"><ele>207.0</ele><time>2026-05-01T09:40:52.999Z</time></trkpt><trkpt lat="58.02846485518198" lon="56.419997800535455"><ele>205.66666666666666</ele><time>2026-05-01T09:40:53.999Z</time></trkpt><trkpt lat="58.02854103756897" lon="56.41983672083137"><ele>204.33333333333331</ele><time>2026-05-01T09:40:54.999Z</time></trkpt><trkpt lat="58.02860666841428" lon="56.419698496714275"><ele>203.0</ele><time>2026-05-01T09:40:55.999Z</time></trkpt><trkpt lat="58.02866161895867" lon="56.41958293897223"><ele>201.66666666666666</ele><time>2026-05-01T09:40:56.999Z</time></trkpt><trkpt lat="58.02870880393498" lon="56.419483712447956"><ele>200.33333333333331</ele><time>2026-05-01T09:40:57.999Z</time></trkpt><trkpt lat="58.02875326116086" lon="56.41939022317437"><ele>199.0</ele><time>2026-05-01T09:40:58.998Z</time></trkpt><trkpt lat="58.02876979608651" lon="56.419249885377795"><ele>199.0</ele><time>2026-05-01T09:40:59.998Z</time></trkpt><trkpt lat="58.028792294133915" lon="56.419110956936244"><ele>199.0</ele><time>2026-05-01T09:41:00.998Z</time></trkpt><trkpt lat="58.028810720695695" lon="56.418941028050995"><ele>199.0</ele><time>2026-05-01T09:41:01.998Z</time></trkpt><trkpt lat="58.02882594415834" lon="56.41870710771581"><ele>199.0</ele><time>2026-05-01T09:41:02.998Z</time></trkpt><trkpt lat="58.02884271033286" lon="56.41849358655397"><ele>199.0</ele><time>2026-05-01T09:41:03.998Z</time></trkpt><trkpt lat="58.028839616267916" lon="56.41829596452503"><ele>198.79999999999998</ele><time>2026-05-01T09:41:04.998Z</time></trkpt><trkpt lat="58.028831990101864" lon="56.418097439505644"><ele>198.6</ele><time>2026-05-01T09:41:05.998Z</time></trkpt><trkpt lat="58.028858941953644" lon="56.41789439729345"><ele>198.4</ele><time>2026-05-01T09:41:06.998Z</time></trkpt><trkpt lat="58.02886234652677" lon="56.417672634676244"><ele>198.2</ele><time>2026-05-01T09:41:07.998Z</time></trkpt><trkpt lat="58.028897191068026" lon="56.41749405601491"><ele>198.0</ele><time>2026-05-01T09:41:08.998Z</time></trkpt><trkpt lat="58.028906446542855" lon="56.41737224384407"><ele>197.66666666666666</ele><time>2026-05-01T09:41:09.998Z</time></trkpt><trkpt lat="58.02887467910405" lon="56.41720285302951"><ele>197.33333333333331</ele><time>2026-05-01T09:41:11.998Z</time></trkpt><trkpt lat="58.028864880776396" lon="56.41707749197747"><ele>197.0</ele><time>2026-05-01T09:41:12.998Z</time></trkpt><trkpt lat="58.02884704107523" lon="56.41694433129322"><ele>196.66666666666666</ele><time>2026-05-01T09:41:13.998Z</time></trkpt><trkpt lat="58.028743585505914" lon="56.41679414964664"><ele>196.33333333333331</ele><time>2026-05-01T09:41:15.998Z</time></trkpt><trkpt lat="58.02867872660547" lon="56.41671191228872"><ele>196.0</ele><time>2026-05-01T09:41:16.998Z</time></trkpt><trkpt lat="58.02864033897169" lon="56.41655835276949"><ele>195.60000000000002</ele><time>2026-05-01T09:41:17.998Z</time></trkpt><trkpt lat="58.028651581408106" lon="56.4163782667535"><ele>195.2</ele><time>2026-05-01T09:41:18.998Z</time></trkpt><trkpt lat="58.02866759671519" lon="56.41622779636161"><ele>194.8</ele><time>2026-05-01T09:41:19.998Z</time></trkpt><trkpt lat="58.028675564614886" lon="56.41610233830987"><ele>194.39999999999998</ele><time>2026-05-01T09:41:20.998Z</time></trkpt><trkpt lat="58.0286583309236" lon="56.41585211035505"><ele>194.0</ele><time>2026-05-01T09:41:22.998Z</time></trkpt><trkpt lat="58.02873727061361" lon="56.415722260645076"><ele>193.6</ele><time>2026-05-01T09:41:24.998Z</time></trkpt><trkpt lat="58.02885422507255" lon="56.415739461592395"><ele>193.2</ele><time>2026-05-01T09:41:26.998Z</time></trkpt><trkpt lat="58.028943607194705" lon="56.415580962819945"><ele>192.79999999999998</ele><time>2026-05-01T09:41:28.998Z</time></trkpt><trkpt lat="58.028961769160134" lon="56.41544363404494"><ele>192.39999999999998</ele><time>2026-05-01T09:41:29.998Z</time></trkpt><trkpt lat="58.02895885663391" lon="56.41532238469253"><ele>192.0</ele><time>2026-05-01T09:41:30.998Z</time></trkpt><trkpt lat="58.028948171063135" lon="56.41513549857775"><ele>191.66666666666666</ele><time>2026-05-01T09:41:32.998Z</time></trkpt><trkpt lat="58.02902331217897" lon="56.41498401075149"><ele>191.33333333333334</ele><time>2026-05-01T09:41:34.998Z</time></trkpt><trkpt lat="58.029145051639404" lon="56.41496384469398"><ele>191.0</ele><time>2026-05-01T09:41:36.998Z</time></trkpt><trkpt lat="58.02921236499541" lon="56.4149715123401"><ele>190.66666666666669</ele><time>2026-05-01T09:41:37.998Z</time></trkpt><trkpt lat="58.02927690438447" lon="56.41496379166798"><ele>190.33333333333334</ele><time>2026-05-01T09:41:38.998Z</time></trkpt><trkpt lat="58.029356718187444" lon="56.41494116960201"><ele>190.0</ele><time>2026-05-01T09:41:40Z</time></trkpt><trkpt lat="58.029447305829166" lon="56.41492296011979"><ele>190.0</ele><time>2026-05-01T09:41:41Z</time></trkpt><trkpt lat="58.02952012106818" lon="56.414910020256706"><ele>190.0</ele><time>2026-05-01T09:41:42Z</time></trkpt><trkpt lat="58.02958648151493" lon="56.41489568606631"><ele>190.0</ele><time>2026-05-01T09:41:43Z</time></trkpt><trkpt lat="58.029657581709564" lon="56.41488762325709"><ele>190.0</ele><time>2026-05-01T09:41:44Z</time></trkpt><trkpt lat="58.02977053660532" lon="56.41487110183996"><ele>190.0</ele><time>2026-05-01T09:41:46Z</time></trkpt><trkpt lat="58.02985573444149" lon="56.41480559265555"><ele>190.0</ele><time>2026-05-01T09:41:48Z</time></trkpt><trkpt lat="58.02991987396013" lon="56.41470151531406"><ele>190.0</ele><time>2026-05-01T09:41:50Z</time></trkpt><trkpt lat="58.02996604444634" lon="56.414577908270836"><ele>190.0</ele><time>2026-05-01T09:41:52Z</time></trkpt><trkpt lat="58.03004427848629" lon="56.41450840842142"><ele>190.0</ele><time>2026-05-01T09:41:55Z</time></trkpt><trkpt lat="58.03011804690471" lon="56.414512522391725"><ele>190.0</ele><time>2026-05-01T09:41:58Z</time></trkpt><trkpt lat="58.030021389063464" lon="56.414490949210794"><ele>190.0</ele><time>2026-05-01T09:42:24.999Z</time></trkpt><trkpt lat="58.029942100793534" lon="56.414583235857386"><ele>190.0</ele><time>2026-05-01T09:42:26.999Z</time></trkpt><trkpt lat="58.02988924799988" lon="56.41470575049203"><ele>190.0</ele><time>2026-05-01T09:42:28.999Z</time></trkpt><trkpt lat="58.02980939775365" lon="56.41482185895416"><ele>190.0</ele><time>2026-05-01T09:42:30.999Z</time></trkpt><trkpt lat="58.029743860173426" lon="56.4148477464954"><ele>190.0</ele><time>2026-05-01T09:42:31.999Z</time></trkpt><trkpt lat="58.029646045126746" lon="56.4148803178878"><ele>190.0</ele><time>2026-05-01T09:42:32.999Z</time></trkpt><trkpt lat="58.02953046806271" lon="56.41490179911281"><ele>190.0</ele><time>2026-05-01T09:42:33.999Z</time></trkpt><trkpt lat="58.0294195780852" lon="56.414896313826986"><ele>190.0</ele><time>2026-05-01T09:42:34.999Z</time></trkpt><trkpt lat="58.029331061981345" lon="56.41489452226808"><ele>190.0</ele><time>2026-05-01T09:42:35.999Z</time></trkpt><trkpt lat="58.029248375541954" lon="56.41491047494929"><ele>190.0</ele><time>2026-05-01T09:42:36.999Z</time></trkpt><trkpt lat="58.029173982025" lon="56.414939386399624"><ele>190.0</ele><time>2026-05-01T09:42:37.999Z</time></trkpt><trkpt lat="58.02909255179637" lon="56.414945647535674"><ele>190.0</ele><time>2026-05-01T09:42:38.999Z</time></trkpt><trkpt lat="58.02902148422855" lon="56.4149498808271"><ele>190.0</ele><time>2026-05-01T09:42:39.999Z</time></trkpt><trkpt lat="58.02896262656035" lon="56.41500901654015"><ele>190.0</ele><time>2026-05-01T09:42:40.999Z</time></trkpt><trkpt lat="58.0289377847822" lon="56.41512704287372"><ele>190.0</ele><time>2026-05-01T09:42:41.999Z</time></trkpt><trkpt lat="58.02893069003794" lon="56.41524981518261"><ele>190.0</ele><time>2026-05-01T09:42:42.999Z</time></trkpt><trkpt lat="58.02893360044295" lon="56.41538716088291"><ele>190.0</ele><time>2026-05-01T09:42:43.999Z</time></trkpt><trkpt lat="58.028940466046436" lon="56.41552565606146"><ele>190.0</ele><time>2026-05-01T09:42:44.999Z</time></trkpt><trkpt lat="58.0288773944949" lon="56.41570733010702"><ele>190.0</ele><time>2026-05-01T09:42:46.999Z</time></trkpt><trkpt lat="58.02880773832529" lon="56.41574198415734"><ele>190.4</ele><time>2026-05-01T09:42:47.999Z</time></trkpt><trkpt lat="58.02873787499748" lon="56.41575380351654"><ele>190.8</ele><time>2026-05-01T09:42:48.999Z</time></trkpt><trkpt lat="58.02864900837715" lon="56.41586429917706"><ele>191.2</ele><time>2026-05-01T09:42:50.999Z</time></trkpt><trkpt lat="58.0286392071313" lon="56.416014409655205"><ele>191.6</ele><time>2026-05-01T09:42:51.999Z</time></trkpt><trkpt lat="58.02864798196104" lon="56.416189762181645"><ele>192.0</ele><time>2026-05-01T09:42:52.999Z</time></trkpt><trkpt lat="58.02866932223067" lon="56.41637587318771"><ele>192.33333333333334</ele><time>2026-05-01T09:42:53.999Z</time></trkpt><trkpt lat="58.02867482356301" lon="56.41654594101872"><ele>192.66666666666669</ele><time>2026-05-01T09:42:54.999Z</time></trkpt><trkpt lat="58.02867703991483" lon="56.416685521405576"><ele>193.0</ele><time>2026-05-01T09:42:55.999Z</time></trkpt><trkpt lat="58.02872023895021" lon="56.416828495482"><ele>193.33333333333334</ele><time>2026-05-01T09:42:56.999Z</time></trkpt><trkpt lat="58.02878926900372" lon="56.416962126442954"><ele>193.66666666666669</ele><time>2026-05-01T09:42:57.999Z</time></trkpt><trkpt lat="58.02884198932329" lon="56.417065521013186"><ele>194.0</ele><time>2026-05-01T09:42:58.999Z</time></trkpt><trkpt lat="58.02886701399" lon="56.41718417939021"><ele>194.39999999999998</ele><time>2026-05-01T09:42:59.999Z</time></trkpt><trkpt lat="58.02886822304352" lon="56.41734257809049"><ele>194.8</ele><time>2026-05-01T09:43:00.999Z</time></trkpt><trkpt lat="58.028864418889526" lon="56.41753528676574"><ele>195.2</ele><time>2026-05-01T09:43:01.999Z</time></trkpt><trkpt lat="58.0288355694222" lon="56.417719250870356"><ele>195.60000000000002</ele><time>2026-05-01T09:43:02.998Z</time></trkpt><trkpt lat="58.02882460727251" lon="56.41791047950858"><ele>196.0</ele><time>2026-05-01T09:43:03.998Z</time></trkpt><trkpt lat="58.02882854418353" lon="56.41810036536448"><ele>196.4</ele><time>2026-05-01T09:43:04.998Z</time></trkpt><trkpt lat="58.02879938527126" lon="56.41829328992531"><ele>196.8</ele><time>2026-05-01T09:43:05.998Z</time></trkpt><trkpt lat="58.028789806548524" lon="56.41850773133817"><ele>197.20000000000002</ele><time>2026-05-01T09:43:06.998Z</time></trkpt><trkpt lat="58.02877945881197" lon="56.41871154104135"><ele>197.60000000000002</ele><time>2026-05-01T09:43:07.998Z</time></trkpt><trkpt lat="58.028775313456364" lon="56.41890892300174"><ele>198.0</ele><time>2026-05-01T09:43:08.998Z</time></trkpt><trkpt lat="58.02877637009013" lon="56.41907849953695"><ele>198.0</ele><time>2026-05-01T09:43:09.998Z</time></trkpt><trkpt lat="58.0287602347924" lon="56.41922355221743"><ele>198.0</ele><time>2026-05-01T09:43:10.998Z</time></trkpt><trkpt lat="58.02873440115542" lon="56.41935215747089"><ele>198.0</ele><time>2026-05-01T09:43:11.998Z</time></trkpt><trkpt lat="58.028681942473355" lon="56.419482641785"><ele>198.0</ele><time>2026-05-01T09:43:12.998Z</time></trkpt><trkpt lat="58.02861173293972" lon="56.41960771142576"><ele>198.0</ele><time>2026-05-01T09:43:13.998Z</time></trkpt><trkpt lat="58.02853896807561" lon="56.41972916765753"><ele>198.0</ele><time>2026-05-01T09:43:14.998Z</time></trkpt><trkpt lat="58.02848591173169" lon="56.419851592465974"><ele>198.0</ele><time>2026-05-01T09:43:15.998Z</time></trkpt><trkpt lat="58.02844535747641" lon="56.41996789063538"><ele>198.0</ele><time>2026-05-01T09:43:16.998Z</time></trkpt><trkpt lat="58.02838716644332" lon="56.42009200140045"><ele>198.0</ele><time>2026-05-01T09:43:17.998Z</time></trkpt><trkpt lat="58.02833005596268" lon="56.42021573200639"><ele>198.0</ele><time>2026-05-01T09:43:18.998Z</time></trkpt><trkpt lat="58.02827335017729" lon="56.420301361950074"><ele>198.0</ele><time>2026-05-01T09:43:19.998Z</time></trkpt><trkpt lat="58.0282142933595" lon="56.42038696291636"><ele>198.0</ele><time>2026-05-01T09:43:20.998Z</time></trkpt><trkpt lat="58.02816465433522" lon="56.4205071466572"><ele>199.5</ele><time>2026-05-01T09:43:21.998Z</time></trkpt><trkpt lat="58.02812523368994" lon="56.42065707249826"><ele>201.0</ele><time>2026-05-01T09:43:22.998Z</time></trkpt><trkpt lat="58.02806528330294" lon="56.42074355097965"><ele>202.5</ele><time>2026-05-01T09:43:23.998Z</time></trkpt><trkpt lat="58.028017325864" lon="56.42088844476362"><ele>204.0</ele><time>2026-05-01T09:43:24.998Z</time></trkpt><trkpt lat="58.02793792045941" lon="56.4210039675185"><ele>205.5</ele><time>2026-05-01T09:43:25.998Z</time></trkpt><trkpt lat="58.027885644649466" lon="56.42110734433071"><ele>207.0</ele><time>2026-05-01T09:43:26.998Z</time></trkpt><trkpt lat="58.027837776503176" lon="56.421193655658925"><ele>207.0</ele><time>2026-05-01T09:43:27.998Z</time></trkpt><trkpt lat="58.02777905251666" lon="56.42129176448293"><ele>207.0</ele><time>2026-05-01T09:43:28.998Z</time></trkpt><trkpt lat="58.02770588544155" lon="56.421394437452676"><ele>207.0</ele><time>2026-05-01T09:43:29.998Z</time></trkpt><trkpt lat="58.027617518171816" lon="56.421505731249"><ele>207.0</ele><time>2026-05-01T09:43:30.998Z</time></trkpt><trkpt lat="58.027530722007036" lon="56.42162128261056"><ele>207.0</ele><time>2026-05-01T09:43:31.998Z</time></trkpt><trkpt lat="58.02746097447674" lon="56.42172609922486"><ele>208.6</ele><time>2026-05-01T09:43:32.998Z</time></trkpt><trkpt lat="58.027402689295954" lon="56.42185941973381"><ele>210.2</ele><time>2026-05-01T09:43:33.998Z</time></trkpt><trkpt lat="58.027333297618" lon="56.42197462309546"><ele>211.8</ele><time>2026-05-01T09:43:34.998Z</time></trkpt><trkpt lat="58.02726734964954" lon="56.422083552249674"><ele>213.4</ele><time>2026-05-01T09:43:35.998Z</time></trkpt><trkpt lat="58.02719419050968" lon="56.42222231918027"><ele>215.0</ele><time>2026-05-01T09:43:37.998Z</time></trkpt><trkpt lat="58.02714762971082" lon="56.42236956242398"><ele>215.00000000000003</ele><time>2026-05-01T09:43:38.998Z</time></trkpt><trkpt lat="58.027096290925016" lon="56.422467394296405"><ele>215.0</ele><time>2026-05-01T09:43:39.998Z</time></trkpt><trkpt lat="58.02705371827389" lon="56.42259401315256"><ele>215.0</ele><time>2026-05-01T09:43:40.998Z</time></trkpt><trkpt lat="58.027009303720575" lon="56.42273546003626"><ele>215.0</ele><time>2026-05-01T09:43:41.998Z</time></trkpt><trkpt lat="58.02693541253643" lon="56.42286004308129"><ele>215.00000000000003</ele><time>2026-05-01T09:43:42.998Z</time></trkpt><trkpt lat="58.02688689967436" lon="56.422973347737795"><ele>215.0</ele><time>2026-05-01T09:43:43.998Z</time></trkpt><trkpt lat="58.0268407029325" lon="56.42308158505945"><ele>215.00000000000003</ele><time>2026-05-01T09:43:44.998Z</time></trkpt><trkpt lat="58.02678764231649" lon="56.423205896368515"><ele>215.0</ele><time>2026-05-01T09:43:46Z</time></trkpt><trkpt lat="58.02680258167225" lon="56.423381666616656"><ele>215.0</ele><time>2026-05-01T09:43:47Z</time></trkpt><trkpt lat="58.026784866026134" lon="56.42352437559107"><ele>215.0</ele><time>2026-05-01T09:43:48Z</time></trkpt><trkpt lat="58.02676676945986" lon="56.42367243841953"><ele>215.00000000000003</ele><time>2026-05-01T09:43:49Z</time></trkpt><trkpt lat="58.026747562717674" lon="56.42382986851664"><ele>215.0</ele><time>2026-05-01T09:43:50Z</time></trkpt><trkpt lat="58.02671699800195" lon="56.42398790243251"><ele>214.83333333333334</ele><time>2026-05-01T09:43:51Z</time></trkpt><trkpt lat="58.02671909546653" lon="56.42413833698882"><ele>214.66666666666669</ele><time>2026-05-01T09:43:52Z</time></trkpt><trkpt lat="58.02669941997161" lon="56.42429884664936"><ele>214.5</ele><time>2026-05-01T09:43:53Z</time></trkpt><trkpt lat="58.02668068848249" lon="56.42445199517184"><ele>214.33333333333331</ele><time>2026-05-01T09:43:54Z</time></trkpt><trkpt lat="58.026650714620565" lon="56.42460990569661"><ele>214.16666666666666</ele><time>2026-05-01T09:43:55Z</time></trkpt><trkpt lat="58.02659641428809" lon="56.42478342814124"><ele>214.0</ele><time>2026-05-01T09:43:56Z</time></trkpt><trkpt lat="58.02657174001961" lon="56.42493826339799"><ele>213.83333333333331</ele><time>2026-05-01T09:43:57Z</time></trkpt><trkpt lat="58.0265619464728" lon="56.42507829418166"><ele>213.66666666666666</ele><time>2026-05-01T09:43:58Z</time></trkpt><trkpt lat="58.02653963599035" lon="56.425282518322"><ele>213.5</ele><time>2026-05-01T09:44:00Z</time></trkpt><trkpt lat="58.02654208445501" lon="56.425410574816105"><ele>213.33333333333331</ele><time>2026-05-01T09:44:01Z</time></trkpt><trkpt lat="58.02653300205634" lon="56.42559567491927"><ele>213.16666666666666</ele><time>2026-05-01T09:44:03Z</time></trkpt><trkpt lat="58.0265243782055" lon="56.42576925593257"><ele>213.0</ele><time>2026-05-01T09:44:05Z</time></trkpt><trkpt lat="58.026438251122094" lon="56.42613091424153"><ele>213.0</ele><time>2026-05-01T09:44:07Z</time></trkpt><trkpt lat="58.026368020264734" lon="56.426193871688675"><ele>213.0</ele><time>2026-05-01T09:44:08Z</time></trkpt><trkpt lat="58.02600051323388" lon="56.42613728373235"><ele>213.0</ele><time>2026-05-01T09:44:10Z</time></trkpt><trkpt lat="58.025931846721335" lon="56.4260345038873"><ele>213.0</ele><time>2026-05-01T09:44:11Z</time></trkpt><trkpt lat="58.02586295710792" lon="56.42593104752917"><ele>213.0</ele><time>2026-05-01T09:44:12Z</time></trkpt><trkpt lat="58.02581086898542" lon="56.42585277694896"><ele>213.0</ele><time>2026-05-01T09:44:13Z</time></trkpt><trkpt lat="58.02573983138855" lon="56.42574626331293"><ele>213.0</ele><time>2026-05-01T09:44:14.999Z</time></trkpt><trkpt lat="58.02567315191743" lon="56.42564664542061"><ele>213.0</ele><time>2026-05-01T09:44:16.999Z</time></trkpt><trkpt lat="58.025770258562474" lon="56.42530965065773"><ele>213.75</ele><time>2026-05-01T09:44:17.999Z</time></trkpt><trkpt lat="58.02571628786143" lon="56.42522948963275"><ele>214.5</ele><time>2026-05-01T09:44:20.999Z</time></trkpt><trkpt lat="58.02553033643793" lon="56.425061578258095"><ele>215.25</ele><time>2026-05-01T09:44:23.999Z</time></trkpt><trkpt lat="58.02544963373127" lon="56.42490409667787"><ele>216.0</ele><time>2026-05-01T09:44:25.999Z</time></trkpt><trkpt lat="58.02528373550513" lon="56.42506339346915"><ele>216.0</ele><time>2026-05-01T09:44:26.999Z</time></trkpt><trkpt lat="58.02520049643802" lon="56.42493695381523"><ele>216.00000000000003</ele><time>2026-05-01T09:44:28.999Z</time></trkpt><trkpt lat="58.02511990483718" lon="56.42481355294447"><ele>216.00000000000003</ele><time>2026-05-01T09:44:30.999Z</time></trkpt><trkpt lat="58.02504714790464" lon="56.424703326155864"><ele>216.0</ele><time>2026-05-01T09:44:32.999Z</time></trkpt><trkpt lat="58.024963989494516" lon="56.42457648723568"><ele>216.0</ele><time>2026-05-01T09:44:34.999Z</time></trkpt><trkpt lat="58.02488162085109" lon="56.424450814162846"><ele>215.5</ele><time>2026-05-01T09:44:36.999Z</time></trkpt><trkpt lat="58.02479684691816" lon="56.42432144747912"><ele>215.0</ele><time>2026-05-01T09:44:38.999Z</time></trkpt><trkpt lat="58.024854783476336" lon="56.4240031998096"><ele>214.5</ele><time>2026-05-01T09:44:39.999Z</time></trkpt><trkpt lat="58.024785383254454" lon="56.42391192303777"><ele>214.0</ele><time>2026-05-01T09:44:40.999Z</time></trkpt><trkpt lat="58.02466212332474" lon="56.42375089952775"><ele>213.99999999999997</ele><time>2026-05-01T09:44:41.999Z</time></trkpt><trkpt lat="58.024580227069045" lon="56.423582390629335"><ele>214.0</ele><time>2026-05-01T09:44:42.999Z</time></trkpt><trkpt lat="58.024531746125504" lon="56.42347488203659"><ele>214.0</ele><time>2026-05-01T09:44:43.999Z</time></trkpt><trkpt lat="58.02447974474486" lon="56.42337222532864"><ele>214.0</ele><time>2026-05-01T09:44:44.999Z</time></trkpt><trkpt lat="58.0244428223275" lon="56.42326818497557"><ele>213.99999999999997</ele><time>2026-05-01T09:44:45.999Z</time></trkpt><trkpt lat="58.02438424338796" lon="56.423168400751194"><ele>214.0</ele><time>2026-05-01T09:44:46.999Z</time></trkpt><trkpt lat="58.02432077183685" lon="56.4230753435451"><ele>213.99999999999997</ele><time>2026-05-01T09:44:47.999Z</time></trkpt><trkpt lat="58.02425206207011" lon="56.423012431568836"><ele>214.0</ele><time>2026-05-01T09:44:48.999Z</time></trkpt><trkpt lat="58.024184266438525" lon="56.422926735538645"><ele>214.0</ele><time>2026-05-01T09:44:49.999Z</time></trkpt><trkpt lat="58.02412644738146" lon="56.42284881337064"><ele>214.0</ele><time>2026-05-01T09:44:50.999Z</time></trkpt><trkpt lat="58.02403142818155" lon="56.422691792694344"><ele>213.99999999999997</ele><time>2026-05-01T09:44:52.999Z</time></trkpt><trkpt lat="58.02396407076077" lon="56.42260482908021"><ele>214.0</ele><time>2026-05-01T09:44:53.999Z</time></trkpt><trkpt lat="58.02387150516785" lon="56.422499561136384"><ele>214.2</ele><time>2026-05-01T09:44:54.999Z</time></trkpt><trkpt lat="58.02377408043043" lon="56.42237687155901"><ele>214.39999999999998</ele><time>2026-05-01T09:44:55.999Z</time></trkpt><trkpt lat="58.02367082981824" lon="56.42222348949081"><ele>214.6</ele><time>2026-05-01T09:44:56.999Z</time></trkpt><trkpt lat="58.02357439557013" lon="56.422061619382944"><ele>214.8</ele><time>2026-05-01T09:44:57.999Z</time></trkpt><trkpt lat="58.023521011636106" lon="56.421987811234025"><ele>215.0</ele><time>2026-05-01T09:44:58.999Z</time></trkpt><trkpt lat="58.02346256664087" lon="56.42187402452081"><ele>215.00000000000003</ele><time>2026-05-01T09:45:01.999Z</time></trkpt><trkpt lat="58.02342802690244" lon="56.4217277521484"><ele>215.0</ele><time>2026-05-01T09:45:04.999Z</time></trkpt><trkpt lat="58.02336434339722" lon="56.42166290655071"><ele>215.0</ele><time>2026-05-01T09:45:07.998Z</time></trkpt><trkpt lat="58.023298814631175" lon="56.42160137282369"><ele>215.0</ele><time>2026-05-01T09:45:09.998Z</time></trkpt><trkpt lat="58.0232348222413" lon="56.42155085245991"><ele>215.00000000000003</ele><time>2026-05-01T09:45:11.998Z</time></trkpt><trkpt lat="58.023157919390655" lon="56.421435385496565"><ele>215.0</ele><time>2026-05-01T09:45:13.998Z</time></trkpt><trkpt lat="58.023090493547556" lon="56.42135779224924"><ele>214.25</ele><time>2026-05-01T09:45:14.998Z</time></trkpt><trkpt lat="58.02302493270592" lon="56.421272786740204"><ele>213.5</ele><time>2026-05-01T09:45:15.998Z</time></trkpt><trkpt lat="58.022967078266475" lon="56.42119013226359"><ele>212.75</ele><time>2026-05-01T09:45:16.998Z</time></trkpt><trkpt lat="58.022832756222286" lon="56.42133273163379"><ele>212.0</ele><time>2026-05-01T09:45:17.998Z</time></trkpt><trkpt lat="58.02286443397708" lon="56.4210409111653"><ele>212.00000000000003</ele><time>2026-05-01T09:45:19.998Z</time></trkpt><trkpt lat="58.022804806305395" lon="56.420960102127204"><ele>212.0</ele><time>2026-05-01T09:45:21.998Z</time></trkpt><trkpt lat="58.02273259913757" lon="56.42084409527185"><ele>212.0</ele><time>2026-05-01T09:45:23.998Z</time></trkpt><trkpt lat="58.0226746043782" lon="56.420733895445835"><ele>212.0</ele><time>2026-05-01T09:45:25.998Z</time></trkpt><trkpt lat="58.02260829774067" lon="56.42058924449237"><ele>212.00000000000003</ele><time>2026-05-01T09:45:27.998Z</time></trkpt><trkpt lat="58.022543162695484" lon="56.420492774813845"><ele>212.0</ele><time>2026-05-01T09:45:28.998Z</time></trkpt><trkpt lat="58.022376835775" lon="56.420638101025624"><ele>211.39999999999998</ele><time>2026-05-01T09:45:29.998Z</time></trkpt><trkpt lat="58.022312615427055" lon="56.420540437041346"><ele>210.79999999999998</ele><time>2026-05-01T09:45:30.998Z</time></trkpt><trkpt lat="58.022246743892595" lon="56.42044035525923"><ele>210.2</ele><time>2026-05-01T09:45:31.998Z</time></trkpt><trkpt lat="58.022167090515694" lon="56.42031933431965"><ele>209.6</ele><time>2026-05-01T09:45:32.998Z</time></trkpt><trkpt lat="58.022052396228325" lon="56.42014461905328"><ele>209.0</ele><time>2026-05-01T09:45:33.998Z</time></trkpt><trkpt lat="58.02192520773327" lon="56.41995065705219"><ele>208.79999999999998</ele><time>2026-05-01T09:45:34.998Z</time></trkpt><trkpt lat="58.021827851851235" lon="56.41980318369721"><ele>208.6</ele><time>2026-05-01T09:45:35.998Z</time></trkpt><trkpt lat="58.021745262253944" lon="56.41967753959181"><ele>208.4</ele><time>2026-05-01T09:45:36.998Z</time></trkpt><trkpt lat="58.02167597675405" lon="56.41957198003045"><ele>208.2</ele><time>2026-05-01T09:45:37.998Z</time></trkpt><trkpt lat="58.02160931032356" lon="56.41947012838348"><ele>208.0</ele><time>2026-05-01T09:45:38.998Z</time></trkpt><trkpt lat="58.02155097063134" lon="56.41938131355564"><ele>207.83333333333331</ele><time>2026-05-01T09:45:39.998Z</time></trkpt><trkpt lat="58.02150070032969" lon="56.419305197681716"><ele>207.66666666666666</ele><time>2026-05-01T09:45:40.998Z</time></trkpt><trkpt lat="58.02140799094102" lon="56.41916425677999"><ele>207.5</ele><time>2026-05-01T09:45:42.998Z</time></trkpt><trkpt lat="58.02135769170136" lon="56.419086767980055"><ele>207.33333333333331</ele><time>2026-05-01T09:45:43.998Z</time></trkpt><trkpt lat="58.02129639835699" lon="56.41899405068829"><ele>207.16666666666666</ele><time>2026-05-01T09:45:44.998Z</time></trkpt><trkpt lat="58.02123817804124" lon="56.418905363584244"><ele>207.0</ele><time>2026-05-01T09:45:45.998Z</time></trkpt><trkpt lat="58.021177727145876" lon="56.41881327284681"><ele>207.0</ele><time>2026-05-01T09:45:46.998Z</time></trkpt><trkpt lat="58.021115458978436" lon="56.41871840897188"><ele>207.0</ele><time>2026-05-01T09:45:47.998Z</time></trkpt><trkpt lat="58.02105052669641" lon="56.41861948625462"><ele>207.0</ele><time>2026-05-01T09:45:48.998Z</time></trkpt><trkpt lat="58.020996740975725" lon="56.418537612444695"><ele>207.0</ele><time>2026-05-01T09:45:49.998Z</time></trkpt><trkpt lat="58.020943867498566" lon="56.418457272396154"><ele>207.0</ele><time>2026-05-01T09:45:51Z</time></trkpt><trkpt lat="58.02087934491917" lon="56.41835923155535"><ele>207.0</ele><time>2026-05-01T09:45:52Z</time></trkpt><trkpt lat="58.02080697643081" lon="56.41824867126974"><ele>207.0</ele><time>2026-05-01T09:45:53Z</time></trkpt><trkpt lat="58.020733242399835" lon="56.41813675448126"><ele>207.0</ele><time>2026-05-01T09:45:54Z</time></trkpt><trkpt lat="58.020660884355216" lon="56.41802686814916"><ele>207.0</ele><time>2026-05-01T09:45:55Z</time></trkpt><trkpt lat="58.02060494867584" lon="56.41794141680358"><ele>207.0</ele><time>2026-05-01T09:45:56Z</time></trkpt><trkpt lat="58.02054819467002" lon="56.41785471518189"><ele>207.0</ele><time>2026-05-01T09:45:57Z</time></trkpt><trkpt lat="58.02049383276128" lon="56.417771747955726"><ele>207.0</ele><time>2026-05-01T09:45:58Z</time></trkpt><trkpt lat="58.02043373886451" lon="56.41768014561448"><ele>207.0</ele><time>2026-05-01T09:45:59Z</time></trkpt><trkpt lat="58.02036533088842" lon="56.41757586951395"><ele>207.0</ele><time>2026-05-01T09:46:00Z</time></trkpt><trkpt lat="58.0203016177389" lon="56.41747875050866"><ele>207.0</ele><time>2026-05-01T09:46:01Z</time></trkpt><trkpt lat="58.020252450408094" lon="56.417404154273264"><ele>207.0</ele><time>2026-05-01T09:46:02Z</time></trkpt><trkpt lat="58.02017503300445" lon="56.41728697031086"><ele>207.0</ele><time>2026-05-01T09:46:04Z</time></trkpt><trkpt lat="58.02010047792368" lon="56.417173449379355"><ele>207.0</ele><time>2026-05-01T09:46:07Z</time></trkpt><trkpt lat="58.02004289449685" lon="56.41708552773208"><ele>207.16666666666666</ele><time>2026-05-01T09:46:09Z</time></trkpt><trkpt lat="58.0199643538697" lon="56.41696630478021"><ele>207.33333333333331</ele><time>2026-05-01T09:46:11Z</time></trkpt><trkpt lat="58.01989602215218" lon="56.416863195634434"><ele>207.5</ele><time>2026-05-01T09:46:13Z</time></trkpt><trkpt lat="58.019838143964414" lon="56.416773868109416"><ele>207.66666666666666</ele><time>2026-05-01T09:46:15Z</time></trkpt><trkpt lat="58.01978219983478" lon="56.4166890925849"><ele>207.83333333333331</ele><time>2026-05-01T09:46:17Z</time></trkpt><trkpt lat="58.01969586933413" lon="56.41655778092278"><ele>208.0</ele><time>2026-05-01T09:46:18.999Z</time></trkpt><trkpt lat="58.01960961799437" lon="56.416426490707615"><ele>208.25</ele><time>2026-05-01T09:46:19.999Z</time></trkpt><trkpt lat="58.01952222938052" lon="56.41629328467418"><ele>208.5</ele><time>2026-05-01T09:46:20.999Z</time></trkpt><trkpt lat="58.019412471603054" lon="56.416125716207254"><ele>208.75</ele><time>2026-05-01T09:46:21.999Z</time></trkpt><trkpt lat="58.019272670531336" lon="56.415911821574646"><ele>209.0</ele><time>2026-05-01T09:46:22.999Z</time></trkpt><trkpt lat="58.01911171536497" lon="56.415664764616174"><ele>209.5</ele><time>2026-05-01T09:46:23.999Z</time></trkpt><trkpt lat="58.01893418314342" lon="56.415392767553946"><ele>210.0</ele><time>2026-05-01T09:46:24.999Z</time></trkpt><trkpt lat="58.018743578206056" lon="56.415100884759816"><ele>210.0</ele><time>2026-05-01T09:46:25.999Z</time></trkpt><trkpt lat="58.01855165839566" lon="56.4148059880648"><ele>210.0</ele><time>2026-05-01T09:46:26.999Z</time></trkpt><trkpt lat="58.01837147219199" lon="56.41452960942845"><ele>209.0</ele><time>2026-05-01T09:46:27.999Z</time></trkpt><trkpt lat="58.01820527316943" lon="56.41427591825164"><ele>208.0</ele><time>2026-05-01T09:46:28.999Z</time></trkpt><trkpt lat="58.01805298250192" lon="56.414042346405594"><ele>207.0</ele><time>2026-05-01T09:46:29.999Z</time></trkpt><trkpt lat="58.01789942964532" lon="56.41379249313824"><ele>206.33333333333331</ele><time>2026-05-01T09:46:30.999Z</time></trkpt><trkpt lat="58.01772980385059" lon="56.41351373608895"><ele>205.66666666666666</ele><time>2026-05-01T09:46:31.999Z</time></trkpt><trkpt lat="58.017564556341135" lon="56.413241704116146"><ele>205.0</ele><time>2026-05-01T09:46:32.999Z</time></trkpt><trkpt lat="58.01743807033992" lon="56.41303401780945"><ele>204.75</ele><time>2026-05-01T09:46:33.999Z</time></trkpt><trkpt lat="58.01733586375645" lon="56.412865755052806"><ele>204.5</ele><time>2026-05-01T09:46:34.999Z</time></trkpt><trkpt lat="58.01724961411013" lon="56.41272368519095"><ele>204.25</ele><time>2026-05-01T09:46:35.999Z</time></trkpt><trkpt lat="58.01715912115322" lon="56.41257462304362"><ele>204.0</ele><time>2026-05-01T09:46:36.999Z</time></trkpt><trkpt lat="58.01705462984228" lon="56.4124030945444"><ele>204.0</ele><time>2026-05-01T09:46:37.999Z</time></trkpt><trkpt lat="58.01695959492087" lon="56.41224638222677"><ele>204.0</ele><time>2026-05-01T09:46:38.999Z</time></trkpt><trkpt lat="58.01687633327858" lon="56.412109083410655"><ele>204.0</ele><time>2026-05-01T09:46:39.999Z</time></trkpt><trkpt lat="58.01676746879865" lon="56.41188449919386"><ele>204.0</ele><time>2026-05-01T09:46:40.999Z</time></trkpt><trkpt lat="58.01667306529938" lon="56.41168028043619"><ele>203.25</ele><time>2026-05-01T09:46:41.999Z</time></trkpt><trkpt lat="58.016575696287426" lon="56.41146963896109"><ele>202.5</ele><time>2026-05-01T09:46:42.999Z</time></trkpt><trkpt lat="58.016481669554516" lon="56.4112662959681"><ele>201.75</ele><time>2026-05-01T09:46:43.999Z</time></trkpt><trkpt lat="58.01639450006788" lon="56.41107789208281"><ele>201.0</ele><time>2026-05-01T09:46:44.999Z</time></trkpt><trkpt lat="58.0162954632872" lon="56.4108642487179"><ele>201.0</ele><time>2026-05-01T09:46:45.999Z</time></trkpt><trkpt lat="58.01617181515968" lon="56.4105975125682"><ele>201.0</ele><time>2026-05-01T09:46:46.999Z</time></trkpt><trkpt lat="58.0160386905032" lon="56.410309494332445"><ele>201.0</ele><time>2026-05-01T09:46:47.999Z</time></trkpt><trkpt lat="58.015926897926185" lon="56.41006363671546"><ele>201.0</ele><time>2026-05-01T09:46:48.999Z</time></trkpt><trkpt lat="58.01584002866202" lon="56.40984901470702"><ele>201.0</ele><time>2026-05-01T09:46:49.999Z</time></trkpt><trkpt lat="58.01576358514598" lon="56.4096601228459"><ele>201.0</ele><time>2026-05-01T09:46:50.999Z</time></trkpt><trkpt lat="58.01569955286345" lon="56.40950180700786"><ele>201.0</ele><time>2026-05-01T09:46:51.999Z</time></trkpt><trkpt lat="58.015623641178" lon="56.40931382390039"><ele>201.0</ele><time>2026-05-01T09:46:52.999Z</time></trkpt><trkpt lat="58.0155281496131" lon="56.40907719093601"><ele>201.0</ele><time>2026-05-01T09:46:53.999Z</time></trkpt><trkpt lat="58.01543063571596" lon="56.40883555091736"><ele>201.0</ele><time>2026-05-01T09:46:54.999Z</time></trkpt><trkpt lat="58.01535521407437" lon="56.408648952868994"><ele>201.0</ele><time>2026-05-01T09:46:55.999Z</time></trkpt><trkpt lat="58.015285197464564" lon="56.40847630937262"><ele>201.25</ele><time>2026-05-01T09:46:56.999Z</time></trkpt><trkpt lat="58.01521373363672" lon="56.40829848844434"><ele>201.5</ele><time>2026-05-01T09:46:57.999Z</time></trkpt><trkpt lat="58.01514269770528" lon="56.40812278782934"><ele>201.75</ele><time>2026-05-01T09:46:58.999Z</time></trkpt><trkpt lat="58.01506207605534" lon="56.40792238178975"><ele>202.0</ele><time>2026-05-01T09:46:59.999Z</time></trkpt><trkpt lat="58.01497569991036" lon="56.40770760254477"><ele>202.0</ele><time>2026-05-01T09:47:00.999Z</time></trkpt><trkpt lat="58.01487945728674" lon="56.407470702695704"><ele>202.0</ele><time>2026-05-01T09:47:01.999Z</time></trkpt><trkpt lat="58.01479149618432" lon="56.407252080800745"><ele>202.0</ele><time>2026-05-01T09:47:02.999Z</time></trkpt><trkpt lat="58.01471517758056" lon="56.407063999018774"><ele>202.0</ele><time>2026-05-01T09:47:03.999Z</time></trkpt><trkpt lat="58.0146401345117" lon="56.40687826103825"><ele>201.75</ele><time>2026-05-01T09:47:04.999Z</time></trkpt><trkpt lat="58.014558552867115" lon="56.40667576631323"><ele>201.5</ele><time>2026-05-01T09:47:05.999Z</time></trkpt><trkpt lat="58.014480655700424" lon="56.40648240077969"><ele>201.25</ele><time>2026-05-01T09:47:06.999Z</time></trkpt><trkpt lat="58.01441116413373" lon="56.40631116067779"><ele>201.0</ele><time>2026-05-01T09:47:07.999Z</time></trkpt><trkpt lat="58.01435389935607" lon="56.40616857747818"><ele>201.0</ele><time>2026-05-01T09:47:08.999Z</time></trkpt><trkpt lat="58.01430100826829" lon="56.40603699396466"><ele>201.0</ele><time>2026-05-01T09:47:09.999Z</time></trkpt><trkpt lat="58.01425022747192" lon="56.40591178935483"><ele>201.0</ele><time>2026-05-01T09:47:10.999Z</time></trkpt><trkpt lat="58.01420527533035" lon="56.40580113800582"><ele>201.0</ele><time>2026-05-01T09:47:11.998Z</time></trkpt><trkpt lat="58.01416024427034" lon="56.40569028896945"><ele>201.0</ele><time>2026-05-01T09:47:12.998Z</time></trkpt><trkpt lat="58.01408527802113" lon="56.4055361400981"><ele>201.0</ele><time>2026-05-01T09:47:14.998Z</time></trkpt><trkpt lat="58.014033716278085" lon="56.405427359059914"><ele>201.0</ele><time>2026-05-01T09:47:15.998Z</time></trkpt><trkpt lat="58.01397419198491" lon="56.40530117057115"><ele>201.0</ele><time>2026-05-01T09:47:16.998Z</time></trkpt><trkpt lat="58.01391483972684" lon="56.405174789962174"><ele>201.0</ele><time>2026-05-01T09:47:17.998Z</time></trkpt><trkpt lat="58.01386366632016" lon="56.4050659390715"><ele>201.0</ele><time>2026-05-01T09:47:18.998Z</time></trkpt><trkpt lat="58.013813146469744" lon="56.404962622143934"><ele>201.0</ele><time>2026-05-01T09:47:20.998Z</time></trkpt><trkpt lat="58.01376719110996" lon="56.40486896644985"><ele>201.0</ele><time>2026-05-01T09:47:22.998Z</time></trkpt><trkpt lat="58.013678337078076" lon="56.40468751309943"><ele>201.16666666666666</ele><time>2026-05-01T09:47:24.998Z</time></trkpt><trkpt lat="58.01362986645854" lon="56.40458896547217"><ele>201.33333333333331</ele><time>2026-05-01T09:47:25.998Z</time></trkpt><trkpt lat="58.01355696667939" lon="56.40444218666625"><ele>201.5</ele><time>2026-05-01T09:47:27.998Z</time></trkpt><trkpt lat="58.01347418414954" lon="56.40428038746879"><ele>201.66666666666666</ele><time>2026-05-01T09:47:29.998Z</time></trkpt><trkpt lat="58.01342993117741" lon="56.40419428209524"><ele>201.83333333333331</ele><time>2026-05-01T09:47:30.998Z</time></trkpt><trkpt lat="58.013379231269255" lon="56.40409624666101"><ele>202.0</ele><time>2026-05-01T09:47:31.998Z</time></trkpt><trkpt lat="58.0133163353899" lon="56.40397473741305"><ele>201.99999999999997</ele><time>2026-05-01T09:47:32.998Z</time></trkpt><trkpt lat="58.013244332479275" lon="56.403834640466215"><ele>202.0</ele><time>2026-05-01T09:47:33.998Z</time></trkpt><trkpt lat="58.013193777022984" lon="56.403737014608225"><ele>202.0</ele><time>2026-05-01T09:47:34.998Z</time></trkpt><trkpt lat="58.01314928082957" lon="56.40365038158364"><ele>202.0</ele><time>2026-05-01T09:47:35.998Z</time></trkpt><trkpt lat="58.013094732028264" lon="56.40354921701606"><ele>201.99999999999997</ele><time>2026-05-01T09:47:37.998Z</time></trkpt><trkpt lat="58.013035694215986" lon="56.403443234896606"><ele>202.0</ele><time>2026-05-01T09:47:41.998Z</time></trkpt><trkpt lat="58.01298710631282" lon="56.40335662774713"><ele>201.39999999999998</ele><time>2026-05-01T09:47:43.998Z</time></trkpt><trkpt lat="58.012925609031505" lon="56.40324629121484"><ele>200.79999999999998</ele><time>2026-05-01T09:47:46.998Z</time></trkpt><trkpt lat="58.01286785359441" lon="56.40314221564478"><ele>200.2</ele><time>2026-05-01T09:47:49.998Z</time></trkpt><trkpt lat="58.01280836978323" lon="56.40303519471312"><ele>199.6</ele><time>2026-05-01T09:47:52.998Z</time></trkpt><trkpt lat="58.012742761842865" lon="56.4029196838749"><ele>199.0</ele><time>2026-05-01T09:47:55.998Z</time></trkpt><trkpt lat="58.01286093263913" lon="56.40252295047315"><ele>198.5</ele><time>2026-05-01T09:48:00Z</time></trkpt><trkpt lat="58.01279290654341" lon="56.40246919721194"><ele>198.0</ele><time>2026-05-01T09:48:57.999Z</time></trkpt><trkpt lat="58.012725428449386" lon="56.402356137246066"><ele>197.5</ele><time>2026-05-01T09:48:58.999Z</time></trkpt><trkpt lat="58.01264227878004" lon="56.402219021817835"><ele>197.0</ele><time>2026-05-01T09:48:59.999Z</time></trkpt><trkpt lat="58.01244249759255" lon="56.402394265820035"><ele>197.16666666666669</ele><time>2026-05-01T09:49:00.999Z</time></trkpt><trkpt lat="58.01239042317135" lon="56.402307723733536"><ele>197.33333333333334</ele><time>2026-05-01T09:49:01.999Z</time></trkpt><trkpt lat="58.01233523395942" lon="56.40221645543048"><ele>197.5</ele><time>2026-05-01T09:49:02.999Z</time></trkpt><trkpt lat="58.01227043691393" lon="56.402110122321595"><ele>197.66666666666669</ele><time>2026-05-01T09:49:03.999Z</time></trkpt><trkpt lat="58.012190514075606" lon="56.40198856154755"><ele>197.83333333333334</ele><time>2026-05-01T09:49:04.999Z</time></trkpt><trkpt lat="58.01211232560651" lon="56.401869866175296"><ele>198.0</ele><time>2026-05-01T09:49:05.999Z</time></trkpt><trkpt lat="58.01203649599281" lon="56.401755430423805"><ele>198.0</ele><time>2026-05-01T09:49:06.999Z</time></trkpt><trkpt lat="58.0119514100716" lon="56.40162758908394"><ele>198.0</ele><time>2026-05-01T09:49:07.999Z</time></trkpt><trkpt lat="58.011869265666896" lon="56.40150361591665"><ele>198.0</ele><time>2026-05-01T09:49:08.999Z</time></trkpt><trkpt lat="58.01179136020803" lon="56.40139481779209"><ele>198.0</ele><time>2026-05-01T09:49:09.999Z</time></trkpt><trkpt lat="58.011691003994095" lon="56.40125495346685"><ele>198.0</ele><time>2026-05-01T09:49:10.999Z</time></trkpt><trkpt lat="58.01156021872858" lon="56.401074769053466"><ele>197.5</ele><time>2026-05-01T09:49:11.999Z</time></trkpt><trkpt lat="58.011520051810024" lon="56.400586969223646"><ele>197.0</ele><time>2026-05-01T09:49:12.999Z</time></trkpt><trkpt lat="58.0113534868822" lon="56.400369978283784"><ele>197.0</ele><time>2026-05-01T09:49:13.999Z</time></trkpt><trkpt lat="58.01120784938371" lon="56.400198734603656"><ele>197.0</ele><time>2026-05-01T09:49:14.999Z</time></trkpt><trkpt lat="58.011096719935246" lon="56.40006975528099"><ele>197.0</ele><time>2026-05-01T09:49:15.999Z</time></trkpt><trkpt lat="58.01100021495158" lon="56.399959665369934"><ele>197.0</ele><time>2026-05-01T09:49:16.999Z</time></trkpt><trkpt lat="58.01090624716691" lon="56.399865184033416"><ele>196.66666666666669</ele><time>2026-05-01T09:49:17.998Z</time></trkpt><trkpt lat="58.01079721872358" lon="56.39973995667326"><ele>196.33333333333331</ele><time>2026-05-01T09:49:18.998Z</time></trkpt><trkpt lat="58.0106695403417" lon="56.39957542579915"><ele>196.0</ele><time>2026-05-01T09:49:19.998Z</time></trkpt><trkpt lat="58.01046807452327" lon="56.39970099392342"><ele>195.20000000000002</ele><time>2026-05-01T09:49:20.998Z</time></trkpt><trkpt lat="58.01036608601495" lon="56.39958089006932"><ele>194.4</ele><time>2026-05-01T09:49:21.998Z</time></trkpt><trkpt lat="58.010265704588235" lon="56.39946146226649"><ele>193.6</ele><time>2026-05-01T09:49:22.998Z</time></trkpt><trkpt lat="58.01018308949697" lon="56.39936267536824"><ele>192.8</ele><time>2026-05-01T09:49:23.998Z</time></trkpt><trkpt lat="58.01012095542233" lon="56.39928837840214"><ele>192.0</ele><time>2026-05-01T09:49:24.998Z</time></trkpt><trkpt lat="58.01006002749931" lon="56.399215647982864"><ele>192.6</ele><time>2026-05-01T09:49:25.998Z</time></trkpt><trkpt lat="58.00997596799123" lon="56.399117138707055"><ele>193.2</ele><time>2026-05-01T09:49:26.998Z</time></trkpt><trkpt lat="58.00989620128763" lon="56.399021332808786"><ele>193.8</ele><time>2026-05-01T09:49:27.998Z</time></trkpt><trkpt lat="58.009802042654236" lon="56.398909446649334"><ele>194.4</ele><time>2026-05-01T09:49:29.998Z</time></trkpt><trkpt lat="58.009746736557425" lon="56.398843711185584"><ele>195.0</ele><time>2026-05-01T09:49:36.998Z</time></trkpt><trkpt lat="58.00966498056213" lon="56.398746072189866"><ele>195.0</ele><time>2026-05-01T09:49:40.998Z</time></trkpt><trkpt lat="58.0096003897017" lon="56.39866893315425"><ele>195.0</ele><time>2026-05-01T09:49:42.998Z</time></trkpt><trkpt lat="58.0095390573484" lon="56.39859599871326"><ele>195.0</ele><time>2026-05-01T09:49:44.998Z</time></trkpt><trkpt lat="58.00947872103394" lon="56.39852429108926"><ele>195.0</ele><time>2026-05-01T09:49:46.998Z</time></trkpt><trkpt lat="58.00940532991097" lon="56.39843685509661"><ele>195.0</ele><time>2026-05-01T09:49:48.998Z</time></trkpt><trkpt lat="58.009474426116086" lon="56.39807029313352"><ele>195.0</ele><time>2026-05-01T09:49:49.998Z</time></trkpt><trkpt lat="58.00939119118763" lon="56.39806602890939"><ele>195.0</ele><time>2026-05-01T09:50:46.999Z</time></trkpt><trkpt lat="58.009324590025095" lon="56.397977226255115"><ele>195.0</ele><time>2026-05-01T09:50:59.999Z</time></trkpt><trkpt lat="58.009249860240274" lon="56.397889296073"><ele>195.0</ele><time>2026-05-01T09:51:01.999Z</time></trkpt><trkpt lat="58.009205469865" lon="56.39776470269688"><ele>195.0</ele><time>2026-05-01T09:51:03.999Z</time></trkpt><trkpt lat="58.00914190223013" lon="56.397716629405885"><ele>195.0</ele><time>2026-05-01T09:51:05.999Z</time></trkpt><trkpt lat="58.009200402191006" lon="56.39783944589191"><ele>195.0</ele><time>2026-05-01T09:51:08.999Z</time></trkpt><trkpt lat="58.00923855439493" lon="56.397723172237214"><ele>195.0</ele><time>2026-05-01T09:51:11.999Z</time></trkpt><trkpt lat="58.009182662329444" lon="56.39764842468593"><ele>195.0</ele><time>2026-05-01T09:51:13.999Z</time></trkpt><trkpt lat="58.009138252488896" lon="56.39773499660981"><ele>195.0</ele><time>2026-05-01T09:51:17.999Z</time></trkpt><trkpt lat="58.009235320223645" lon="56.39777786327761"><ele>195.0</ele><time>2026-05-01T09:51:19.999Z</time></trkpt><trkpt lat="58.009284475088" lon="56.397869147217186"><ele>195.0</ele><time>2026-05-01T09:51:21.999Z</time></trkpt><trkpt lat="58.009311255387466" lon="56.39801608751712"><ele>195.0</ele><time>2026-05-01T09:51:23.998Z</time></trkpt><trkpt lat="58.00930825063028" lon="56.3982008681965"><ele>195.0</ele><time>2026-05-01T09:51:25.998Z</time></trkpt><trkpt lat="58.00937450281996" lon="56.398268503572844"><ele>195.0</ele><time>2026-05-01T09:51:27.998Z</time></trkpt><trkpt lat="58.00942498850789" lon="56.39818968012592"><ele>195.0</ele><time>2026-05-01T09:51:29.998Z</time></trkpt><trkpt lat="58.009429530330635" lon="56.398062863337174"><ele>195.0</ele><time>2026-05-01T09:51:31.998Z</time></trkpt><trkpt lat="58.0093715281739" lon="56.397947213378586"><ele>195.0</ele><time>2026-05-01T09:51:33.998Z</time></trkpt><trkpt lat="58.00928231008977" lon="56.39792911167201"><ele>195.16666666666666</ele><time>2026-05-01T09:51:36.998Z</time></trkpt><trkpt lat="58.009231405910384" lon="56.39784652720678"><ele>195.33333333333331</ele><time>2026-05-01T09:51:37.998Z</time></trkpt><trkpt lat="58.00917748383571" lon="56.39778458026764"><ele>195.5</ele><time>2026-05-01T09:51:38.998Z</time></trkpt><trkpt lat="58.00909164170674" lon="56.39768560682223"><ele>195.66666666666666</ele><time>2026-05-01T09:51:40.998Z</time></trkpt><trkpt lat="58.00902040616067" lon="56.397657571530516"><ele>195.83333333333331</ele><time>2026-05-01T09:51:42.998Z</time></trkpt><trkpt lat="58.00894270827227" lon="56.39760008357593"><ele>196.0</ele><time>2026-05-01T09:51:44.998Z</time></trkpt><trkpt lat="58.00887905263209" lon="56.39747523259122"><ele>196.20000000000002</ele><time>2026-05-01T09:51:46.998Z</time></trkpt><trkpt lat="58.008819413576816" lon="56.39736860853966"><ele>196.4</ele><time>2026-05-01T09:51:48.998Z</time></trkpt><trkpt lat="58.00873668129231" lon="56.39731076864442"><ele>196.6</ele><time>2026-05-01T09:51:51.998Z</time></trkpt><trkpt lat="58.00866568005748" lon="56.397265494440894"><ele>196.8</ele><time>2026-05-01T09:51:54.998Z</time></trkpt><trkpt lat="58.0085850007247" lon="56.39716845685594"><ele>197.0</ele><time>2026-05-01T09:51:58.998Z</time></trkpt><trkpt lat="58.008476109406395" lon="56.39712014672655"><ele>197.0</ele><time>2026-05-01T09:52:00.998Z</time></trkpt><trkpt lat="58.00838728083569" lon="56.3970695234487"><ele>197.0</ele><time>2026-05-01T09:52:02.998Z</time></trkpt><trkpt lat="58.00831436180908" lon="56.3970179430102"><ele>197.0</ele><time>2026-05-01T09:52:04.998Z</time></trkpt><trkpt lat="58.00822303285097" lon="56.396925319434345"><ele>197.0</ele><time>2026-05-01T09:52:06.998Z</time></trkpt><trkpt lat="58.00806281797223" lon="56.39681742213986"><ele>197.0</ele><time>2026-05-01T09:52:10Z</time></trkpt><trkpt lat="58.00802442822125" lon="56.39666951003959"><ele>198.2</ele><time>2026-05-01T09:52:12Z</time></trkpt><trkpt lat="58.00796504069007" lon="56.396518072538704"><ele>199.39999999999998</ele><time>2026-05-01T09:52:14Z</time></trkpt><trkpt lat="58.007871200897554" lon="56.39642630460719"><ele>200.60000000000002</ele><time>2026-05-01T09:52:16Z</time></trkpt><trkpt lat="58.00781156934426" lon="56.3963091581228"><ele>201.8</ele><time>2026-05-01T09:52:18Z</time></trkpt><trkpt lat="58.0077136184177" lon="56.39619474105907"><ele>203.0</ele><time>2026-05-01T09:52:20Z</time></trkpt><trkpt lat="58.00766031094946" lon="56.39612995176372"><ele>203.0</ele><time>2026-05-01T09:52:21Z</time></trkpt><trkpt lat="58.00755859831027" lon="56.39600620639694"><ele>203.0</ele><time>2026-05-01T09:52:23Z</time></trkpt><trkpt lat="58.00746488688344" lon="56.395892915806044"><ele>203.0</ele><time>2026-05-01T09:52:25Z</time></trkpt><trkpt lat="58.00735478719966" lon="56.39575895486186"><ele>203.0</ele><time>2026-05-01T09:52:27Z</time></trkpt><trkpt lat="58.00731998452509" lon="56.39565249112819"><ele>203.0</ele><time>2026-05-01T09:52:28Z</time></trkpt><trkpt lat="58.007231079547005" lon="56.3955309811406"><ele>203.60000000000002</ele><time>2026-05-01T09:52:30Z</time></trkpt><trkpt lat="58.00713737464047" lon="56.39543096215983"><ele>204.20000000000002</ele><time>2026-05-01T09:52:32Z</time></trkpt><trkpt lat="58.00703798689877" lon="56.39531071926559"><ele>204.8</ele><time>2026-05-01T09:52:34Z</time></trkpt><trkpt lat="58.00693658929204" lon="56.39517619550756"><ele>205.4</ele><time>2026-05-01T09:52:34.999Z</time></trkpt><trkpt lat="58.006867214788045" lon="56.39508918913307"><ele>206.0</ele><time>2026-05-01T09:52:35.999Z</time></trkpt><trkpt lat="58.006757697179246" lon="56.39498116095403"><ele>206.4</ele><time>2026-05-01T09:52:37.999Z</time></trkpt><trkpt lat="58.00662846641217" lon="56.39482900566722"><ele>206.8</ele><time>2026-05-01T09:52:39.999Z</time></trkpt><trkpt lat="58.00651436595355" lon="56.39471785249434"><ele>207.20000000000002</ele><time>2026-05-01T09:52:40.999Z</time></trkpt><trkpt lat="58.00643633387676" lon="56.39461389481552"><ele>207.60000000000002</ele><time>2026-05-01T09:52:41.999Z</time></trkpt><trkpt lat="58.00638356675012" lon="56.39453653712071"><ele>208.0</ele><time>2026-05-01T09:52:42.999Z</time></trkpt><trkpt lat="58.00632681200807" lon="56.394471865759925"><ele>208.0</ele><time>2026-05-01T09:52:43.999Z</time></trkpt><trkpt lat="58.0062564643148" lon="56.39439763470102"><ele>208.0</ele><time>2026-05-01T09:52:44.999Z</time></trkpt><trkpt lat="58.00616921658959" lon="56.39430774440566"><ele>208.0</ele><time>2026-05-01T09:52:46.999Z</time></trkpt><trkpt lat="58.0060499103834" lon="56.39418875577145"><ele>208.0</ele><time>2026-05-01T09:52:48.999Z</time></trkpt><trkpt lat="58.00599959007205" lon="56.39411242494239"><ele>208.0</ele><time>2026-05-01T09:52:49.999Z</time></trkpt><trkpt lat="58.005895008511295" lon="56.39399974015395"><ele>208.0</ele><time>2026-05-01T09:52:51.999Z</time></trkpt><trkpt lat="58.00582691506579" lon="56.39392209393618"><ele>208.0</ele><time>2026-05-01T09:52:52.999Z</time></trkpt><trkpt lat="58.00576227964895" lon="56.39384714322976"><ele>208.0</ele><time>2026-05-01T09:52:53.999Z</time></trkpt><trkpt lat="58.00568266950852" lon="56.393765918317946"><ele>208.0</ele><time>2026-05-01T09:52:54.999Z</time></trkpt><trkpt lat="58.00557493917618" lon="56.39363524601528"><ele>208.0</ele><time>2026-05-01T09:52:55.999Z</time></trkpt><trkpt lat="58.005467298409116" lon="56.393510451626405"><ele>208.0</ele><time>2026-05-01T09:52:56.999Z</time></trkpt><trkpt lat="58.00538921295899" lon="56.3934258082969"><ele>208.0</ele><time>2026-05-01T09:52:57.999Z</time></trkpt><trkpt lat="58.005334340808304" lon="56.39335519675438"><ele>208.0</ele><time>2026-05-01T09:52:58.999Z</time></trkpt><trkpt lat="58.00522042727228" lon="56.3932212618238"><ele>208.0</ele><time>2026-05-01T09:53:00.999Z</time></trkpt><trkpt lat="58.00513765235623" lon="56.39313246028696"><ele>208.0</ele><time>2026-05-01T09:53:01.999Z</time></trkpt><trkpt lat="58.005060332737344" lon="56.39306043923522"><ele>208.5</ele><time>2026-05-01T09:53:02.999Z</time></trkpt><trkpt lat="58.00497007032793" lon="56.39296839220295"><ele>209.0</ele><time>2026-05-01T09:53:03.999Z</time></trkpt><trkpt lat="58.004861570611446" lon="56.392841838714894"><ele>209.5</ele><time>2026-05-01T09:53:04.999Z</time></trkpt><trkpt lat="58.00475525477559" lon="56.392699807387"><ele>210.0</ele><time>2026-05-01T09:53:05.999Z</time></trkpt><trkpt lat="58.0046716517814" lon="56.39257070885837"><ele>210.0</ele><time>2026-05-01T09:53:06.999Z</time></trkpt><trkpt lat="58.0045937997049" lon="56.3925018122124"><ele>210.0</ele><time>2026-05-01T09:53:07.999Z</time></trkpt><trkpt lat="58.004516401815096" lon="56.39242448568828"><ele>210.0</ele><time>2026-05-01T09:53:08.999Z</time></trkpt><trkpt lat="58.00443380815126" lon="56.39231329503715"><ele>210.0</ele><time>2026-05-01T09:53:09.999Z</time></trkpt><trkpt lat="58.00434130916429" lon="56.39219732268688"><ele>210.0</ele><time>2026-05-01T09:53:10.999Z</time></trkpt><trkpt lat="58.004237432854474" lon="56.39207314760419"><ele>210.5</ele><time>2026-05-01T09:53:11.999Z</time></trkpt><trkpt lat="58.00413465514601" lon="56.3919510463685"><ele>211.0</ele><time>2026-05-01T09:53:12.999Z</time></trkpt><trkpt lat="58.004049256771836" lon="56.391820489821"><ele>211.5</ele><time>2026-05-01T09:53:13.999Z</time></trkpt><trkpt lat="58.00394749096895" lon="56.39167176060867"><ele>212.0</ele><time>2026-05-01T09:53:14.999Z</time></trkpt><trkpt lat="58.00385998522219" lon="56.39158026304792"><ele>212.0</ele><time>2026-05-01T09:53:15.999Z</time></trkpt><trkpt lat="58.003765419268476" lon="56.39146970631294"><ele>212.0</ele><time>2026-05-01T09:53:16.999Z</time></trkpt><trkpt lat="58.003658122702625" lon="56.391341737771214"><ele>212.0</ele><time>2026-05-01T09:53:17.999Z</time></trkpt><trkpt lat="58.00355472252748" lon="56.39123339607838"><ele>212.0</ele><time>2026-05-01T09:53:18.999Z</time></trkpt><trkpt lat="58.0034532595083" lon="56.39112366355745"><ele>212.0</ele><time>2026-05-01T09:53:19.999Z</time></trkpt><trkpt lat="58.00337063476128" lon="56.391013964900914"><ele>212.0</ele><time>2026-05-01T09:53:20.999Z</time></trkpt><trkpt lat="58.00327190304693" lon="56.390899022518646"><ele>212.0</ele><time>2026-05-01T09:53:21.999Z</time></trkpt><trkpt lat="58.00316138626629" lon="56.39077462977114"><ele>212.0</ele><time>2026-05-01T09:53:22.999Z</time></trkpt><trkpt lat="58.0030699788045" lon="56.39066837962051"><ele>212.25</ele><time>2026-05-01T09:53:23.999Z</time></trkpt><trkpt lat="58.00299165222094" lon="56.39058343639656"><ele>212.5</ele><time>2026-05-01T09:53:24.999Z</time></trkpt><trkpt lat="58.00289287019357" lon="56.39046784498212"><ele>212.75</ele><time>2026-05-01T09:53:25.999Z</time></trkpt><trkpt lat="58.00277307755134" lon="56.39030569395454"><ele>213.0</ele><time>2026-05-01T09:53:26.999Z</time></trkpt><trkpt lat="58.002627903166015" lon="56.39010561189859"><ele>213.0</ele><time>2026-05-01T09:53:27.999Z</time></trkpt><trkpt lat="58.00248082873847" lon="56.38990638116252"><ele>213.0</ele><time>2026-05-01T09:53:28.998Z</time></trkpt><trkpt lat="58.002382430057146" lon="56.38980552577772"><ele>213.0</ele><time>2026-05-01T09:53:29.998Z</time></trkpt><trkpt lat="58.00228924451266" lon="56.389712730181465"><ele>213.0</ele><time>2026-05-01T09:53:30.998Z</time></trkpt><trkpt lat="58.00221168059709" lon="56.38961573460062"><ele>213.0</ele><time>2026-05-01T09:53:31.998Z</time></trkpt><trkpt lat="58.002057965109984" lon="56.3897748129624"><ele>213.0</ele><time>2026-05-01T09:53:32.998Z</time></trkpt><trkpt lat="58.001987422323076" lon="56.38969186276369"><ele>213.0</ele><time>2026-05-01T09:53:33.998Z</time></trkpt><trkpt lat="58.00191575572902" lon="56.38960736246458"><ele>213.0</ele><time>2026-05-01T09:53:34.998Z</time></trkpt><trkpt lat="58.00183196503565" lon="56.389508566874106"><ele>213.0</ele><time>2026-05-01T09:53:35.998Z</time></trkpt><trkpt lat="58.00174113514769" lon="56.38940147144593"><ele>213.16666666666666</ele><time>2026-05-01T09:53:36.998Z</time></trkpt><trkpt lat="58.001666110131715" lon="56.389312901658165"><ele>213.33333333333331</ele><time>2026-05-01T09:53:37.998Z</time></trkpt><trkpt lat="58.00160366270104" lon="56.38923902054678"><ele>213.5</ele><time>2026-05-01T09:53:38.998Z</time></trkpt><trkpt lat="58.001526969956224" lon="56.38914828562705"><ele>213.66666666666666</ele><time>2026-05-01T09:53:39.998Z</time></trkpt><trkpt lat="58.0014467084535" lon="56.38905333931584"><ele>213.83333333333331</ele><time>2026-05-01T09:53:40.998Z</time></trkpt><trkpt lat="58.00137909700078" lon="56.38897339192373"><ele>214.0</ele><time>2026-05-01T09:53:41.998Z</time></trkpt><trkpt lat="58.00132211098944" lon="56.38890613449171"><ele>213.99999999999997</ele><time>2026-05-01T09:53:42.998Z</time></trkpt><trkpt lat="58.001267761134145" lon="56.38884198885845"><ele>214.0</ele><time>2026-05-01T09:53:43.998Z</time></trkpt><trkpt lat="58.00119615381097" lon="56.388757352901465"><ele>214.0</ele><time>2026-05-01T09:53:44.998Z</time></trkpt><trkpt lat="58.00110833678066" lon="56.388653363871626"><ele>214.0</ele><time>2026-05-01T09:53:45.998Z</time></trkpt><trkpt lat="58.00102763641006" lon="56.38855780190365"><ele>213.99999999999997</ele><time>2026-05-01T09:53:46.998Z</time></trkpt><trkpt lat="58.00096220178541" lon="56.38848051477316"><ele>214.0</ele><time>2026-05-01T09:53:47.998Z</time></trkpt><trkpt lat="58.00086456019889" lon="56.38836524413888"><ele>214.25</ele><time>2026-05-01T09:53:49.998Z</time></trkpt><trkpt lat="58.00079042286558" lon="56.38828868054502"><ele>214.5</ele><time>2026-05-01T09:53:50.998Z</time></trkpt><trkpt lat="58.000869040709055" lon="56.38787208361082"><ele>214.75</ele><time>2026-05-01T09:53:51.998Z</time></trkpt><trkpt lat="58.00081387648464" lon="56.387794200087214"><ele>215.0</ele><time>2026-05-01T09:53:52.998Z</time></trkpt><trkpt lat="58.000718543762304" lon="56.38766376468361"><ele>215.33333333333334</ele><time>2026-05-01T09:53:54.998Z</time></trkpt><trkpt lat="58.00062890150544" lon="56.387554986972766"><ele>215.66666666666669</ele><time>2026-05-01T09:53:56.998Z</time></trkpt><trkpt lat="58.000400554045854" lon="56.3877372966575"><ele>216.0</ele><time>2026-05-01T09:53:58.998Z</time></trkpt><trkpt lat="58.000320118248744" lon="56.387603038203956"><ele>216.0</ele><time>2026-05-01T09:54:00.998Z</time></trkpt><trkpt lat="58.00024349752572" lon="56.38747514642768"><ele>216.00000000000003</ele><time>2026-05-01T09:54:02.998Z</time></trkpt><trkpt lat="58.00015804948861" lon="56.38733237187137"><ele>216.00000000000003</ele><time>2026-05-01T09:54:04.998Z</time></trkpt><trkpt lat="58.000050643732536" lon="56.387146472279404"><ele>216.0</ele><time>2026-05-01T09:54:06.998Z</time></trkpt><trkpt lat="58.00000842684069" lon="56.38705442554641"><ele>216.0</ele><time>2026-05-01T09:54:07.998Z</time></trkpt><trkpt lat="57.99995235327732" lon="56.38693216678493"><ele>217.0</ele><time>2026-05-01T09:54:08.998Z</time></trkpt><trkpt lat="57.99986649986564" lon="56.386717091415505"><ele>218.0</ele><time>2026-05-01T09:54:09.998Z</time></trkpt><trkpt lat="57.99981749073594" lon="56.386583597443554"><ele>219.0</ele><time>2026-05-01T09:54:10.998Z</time></trkpt><trkpt lat="57.99973668045605" lon="56.38631741624712"><ele>220.0</ele><time>2026-05-01T09:54:11.998Z</time></trkpt><trkpt lat="57.99968069633431" lon="56.386091073057294"><ele>220.5</ele><time>2026-05-01T09:54:12.998Z</time></trkpt><trkpt lat="57.99963539037928" lon="56.385908265498024"><ele>221.0</ele><time>2026-05-01T09:54:13.998Z</time></trkpt><trkpt lat="57.99958218434686" lon="56.38565613355469"><ele>221.5</ele><time>2026-05-01T09:54:15Z</time></trkpt><trkpt lat="57.99953261863347" lon="56.38538322908205"><ele>222.0</ele><time>2026-05-01T09:54:16Z</time></trkpt><trkpt lat="57.99948505364639" lon="56.38506495836905"><ele>222.0</ele><time>2026-05-01T09:54:17Z</time></trkpt><trkpt lat="57.99946728670274" lon="56.38489214632159"><ele>222.0</ele><time>2026-05-01T09:54:18Z</time></trkpt><trkpt lat="57.999452001006944" lon="56.38474403644099"><ele>222.0</ele><time>2026-05-01T09:54:19Z</time></trkpt><trkpt lat="57.99943584913955" lon="56.38449802911226"><ele>222.0</ele><time>2026-05-01T09:54:20Z</time></trkpt><trkpt lat="57.99943253731808" lon="56.38436905798889"><ele>222.0</ele><time>2026-05-01T09:54:21Z</time></trkpt><trkpt lat="57.99942934736078" lon="56.38423462491541"><ele>222.0</ele><time>2026-05-01T09:54:22Z</time></trkpt><trkpt lat="57.99942380255746" lon="56.38402682842802"><ele>220.39999999999998</ele><time>2026-05-01T09:54:24Z</time></trkpt><trkpt lat="57.99943649685037" lon="56.3837931973259"><ele>218.79999999999998</ele><time>2026-05-01T09:54:25Z</time></trkpt><trkpt lat="57.99944415392678" lon="56.38362566710433"><ele>217.2</ele><time>2026-05-01T09:54:26Z</time></trkpt><trkpt lat="57.99945410634292" lon="56.38344721867403"><ele>215.6</ele><time>2026-05-01T09:54:27Z</time></trkpt><trkpt lat="57.999462793179696" lon="56.3833049060071"><ele>214.0</ele><time>2026-05-01T09:54:28Z</time></trkpt><trkpt lat="57.9994708033848" lon="56.383173678749614"><ele>213.99999999999997</ele><time>2026-05-01T09:54:29Z</time></trkpt><trkpt lat="57.99948050528176" lon="56.38303048151856"><ele>214.0</ele><time>2026-05-01T09:54:30Z</time></trkpt><trkpt lat="57.999491953696854" lon="56.38288945396343"><ele>214.0</ele><time>2026-05-01T09:54:31Z</time></trkpt><trkpt lat="57.999516406868615" lon="56.382672239461044"><ele>214.0</ele><time>2026-05-01T09:54:32Z</time></trkpt><trkpt lat="57.99953907340709" lon="56.38253314528578"><ele>213.99999999999997</ele><time>2026-05-01T09:54:33Z</time></trkpt><trkpt lat="57.99956128306668" lon="56.38239989596787"><ele>214.0</ele><time>2026-05-01T09:54:34Z</time></trkpt><trkpt lat="57.99959705444672" lon="56.38224361215807"><ele>212.2</ele><time>2026-05-01T09:54:35Z</time></trkpt><trkpt lat="57.99962570660368" lon="56.38211791191467"><ele>210.39999999999998</ele><time>2026-05-01T09:54:36Z</time></trkpt><trkpt lat="57.99967135236944" lon="56.3819352839156"><ele>208.6</ele><time>2026-05-01T09:54:37Z</time></trkpt><trkpt lat="57.99972100033713" lon="56.38174143246401"><ele>206.8</ele><time>2026-05-01T09:54:38Z</time></trkpt><trkpt lat="57.99977181536235" lon="56.38155003999967"><ele>205.0</ele><time>2026-05-01T09:54:39Z</time></trkpt><trkpt lat="57.9998183035244" lon="56.38137673799029"><ele>204.0</ele><time>2026-05-01T09:54:40Z</time></trkpt><trkpt lat="57.99986263554915" lon="56.38121158756471"><ele>203.0</ele><time>2026-05-01T09:54:40.999Z</time></trkpt><trkpt lat="57.999903856290146" lon="56.38105841979245"><ele>202.0</ele><time>2026-05-01T09:54:41.999Z</time></trkpt><trkpt lat="57.99994394333538" lon="56.38090970054377"><ele>201.0</ele><time>2026-05-01T09:54:42.999Z</time></trkpt><trkpt lat="58.000005538996994" lon="56.38072944257278"><ele>200.0</ele><time>2026-05-01T09:54:43.999Z</time></trkpt><trkpt lat="58.000050091753245" lon="56.38061536455891"><ele>199.16666666666669</ele><time>2026-05-01T09:54:44.999Z</time></trkpt><trkpt lat="58.00008919934616" lon="56.38051564357693"><ele>198.33333333333334</ele><time>2026-05-01T09:54:45.999Z</time></trkpt><trkpt lat="58.00014200956673" lon="56.380380997063256"><ele>197.5</ele><time>2026-05-01T09:54:47.999Z</time></trkpt><trkpt lat="58.00018967501878" lon="56.38025950762517"><ele>196.66666666666669</ele><time>2026-05-01T09:54:49.999Z</time></trkpt><trkpt lat="58.000233716504376" lon="56.380147839326064"><ele>195.83333333333334</ele><time>2026-05-01T09:54:51.999Z</time></trkpt><trkpt lat="58.000284484505436" lon="56.38001864782057"><ele>195.0</ele><time>2026-05-01T09:54:53.999Z</time></trkpt><trkpt lat="58.00032990321655" lon="56.37990420161129"><ele>195.0</ele><time>2026-05-01T09:54:55.999Z</time></trkpt><trkpt lat="58.00037965434155" lon="56.37977736114152"><ele>195.0</ele><time>2026-05-01T09:54:57.999Z</time></trkpt><trkpt lat="58.0004320066646" lon="56.379644001191366"><ele>195.0</ele><time>2026-05-01T09:54:59.999Z</time></trkpt><trkpt lat="58.000585073267004" lon="56.379773131479"><ele>195.0</ele><time>2026-05-01T09:55:00.999Z</time></trkpt><trkpt lat="58.00064617435085" lon="56.37964699569499"><ele>195.0</ele><time>2026-05-01T09:55:02.999Z</time></trkpt><trkpt lat="58.00069884368816" lon="56.37954012571675"><ele>194.25</ele><time>2026-05-01T09:55:04.999Z</time></trkpt><trkpt lat="58.00076469512021" lon="56.37938576026493"><ele>193.5</ele><time>2026-05-01T09:55:06.999Z</time></trkpt><trkpt lat="58.000824301251754" lon="56.37924790715061"><ele>192.75</ele><time>2026-05-01T09:55:08.999Z</time></trkpt><trkpt lat="58.00069332715719" lon="56.378979261369004"><ele>192.0</ele><time>2026-05-01T09:55:09.999Z</time></trkpt><trkpt lat="58.00075103918686" lon="56.37883757909361"><ele>190.75</ele><time>2026-05-01T09:55:11.999Z</time></trkpt><trkpt lat="58.000824875336235" lon="56.37865858447356"><ele>189.5</ele><time>2026-05-01T09:55:13.999Z</time></trkpt><trkpt lat="58.0008847120754" lon="56.37851430430631"><ele>188.25</ele><time>2026-05-01T09:55:15.999Z</time></trkpt><trkpt lat="58.00095068971692" lon="56.378353923102765"><ele>187.0</ele><time>2026-05-01T09:55:17.999Z</time></trkpt><trkpt lat="58.00111752256789" lon="56.378487541966145"><ele>185.75</ele><time>2026-05-01T09:55:18.999Z</time></trkpt><trkpt lat="58.00117044220074" lon="56.37832206385033"><ele>184.5</ele><time>2026-05-01T09:55:20.999Z</time></trkpt><trkpt lat="58.00121550434561" lon="56.37815855613589"><ele>183.25</ele><time>2026-05-01T09:55:22.999Z</time></trkpt><trkpt lat="58.00125964556052" lon="56.3780066520971"><ele>182.0</ele><time>2026-05-01T09:55:24.999Z</time></trkpt><trkpt lat="58.001216671112864" lon="56.37770986429856"><ele>182.0</ele><time>2026-05-01T09:55:26.999Z</time></trkpt><trkpt lat="58.00125830330296" lon="56.377608586985986"><ele>182.0</ele><time>2026-05-01T09:55:28.999Z</time></trkpt><trkpt lat="58.00130205570282" lon="56.37750215197675"><ele>182.0</ele><time>2026-05-01T09:55:31.999Z</time></trkpt><trkpt lat="58.00143575609018" lon="56.377514491156354"><ele>182.0</ele><time>2026-05-01T09:55:33.999Z</time></trkpt><trkpt lat="58.00146916145391" lon="56.37740401180349"><ele>182.0</ele><time>2026-05-01T09:55:36.998Z</time></trkpt><trkpt lat="58.0014818691992" lon="56.377237429062596"><ele>182.0</ele><time>2026-05-01T09:55:45.998Z</time></trkpt><trkpt lat="58.00153394936176" lon="56.37708745125664"><ele>182.0</ele><time>2026-05-01T09:55:48.998Z</time></trkpt><trkpt lat="58.0015748297749" lon="56.376951730797835"><ele>182.0</ele><time>2026-05-01T09:56:13.998Z</time></trkpt><trkpt lat="58.00163441964305" lon="56.3768160304409"><ele>182.0</ele><time>2026-05-01T09:56:46.999Z</time></trkpt><trkpt lat="58.00169672808073" lon="56.376644873149274"><ele>182.0</ele><time>2026-05-01T09:56:48.999Z</time></trkpt><trkpt lat="58.00174168830452" lon="56.376530717939936"><ele>182.0</ele><time>2026-05-01T09:56:49.999Z</time></trkpt><trkpt lat="58.00177884227792" lon="56.37634611476404"><ele>182.0</ele><time>2026-05-01T09:56:50.999Z</time></trkpt><trkpt lat="58.00183069417871" lon="56.37622033238382"><ele>182.0</ele><time>2026-05-01T09:56:51.999Z</time></trkpt><trkpt lat="58.001889975680704" lon="56.37607632672377"><ele>182.0</ele><time>2026-05-01T09:56:52.999Z</time></trkpt><trkpt lat="58.00194741239908" lon="56.37593664807154"><ele>182.0</ele><time>2026-05-01T09:56:53.999Z</time></trkpt><trkpt lat="58.00199335143161" lon="56.37582535883008"><ele>182.0</ele><time>2026-05-01T09:56:54.999Z</time></trkpt><trkpt lat="58.002034039438165" lon="56.37572692441492"><ele>182.0</ele><time>2026-05-01T09:56:55.999Z</time></trkpt><trkpt lat="58.002075091053996" lon="56.375627756417146"><ele>181.66666666666666</ele><time>2026-05-01T09:56:56.999Z</time></trkpt><trkpt lat="58.00212139082539" lon="56.37551587110042"><ele>181.33333333333331</ele><time>2026-05-01T09:56:57.999Z</time></trkpt><trkpt lat="58.00217287188134" lon="56.37539052584643"><ele>181.0</ele><time>2026-05-01T09:56:58.999Z</time></trkpt><trkpt lat="58.00222428397083" lon="56.37526586261599"><ele>180.66666666666666</ele><time>2026-05-01T09:56:59.999Z</time></trkpt><trkpt lat="58.00228659506056" lon="56.3751607372817"><ele>180.33333333333334</ele><time>2026-05-01T09:57:00.999Z</time></trkpt><trkpt lat="58.00233976034073" lon="56.37500768447347"><ele>180.0</ele><time>2026-05-01T09:57:01.999Z</time></trkpt><trkpt lat="58.00237864408525" lon="56.374877012040386"><ele>180.0</ele><time>2026-05-01T09:57:02.999Z</time></trkpt><trkpt lat="58.0024260376342" lon="56.374755283621305"><ele>180.0</ele><time>2026-05-01T09:57:03.999Z</time></trkpt><trkpt lat="58.00247297648193" lon="56.37463343863453"><ele>180.0</ele><time>2026-05-01T09:57:04.999Z</time></trkpt><trkpt lat="58.00251664555133" lon="56.374520151801484"><ele>180.0</ele><time>2026-05-01T09:57:05.999Z</time></trkpt><trkpt lat="58.00256273463824" lon="56.37440106511377"><ele>180.0</ele><time>2026-05-01T09:57:06.999Z</time></trkpt><trkpt lat="58.002609978583195" lon="56.3742797018378"><ele>180.0</ele><time>2026-05-01T09:57:07.999Z</time></trkpt><trkpt lat="58.00265763035291" lon="56.374158046710185"><ele>179.6</ele><time>2026-05-01T09:57:08.999Z</time></trkpt><trkpt lat="58.002705010051386" lon="56.37403561357542"><ele>179.2</ele><time>2026-05-01T09:57:09.999Z</time></trkpt><trkpt lat="58.00276256626947" lon="56.373887806819674"><ele>178.8</ele><time>2026-05-01T09:57:10.999Z</time></trkpt><trkpt lat="58.00282289765128" lon="56.37373036483009"><ele>178.4</ele><time>2026-05-01T09:57:11.999Z</time></trkpt><trkpt lat="58.00287987558317" lon="56.37358520500919"><ele>178.0</ele><time>2026-05-01T09:57:12.999Z</time></trkpt><trkpt lat="58.00293195205055" lon="56.37345012946721"><ele>177.66666666666669</ele><time>2026-05-01T09:57:13.999Z</time></trkpt><trkpt lat="58.002984773571676" lon="56.37331312084803"><ele>177.33333333333334</ele><time>2026-05-01T09:57:14.999Z</time></trkpt><trkpt lat="58.003032069548404" lon="56.3731909346351"><ele>177.0</ele><time>2026-05-01T09:57:15.999Z</time></trkpt><trkpt lat="58.003080861443124" lon="56.37306549813998"><ele>176.66666666666666</ele><time>2026-05-01T09:57:16.999Z</time></trkpt><trkpt lat="58.00313284241312" lon="56.372931496321"><ele>176.33333333333331</ele><time>2026-05-01T09:57:17.999Z</time></trkpt><trkpt lat="58.00317950033705" lon="56.37281083507238"><ele>176.0</ele><time>2026-05-01T09:57:18.999Z</time></trkpt><trkpt lat="58.00322601347341" lon="56.37269054755433"><ele>175.60000000000002</ele><time>2026-05-01T09:57:19.999Z</time></trkpt><trkpt lat="58.003273736723195" lon="56.37256713113259"><ele>175.2</ele><time>2026-05-01T09:57:20.999Z</time></trkpt><trkpt lat="58.00334178703529" lon="56.37239226893771"><ele>174.8</ele><time>2026-05-01T09:57:22.999Z</time></trkpt><trkpt lat="58.003407241867656" lon="56.37222383681212"><ele>174.39999999999998</ele><time>2026-05-01T09:57:24.999Z</time></trkpt><trkpt lat="58.00346177794479" lon="56.372082394752915"><ele>174.0</ele><time>2026-05-01T09:57:26.999Z</time></trkpt><trkpt lat="58.00352117477834" lon="56.37192760316044"><ele>174.0</ele><time>2026-05-01T09:57:29.999Z</time></trkpt><trkpt lat="58.00363494717647" lon="56.37198218172654"><ele>174.0</ele><time>2026-05-01T09:57:30.999Z</time></trkpt><trkpt lat="58.00368311581859" lon="56.371789759720606"><ele>174.0</ele><time>2026-05-01T09:57:32.999Z</time></trkpt><trkpt lat="58.00371239792697" lon="56.371677705843126"><ele>174.0</ele><time>2026-05-01T09:57:33.999Z</time></trkpt><trkpt lat="58.003753206260306" lon="56.37158420586819"><ele>174.0</ele><time>2026-05-01T09:57:34.999Z</time></trkpt><trkpt lat="58.003793170935275" lon="56.37149037546974"><ele>174.0</ele><time>2026-05-01T09:57:35.999Z</time></trkpt><trkpt lat="58.00382909621092" lon="56.371386085479934"><ele>174.0</ele><time>2026-05-01T09:57:36.999Z</time></trkpt><trkpt lat="58.00386840715948" lon="56.371267912913595"><ele>174.0</ele><time>2026-05-01T09:57:37.999Z</time></trkpt><trkpt lat="58.00391127248921" lon="56.37115008991045"><ele>174.0</ele><time>2026-05-01T09:57:38.999Z</time></trkpt><trkpt lat="58.00395122474493" lon="56.371039264793495"><ele>174.0</ele><time>2026-05-01T09:57:39.999Z</time></trkpt><trkpt lat="58.00399557428164" lon="56.37090476299889"><ele>174.0</ele><time>2026-05-01T09:57:40.998Z</time></trkpt><trkpt lat="58.00404916226142" lon="56.37076632784749"><ele>174.0</ele><time>2026-05-01T09:57:41.998Z</time></trkpt><trkpt lat="58.004098763913305" lon="56.37062172081764"><ele>174.0</ele><time>2026-05-01T09:57:42.998Z</time></trkpt><trkpt lat="58.00414765722171" lon="56.37045975786936"><ele>174.0</ele><time>2026-05-01T09:57:43.998Z</time></trkpt><trkpt lat="58.00419669995022" lon="56.370264011016566"><ele>174.0</ele><time>2026-05-01T09:57:44.998Z</time></trkpt><trkpt lat="58.00423912874295" lon="56.37003370967618"><ele>174.0</ele><time>2026-05-01T09:57:45.998Z</time></trkpt><trkpt lat="58.00428480635467" lon="56.369782014971285"><ele>173.33333333333334</ele><time>2026-05-01T09:57:46.998Z</time></trkpt><trkpt lat="58.00434709808192" lon="56.36955437453276"><ele>172.66666666666669</ele><time>2026-05-01T09:57:47.998Z</time></trkpt><trkpt lat="58.00443308738569" lon="56.36931579214832"><ele>172.0</ele><time>2026-05-01T09:57:48.998Z</time></trkpt><trkpt lat="58.004522067797225" lon="56.36905138365944"><ele>172.0</ele><time>2026-05-01T09:57:49.998Z</time></trkpt><trkpt lat="58.00460413446636" lon="56.36882636106464"><ele>172.0</ele><time>2026-05-01T09:57:50.998Z</time></trkpt><trkpt lat="58.00465980395689" lon="56.36862366939851"><ele>172.0</ele><time>2026-05-01T09:57:51.998Z</time></trkpt><trkpt lat="58.00470883278183" lon="56.36845678249844"><ele>172.0</ele><time>2026-05-01T09:57:52.998Z</time></trkpt><trkpt lat="58.00476776136833" lon="56.3682827665352"><ele>172.0</ele><time>2026-05-01T09:57:54.998Z</time></trkpt><trkpt lat="58.00481667983074" lon="56.36815397025156"><ele>172.0</ele><time>2026-05-01T09:57:55.998Z</time></trkpt><trkpt lat="58.00487152282471" lon="56.36798221584226"><ele>172.0</ele><time>2026-05-01T09:57:56.998Z</time></trkpt><trkpt lat="58.004919231522756" lon="56.367808547140285"><ele>172.0</ele><time>2026-05-01T09:57:57.998Z</time></trkpt><trkpt lat="58.00495686529769" lon="56.36762298232162"><ele>172.0</ele><time>2026-05-01T09:57:58.998Z</time></trkpt><trkpt lat="58.004991519872625" lon="56.36745327221106"><ele>171.8</ele><time>2026-05-01T09:57:59.998Z</time></trkpt><trkpt lat="58.00495169236865" lon="56.36723542761219"><ele>171.6</ele><time>2026-05-01T09:58:00.998Z</time></trkpt><trkpt lat="58.004982507935544" lon="56.367108808767185"><ele>171.4</ele><time>2026-05-01T09:58:01.998Z</time></trkpt><trkpt lat="58.004944438446636" lon="56.366986278041324"><ele>171.20000000000002</ele><time>2026-05-01T09:58:07.998Z</time></trkpt><trkpt lat="58.00487430282588" lon="56.36693307981733"><ele>171.0</ele><time>2026-05-01T09:58:08.998Z</time></trkpt><trkpt lat="58.00477996581386" lon="56.36685124691101"><ele>171.0</ele><time>2026-05-01T09:58:10.998Z</time></trkpt><trkpt lat="58.004732726350205" lon="56.36671258197579"><ele>171.0</ele><time>2026-05-01T09:58:13.998Z</time></trkpt><trkpt lat="58.004774741742615" lon="56.36652109976985"><ele>171.0</ele><time>2026-05-01T09:58:15.998Z</time></trkpt><trkpt lat="58.004834836899946" lon="56.36641821016329"><ele>171.0</ele><time>2026-05-01T09:58:17.998Z</time></trkpt><trkpt lat="58.00488638417444" lon="56.3663145446473"><ele>171.0</ele><time>2026-05-01T09:58:19.998Z</time></trkpt><trkpt lat="58.00492893231201" lon="56.366135344433225"><ele>171.0</ele><time>2026-05-01T09:58:21.998Z</time></trkpt><trkpt lat="58.00496196157833" lon="56.36597363538631"><ele>171.0</ele><time>2026-05-01T09:58:23.998Z</time></trkpt><trkpt lat="58.00519349225071" lon="56.36587932115211"><ele>171.0</ele><time>2026-05-01T09:58:26Z</time></trkpt><trkpt lat="58.00522291594122" lon="56.365742263073045"><ele>171.0</ele><time>2026-05-01T09:58:27Z</time></trkpt><trkpt lat="58.005257877483395" lon="56.365579188089356"><ele>171.0</ele><time>2026-05-01T09:58:28Z</time></trkpt><trkpt lat="58.00528645990748" lon="56.3654464860417"><ele>171.0</ele><time>2026-05-01T09:58:29Z</time></trkpt><trkpt lat="58.00532794615916" lon="56.36525550903893"><ele>171.0</ele><time>2026-05-01T09:58:31Z</time></trkpt><trkpt lat="58.00532334893921" lon="56.36512991929537"><ele>171.0</ele><time>2026-05-01T09:58:33Z</time></trkpt><trkpt lat="58.005065575220385" lon="56.36496099384303"><ele>171.0</ele><time>2026-05-01T09:58:34Z</time></trkpt><trkpt lat="58.00498907156537" lon="56.36484007038697"><ele>171.0</ele><time>2026-05-01T09:58:36Z</time></trkpt><trkpt lat="58.00502468725289" lon="56.36470810052707"><ele>171.0</ele><time>2026-05-01T09:58:38Z</time></trkpt><trkpt lat="58.00501310225327" lon="56.36456857140078"><ele>171.0</ele><time>2026-05-01T09:58:40Z</time></trkpt><trkpt lat="58.00506866748971" lon="56.36449295912728"><ele>171.0</ele><time>2026-05-01T09:58:42Z</time></trkpt><trkpt lat="58.005064515569636" lon="56.364367925379476"><ele>171.0</ele><time>2026-05-01T09:58:44Z</time></trkpt><trkpt lat="58.005021131337124" lon="56.36420284431439"><ele>171.8</ele><time>2026-05-01T09:58:47Z</time></trkpt><trkpt lat="58.00495303361863" lon="56.364090620910034"><ele>172.60000000000002</ele><time>2026-05-01T09:58:48.999Z</time></trkpt><trkpt lat="58.00488447551186" lon="56.36394564322203"><ele>173.4</ele><time>2026-05-01T09:58:50.999Z</time></trkpt><trkpt lat="58.00488956945836" lon="56.36379061868998"><ele>174.2</ele><time>2026-05-01T09:58:53.999Z</time></trkpt><trkpt lat="58.00492577862168" lon="56.36364214279314"><ele>175.0</ele><time>2026-05-01T09:58:56.999Z</time></trkpt><trkpt lat="58.00496752144113" lon="56.36343985233589"><ele>174.83333333333334</ele><time>2026-05-01T09:58:59.999Z</time></trkpt><trkpt lat="58.004981407011236" lon="56.36332200344537"><ele>174.66666666666669</ele><time>2026-05-01T09:59:01.999Z</time></trkpt><trkpt lat="58.00501312108988" lon="56.36315383421664"><ele>174.5</ele><time>2026-05-01T09:59:03.999Z</time></trkpt><trkpt lat="58.00503401649372" lon="56.36297118852677"><ele>174.33333333333334</ele><time>2026-05-01T09:59:05.999Z</time></trkpt><trkpt lat="58.00504876094528" lon="56.36280214918631"><ele>174.16666666666666</ele><time>2026-05-01T09:59:07.999Z</time></trkpt><trkpt lat="58.00506531741154" lon="56.36263272980285"><ele>174.0</ele><time>2026-05-01T09:59:09.999Z</time></trkpt><trkpt lat="58.00508530459509" lon="56.362453597969484"><ele>174.0</ele><time>2026-05-01T09:59:11.999Z</time></trkpt><trkpt lat="58.00509036910279" lon="56.36232133552041"><ele>174.0</ele><time>2026-05-01T09:59:13.999Z</time></trkpt><trkpt lat="58.005099151240444" lon="56.36215810696225"><ele>174.0</ele><time>2026-05-01T09:59:15.999Z</time></trkpt><trkpt lat="58.00510242506139" lon="56.36200650021471"><ele>174.0</ele><time>2026-05-01T09:59:17.999Z</time></trkpt><trkpt lat="58.00510674259883" lon="56.3618536643878"><ele>174.0</ele><time>2026-05-01T09:59:19.999Z</time></trkpt><trkpt lat="58.005109553169696" lon="56.36167794102446"><ele>174.0</ele><time>2026-05-01T09:59:21.999Z</time></trkpt><trkpt lat="58.00510224029149" lon="56.361452954983385"><ele>174.39999999999998</ele><time>2026-05-01T09:59:23.999Z</time></trkpt><trkpt lat="58.00509981872189" lon="56.36125634545759"><ele>174.8</ele><time>2026-05-01T09:59:25.999Z</time></trkpt><trkpt lat="58.00508339514041" lon="56.36101966590697"><ele>175.2</ele><time>2026-05-01T09:59:27.999Z</time></trkpt><trkpt lat="58.00508159684712" lon="56.360866030910024"><ele>175.60000000000002</ele><time>2026-05-01T09:59:28.999Z</time></trkpt><trkpt lat="58.005082147504595" lon="56.36073445585955"><ele>176.0</ele><time>2026-05-01T09:59:29.999Z</time></trkpt><trkpt lat="58.00509133928041" lon="56.360486553693754"><ele>176.0</ele><time>2026-05-01T09:59:31.999Z</time></trkpt><trkpt lat="58.005089615633345" lon="56.36031228859318"><ele>176.0</ele><time>2026-05-01T09:59:32.999Z</time></trkpt><trkpt lat="58.005088540936775" lon="56.36016584558372"><ele>176.0</ele><time>2026-05-01T09:59:33.999Z</time></trkpt><trkpt lat="58.00509388404134" lon="56.359971540762835"><ele>176.0</ele><time>2026-05-01T09:59:35.999Z</time></trkpt><trkpt lat="58.00508368463422" lon="56.35983089739258"><ele>176.0</ele><time>2026-05-01T09:59:36.999Z</time></trkpt><trkpt lat="58.00508297498041" lon="56.359670010629856"><ele>176.0</ele><time>2026-05-01T09:59:37.999Z</time></trkpt><trkpt lat="58.005081136851935" lon="56.359504729915315"><ele>176.0</ele><time>2026-05-01T09:59:38.999Z</time></trkpt><trkpt lat="58.00507254435474" lon="56.359273871142165"><ele>176.0</ele><time>2026-05-01T09:59:39.999Z</time></trkpt><trkpt lat="58.00506415620095" lon="56.35899285078995"><ele>176.0</ele><time>2026-05-01T09:59:40.999Z</time></trkpt><trkpt lat="58.00505106236766" lon="56.358728872158785"><ele>176.0</ele><time>2026-05-01T09:59:41.999Z</time></trkpt><trkpt lat="58.00504884210413" lon="56.35854516990733"><ele>176.0</ele><time>2026-05-01T09:59:42.998Z</time></trkpt><trkpt lat="58.00505311330567" lon="56.35840534008898"><ele>176.0</ele><time>2026-05-01T09:59:43.998Z</time></trkpt><trkpt lat="58.00502996064561" lon="56.35828077306958"><ele>176.0</ele><time>2026-05-01T09:59:44.998Z</time></trkpt><trkpt lat="58.00498926301005" lon="56.35815892034432"><ele>176.0</ele><time>2026-05-01T09:59:45.998Z</time></trkpt><trkpt lat="58.00493373002539" lon="56.35800059747131"><ele>176.0</ele><time>2026-05-01T09:59:47.998Z</time></trkpt><trkpt lat="58.00490241162095" lon="56.357883361885506"><ele>176.0</ele><time>2026-05-01T09:59:49.998Z</time></trkpt><trkpt lat="58.00482309088377" lon="56.35780828338263"><ele>176.0</ele><time>2026-05-01T10:00:55.999Z</time></trkpt><trkpt lat="58.00476194481265" lon="56.35775995409578"><ele>176.0</ele><time>2026-05-01T10:00:56.999Z</time></trkpt><trkpt lat="58.004657443112166" lon="56.35765437238538"><ele>176.0</ele><time>2026-05-01T10:00:58.999Z</time></trkpt><trkpt lat="58.0045620982457" lon="56.357558285313026"><ele>176.0</ele><time>2026-05-01T10:01:00.999Z</time></trkpt><trkpt lat="58.00445217750747" lon="56.357467687022236"><ele>176.0</ele><time>2026-05-01T10:01:02.999Z</time></trkpt><trkpt lat="58.00430187962918" lon="56.35745361906038"><ele>176.0</ele><time>2026-05-01T10:01:04.999Z</time></trkpt><trkpt lat="58.00419054754527" lon="56.357481150781325"><ele>176.0</ele><time>2026-05-01T10:01:05.999Z</time></trkpt><trkpt lat="58.00410463808626" lon="56.35748705033558"><ele>176.0</ele><time>2026-05-01T10:01:06.999Z</time></trkpt><trkpt lat="58.00402519706086" lon="56.357481615380934"><ele>176.0</ele><time>2026-05-01T10:01:07.999Z</time></trkpt><trkpt lat="58.00394440672047" lon="56.35746226089244"><ele>176.0</ele><time>2026-05-01T10:01:08.999Z</time></trkpt><trkpt lat="58.00386672778563" lon="56.35745062355331"><ele>176.0</ele><time>2026-05-01T10:01:09.999Z</time></trkpt><trkpt lat="58.003791261702204" lon="56.35744449578555"><ele>175.4</ele><time>2026-05-01T10:01:10.999Z</time></trkpt><trkpt lat="58.00370539369534" lon="56.35743581736624"><ele>174.8</ele><time>2026-05-01T10:01:11.999Z</time></trkpt><trkpt lat="58.00362689565014" lon="56.35746364315693"><ele>174.20000000000002</ele><time>2026-05-01T10:01:12.999Z</time></trkpt><trkpt lat="58.00350696319264" lon="56.357471578239014"><ele>173.60000000000002</ele><time>2026-05-01T10:01:14.999Z</time></trkpt><trkpt lat="58.00340329151991" lon="56.35748418910082"><ele>173.0</ele><time>2026-05-01T10:01:16.999Z</time></trkpt><trkpt lat="58.003333601684716" lon="56.35755103687992"><ele>172.16666666666666</ele><time>2026-05-01T10:01:18.999Z</time></trkpt><trkpt lat="58.00326658966287" lon="56.35755734399303"><ele>171.33333333333331</ele><time>2026-05-01T10:01:20.999Z</time></trkpt><trkpt lat="58.00315634303922" lon="56.35749384035407"><ele>170.5</ele><time>2026-05-01T10:01:22.999Z</time></trkpt><trkpt lat="58.00305278342895" lon="56.35737781204833"><ele>169.66666666666666</ele><time>2026-05-01T10:01:24.999Z</time></trkpt><trkpt lat="58.00299029197283" lon="56.35730186710587"><ele>168.83333333333334</ele><time>2026-05-01T10:01:25.999Z</time></trkpt><trkpt lat="58.002931549047354" lon="56.35725911100159"><ele>168.0</ele><time>2026-05-01T10:01:26.999Z</time></trkpt><trkpt lat="58.00282060628892" lon="56.35716695787149"><ele>167.83333333333334</ele><time>2026-05-01T10:01:28.999Z</time></trkpt><trkpt lat="58.002752025948084" lon="56.35710317919438"><ele>167.66666666666666</ele><time>2026-05-01T10:01:29.999Z</time></trkpt><trkpt lat="58.00268332421064" lon="56.35702692200181"><ele>167.5</ele><time>2026-05-01T10:01:30.999Z</time></trkpt><trkpt lat="58.002631007301055" lon="56.35695295111016"><ele>167.33333333333331</ele><time>2026-05-01T10:01:31.999Z</time></trkpt><trkpt lat="58.00251624591902" lon="56.35685602526174"><ele>167.16666666666666</ele><time>2026-05-01T10:01:33.999Z</time></trkpt><trkpt lat="58.00244952008995" lon="56.35677291711296"><ele>167.0</ele><time>2026-05-01T10:01:34.999Z</time></trkpt><trkpt lat="58.002382212153975" lon="56.35668280710283"><ele>166.33333333333331</ele><time>2026-05-01T10:01:35.999Z</time></trkpt><trkpt lat="58.00232182161897" lon="56.35662506887636"><ele>165.66666666666666</ele><time>2026-05-01T10:01:36.999Z</time></trkpt><trkpt lat="58.00225353625873" lon="56.35656094952954"><ele>165.0</ele><time>2026-05-01T10:01:37.999Z</time></trkpt><trkpt lat="58.00219385732721" lon="56.35649684177364"><ele>164.33333333333334</ele><time>2026-05-01T10:01:38.999Z</time></trkpt><trkpt lat="58.002133597549566" lon="56.35642625755338"><ele>163.66666666666669</ele><time>2026-05-01T10:01:39.999Z</time></trkpt><trkpt lat="58.00206533453812" lon="56.35635222663844"><ele>163.0</ele><time>2026-05-01T10:01:40.999Z</time></trkpt><trkpt lat="58.00198346954785" lon="56.35626327448986"><ele>163.0</ele><time>2026-05-01T10:01:41.999Z</time></trkpt><trkpt lat="58.001897083335116" lon="56.3561727842084"><ele>163.0</ele><time>2026-05-01T10:01:42.999Z</time></trkpt><trkpt lat="58.00182567404986" lon="56.35612836224754"><ele>163.0</ele><time>2026-05-01T10:01:43.999Z</time></trkpt><trkpt lat="58.00175905376849" lon="56.3561327026821"><ele>163.0</ele><time>2026-05-01T10:01:44.999Z</time></trkpt><trkpt lat="58.00169247623551" lon="56.35612258890192"><ele>163.0</ele><time>2026-05-01T10:01:45.999Z</time></trkpt><trkpt lat="58.001606951253166" lon="56.35611785819433"><ele>163.0</ele><time>2026-05-01T10:01:46.999Z</time></trkpt><trkpt lat="58.00153188020576" lon="56.35610939548178"><ele>162.83333333333334</ele><time>2026-05-01T10:01:47.999Z</time></trkpt><trkpt lat="58.00145752163714" lon="56.356096261627776"><ele>162.66666666666669</ele><time>2026-05-01T10:01:48.999Z</time></trkpt><trkpt lat="58.00138819009105" lon="56.356076858562595"><ele>162.5</ele><time>2026-05-01T10:01:49.999Z</time></trkpt><trkpt lat="58.00128388755834" lon="56.35605329308642"><ele>162.33333333333334</ele><time>2026-05-01T10:01:51.998Z</time></trkpt><trkpt lat="58.00121078539679" lon="56.3560054174712"><ele>162.16666666666666</ele><time>2026-05-01T10:01:54.998Z</time></trkpt><trkpt lat="58.00116191143623" lon="56.35590285119617"><ele>162.0</ele><time>2026-05-01T10:02:08.998Z</time></trkpt><trkpt lat="58.00113039169599" lon="56.355771742165935"><ele>162.0</ele><time>2026-05-01T10:02:11.998Z</time></trkpt><trkpt lat="58.00108223996361" lon="56.355683750516036"><ele>162.0</ele><time>2026-05-01T10:02:15.998Z</time></trkpt><trkpt lat="58.00099491275565" lon="56.3557495312575"><ele>162.0</ele><time>2026-05-01T10:02:35.998Z</time></trkpt><trkpt lat="58.00099379826131" lon="56.355881191914534"><ele>162.0</ele><time>2026-05-01T10:02:39Z</time></trkpt><trkpt lat="58.0010300650882" lon="56.35599598646513"><ele>162.0</ele><time>2026-05-01T10:02:42Z</time></trkpt><trkpt lat="58.00109522843715" lon="56.35600613587381"><ele>162.0</ele><time>2026-05-01T10:02:44Z</time></trkpt><trkpt lat="58.00116003276535" lon="56.35600950329916"><ele>162.0</ele><time>2026-05-01T10:02:47Z</time></trkpt><trkpt lat="58.001222972483575" lon="56.355982908175285"><ele>162.0</ele><time>2026-05-01T10:02:51Z</time></trkpt><trkpt lat="58.00124949669883" lon="56.3558579883593"><ele>162.0</ele><time>2026-05-01T10:02:57Z</time></trkpt><trkpt lat="58.00121161551215" lon="56.355731618896236"><ele>162.0</ele><time>2026-05-01T10:02:59Z</time></trkpt><trkpt lat="58.00115269252622" lon="56.355634373173714"><ele>162.0</ele><time>2026-05-01T10:03:01.999Z</time></trkpt><trkpt lat="58.001113440638576" lon="56.355537774113266"><ele>162.0</ele><time>2026-05-01T10:03:04.999Z</time></trkpt><trkpt lat="58.0010376883833" lon="56.355541286313404"><ele>162.0</ele><time>2026-05-01T10:03:07.999Z</time></trkpt><trkpt lat="58.00095675981545" lon="56.35553185828255"><ele>162.0</ele><time>2026-05-01T10:04:54Z</time></trkpt><trkpt lat="58.000870341522656" lon="56.35547424912118"><ele>162.66666666666666</ele><time>2026-05-01T10:11:17Z</time></trkpt><trkpt lat="58.00078766369809" lon="56.35554832491579"><ele>163.33333333333334</ele><time>2026-05-01T10:11:20Z</time></trkpt><trkpt lat="58.00072056140061" lon="56.3555710133279"><ele>164.0</ele><time>2026-05-01T10:11:23Z</time></trkpt><trkpt lat="58.00065592254131" lon="56.355564545257295"><ele>164.66666666666669</ele><time>2026-05-01T10:11:25Z</time></trkpt><trkpt lat="58.0005773743019" lon="56.35553435678726"><ele>165.33333333333334</ele><time>2026-05-01T10:11:27Z</time></trkpt><trkpt lat="58.00044664922221" lon="56.35553352539214"><ele>166.0</ele><time>2026-05-01T10:11:28.999Z</time></trkpt><trkpt lat="58.000339529261296" lon="56.35550560500786"><ele>166.20000000000002</ele><time>2026-05-01T10:11:29.999Z</time></trkpt><trkpt lat="58.000223802923024" lon="56.35549693251132"><ele>166.4</ele><time>2026-05-01T10:11:30.999Z</time></trkpt><trkpt lat="58.00013624792418" lon="56.3555037097304"><ele>166.6</ele><time>2026-05-01T10:11:31.999Z</time></trkpt><trkpt lat="58.00006314967595" lon="56.35549308069767"><ele>166.8</ele><time>2026-05-01T10:11:32.999Z</time></trkpt><trkpt lat="57.99998345688652" lon="56.35545729248075"><ele>167.0</ele><time>2026-05-01T10:11:33.999Z</time></trkpt><trkpt lat="57.99989120341083" lon="56.355400901626986"><ele>167.0</ele><time>2026-05-01T10:11:34.999Z</time></trkpt><trkpt lat="57.99981099391465" lon="56.35532695653695"><ele>167.0</ele><time>2026-05-01T10:11:35.999Z</time></trkpt><trkpt lat="57.999748434678345" lon="56.3552641379863"><ele>167.0</ele><time>2026-05-01T10:11:36.999Z</time></trkpt><trkpt lat="57.99967472255871" lon="56.35522110650098"><ele>167.0</ele><time>2026-05-01T10:11:37.999Z</time></trkpt><trkpt lat="57.99958400288184" lon="56.35517985253974"><ele>167.0</ele><time>2026-05-01T10:11:38.999Z</time></trkpt><trkpt lat="57.99950311904119" lon="56.355152128418375"><ele>167.0</ele><time>2026-05-01T10:11:39.999Z</time></trkpt><trkpt lat="57.99942131358271" lon="56.35512509758997"><ele>167.0</ele><time>2026-05-01T10:11:40.999Z</time></trkpt><trkpt lat="57.999345004872" lon="56.355094302821215"><ele>167.0</ele><time>2026-05-01T10:11:41.999Z</time></trkpt><trkpt lat="57.999281194942554" lon="56.355057334281845"><ele>167.0</ele><time>2026-05-01T10:11:42.999Z</time></trkpt><trkpt lat="57.999177531608936" lon="56.35501257494917"><ele>167.0</ele><time>2026-05-01T10:11:43.999Z</time></trkpt><trkpt lat="57.99906111319623" lon="56.35495639647524"><ele>167.0</ele><time>2026-05-01T10:11:44.999Z</time></trkpt><trkpt lat="57.99895410967682" lon="56.35489008709322"><ele>167.66666666666666</ele><time>2026-05-01T10:11:45.999Z</time></trkpt><trkpt lat="57.998856207629665" lon="56.35481692188139"><ele>168.33333333333331</ele><time>2026-05-01T10:11:46.999Z</time></trkpt><trkpt lat="57.99876705447629" lon="56.35474390100094"><ele>169.0</ele><time>2026-05-01T10:11:47.999Z</time></trkpt><trkpt lat="57.99868470670324" lon="56.35470615701806"><ele>169.66666666666666</ele><time>2026-05-01T10:11:48.999Z</time></trkpt><trkpt lat="57.99861054087645" lon="56.35468598648745"><ele>170.33333333333334</ele><time>2026-05-01T10:11:49.999Z</time></trkpt><trkpt lat="57.998529149280216" lon="56.35467594772545"><ele>171.0</ele><time>2026-05-01T10:11:50.999Z</time></trkpt><trkpt lat="57.99845858023522" lon="56.35466196122885"><ele>171.0</ele><time>2026-05-01T10:11:51.999Z</time></trkpt><trkpt lat="57.99838446219185" lon="56.35462565118943"><ele>171.0</ele><time>2026-05-01T10:11:52.999Z</time></trkpt><trkpt lat="57.99831084981311" lon="56.35458635897642"><ele>171.0</ele><time>2026-05-01T10:11:53.999Z</time></trkpt><trkpt lat="57.998232312925346" lon="56.354543621554136"><ele>171.0</ele><time>2026-05-01T10:11:54.999Z</time></trkpt><trkpt lat="57.998136338296675" lon="56.35448725093771"><ele>171.0</ele><time>2026-05-01T10:11:55.999Z</time></trkpt><trkpt lat="57.99805522742522" lon="56.35445787420272"><ele>171.0</ele><time>2026-05-01T10:11:56.999Z</time></trkpt><trkpt lat="57.9979852633805" lon="56.354422891521885"><ele>171.0</ele><time>2026-05-01T10:11:57.999Z</time></trkpt><trkpt lat="57.99790629925685" lon="56.35438188066965"><ele>171.0</ele><time>2026-05-01T10:11:58.999Z</time></trkpt><trkpt lat="57.9978355565913" lon="56.35433735259025"><ele>171.0</ele><time>2026-05-01T10:11:59.999Z</time></trkpt><trkpt lat="57.997761640543146" lon="56.35428505212452"><ele>171.0</ele><time>2026-05-01T10:12:00.999Z</time></trkpt><trkpt lat="57.9976845755263" lon="56.35424246500216"><ele>171.0</ele><time>2026-05-01T10:12:01.999Z</time></trkpt><trkpt lat="57.997622580173726" lon="56.354220126392065"><ele>171.0</ele><time>2026-05-01T10:12:02.999Z</time></trkpt><trkpt lat="57.997510575039165" lon="56.35419517649417"><ele>170.85714285714283</ele><time>2026-05-01T10:12:04.999Z</time></trkpt><trkpt lat="57.9974377485371" lon="56.35417843903169"><ele>170.71428571428572</ele><time>2026-05-01T10:12:06.999Z</time></trkpt><trkpt lat="57.997354050697" lon="56.3541746380739"><ele>170.57142857142856</ele><time>2026-05-01T10:12:09.999Z</time></trkpt><trkpt lat="57.99729141690199" lon="56.35414694343834"><ele>170.42857142857142</ele><time>2026-05-01T10:12:12.999Z</time></trkpt><trkpt lat="57.997219585993676" lon="56.35412747126016"><ele>170.28571428571428</ele><time>2026-05-01T10:12:21.998Z</time></trkpt><trkpt lat="57.99716312498961" lon="56.35404332239194"><ele>170.14285714285714</ele><time>2026-05-01T10:12:23.998Z</time></trkpt><trkpt lat="57.99709602181359" lon="56.35401243461474"><ele>170.0</ele><time>2026-05-01T10:12:25.998Z</time></trkpt><trkpt lat="57.99701958273161" lon="56.35394539409279"><ele>170.0</ele><time>2026-05-01T10:12:28.998Z</time></trkpt><trkpt lat="57.997033681112036" lon="56.354088977615994"><ele>170.0</ele><time>2026-05-01T10:13:10Z</time></trkpt><trkpt lat="57.99713117023916" lon="56.35414724016471"><ele>170.0</ele><time>2026-05-01T10:13:12Z</time></trkpt><trkpt lat="57.99722254260516" lon="56.35420672794649"><ele>170.0</ele><time>2026-05-01T10:13:14Z</time></trkpt><trkpt lat="57.99728250571403" lon="56.35427000866437"><ele>170.0</ele><time>2026-05-01T10:13:16Z</time></trkpt><trkpt lat="57.9972605436502" lon="56.354421021056915"><ele>170.0</ele><time>2026-05-01T10:13:19Z</time></trkpt><trkpt lat="57.9971765008962" lon="56.35444408541658"><ele>170.0</ele><time>2026-05-01T10:13:22Z</time></trkpt><trkpt lat="57.997104727397314" lon="56.354365979966836"><ele>170.0</ele><time>2026-05-01T10:13:25Z</time></trkpt><trkpt lat="57.997025564561035" lon="56.354386199798576"><ele>170.0</ele><time>2026-05-01T10:13:31.999Z</time></trkpt><trkpt lat="57.99693974654908" lon="56.354414437187735"><ele>170.0</ele><time>2026-05-01T10:13:34.999Z</time></trkpt><trkpt lat="57.996855547142765" lon="56.35431328505062"><ele>170.0</ele><time>2026-05-01T10:13:36.999Z</time></trkpt><trkpt lat="57.996775195439476" lon="56.354271990234935"><ele>170.0</ele><time>2026-05-01T10:13:38.999Z</time></trkpt><trkpt lat="57.99671348026909" lon="56.35420487312905"><ele>169.83333333333331</ele><time>2026-05-01T10:14:17.999Z</time></trkpt><trkpt lat="57.996654230917564" lon="56.35414270036248"><ele>169.66666666666666</ele><time>2026-05-01T10:14:22.999Z</time></trkpt><trkpt lat="57.99660927107946" lon="56.3540310677312"><ele>169.5</ele><time>2026-05-01T10:14:25.998Z</time></trkpt><trkpt lat="57.99654275165276" lon="56.35397331612328"><ele>169.33333333333334</ele><time>2026-05-01T10:14:27.998Z</time></trkpt><trkpt lat="57.996457425274095" lon="56.35395885399212"><ele>169.16666666666669</ele><time>2026-05-01T10:14:30.998Z</time></trkpt><trkpt lat="57.996366949893584" lon="56.3539122810371"><ele>169.0</ele><time>2026-05-01T10:14:32.998Z</time></trkpt><trkpt lat="57.99628032250439" lon="56.35387178431859"><ele>169.0</ele><time>2026-05-01T10:14:34.998Z</time></trkpt><trkpt lat="57.99617900559294" lon="56.35381638437318"><ele>169.0</ele><time>2026-05-01T10:14:36.998Z</time></trkpt><trkpt lat="57.99611620798115" lon="56.35380227610823"><ele>169.0</ele><time>2026-05-01T10:14:37.998Z</time></trkpt><trkpt lat="57.996031449060006" lon="56.35378092106481"><ele>169.0</ele><time>2026-05-01T10:14:38.998Z</time></trkpt><trkpt lat="57.99595264737373" lon="56.35376885280297"><ele>169.0</ele><time>2026-05-01T10:14:39.998Z</time></trkpt><trkpt lat="57.99588163891374" lon="56.35373818506195"><ele>169.0</ele><time>2026-05-01T10:14:40.998Z</time></trkpt><trkpt lat="57.99580363932041" lon="56.35369768029848"><ele>169.33333333333334</ele><time>2026-05-01T10:14:41.998Z</time></trkpt><trkpt lat="57.995739205407524" lon="56.3536674365897"><ele>169.66666666666669</ele><time>2026-05-01T10:14:42.998Z</time></trkpt><trkpt lat="57.99562815346256" lon="56.35361933792992"><ele>170.0</ele><time>2026-05-01T10:14:44.998Z</time></trkpt><trkpt lat="57.99554533579221" lon="56.35358843880674"><ele>170.33333333333334</ele><time>2026-05-01T10:14:46.998Z</time></trkpt><trkpt lat="57.99545941448766" lon="56.353580173924776"><ele>170.66666666666666</ele><time>2026-05-01T10:14:49.998Z</time></trkpt><trkpt lat="57.99537409307589" lon="56.353632663135485"><ele>171.0</ele><time>2026-05-01T10:14:52.998Z</time></trkpt><trkpt lat="57.99530235494437" lon="56.3536951363767"><ele>171.0</ele><time>2026-05-01T10:14:55.998Z</time></trkpt><trkpt lat="57.99523721408047" lon="56.353718099996144"><ele>171.0</ele><time>2026-05-01T10:14:58.998Z</time></trkpt><trkpt lat="57.99520847558348" lon="56.35356931665349"><ele>171.0</ele><time>2026-05-01T10:15:00.998Z</time></trkpt><trkpt lat="57.99517019931109" lon="56.35339526798054"><ele>171.0</ele><time>2026-05-01T10:15:02.998Z</time></trkpt><trkpt lat="57.99511413968673" lon="56.353268729740726"><ele>171.0</ele><time>2026-05-01T10:15:04.998Z</time></trkpt><trkpt lat="57.99508089596746" lon="56.353125878162814"><ele>171.0</ele><time>2026-05-01T10:15:06.998Z</time></trkpt><trkpt lat="57.99503548424727" lon="56.352989617292465"><ele>170.8</ele><time>2026-05-01T10:15:08.998Z</time></trkpt><trkpt lat="57.995003427958956" lon="56.35287105898719"><ele>170.60000000000002</ele><time>2026-05-01T10:15:13Z</time></trkpt><trkpt lat="57.995038395395305" lon="56.352710433124805"><ele>170.4</ele><time>2026-05-01T10:15:16Z</time></trkpt><trkpt lat="57.99507116143492" lon="56.35260261634278"><ele>170.2</ele><time>2026-05-01T10:15:18Z</time></trkpt><trkpt lat="57.99513237700037" lon="56.352379451157184"><ele>170.0</ele><time>2026-05-01T10:15:20Z</time></trkpt><trkpt lat="57.99517181804422" lon="56.35222736740204"><ele>169.6</ele><time>2026-05-01T10:15:21Z</time></trkpt><trkpt lat="57.99520440784009" lon="56.35210612890382"><ele>169.2</ele><time>2026-05-01T10:15:22Z</time></trkpt><trkpt lat="57.99526440724183" lon="56.35187587846697"><ele>168.8</ele><time>2026-05-01T10:15:24Z</time></trkpt><trkpt lat="57.99530877778943" lon="56.35171004679464"><ele>168.4</ele><time>2026-05-01T10:15:25Z</time></trkpt><trkpt lat="57.99535517935155" lon="56.351546979018735"><ele>168.0</ele><time>2026-05-01T10:15:26Z</time></trkpt><trkpt lat="57.995404602870295" lon="56.351373069441756"><ele>167.60000000000002</ele><time>2026-05-01T10:15:27Z</time></trkpt><trkpt lat="57.99545432219522" lon="56.35119435162478"><ele>167.20000000000002</ele><time>2026-05-01T10:15:28Z</time></trkpt><trkpt lat="57.995500998599894" lon="56.3510206207411"><ele>166.8</ele><time>2026-05-01T10:15:29Z</time></trkpt><trkpt lat="57.9955535754363" lon="56.350827073010876"><ele>166.4</ele><time>2026-05-01T10:15:30Z</time></trkpt><trkpt lat="57.9956060864734" lon="56.350637207728454"><ele>166.0</ele><time>2026-05-01T10:15:31Z</time></trkpt><trkpt lat="57.995647992048106" lon="56.350457430139485"><ele>165.5</ele><time>2026-05-01T10:15:32Z</time></trkpt><trkpt lat="57.995675148618" lon="56.35026260808878"><ele>165.0</ele><time>2026-05-01T10:15:33Z</time></trkpt><trkpt lat="57.99570118063018" lon="56.350045962350904"><ele>164.5</ele><time>2026-05-01T10:15:34Z</time></trkpt><trkpt lat="57.9957118284723" lon="56.349836056420784"><ele>164.0</ele><time>2026-05-01T10:15:34.999Z</time></trkpt><trkpt lat="57.995728422658665" lon="56.34957861407884"><ele>163.0</ele><time>2026-05-01T10:15:35.999Z</time></trkpt><trkpt lat="57.995743571695726" lon="56.349285200703925"><ele>162.0</ele><time>2026-05-01T10:15:36.999Z</time></trkpt><trkpt lat="57.9957661671881" lon="56.34904962338167"><ele>161.0</ele><time>2026-05-01T10:15:37.999Z</time></trkpt><trkpt lat="57.99577887082809" lon="56.34884791677916"><ele>160.0</ele><time>2026-05-01T10:15:38.999Z</time></trkpt><trkpt lat="57.995796320573206" lon="56.348651385556686"><ele>159.75</ele><time>2026-05-01T10:15:39.999Z</time></trkpt><trkpt lat="57.99581578865801" lon="56.3484488243959"><ele>159.5</ele><time>2026-05-01T10:15:40.999Z</time></trkpt><trkpt lat="57.99582729643315" lon="56.348254977811436"><ele>159.25</ele><time>2026-05-01T10:15:41.999Z</time></trkpt><trkpt lat="57.99584488805002" lon="56.34802822444657"><ele>159.0</ele><time>2026-05-01T10:15:42.999Z</time></trkpt><trkpt lat="57.99586797526671" lon="56.347795114878735"><ele>159.5</ele><time>2026-05-01T10:15:43.999Z</time></trkpt><trkpt lat="57.99590001075095" lon="56.34757661870409"><ele>160.0</ele><time>2026-05-01T10:15:44.999Z</time></trkpt><trkpt lat="57.9959363265323" lon="56.34731442956736"><ele>160.5</ele><time>2026-05-01T10:15:45.999Z</time></trkpt><trkpt lat="57.99596916477689" lon="56.347039840715816"><ele>161.0</ele><time>2026-05-01T10:15:46.999Z</time></trkpt><trkpt lat="57.995995020995956" lon="56.346783433306314"><ele>161.0</ele><time>2026-05-01T10:15:47.999Z</time></trkpt><trkpt lat="57.99602818785909" lon="56.34655330825028"><ele>161.0</ele><time>2026-05-01T10:15:48.999Z</time></trkpt><trkpt lat="57.99606064712629" lon="56.346362592256"><ele>161.0</ele><time>2026-05-01T10:15:49.999Z</time></trkpt><trkpt lat="57.99608588700105" lon="56.34619569719091"><ele>161.0</ele><time>2026-05-01T10:15:50.999Z</time></trkpt><trkpt lat="57.99611136747494" lon="56.34600886463125"><ele>161.0</ele><time>2026-05-01T10:15:51.999Z</time></trkpt><trkpt lat="57.99613942207363" lon="56.3457740997769"><ele>160.0</ele><time>2026-05-01T10:15:52.999Z</time></trkpt><trkpt lat="57.99616804636059" lon="56.34555587692204"><ele>159.0</ele><time>2026-05-01T10:15:53.999Z</time></trkpt><trkpt lat="57.99620998734468" lon="56.34531013609042"><ele>158.0</ele><time>2026-05-01T10:15:54.999Z</time></trkpt><trkpt lat="57.996242389943085" lon="56.34505065531779"><ele>157.0</ele><time>2026-05-01T10:15:55.999Z</time></trkpt><trkpt lat="57.99624447853784" lon="56.34483444793383"><ele>157.0</ele><time>2026-05-01T10:15:56.999Z</time></trkpt><trkpt lat="57.99625762671248" lon="56.34464569456829"><ele>157.0</ele><time>2026-05-01T10:15:57.999Z</time></trkpt><trkpt lat="57.996271202664516" lon="56.34448097141574"><ele>157.0</ele><time>2026-05-01T10:15:58.999Z</time></trkpt><trkpt lat="57.996263590067905" lon="56.34427805341665"><ele>157.0</ele><time>2026-05-01T10:15:59.999Z</time></trkpt><trkpt lat="57.99627624591306" lon="56.34407197788574"><ele>157.0</ele><time>2026-05-01T10:16:00.999Z</time></trkpt><trkpt lat="57.99626834374815" lon="56.34391669100969"><ele>157.2</ele><time>2026-05-01T10:16:01.999Z</time></trkpt><trkpt lat="57.9961939575481" lon="56.34380047359011"><ele>157.39999999999998</ele><time>2026-05-01T10:16:02.999Z</time></trkpt><trkpt lat="57.99614515502065" lon="56.34364676942866"><ele>157.60000000000002</ele><time>2026-05-01T10:16:03.999Z</time></trkpt><trkpt lat="57.99608323270119" lon="56.34348428871556"><ele>157.8</ele><time>2026-05-01T10:16:04.999Z</time></trkpt><trkpt lat="57.99601415047591" lon="56.34333505208443"><ele>158.0</ele><time>2026-05-01T10:16:05.999Z</time></trkpt><trkpt lat="57.995942184518064" lon="56.34318045278955"><ele>158.20000000000002</ele><time>2026-05-01T10:16:06.999Z</time></trkpt><trkpt lat="57.99588254703883" lon="56.34303086720354"><ele>158.4</ele><time>2026-05-01T10:16:07.999Z</time></trkpt><trkpt lat="57.99583090731012" lon="56.34287269578191"><ele>158.60000000000002</ele><time>2026-05-01T10:16:08.999Z</time></trkpt><trkpt lat="57.995764150007425" lon="56.34272128978332"><ele>158.8</ele><time>2026-05-01T10:16:09.999Z</time></trkpt><trkpt lat="57.995694234658785" lon="56.34255443587591"><ele>159.0</ele><time>2026-05-01T10:16:10.999Z</time></trkpt><trkpt lat="57.995631255887616" lon="56.342400990642126"><ele>159.2</ele><time>2026-05-01T10:16:11.999Z</time></trkpt><trkpt lat="57.995574342420795" lon="56.34226263554193"><ele>159.4</ele><time>2026-05-01T10:16:12.999Z</time></trkpt><trkpt lat="57.99551259382804" lon="56.342104489972556"><ele>159.6</ele><time>2026-05-01T10:16:13.999Z</time></trkpt><trkpt lat="57.995438004031676" lon="56.34193440590562"><ele>159.8</ele><time>2026-05-01T10:16:14.999Z</time></trkpt><trkpt lat="57.99537108234098" lon="56.34178419170251"><ele>160.0</ele><time>2026-05-01T10:16:15.999Z</time></trkpt><trkpt lat="57.99531534952856" lon="56.34164210872978"><ele>160.4</ele><time>2026-05-01T10:16:16.999Z</time></trkpt><trkpt lat="57.99524928261379" lon="56.34145116466704"><ele>160.8</ele><time>2026-05-01T10:16:17.999Z</time></trkpt><trkpt lat="57.99518022779167" lon="56.34127471694566"><ele>161.2</ele><time>2026-05-01T10:16:18.999Z</time></trkpt><trkpt lat="57.99511667795125" lon="56.341107073753165"><ele>161.6</ele><time>2026-05-01T10:16:19.999Z</time></trkpt><trkpt lat="57.995067420266416" lon="56.340942198160064"><ele>162.0</ele><time>2026-05-01T10:16:20.999Z</time></trkpt><trkpt lat="57.995018385127175" lon="56.34078333690539"><ele>162.2</ele><time>2026-05-01T10:16:21.999Z</time></trkpt><trkpt lat="57.99496992588777" lon="56.34058873435275"><ele>162.39999999999998</ele><time>2026-05-01T10:16:22.999Z</time></trkpt><trkpt lat="57.99492025270266" lon="56.340402784276364"><ele>162.60000000000002</ele><time>2026-05-01T10:16:23.999Z</time></trkpt><trkpt lat="57.99489581145256" lon="56.34023425191572"><ele>162.8</ele><time>2026-05-01T10:16:24.999Z</time></trkpt><trkpt lat="57.994856201001056" lon="56.3400460218935"><ele>163.0</ele><time>2026-05-01T10:16:25.999Z</time></trkpt><trkpt lat="57.99486028109402" lon="56.33985161792434"><ele>164.0</ele><time>2026-05-01T10:16:26.999Z</time></trkpt><trkpt lat="57.99486122753946" lon="56.33966192261109"><ele>165.0</ele><time>2026-05-01T10:16:27.998Z</time></trkpt><trkpt lat="57.99486212039822" lon="56.339482968409285"><ele>166.0</ele><time>2026-05-01T10:16:28.998Z</time></trkpt><trkpt lat="57.99486310803225" lon="56.339270439766224"><ele>167.0</ele><time>2026-05-01T10:16:29.998Z</time></trkpt><trkpt lat="57.99486408865954" lon="56.33903805786967"><ele>168.0</ele><time>2026-05-01T10:16:30.998Z</time></trkpt><trkpt lat="57.994865325291464" lon="56.33874500998986"><ele>168.5</ele><time>2026-05-01T10:16:31.998Z</time></trkpt><trkpt lat="57.99486435680868" lon="56.33843642453226"><ele>169.0</ele><time>2026-05-01T10:16:32.998Z</time></trkpt><trkpt lat="57.994858058666566" lon="56.338196476954245"><ele>169.5</ele><time>2026-05-01T10:16:33.998Z</time></trkpt><trkpt lat="57.99484071677196" lon="56.338021287668724"><ele>170.0</ele><time>2026-05-01T10:16:34.998Z</time></trkpt><trkpt lat="57.99484209596688" lon="56.33788174993939"><ele>170.0</ele><time>2026-05-01T10:16:35.998Z</time></trkpt><trkpt lat="57.99484473828435" lon="56.337692960948665"><ele>170.0</ele><time>2026-05-01T10:16:37.998Z</time></trkpt><trkpt lat="57.99487625057588" lon="56.33753124290393"><ele>170.0</ele><time>2026-05-01T10:16:39.998Z</time></trkpt><trkpt lat="57.99496634667818" lon="56.33751457402354"><ele>170.0</ele><time>2026-05-01T10:16:41.998Z</time></trkpt><trkpt lat="57.995060041530934" lon="56.3374705161159"><ele>170.0</ele><time>2026-05-01T10:16:43.998Z</time></trkpt><trkpt lat="57.99520848287282" lon="56.33745515599871"><ele>169.8</ele><time>2026-05-01T10:16:44.998Z</time></trkpt><trkpt lat="57.99534466796664" lon="56.33743548348172"><ele>169.6</ele><time>2026-05-01T10:16:45.998Z</time></trkpt><trkpt lat="57.995462185053256" lon="56.33742361260048"><ele>169.39999999999998</ele><time>2026-05-01T10:16:46.998Z</time></trkpt><trkpt lat="57.99556264602652" lon="56.33740513786211"><ele>169.2</ele><time>2026-05-01T10:16:47.998Z</time></trkpt><trkpt lat="57.99564083411301" lon="56.33737704855766"><ele>169.0</ele><time>2026-05-01T10:16:48.998Z</time></trkpt><trkpt lat="57.99573610326321" lon="56.3373570495039"><ele>169.0</ele><time>2026-05-01T10:16:49.998Z</time></trkpt><trkpt lat="57.99582596606476" lon="56.337344644491914"><ele>169.0</ele><time>2026-05-01T10:16:50.998Z</time></trkpt><trkpt lat="57.99588742666803" lon="56.3374553476677"><ele>169.0</ele><time>2026-05-01T10:16:53.998Z</time></trkpt><trkpt lat="57.99590057073165" lon="56.33761602618223"><ele>169.0</ele><time>2026-05-01T10:16:55.998Z</time></trkpt><trkpt lat="57.99590941953426" lon="56.33774844501973"><ele>169.0</ele><time>2026-05-01T10:16:57.998Z</time></trkpt><trkpt lat="57.99592056224958" lon="56.33793834553424"><ele>169.0</ele><time>2026-05-01T10:16:59.998Z</time></trkpt><trkpt lat="57.99593897359431" lon="56.338124275525196"><ele>167.0</ele><time>2026-05-01T10:17:01.998Z</time></trkpt><trkpt lat="57.995968797545984" lon="56.33831403552273"><ele>167.0</ele><time>2026-05-01T10:17:03.998Z</time></trkpt><trkpt lat="57.99599057392952" lon="56.33846719677981"><ele>167.0</ele><time>2026-05-01T10:17:06.998Z</time></trkpt><trkpt lat="57.99602431696491" lon="56.33860386225558"><ele>167.0</ele><time>2026-05-01T10:17:10.998Z</time></trkpt><trkpt lat="57.99607285163492" lon="56.33852602729564"><ele>167.0</ele><time>2026-05-01T10:17:19Z</time></trkpt></trkseg></trk></gpx>